<?xml version='1.0' encoding='UTF-8'?><gpx version="1.1" creator="JPX - https://github.com/jenetics/jpx" xmlns="http://www.topografix.com/GPX/1/1"><trk><trkseg><trkpt lat="43.4372886" lon="13.6150952"><ele>70.0</ele><time>2026-04-11T14:54:09.747Z</time></trkpt><trkpt lat="43.4373455" lon="13.6151516"><ele>70.0</ele><time>2026-04-11T15:03:22.756Z</time></trkpt><trkpt lat="43.4374186" lon="13.6152755"><ele>70.0</ele><time>2026-04-11T15:03:26.747Z</time></trkpt><trkpt lat="43.4374971" lon="13.6153798"><ele>70.0</ele><time>2026-04-11T15:03:28.745Z</time></trkpt><trkpt lat="43.437587" lon="13.6153726"><ele>70.0</ele><time>2026-04-11T15:03:30.748Z</time></trkpt><trkpt lat="43.4376281" lon="13.6152454"><ele>70.0</ele><time>2026-04-11T15:03:32.75Z</time></trkpt><trkpt lat="43.4376194" lon="13.6151444"><ele>70.0</ele><time>2026-04-11T15:03:33.747Z</time></trkpt><trkpt lat="43.4376148" lon="13.6150344"><ele>70.0</ele><time>2026-04-11T15:03:34.746Z</time></trkpt><trkpt lat="43.4376138" lon="13.6149229"><ele>70.0</ele><time>2026-04-11T15:03:35.746Z</time></trkpt><trkpt lat="43.4376145" lon="13.6148039"><ele>70.0</ele><time>2026-04-11T15:03:36.748Z</time></trkpt><trkpt lat="43.4376257" lon="13.6146934"><ele>70.0</ele><time>2026-04-11T15:03:37.749Z</time></trkpt><trkpt lat="43.4376326" lon="13.6145725"><ele>70.6</ele><time>2026-04-11T15:03:38.749Z</time></trkpt><trkpt lat="43.4376431" lon="13.6144482"><ele>71.2</ele><time>2026-04-11T15:03:39.753Z</time></trkpt><trkpt lat="43.4376461" lon="13.6143192"><ele>71.8</ele><time>2026-04-11T15:03:40.748Z</time></trkpt><trkpt lat="43.4376483" lon="13.6141884"><ele>72.4</ele><time>2026-04-11T15:03:41.746Z</time></trkpt><trkpt lat="43.4376504" lon="13.6140546"><ele>73.0</ele><time>2026-04-11T15:03:42.745Z</time></trkpt><trkpt lat="43.4376568" lon="13.6139159"><ele>73.0</ele><time>2026-04-11T15:03:43.745Z</time></trkpt><trkpt lat="43.4376609" lon="13.6137755"><ele>73.0</ele><time>2026-04-11T15:03:44.748Z</time></trkpt><trkpt lat="43.4376642" lon="13.6136313"><ele>73.0</ele><time>2026-04-11T15:03:45.748Z</time></trkpt><trkpt lat="43.4376659" lon="13.6134879"><ele>73.0</ele><time>2026-04-11T15:03:46.749Z</time></trkpt><trkpt lat="43.4376763" lon="13.6133489"><ele>73.0</ele><time>2026-04-11T15:03:47.748Z</time></trkpt><trkpt lat="43.4376734" lon="13.613214"><ele>73.4</ele><time>2026-04-11T15:03:48.75Z</time></trkpt><trkpt lat="43.4376751" lon="13.6130938"><ele>73.8</ele><time>2026-04-11T15:03:49.747Z</time></trkpt><trkpt lat="43.4377393" lon="13.6129854"><ele>74.2</ele><time>2026-04-11T15:03:51.75Z</time></trkpt><trkpt lat="43.4378617" lon="13.6129332"><ele>74.6</ele><time>2026-04-11T15:03:53.747Z</time></trkpt><trkpt lat="43.4379376" lon="13.6129261"><ele>75.0</ele><time>2026-04-11T15:03:54.749Z</time></trkpt><trkpt lat="43.4380174" lon="13.6129156"><ele>75.0</ele><time>2026-04-11T15:03:55.746Z</time></trkpt><trkpt lat="43.4380854" lon="13.6129064"><ele>75.0</ele><time>2026-04-11T15:03:56.745Z</time></trkpt><trkpt lat="43.4381479" lon="13.6128915"><ele>75.0</ele><time>2026-04-11T15:03:57.747Z</time></trkpt><trkpt lat="43.4382221" lon="13.6128954"><ele>75.0</ele><time>2026-04-11T15:03:59.747Z</time></trkpt><trkpt lat="43.4382818" lon="13.6128015"><ele>75.0</ele><time>2026-04-11T15:04:38.749Z</time></trkpt><trkpt lat="43.4383747" lon="13.6128095"><ele>75.0</ele><time>2026-04-11T15:04:39.745Z</time></trkpt><trkpt lat="43.4384383" lon="13.6128228"><ele>75.66666666666667</ele><time>2026-04-11T15:04:40.747Z</time></trkpt><trkpt lat="43.438507" lon="13.6128147"><ele>76.33333333333333</ele><time>2026-04-11T15:04:41.753Z</time></trkpt><trkpt lat="43.4385942" lon="13.6128066"><ele>77.0</ele><time>2026-04-11T15:04:42.752Z</time></trkpt><trkpt lat="43.4386618" lon="13.612795"><ele>77.66666666666666</ele><time>2026-04-11T15:04:43.752Z</time></trkpt><trkpt lat="43.4387369" lon="13.612763"><ele>78.33333333333333</ele><time>2026-04-11T15:04:45.746Z</time></trkpt><trkpt lat="43.4387701" lon="13.6126194"><ele>79.0</ele><time>2026-04-11T15:04:55.75Z</time></trkpt><trkpt lat="43.4387188" lon="13.6124832"><ele>79.0</ele><time>2026-04-11T15:04:57.75Z</time></trkpt><trkpt lat="43.438654" lon="13.6124671"><ele>79.0</ele><time>2026-04-11T15:04:58.746Z</time></trkpt><trkpt lat="43.4385808" lon="13.6124612"><ele>79.0</ele><time>2026-04-11T15:04:59.745Z</time></trkpt><trkpt lat="43.4385057" lon="13.6124575"><ele>79.0</ele><time>2026-04-11T15:05:00.747Z</time></trkpt><trkpt lat="43.4384201" lon="13.6124588"><ele>79.0</ele><time>2026-04-11T15:05:01.748Z</time></trkpt><trkpt lat="43.4383339" lon="13.6124558"><ele>79.0</ele><time>2026-04-11T15:05:02.743Z</time></trkpt><trkpt lat="43.4382452" lon="13.6124554"><ele>79.0</ele><time>2026-04-11T15:05:03.745Z</time></trkpt><trkpt lat="43.4381585" lon="13.6124554"><ele>79.0</ele><time>2026-04-11T15:05:04.748Z</time></trkpt><trkpt lat="43.4380729" lon="13.6124562"><ele>79.0</ele><time>2026-04-11T15:05:05.744Z</time></trkpt><trkpt lat="43.4379977" lon="13.6124569"><ele>79.0</ele><time>2026-04-11T15:05:06.747Z</time></trkpt><trkpt lat="43.4379317" lon="13.6124571"><ele>79.0</ele><time>2026-04-11T15:05:07.748Z</time></trkpt><trkpt lat="43.4378197" lon="13.6124602"><ele>79.0</ele><time>2026-04-11T15:05:09.752Z</time></trkpt><trkpt lat="43.4377474" lon="13.6125101"><ele>78.60000000000001</ele><time>2026-04-11T15:05:11.747Z</time></trkpt><trkpt lat="43.437707" lon="13.6126636"><ele>78.2</ele><time>2026-04-11T15:05:13.75Z</time></trkpt><trkpt lat="43.4376413" lon="13.6127905"><ele>77.80000000000001</ele><time>2026-04-11T15:05:15.749Z</time></trkpt><trkpt lat="43.4375714" lon="13.6129151"><ele>77.4</ele><time>2026-04-11T15:05:17.745Z</time></trkpt><trkpt lat="43.437551" lon="13.6129988"><ele>77.0</ele><time>2026-04-11T15:05:18.743Z</time></trkpt><trkpt lat="43.4375182" lon="13.6131558"><ele>77.0</ele><time>2026-04-11T15:05:20.746Z</time></trkpt><trkpt lat="43.4374561" lon="13.6132759"><ele>77.0</ele><time>2026-04-11T15:05:22.749Z</time></trkpt><trkpt lat="43.4373941" lon="13.6133133"><ele>77.0</ele><time>2026-04-11T15:05:23.749Z</time></trkpt><trkpt lat="43.4372879" lon="13.6133726"><ele>77.0</ele><time>2026-04-11T15:05:25.746Z</time></trkpt><trkpt lat="43.4372291" lon="13.6134136"><ele>77.0</ele><time>2026-04-11T15:05:26.747Z</time></trkpt><trkpt lat="43.4371685" lon="13.6134555"><ele>77.0</ele><time>2026-04-11T15:05:27.758Z</time></trkpt><trkpt lat="43.4371095" lon="13.6135054"><ele>78.0</ele><time>2026-04-11T15:05:28.754Z</time></trkpt><trkpt lat="43.4370547" lon="13.6135686"><ele>79.0</ele><time>2026-04-11T15:05:29.748Z</time></trkpt><trkpt lat="43.437009" lon="13.6136472"><ele>80.0</ele><time>2026-04-11T15:05:30.752Z</time></trkpt><trkpt lat="43.436965" lon="13.613739"><ele>81.0</ele><time>2026-04-11T15:05:31.745Z</time></trkpt><trkpt lat="43.4369182" lon="13.6138364"><ele>82.0</ele><time>2026-04-11T15:05:32.752Z</time></trkpt><trkpt lat="43.436867" lon="13.6139356"><ele>83.0</ele><time>2026-04-11T15:05:33.745Z</time></trkpt><trkpt lat="43.4368146" lon="13.6140361"><ele>83.0</ele><time>2026-04-11T15:05:34.745Z</time></trkpt><trkpt lat="43.4367621" lon="13.6141352"><ele>83.0</ele><time>2026-04-11T15:05:35.748Z</time></trkpt><trkpt lat="43.4367141" lon="13.6142267"><ele>83.0</ele><time>2026-04-11T15:05:36.747Z</time></trkpt><trkpt lat="43.4366716" lon="13.6143086"><ele>83.0</ele><time>2026-04-11T15:05:37.744Z</time></trkpt><trkpt lat="43.4366333" lon="13.6143808"><ele>83.0</ele><time>2026-04-11T15:05:38.756Z</time></trkpt><trkpt lat="43.4365562" lon="13.6144865"><ele>83.0</ele><time>2026-04-11T15:05:40.745Z</time></trkpt><trkpt lat="43.4364887" lon="13.6145389"><ele>82.2</ele><time>2026-04-11T15:05:42.748Z</time></trkpt><trkpt lat="43.4364233" lon="13.6146158"><ele>81.4</ele><time>2026-04-11T15:05:45.747Z</time></trkpt><trkpt lat="43.4363785" lon="13.6147147"><ele>80.60000000000001</ele><time>2026-04-11T15:05:47.746Z</time></trkpt><trkpt lat="43.4362852" lon="13.6146909"><ele>79.80000000000001</ele><time>2026-04-11T15:05:49.753Z</time></trkpt><trkpt lat="43.4361817" lon="13.6146059"><ele>79.0</ele><time>2026-04-11T15:05:51.753Z</time></trkpt><trkpt lat="43.4361201" lon="13.614551"><ele>80.80000000000001</ele><time>2026-04-11T15:05:52.746Z</time></trkpt><trkpt lat="43.4360453" lon="13.6144872"><ele>82.60000000000001</ele><time>2026-04-11T15:05:53.749Z</time></trkpt><trkpt lat="43.4359631" lon="13.614422"><ele>84.4</ele><time>2026-04-11T15:05:54.745Z</time></trkpt><trkpt lat="43.4358888" lon="13.6143448"><ele>86.2</ele><time>2026-04-11T15:05:55.745Z</time></trkpt><trkpt lat="43.4357948" lon="13.6142731"><ele>88.0</ele><time>2026-04-11T15:05:56.747Z</time></trkpt><trkpt lat="43.4356958" lon="13.6142016"><ele>88.0</ele><time>2026-04-11T15:05:57.751Z</time></trkpt><trkpt lat="43.4355845" lon="13.6141387"><ele>88.0</ele><time>2026-04-11T15:05:58.765Z</time></trkpt><trkpt lat="43.4354805" lon="13.6140694"><ele>88.0</ele><time>2026-04-11T15:05:59.753Z</time></trkpt><trkpt lat="43.4353775" lon="13.613975"><ele>88.0</ele><time>2026-04-11T15:06:00.746Z</time></trkpt><trkpt lat="43.435277" lon="13.6138678"><ele>86.0</ele><time>2026-04-11T15:06:01.745Z</time></trkpt><trkpt lat="43.4351819" lon="13.6137431"><ele>84.0</ele><time>2026-04-11T15:06:02.746Z</time></trkpt><trkpt lat="43.4350968" lon="13.6136055"><ele>82.0</ele><time>2026-04-11T15:06:03.746Z</time></trkpt><trkpt lat="43.4350133" lon="13.613456"><ele>80.0</ele><time>2026-04-11T15:06:04.747Z</time></trkpt><trkpt lat="43.4349278" lon="13.6133042"><ele>80.0</ele><time>2026-04-11T15:06:05.749Z</time></trkpt><trkpt lat="43.4348192" lon="13.6131797"><ele>80.0</ele><time>2026-04-11T15:06:06.745Z</time></trkpt><trkpt lat="43.4346974" lon="13.6130411"><ele>80.0</ele><time>2026-04-11T15:06:07.752Z</time></trkpt><trkpt lat="43.4345895" lon="13.612906"><ele>80.0</ele><time>2026-04-11T15:06:08.746Z</time></trkpt><trkpt lat="43.4344631" lon="13.6127714"><ele>78.0</ele><time>2026-04-11T15:06:09.746Z</time></trkpt><trkpt lat="43.4343308" lon="13.6126343"><ele>76.0</ele><time>2026-04-11T15:06:10.749Z</time></trkpt><trkpt lat="43.4341957" lon="13.612499"><ele>74.0</ele><time>2026-04-11T15:06:11.75Z</time></trkpt><trkpt lat="43.4340581" lon="13.6123631"><ele>74.0</ele><time>2026-04-11T15:06:12.748Z</time></trkpt><trkpt lat="43.4339181" lon="13.6122295"><ele>74.0</ele><time>2026-04-11T15:06:13.747Z</time></trkpt><trkpt lat="43.4337868" lon="13.6121001"><ele>74.0</ele><time>2026-04-11T15:06:14.748Z</time></trkpt><trkpt lat="43.4336848" lon="13.6119923"><ele>73.66666666666667</ele><time>2026-04-11T15:06:15.744Z</time></trkpt><trkpt lat="43.4336151" lon="13.611897"><ele>73.33333333333334</ele><time>2026-04-11T15:06:16.749Z</time></trkpt><trkpt lat="43.4335721" lon="13.6117982"><ele>73.0</ele><time>2026-04-11T15:06:17.747Z</time></trkpt><trkpt lat="43.4335624" lon="13.6117039"><ele>72.66666666666667</ele><time>2026-04-11T15:06:18.751Z</time></trkpt><trkpt lat="43.4335828" lon="13.6116102"><ele>72.33333333333333</ele><time>2026-04-11T15:06:19.753Z</time></trkpt><trkpt lat="43.4336178" lon="13.6115177"><ele>72.0</ele><time>2026-04-11T15:06:20.747Z</time></trkpt><trkpt lat="43.4336662" lon="13.6114198"><ele>72.0</ele><time>2026-04-11T15:06:21.745Z</time></trkpt><trkpt lat="43.433726" lon="13.6113163"><ele>72.0</ele><time>2026-04-11T15:06:22.747Z</time></trkpt><trkpt lat="43.4337961" lon="13.611212"><ele>72.0</ele><time>2026-04-11T15:06:23.751Z</time></trkpt><trkpt lat="43.433866" lon="13.6111054"><ele>72.0</ele><time>2026-04-11T15:06:24.746Z</time></trkpt><trkpt lat="43.4339499" lon="13.6109894"><ele>72.0</ele><time>2026-04-11T15:06:25.746Z</time></trkpt><trkpt lat="43.4340275" lon="13.6108633"><ele>73.8</ele><time>2026-04-11T15:06:26.747Z</time></trkpt><trkpt lat="43.4340892" lon="13.6107409"><ele>75.6</ele><time>2026-04-11T15:06:27.745Z</time></trkpt><trkpt lat="43.4340719" lon="13.6105803"><ele>77.39999999999999</ele><time>2026-04-11T15:06:28.748Z</time></trkpt><trkpt lat="43.4340817" lon="13.610428"><ele>79.2</ele><time>2026-04-11T15:06:29.745Z</time></trkpt><trkpt lat="43.4340807" lon="13.6102788"><ele>81.0</ele><time>2026-04-11T15:06:30.747Z</time></trkpt><trkpt lat="43.4340535" lon="13.6101231"><ele>82.0</ele><time>2026-04-11T15:06:31.746Z</time></trkpt><trkpt lat="43.4340337" lon="13.6099773"><ele>83.0</ele><time>2026-04-11T15:06:32.749Z</time></trkpt><trkpt lat="43.4340196" lon="13.6098515"><ele>84.0</ele><time>2026-04-11T15:06:33.75Z</time></trkpt><trkpt lat="43.4340136" lon="13.6097535"><ele>85.0</ele><time>2026-04-11T15:06:34.748Z</time></trkpt><trkpt lat="43.43401" lon="13.609664"><ele>86.0</ele><time>2026-04-11T15:06:35.744Z</time></trkpt><trkpt lat="43.4340017" lon="13.6095676"><ele>87.0</ele><time>2026-04-11T15:06:36.748Z</time></trkpt><trkpt lat="43.4339796" lon="13.609465"><ele>86.5</ele><time>2026-04-11T15:06:37.748Z</time></trkpt><trkpt lat="43.4339438" lon="13.6093603"><ele>86.0</ele><time>2026-04-11T15:06:38.746Z</time></trkpt><trkpt lat="43.433907" lon="13.6092642"><ele>85.5</ele><time>2026-04-11T15:06:39.751Z</time></trkpt><trkpt lat="43.4338773" lon="13.609181"><ele>85.0</ele><time>2026-04-11T15:06:40.747Z</time></trkpt><trkpt lat="43.4338221" lon="13.6090196"><ele>84.5</ele><time>2026-04-11T15:06:42.748Z</time></trkpt><trkpt lat="43.4337873" lon="13.6089126"><ele>84.0</ele><time>2026-04-11T15:06:43.746Z</time></trkpt><trkpt lat="43.4337503" lon="13.6087911"><ele>86.0</ele><time>2026-04-11T15:06:44.749Z</time></trkpt><trkpt lat="43.4337079" lon="13.6086486"><ele>88.0</ele><time>2026-04-11T15:06:45.747Z</time></trkpt><trkpt lat="43.4336489" lon="13.6085018"><ele>90.0</ele><time>2026-04-11T15:06:46.747Z</time></trkpt><trkpt lat="43.433571" lon="13.6083788"><ele>92.0</ele><time>2026-04-11T15:06:47.746Z</time></trkpt><trkpt lat="43.4334726" lon="13.608268"><ele>92.0</ele><time>2026-04-11T15:06:48.746Z</time></trkpt><trkpt lat="43.433362" lon="13.6081712"><ele>92.0</ele><time>2026-04-11T15:06:49.745Z</time></trkpt><trkpt lat="43.4332419" lon="13.6080833"><ele>92.0</ele><time>2026-04-11T15:06:50.745Z</time></trkpt><trkpt lat="43.4331167" lon="13.6079953"><ele>92.0</ele><time>2026-04-11T15:06:51.746Z</time></trkpt><trkpt lat="43.4329895" lon="13.6079081"><ele>95.0</ele><time>2026-04-11T15:06:52.746Z</time></trkpt><trkpt lat="43.4328626" lon="13.6078227"><ele>98.0</ele><time>2026-04-11T15:06:53.752Z</time></trkpt><trkpt lat="43.4327336" lon="13.6077398"><ele>101.0</ele><time>2026-04-11T15:06:54.749Z</time></trkpt><trkpt lat="43.4326102" lon="13.6076612"><ele>104.0</ele><time>2026-04-11T15:06:55.747Z</time></trkpt><trkpt lat="43.4324999" lon="13.6075917"><ele>104.0</ele><time>2026-04-11T15:06:56.745Z</time></trkpt><trkpt lat="43.4324117" lon="13.6075335"><ele>104.0</ele><time>2026-04-11T15:06:57.745Z</time></trkpt><trkpt lat="43.4323515" lon="13.6074941"><ele>104.0</ele><time>2026-04-11T15:06:58.747Z</time></trkpt><trkpt lat="43.4322546" lon="13.6075063"><ele>104.0</ele><time>2026-04-11T15:07:01.749Z</time></trkpt><trkpt lat="43.4321715" lon="13.607636"><ele>104.0</ele><time>2026-04-11T15:07:03.746Z</time></trkpt><trkpt lat="43.4321324" lon="13.6077375"><ele>106.6</ele><time>2026-04-11T15:07:04.746Z</time></trkpt><trkpt lat="43.4320952" lon="13.6078425"><ele>109.2</ele><time>2026-04-11T15:07:05.747Z</time></trkpt><trkpt lat="43.4320535" lon="13.6079528"><ele>111.79999999999998</ele><time>2026-04-11T15:07:06.751Z</time></trkpt><trkpt lat="43.432009" lon="13.6080729"><ele>114.39999999999999</ele><time>2026-04-11T15:07:07.75Z</time></trkpt><trkpt lat="43.4319571" lon="13.6081974"><ele>117.0</ele><time>2026-04-11T15:07:08.748Z</time></trkpt><trkpt lat="43.4319061" lon="13.6083243"><ele>117.0</ele><time>2026-04-11T15:07:09.754Z</time></trkpt><trkpt lat="43.4318557" lon="13.6084494"><ele>116.99999999999999</ele><time>2026-04-11T15:07:10.745Z</time></trkpt><trkpt lat="43.4318113" lon="13.6085651"><ele>116.99999999999999</ele><time>2026-04-11T15:07:11.746Z</time></trkpt><trkpt lat="43.4317639" lon="13.6086775"><ele>117.0</ele><time>2026-04-11T15:07:12.749Z</time></trkpt><trkpt lat="43.4317174" lon="13.6087853"><ele>117.0</ele><time>2026-04-11T15:07:13.75Z</time></trkpt><trkpt lat="43.4316715" lon="13.6088928"><ele>116.19999999999999</ele><time>2026-04-11T15:07:14.75Z</time></trkpt><trkpt lat="43.4316274" lon="13.6090012"><ele>115.39999999999999</ele><time>2026-04-11T15:07:15.75Z</time></trkpt><trkpt lat="43.4315809" lon="13.6091094"><ele>114.60000000000001</ele><time>2026-04-11T15:07:16.751Z</time></trkpt><trkpt lat="43.4315311" lon="13.6092237"><ele>113.80000000000001</ele><time>2026-04-11T15:07:17.745Z</time></trkpt><trkpt lat="43.4314809" lon="13.6093376"><ele>113.0</ele><time>2026-04-11T15:07:18.745Z</time></trkpt><trkpt lat="43.4314297" lon="13.609452"><ele>112.2</ele><time>2026-04-11T15:07:19.745Z</time></trkpt><trkpt lat="43.4313749" lon="13.6095687"><ele>111.4</ele><time>2026-04-11T15:07:20.749Z</time></trkpt><trkpt lat="43.4313151" lon="13.6096884"><ele>110.60000000000001</ele><time>2026-04-11T15:07:21.75Z</time></trkpt><trkpt lat="43.431257" lon="13.6098073"><ele>109.80000000000001</ele><time>2026-04-11T15:07:22.749Z</time></trkpt><trkpt lat="43.4311934" lon="13.6099342"><ele>109.0</ele><time>2026-04-11T15:07:23.748Z</time></trkpt><trkpt lat="43.4311292" lon="13.6100528"><ele>110.6</ele><time>2026-04-11T15:07:24.745Z</time></trkpt><trkpt lat="43.4310623" lon="13.6101721"><ele>112.2</ele><time>2026-04-11T15:07:25.748Z</time></trkpt><trkpt lat="43.4309953" lon="13.6102999"><ele>113.79999999999998</ele><time>2026-04-11T15:07:26.748Z</time></trkpt><trkpt lat="43.4309299" lon="13.6104197"><ele>115.39999999999999</ele><time>2026-04-11T15:07:27.747Z</time></trkpt><trkpt lat="43.4308655" lon="13.6105455"><ele>117.0</ele><time>2026-04-11T15:07:28.747Z</time></trkpt><trkpt lat="43.4308015" lon="13.6106665"><ele>117.0</ele><time>2026-04-11T15:07:29.752Z</time></trkpt><trkpt lat="43.4307397" lon="13.6107854"><ele>117.0</ele><time>2026-04-11T15:07:30.747Z</time></trkpt><trkpt lat="43.4306788" lon="13.6109102"><ele>117.0</ele><time>2026-04-11T15:07:31.746Z</time></trkpt><trkpt lat="43.4306118" lon="13.6110402"><ele>117.0</ele><time>2026-04-11T15:07:32.746Z</time></trkpt><trkpt lat="43.4305418" lon="13.6111723"><ele>118.75</ele><time>2026-04-11T15:07:33.748Z</time></trkpt><trkpt lat="43.4304712" lon="13.6113086"><ele>120.5</ele><time>2026-04-11T15:07:34.75Z</time></trkpt><trkpt lat="43.4304027" lon="13.6114469"><ele>122.25</ele><time>2026-04-11T15:07:35.747Z</time></trkpt><trkpt lat="43.430339" lon="13.6115804"><ele>124.0</ele><time>2026-04-11T15:07:36.747Z</time></trkpt><trkpt lat="43.430277" lon="13.6117083"><ele>124.0</ele><time>2026-04-11T15:07:37.744Z</time></trkpt><trkpt lat="43.4302147" lon="13.6118333"><ele>124.0</ele><time>2026-04-11T15:07:38.743Z</time></trkpt><trkpt lat="43.430152" lon="13.6119552"><ele>124.0</ele><time>2026-04-11T15:07:39.746Z</time></trkpt><trkpt lat="43.4300845" lon="13.6120744"><ele>124.0</ele><time>2026-04-11T15:07:40.75Z</time></trkpt><trkpt lat="43.4300155" lon="13.6121849"><ele>124.0</ele><time>2026-04-11T15:07:41.747Z</time></trkpt><trkpt lat="43.4299487" lon="13.6122775"><ele>123.16666666666667</ele><time>2026-04-11T15:07:42.749Z</time></trkpt><trkpt lat="43.4298842" lon="13.6123536"><ele>122.33333333333334</ele><time>2026-04-11T15:07:43.746Z</time></trkpt><trkpt lat="43.4298271" lon="13.6124285"><ele>121.5</ele><time>2026-04-11T15:07:44.753Z</time></trkpt><trkpt lat="43.4297585" lon="13.6124264"><ele>120.66666666666666</ele><time>2026-04-11T15:07:45.745Z</time></trkpt><trkpt lat="43.4296519" lon="13.6124167"><ele>119.83333333333333</ele><time>2026-04-11T15:07:47.746Z</time></trkpt><trkpt lat="43.4295722" lon="13.6123988"><ele>119.0</ele><time>2026-04-11T15:07:49.744Z</time></trkpt><trkpt lat="43.4294342" lon="13.6124002"><ele>118.6</ele><time>2026-04-11T15:07:51.744Z</time></trkpt><trkpt lat="43.4293355" lon="13.6123799"><ele>118.2</ele><time>2026-04-11T15:07:52.745Z</time></trkpt><trkpt lat="43.4292453" lon="13.6123206"><ele>117.79999999999998</ele><time>2026-04-11T15:07:53.745Z</time></trkpt><trkpt lat="43.4291559" lon="13.6122313"><ele>117.39999999999999</ele><time>2026-04-11T15:07:54.747Z</time></trkpt><trkpt lat="43.4290562" lon="13.6121214"><ele>117.0</ele><time>2026-04-11T15:07:55.749Z</time></trkpt><trkpt lat="43.4289599" lon="13.6119923"><ele>117.75</ele><time>2026-04-11T15:07:56.751Z</time></trkpt><trkpt lat="43.4288681" lon="13.6118502"><ele>118.5</ele><time>2026-04-11T15:07:57.745Z</time></trkpt><trkpt lat="43.4287714" lon="13.6117126"><ele>119.25</ele><time>2026-04-11T15:07:58.745Z</time></trkpt><trkpt lat="43.4286658" lon="13.6115804"><ele>120.0</ele><time>2026-04-11T15:07:59.746Z</time></trkpt><trkpt lat="43.4285595" lon="13.6114541"><ele>115.0</ele><time>2026-04-11T15:08:00.745Z</time></trkpt><trkpt lat="43.428441" lon="13.6113525"><ele>110.0</ele><time>2026-04-11T15:08:01.747Z</time></trkpt><trkpt lat="43.4283" lon="13.61128"><ele>105.0</ele><time>2026-04-11T15:08:02.748Z</time></trkpt><trkpt lat="43.4281432" lon="13.6112365"><ele>103.0</ele><time>2026-04-11T15:08:03.751Z</time></trkpt><trkpt lat="43.4279755" lon="13.6112089"><ele>101.0</ele><time>2026-04-11T15:08:04.747Z</time></trkpt><trkpt lat="43.4277958" lon="13.6111785"><ele>99.0</ele><time>2026-04-11T15:08:05.745Z</time></trkpt><trkpt lat="43.4276039" lon="13.6111542"><ele>99.0</ele><time>2026-04-11T15:08:06.746Z</time></trkpt><trkpt lat="43.4274157" lon="13.6111476"><ele>99.0</ele><time>2026-04-11T15:08:07.751Z</time></trkpt><trkpt lat="43.4272306" lon="13.6111576"><ele>99.0</ele><time>2026-04-11T15:08:08.745Z</time></trkpt><trkpt lat="43.4270497" lon="13.6111708"><ele>97.33333333333333</ele><time>2026-04-11T15:08:09.746Z</time></trkpt><trkpt lat="43.4268712" lon="13.6111833"><ele>95.66666666666666</ele><time>2026-04-11T15:08:10.749Z</time></trkpt><trkpt lat="43.4267001" lon="13.6112034"><ele>94.0</ele><time>2026-04-11T15:08:11.749Z</time></trkpt><trkpt lat="43.4265368" lon="13.6112156"><ele>94.0</ele><time>2026-04-11T15:08:12.744Z</time></trkpt><trkpt lat="43.4263862" lon="13.6112303"><ele>94.0</ele><time>2026-04-11T15:08:13.745Z</time></trkpt><trkpt lat="43.426238" lon="13.6112299"><ele>94.0</ele><time>2026-04-11T15:08:14.746Z</time></trkpt><trkpt lat="43.4260926" lon="13.6112259"><ele>94.0</ele><time>2026-04-11T15:08:15.746Z</time></trkpt><trkpt lat="43.4259585" lon="13.6112231"><ele>94.25</ele><time>2026-04-11T15:08:16.749Z</time></trkpt><trkpt lat="43.4258238" lon="13.6112195"><ele>94.5</ele><time>2026-04-11T15:08:17.747Z</time></trkpt><trkpt lat="43.4256826" lon="13.6112196"><ele>94.75</ele><time>2026-04-11T15:08:18.753Z</time></trkpt><trkpt lat="43.425538" lon="13.611226"><ele>95.0</ele><time>2026-04-11T15:08:19.748Z</time></trkpt><trkpt lat="43.4253924" lon="13.6112428"><ele>95.25</ele><time>2026-04-11T15:08:20.746Z</time></trkpt><trkpt lat="43.4252472" lon="13.6112693"><ele>95.5</ele><time>2026-04-11T15:08:21.745Z</time></trkpt><trkpt lat="43.4250988" lon="13.611302"><ele>95.75</ele><time>2026-04-11T15:08:22.747Z</time></trkpt><trkpt lat="43.4249527" lon="13.6113268"><ele>96.0</ele><time>2026-04-11T15:08:23.749Z</time></trkpt><trkpt lat="43.4248047" lon="13.6113498"><ele>96.0</ele><time>2026-04-11T15:08:24.749Z</time></trkpt><trkpt lat="43.4246521" lon="13.6113703"><ele>96.0</ele><time>2026-04-11T15:08:25.746Z</time></trkpt><trkpt lat="43.4244948" lon="13.6113553"><ele>96.0</ele><time>2026-04-11T15:08:26.745Z</time></trkpt><trkpt lat="43.4243329" lon="13.6113147"><ele>94.33333333333333</ele><time>2026-04-11T15:08:27.745Z</time></trkpt><trkpt lat="43.4241569" lon="13.6112803"><ele>92.66666666666666</ele><time>2026-04-11T15:08:28.746Z</time></trkpt><trkpt lat="43.4239684" lon="13.6112418"><ele>91.0</ele><time>2026-04-11T15:08:29.75Z</time></trkpt><trkpt lat="43.4237693" lon="13.6111998"><ele>85.33333333333333</ele><time>2026-04-11T15:08:30.749Z</time></trkpt><trkpt lat="43.4235577" lon="13.61116"><ele>79.66666666666667</ele><time>2026-04-11T15:08:31.749Z</time></trkpt><trkpt lat="43.4233399" lon="13.6111178"><ele>74.0</ele><time>2026-04-11T15:08:32.745Z</time></trkpt><trkpt lat="43.4231215" lon="13.6110781"><ele>68.66666666666667</ele><time>2026-04-11T15:08:33.744Z</time></trkpt><trkpt lat="43.4229033" lon="13.6110324"><ele>63.33333333333333</ele><time>2026-04-11T15:08:34.747Z</time></trkpt><trkpt lat="43.4226863" lon="13.6109872"><ele>58.0</ele><time>2026-04-11T15:08:35.746Z</time></trkpt><trkpt lat="43.4224733" lon="13.6109436"><ele>58.0</ele><time>2026-04-11T15:08:36.755Z</time></trkpt><trkpt lat="43.4222573" lon="13.6109027"><ele>58.0</ele><time>2026-04-11T15:08:37.745Z</time></trkpt><trkpt lat="43.4220403" lon="13.6108591"><ele>58.0</ele><time>2026-04-11T15:08:38.75Z</time></trkpt><trkpt lat="43.4218138" lon="13.6108184"><ele>54.666666666666664</ele><time>2026-04-11T15:08:39.744Z</time></trkpt><trkpt lat="43.4215921" lon="13.6107738"><ele>51.33333333333333</ele><time>2026-04-11T15:08:40.743Z</time></trkpt><trkpt lat="43.4213751" lon="13.6107317"><ele>48.0</ele><time>2026-04-11T15:08:41.747Z</time></trkpt><trkpt lat="43.4211595" lon="13.6106932"><ele>46.0</ele><time>2026-04-11T15:08:42.745Z</time></trkpt><trkpt lat="43.4209395" lon="13.6106569"><ele>44.0</ele><time>2026-04-11T15:08:43.748Z</time></trkpt><trkpt lat="43.4207238" lon="13.6106206"><ele>42.0</ele><time>2026-04-11T15:08:44.749Z</time></trkpt><trkpt lat="43.4205116" lon="13.6106046"><ele>41.666666666666664</ele><time>2026-04-11T15:08:45.753Z</time></trkpt><trkpt lat="43.4203016" lon="13.6106127"><ele>41.33333333333333</ele><time>2026-04-11T15:08:46.745Z</time></trkpt><trkpt lat="43.4200919" lon="13.6106381"><ele>41.0</ele><time>2026-04-11T15:08:47.744Z</time></trkpt><trkpt lat="43.4198893" lon="13.610663"><ele>41.0</ele><time>2026-04-11T15:08:48.748Z</time></trkpt><trkpt lat="43.4196913" lon="13.6106907"><ele>41.0</ele><time>2026-04-11T15:08:49.745Z</time></trkpt><trkpt lat="43.4195041" lon="13.6107368"><ele>41.0</ele><time>2026-04-11T15:08:50.75Z</time></trkpt><trkpt lat="43.4193258" lon="13.6107701"><ele>43.0</ele><time>2026-04-11T15:08:51.749Z</time></trkpt><trkpt lat="43.4191559" lon="13.6108013"><ele>45.0</ele><time>2026-04-11T15:08:52.753Z</time></trkpt><trkpt lat="43.4189953" lon="13.6108349"><ele>47.0</ele><time>2026-04-11T15:08:53.745Z</time></trkpt><trkpt lat="43.4188526" lon="13.610861"><ele>49.0</ele><time>2026-04-11T15:08:54.745Z</time></trkpt><trkpt lat="43.4187273" lon="13.6108801"><ele>51.0</ele><time>2026-04-11T15:08:55.748Z</time></trkpt><trkpt lat="43.4186172" lon="13.6109005"><ele>53.0</ele><time>2026-04-11T15:08:56.745Z</time></trkpt><trkpt lat="43.4185187" lon="13.6109203"><ele>55.0</ele><time>2026-04-11T15:08:57.748Z</time></trkpt><trkpt lat="43.4184426" lon="13.6109317"><ele>57.0</ele><time>2026-04-11T15:08:58.751Z</time></trkpt><trkpt lat="43.4183556" lon="13.6109359"><ele>57.0</ele><time>2026-04-11T15:09:00.745Z</time></trkpt><trkpt lat="43.4182723" lon="13.6109459"><ele>57.0</ele><time>2026-04-11T15:09:02.748Z</time></trkpt><trkpt lat="43.4182028" lon="13.6109602"><ele>57.0</ele><time>2026-04-11T15:09:03.747Z</time></trkpt><trkpt lat="43.4181238" lon="13.610971"><ele>57.0</ele><time>2026-04-11T15:09:04.745Z</time></trkpt><trkpt lat="43.4180295" lon="13.6109838"><ele>57.0</ele><time>2026-04-11T15:09:05.751Z</time></trkpt><trkpt lat="43.4179305" lon="13.610999"><ele>57.0</ele><time>2026-04-11T15:09:06.748Z</time></trkpt><trkpt lat="43.4178313" lon="13.6110126"><ele>58.0</ele><time>2026-04-11T15:09:07.748Z</time></trkpt><trkpt lat="43.4177251" lon="13.6110183"><ele>59.0</ele><time>2026-04-11T15:09:08.746Z</time></trkpt><trkpt lat="43.41761" lon="13.6110298"><ele>60.0</ele><time>2026-04-11T15:09:09.744Z</time></trkpt><trkpt lat="43.4174814" lon="13.6110429"><ele>61.0</ele><time>2026-04-11T15:09:10.747Z</time></trkpt><trkpt lat="43.4173409" lon="13.6110597"><ele>61.0</ele><time>2026-04-11T15:09:11.75Z</time></trkpt><trkpt lat="43.4171815" lon="13.6110749"><ele>61.0</ele><time>2026-04-11T15:09:12.751Z</time></trkpt><trkpt lat="43.4170073" lon="13.611093"><ele>61.0</ele><time>2026-04-11T15:09:13.746Z</time></trkpt><trkpt lat="43.4168203" lon="13.6111099"><ele>57.666666666666664</ele><time>2026-04-11T15:09:14.745Z</time></trkpt><trkpt lat="43.4166214" lon="13.6111306"><ele>54.33333333333333</ele><time>2026-04-11T15:09:15.746Z</time></trkpt><trkpt lat="43.4164125" lon="13.6111541"><ele>51.0</ele><time>2026-04-11T15:09:16.748Z</time></trkpt><trkpt lat="43.4161975" lon="13.6111783"><ele>46.0</ele><time>2026-04-11T15:09:17.75Z</time></trkpt><trkpt lat="43.4159748" lon="13.6112002"><ele>41.0</ele><time>2026-04-11T15:09:18.748Z</time></trkpt><trkpt lat="43.4157486" lon="13.611222"><ele>41.0</ele><time>2026-04-11T15:09:19.752Z</time></trkpt><trkpt lat="43.4155213" lon="13.6112486"><ele>41.0</ele><time>2026-04-11T15:09:20.745Z</time></trkpt><trkpt lat="43.4152911" lon="13.6112763"><ele>37.5</ele><time>2026-04-11T15:09:21.747Z</time></trkpt><trkpt lat="43.4150608" lon="13.6113051"><ele>34.0</ele><time>2026-04-11T15:09:22.747Z</time></trkpt><trkpt lat="43.4148306" lon="13.6113258"><ele>34.0</ele><time>2026-04-11T15:09:23.746Z</time></trkpt><trkpt lat="43.414601" lon="13.6113384"><ele>34.0</ele><time>2026-04-11T15:09:24.749Z</time></trkpt><trkpt lat="43.4143737" lon="13.6113336"><ele>34.0</ele><time>2026-04-11T15:09:25.747Z</time></trkpt><trkpt lat="43.4141474" lon="13.6113004"><ele>34.0</ele><time>2026-04-11T15:09:26.745Z</time></trkpt><trkpt lat="43.4139253" lon="13.6112522"><ele>34.66666666666667</ele><time>2026-04-11T15:09:27.746Z</time></trkpt><trkpt lat="43.4137061" lon="13.6112001"><ele>35.333333333333336</ele><time>2026-04-11T15:09:28.746Z</time></trkpt><trkpt lat="43.4134902" lon="13.6111489"><ele>36.0</ele><time>2026-04-11T15:09:29.745Z</time></trkpt><trkpt lat="43.4132799" lon="13.611094"><ele>37.666666666666664</ele><time>2026-04-11T15:09:30.746Z</time></trkpt><trkpt lat="43.4130752" lon="13.6110368"><ele>39.33333333333333</ele><time>2026-04-11T15:09:31.746Z</time></trkpt><trkpt lat="43.4128751" lon="13.6109816"><ele>41.0</ele><time>2026-04-11T15:09:32.749Z</time></trkpt><trkpt lat="43.4126797" lon="13.6109283"><ele>44.33333333333333</ele><time>2026-04-11T15:09:33.749Z</time></trkpt><trkpt lat="43.4124889" lon="13.6108757"><ele>47.666666666666664</ele><time>2026-04-11T15:09:34.745Z</time></trkpt><trkpt lat="43.4123033" lon="13.6108264"><ele>51.0</ele><time>2026-04-11T15:09:35.744Z</time></trkpt><trkpt lat="43.4121216" lon="13.6107772"><ele>53.0</ele><time>2026-04-11T15:09:36.746Z</time></trkpt><trkpt lat="43.4119472" lon="13.6107271"><ele>55.0</ele><time>2026-04-11T15:09:37.743Z</time></trkpt><trkpt lat="43.4117817" lon="13.6106717"><ele>57.0</ele><time>2026-04-11T15:09:38.747Z</time></trkpt><trkpt lat="43.4116215" lon="13.6106076"><ele>57.0</ele><time>2026-04-11T15:09:39.748Z</time></trkpt><trkpt lat="43.4114635" lon="13.6105377"><ele>57.0</ele><time>2026-04-11T15:09:40.749Z</time></trkpt><trkpt lat="43.4113023" lon="13.6104622"><ele>57.0</ele><time>2026-04-11T15:09:41.748Z</time></trkpt><trkpt lat="43.4111383" lon="13.6103777"><ele>58.66666666666667</ele><time>2026-04-11T15:09:42.747Z</time></trkpt><trkpt lat="43.4109744" lon="13.6102929"><ele>60.333333333333336</ele><time>2026-04-11T15:09:43.746Z</time></trkpt><trkpt lat="43.4108111" lon="13.610206"><ele>62.0</ele><time>2026-04-11T15:09:44.751Z</time></trkpt><trkpt lat="43.4106469" lon="13.6101161"><ele>60.333333333333336</ele><time>2026-04-11T15:09:45.745Z</time></trkpt><trkpt lat="43.4104805" lon="13.6100214"><ele>58.66666666666667</ele><time>2026-04-11T15:09:46.746Z</time></trkpt><trkpt lat="43.4103085" lon="13.6099211"><ele>57.0</ele><time>2026-04-11T15:09:47.748Z</time></trkpt><trkpt lat="43.4101345" lon="13.6098188"><ele>57.0</ele><time>2026-04-11T15:09:48.748Z</time></trkpt><trkpt lat="43.4099342" lon="13.6097217"><ele>57.0</ele><time>2026-04-11T15:09:49.746Z</time></trkpt><trkpt lat="43.4097365" lon="13.6096227"><ele>57.0</ele><time>2026-04-11T15:09:50.748Z</time></trkpt><trkpt lat="43.4094869" lon="13.6094906"><ele>59.0</ele><time>2026-04-11T15:09:51.747Z</time></trkpt><trkpt lat="43.4092642" lon="13.6093693"><ele>61.0</ele><time>2026-04-11T15:09:52.746Z</time></trkpt><trkpt lat="43.409021" lon="13.6093112"><ele>62.5</ele><time>2026-04-11T15:09:53.751Z</time></trkpt><trkpt lat="43.4087767" lon="13.6092491"><ele>64.0</ele><time>2026-04-11T15:09:54.75Z</time></trkpt><trkpt lat="43.4085243" lon="13.6092387"><ele>64.0</ele><time>2026-04-11T15:09:55.746Z</time></trkpt><trkpt lat="43.4082879" lon="13.6092359"><ele>64.0</ele><time>2026-04-11T15:09:56.745Z</time></trkpt><trkpt lat="43.4080623" lon="13.6092382"><ele>65.0</ele><time>2026-04-11T15:09:57.746Z</time></trkpt><trkpt lat="43.4078461" lon="13.6092401"><ele>66.0</ele><time>2026-04-11T15:09:58.744Z</time></trkpt><trkpt lat="43.4076354" lon="13.6092385"><ele>67.0</ele><time>2026-04-11T15:09:59.749Z</time></trkpt><trkpt lat="43.40743" lon="13.6092254"><ele>67.0</ele><time>2026-04-11T15:10:00.749Z</time></trkpt><trkpt lat="43.4072239" lon="13.6092142"><ele>67.0</ele><time>2026-04-11T15:10:01.752Z</time></trkpt><trkpt lat="43.4070121" lon="13.609194"><ele>67.0</ele><time>2026-04-11T15:10:02.744Z</time></trkpt><trkpt lat="43.4067894" lon="13.6091785"><ele>66.5</ele><time>2026-04-11T15:10:03.744Z</time></trkpt><trkpt lat="43.4065599" lon="13.6091676"><ele>66.0</ele><time>2026-04-11T15:10:04.745Z</time></trkpt><trkpt lat="43.4063237" lon="13.6091505"><ele>65.0</ele><time>2026-04-11T15:10:05.744Z</time></trkpt><trkpt lat="43.406086" lon="13.609135"><ele>64.0</ele><time>2026-04-11T15:10:06.745Z</time></trkpt><trkpt lat="43.4058519" lon="13.609123"><ele>64.0</ele><time>2026-04-11T15:10:07.749Z</time></trkpt><trkpt lat="43.4056253" lon="13.6091124"><ele>64.0</ele><time>2026-04-11T15:10:08.75Z</time></trkpt><trkpt lat="43.4054038" lon="13.609105"><ele>64.0</ele><time>2026-04-11T15:10:09.746Z</time></trkpt><trkpt lat="43.4051905" lon="13.6091001"><ele>65.33333333333333</ele><time>2026-04-11T15:10:10.745Z</time></trkpt><trkpt lat="43.4049811" lon="13.6090948"><ele>66.66666666666667</ele><time>2026-04-11T15:10:11.745Z</time></trkpt><trkpt lat="43.4047744" lon="13.6090887"><ele>68.0</ele><time>2026-04-11T15:10:12.749Z</time></trkpt><trkpt lat="43.4045679" lon="13.6090787"><ele>68.0</ele><time>2026-04-11T15:10:13.755Z</time></trkpt><trkpt lat="43.4043565" lon="13.6090751"><ele>68.0</ele><time>2026-04-11T15:10:14.747Z</time></trkpt><trkpt lat="43.4041375" lon="13.6090754"><ele>68.0</ele><time>2026-04-11T15:10:15.747Z</time></trkpt><trkpt lat="43.4039122" lon="13.6090715"><ele>66.5</ele><time>2026-04-11T15:10:16.749Z</time></trkpt><trkpt lat="43.4036828" lon="13.6090622"><ele>65.0</ele><time>2026-04-11T15:10:17.747Z</time></trkpt><trkpt lat="43.4034528" lon="13.6090491"><ele>65.0</ele><time>2026-04-11T15:10:18.746Z</time></trkpt><trkpt lat="43.403224" lon="13.6090346"><ele>65.0</ele><time>2026-04-11T15:10:19.745Z</time></trkpt><trkpt lat="43.4030034" lon="13.6090274"><ele>64.66666666666667</ele><time>2026-04-11T15:10:20.746Z</time></trkpt><trkpt lat="43.4027827" lon="13.6090252"><ele>64.33333333333333</ele><time>2026-04-11T15:10:21.75Z</time></trkpt><trkpt lat="43.4025601" lon="13.6090271"><ele>64.0</ele><time>2026-04-11T15:10:22.747Z</time></trkpt><trkpt lat="43.4023401" lon="13.6090325"><ele>64.0</ele><time>2026-04-11T15:10:23.749Z</time></trkpt><trkpt lat="43.4021298" lon="13.6090427"><ele>64.0</ele><time>2026-04-11T15:10:24.749Z</time></trkpt><trkpt lat="43.401921" lon="13.6090647"><ele>64.0</ele><time>2026-04-11T15:10:25.746Z</time></trkpt><trkpt lat="43.4017237" lon="13.6090971"><ele>64.0</ele><time>2026-04-11T15:10:26.747Z</time></trkpt><trkpt lat="43.4015372" lon="13.6091361"><ele>64.0</ele><time>2026-04-11T15:10:27.747Z</time></trkpt><trkpt lat="43.4013577" lon="13.6091704"><ele>64.0</ele><time>2026-04-11T15:10:28.748Z</time></trkpt><trkpt lat="43.401176" lon="13.6091889"><ele>62.0</ele><time>2026-04-11T15:10:29.747Z</time></trkpt><trkpt lat="43.4009904" lon="13.6091896"><ele>60.0</ele><time>2026-04-11T15:10:30.749Z</time></trkpt><trkpt lat="43.4007991" lon="13.6091689"><ele>58.0</ele><time>2026-04-11T15:10:31.754Z</time></trkpt><trkpt lat="43.4006001" lon="13.6091261"><ele>55.33333333333333</ele><time>2026-04-11T15:10:32.744Z</time></trkpt><trkpt lat="43.4004031" lon="13.6090736"><ele>52.66666666666667</ele><time>2026-04-11T15:10:33.746Z</time></trkpt><trkpt lat="43.4002069" lon="13.6090213"><ele>50.0</ele><time>2026-04-11T15:10:34.747Z</time></trkpt><trkpt lat="43.4000151" lon="13.608969"><ele>50.0</ele><time>2026-04-11T15:10:35.75Z</time></trkpt><trkpt lat="43.3998213" lon="13.6089191"><ele>50.0</ele><time>2026-04-11T15:10:36.75Z</time></trkpt><trkpt lat="43.3996274" lon="13.6088708"><ele>50.0</ele><time>2026-04-11T15:10:37.745Z</time></trkpt><trkpt lat="43.3994312" lon="13.6088202"><ele>47.0</ele><time>2026-04-11T15:10:38.747Z</time></trkpt><trkpt lat="43.39923" lon="13.6087696"><ele>44.0</ele><time>2026-04-11T15:10:39.744Z</time></trkpt><trkpt lat="43.3990306" lon="13.6087169"><ele>41.0</ele><time>2026-04-11T15:10:40.747Z</time></trkpt><trkpt lat="43.3988304" lon="13.608669"><ele>36.666666666666664</ele><time>2026-04-11T15:10:41.744Z</time></trkpt><trkpt lat="43.3986287" lon="13.6086213"><ele>32.333333333333336</ele><time>2026-04-11T15:10:42.75Z</time></trkpt><trkpt lat="43.398428" lon="13.6085746"><ele>28.0</ele><time>2026-04-11T15:10:43.753Z</time></trkpt><trkpt lat="43.3982301" lon="13.6085269"><ele>28.0</ele><time>2026-04-11T15:10:44.746Z</time></trkpt><trkpt lat="43.3980368" lon="13.6084797"><ele>28.0</ele><time>2026-04-11T15:10:45.746Z</time></trkpt><trkpt lat="43.3978485" lon="13.6084338"><ele>28.0</ele><time>2026-04-11T15:10:46.745Z</time></trkpt><trkpt lat="43.3976671" lon="13.60839"><ele>27.666666666666668</ele><time>2026-04-11T15:10:47.747Z</time></trkpt><trkpt lat="43.397489" lon="13.6083531"><ele>27.333333333333336</ele><time>2026-04-11T15:10:48.747Z</time></trkpt><trkpt lat="43.3973149" lon="13.608317"><ele>27.0</ele><time>2026-04-11T15:10:49.748Z</time></trkpt><trkpt lat="43.3971444" lon="13.6082817"><ele>25.666666666666668</ele><time>2026-04-11T15:10:50.745Z</time></trkpt><trkpt lat="43.3969757" lon="13.6082452"><ele>24.333333333333336</ele><time>2026-04-11T15:10:51.745Z</time></trkpt><trkpt lat="43.3968105" lon="13.6082072"><ele>23.0</ele><time>2026-04-11T15:10:52.746Z</time></trkpt><trkpt lat="43.3966475" lon="13.6081691"><ele>23.0</ele><time>2026-04-11T15:10:53.747Z</time></trkpt><trkpt lat="43.3964917" lon="13.6081314"><ele>23.0</ele><time>2026-04-11T15:10:54.746Z</time></trkpt><trkpt lat="43.3963347" lon="13.6080904"><ele>23.0</ele><time>2026-04-11T15:10:55.747Z</time></trkpt><trkpt lat="43.3961772" lon="13.6080485"><ele>22.666666666666668</ele><time>2026-04-11T15:10:56.749Z</time></trkpt><trkpt lat="43.39602" lon="13.6080065"><ele>22.333333333333332</ele><time>2026-04-11T15:10:57.751Z</time></trkpt><trkpt lat="43.3958633" lon="13.6079601"><ele>22.0</ele><time>2026-04-11T15:10:58.745Z</time></trkpt><trkpt lat="43.3957106" lon="13.6079053"><ele>22.0</ele><time>2026-04-11T15:10:59.748Z</time></trkpt><trkpt lat="43.3955628" lon="13.6078446"><ele>22.0</ele><time>2026-04-11T15:11:00.748Z</time></trkpt><trkpt lat="43.3954167" lon="13.6077838"><ele>22.0</ele><time>2026-04-11T15:11:01.745Z</time></trkpt><trkpt lat="43.3952712" lon="13.6077243"><ele>21.75</ele><time>2026-04-11T15:11:02.747Z</time></trkpt><trkpt lat="43.3951276" lon="13.6076663"><ele>21.5</ele><time>2026-04-11T15:11:03.75Z</time></trkpt><trkpt lat="43.3949855" lon="13.6076092"><ele>21.25</ele><time>2026-04-11T15:11:04.752Z</time></trkpt><trkpt lat="43.3948421" lon="13.6075513"><ele>21.0</ele><time>2026-04-11T15:11:05.747Z</time></trkpt><trkpt lat="43.3946998" lon="13.6074908"><ele>20.5</ele><time>2026-04-11T15:11:06.746Z</time></trkpt><trkpt lat="43.3945615" lon="13.607425"><ele>20.0</ele><time>2026-04-11T15:11:07.745Z</time></trkpt><trkpt lat="43.3944325" lon="13.6073432"><ele>19.5</ele><time>2026-04-11T15:11:08.749Z</time></trkpt><trkpt lat="43.3943156" lon="13.6072331"><ele>19.0</ele><time>2026-04-11T15:11:09.746Z</time></trkpt><trkpt lat="43.3942165" lon="13.6070933"><ele>19.333333333333332</ele><time>2026-04-11T15:11:10.749Z</time></trkpt><trkpt lat="43.3941323" lon="13.6069288"><ele>19.666666666666668</ele><time>2026-04-11T15:11:11.744Z</time></trkpt><trkpt lat="43.3940497" lon="13.6067509"><ele>20.0</ele><time>2026-04-11T15:11:12.748Z</time></trkpt><trkpt lat="43.3939701" lon="13.6065651"><ele>20.0</ele><time>2026-04-11T15:11:13.747Z</time></trkpt><trkpt lat="43.3938939" lon="13.6063821"><ele>20.0</ele><time>2026-04-11T15:11:14.745Z</time></trkpt><trkpt lat="43.3938225" lon="13.60621"><ele>20.0</ele><time>2026-04-11T15:11:15.745Z</time></trkpt><trkpt lat="43.3937534" lon="13.6060454"><ele>20.0</ele><time>2026-04-11T15:11:16.747Z</time></trkpt><trkpt lat="43.3936881" lon="13.6058841"><ele>19.75</ele><time>2026-04-11T15:11:17.749Z</time></trkpt><trkpt lat="43.3936238" lon="13.6057269"><ele>19.5</ele><time>2026-04-11T15:11:18.752Z</time></trkpt><trkpt lat="43.3935592" lon="13.6055734"><ele>19.25</ele><time>2026-04-11T15:11:19.748Z</time></trkpt><trkpt lat="43.3934969" lon="13.6054219"><ele>19.0</ele><time>2026-04-11T15:11:20.745Z</time></trkpt><trkpt lat="43.3934378" lon="13.6052788"><ele>19.0</ele><time>2026-04-11T15:11:21.744Z</time></trkpt><trkpt lat="43.3933818" lon="13.6051422"><ele>19.0</ele><time>2026-04-11T15:11:22.745Z</time></trkpt><trkpt lat="43.3933252" lon="13.6050117"><ele>19.0</ele><time>2026-04-11T15:11:23.746Z</time></trkpt><trkpt lat="43.3932712" lon="13.6048829"><ele>19.0</ele><time>2026-04-11T15:11:24.749Z</time></trkpt><trkpt lat="43.3932133" lon="13.6047852"><ele>19.0</ele><time>2026-04-11T15:11:25.745Z</time></trkpt><trkpt lat="43.3931461" lon="13.6047331"><ele>19.0</ele><time>2026-04-11T15:11:26.747Z</time></trkpt><trkpt lat="43.3930703" lon="13.604723"><ele>19.0</ele><time>2026-04-11T15:11:27.745Z</time></trkpt><trkpt lat="43.3929909" lon="13.604752"><ele>19.0</ele><time>2026-04-11T15:11:28.745Z</time></trkpt><trkpt lat="43.3929005" lon="13.6048112"><ele>19.0</ele><time>2026-04-11T15:11:29.747Z</time></trkpt><trkpt lat="43.3927973" lon="13.6048826"><ele>19.0</ele><time>2026-04-11T15:11:30.748Z</time></trkpt><trkpt lat="43.392688" lon="13.6049554"><ele>19.0</ele><time>2026-04-11T15:11:31.746Z</time></trkpt><trkpt lat="43.392577" lon="13.6050308"><ele>19.0</ele><time>2026-04-11T15:11:32.749Z</time></trkpt><trkpt lat="43.3924562" lon="13.6051159"><ele>19.0</ele><time>2026-04-11T15:11:33.743Z</time></trkpt><trkpt lat="43.3923293" lon="13.6052036"><ele>19.0</ele><time>2026-04-11T15:11:34.745Z</time></trkpt><trkpt lat="43.3921949" lon="13.6052944"><ele>19.333333333333332</ele><time>2026-04-11T15:11:35.743Z</time></trkpt><trkpt lat="43.3920605" lon="13.6053839"><ele>19.666666666666668</ele><time>2026-04-11T15:11:36.745Z</time></trkpt><trkpt lat="43.3919224" lon="13.6054745"><ele>20.0</ele><time>2026-04-11T15:11:37.748Z</time></trkpt><trkpt lat="43.3917803" lon="13.6055664"><ele>20.0</ele><time>2026-04-11T15:11:38.75Z</time></trkpt><trkpt lat="43.3916353" lon="13.6056601"><ele>20.0</ele><time>2026-04-11T15:11:39.745Z</time></trkpt><trkpt lat="43.3914875" lon="13.6057575"><ele>20.0</ele><time>2026-04-11T15:11:40.745Z</time></trkpt><trkpt lat="43.3913376" lon="13.6058589"><ele>20.0</ele><time>2026-04-11T15:11:41.745Z</time></trkpt><trkpt lat="43.3911858" lon="13.605961"><ele>20.0</ele><time>2026-04-11T15:11:42.745Z</time></trkpt><trkpt lat="43.391029" lon="13.6060657"><ele>20.0</ele><time>2026-04-11T15:11:43.745Z</time></trkpt><trkpt lat="43.3908688" lon="13.6061713"><ele>19.666666666666668</ele><time>2026-04-11T15:11:44.749Z</time></trkpt><trkpt lat="43.3907073" lon="13.6062752"><ele>19.333333333333332</ele><time>2026-04-11T15:11:45.749Z</time></trkpt><trkpt lat="43.3905404" lon="13.6063816"><ele>19.0</ele><time>2026-04-11T15:11:46.747Z</time></trkpt><trkpt lat="43.3903736" lon="13.6064923"><ele>19.666666666666664</ele><time>2026-04-11T15:11:47.745Z</time></trkpt><trkpt lat="43.3902055" lon="13.6066064"><ele>20.333333333333332</ele><time>2026-04-11T15:11:48.744Z</time></trkpt><trkpt lat="43.3900362" lon="13.6067258"><ele>21.0</ele><time>2026-04-11T15:11:49.746Z</time></trkpt><trkpt lat="43.3898631" lon="13.6068458"><ele>21.0</ele><time>2026-04-11T15:11:50.746Z</time></trkpt><trkpt lat="43.389688" lon="13.6069663"><ele>21.0</ele><time>2026-04-11T15:11:51.745Z</time></trkpt><trkpt lat="43.3895122" lon="13.6070884"><ele>21.0</ele><time>2026-04-11T15:11:52.75Z</time></trkpt><trkpt lat="43.3893346" lon="13.6072091"><ele>20.666666666666668</ele><time>2026-04-11T15:11:53.746Z</time></trkpt><trkpt lat="43.3891545" lon="13.6073296"><ele>20.333333333333336</ele><time>2026-04-11T15:11:54.744Z</time></trkpt><trkpt lat="43.3889792" lon="13.6074488"><ele>20.0</ele><time>2026-04-11T15:11:55.744Z</time></trkpt><trkpt lat="43.3888154" lon="13.6075524"><ele>20.0</ele><time>2026-04-11T15:11:56.743Z</time></trkpt><trkpt lat="43.3886509" lon="13.6076246"><ele>20.0</ele><time>2026-04-11T15:11:57.745Z</time></trkpt><trkpt lat="43.3884828" lon="13.6076566"><ele>20.0</ele><time>2026-04-11T15:11:58.747Z</time></trkpt><trkpt lat="43.3883179" lon="13.6076499"><ele>20.0</ele><time>2026-04-11T15:11:59.75Z</time></trkpt><trkpt lat="43.3881574" lon="13.6076074"><ele>20.0</ele><time>2026-04-11T15:12:00.745Z</time></trkpt><trkpt lat="43.387987" lon="13.6075493"><ele>20.0</ele><time>2026-04-11T15:12:01.745Z</time></trkpt><trkpt lat="43.3877987" lon="13.6074992"><ele>19.666666666666668</ele><time>2026-04-11T15:12:02.745Z</time></trkpt><trkpt lat="43.3875983" lon="13.6074199"><ele>19.333333333333332</ele><time>2026-04-11T15:12:03.746Z</time></trkpt><trkpt lat="43.3873881" lon="13.6073083"><ele>19.0</ele><time>2026-04-11T15:12:04.745Z</time></trkpt><trkpt lat="43.3871614" lon="13.6072049"><ele>18.5</ele><time>2026-04-11T15:12:05.748Z</time></trkpt><trkpt lat="43.3869358" lon="13.6071069"><ele>18.0</ele><time>2026-04-11T15:12:06.75Z</time></trkpt><trkpt lat="43.386712" lon="13.60701"><ele>18.5</ele><time>2026-04-11T15:12:07.745Z</time></trkpt><trkpt lat="43.3864949" lon="13.6069139"><ele>19.0</ele><time>2026-04-11T15:12:08.746Z</time></trkpt><trkpt lat="43.3862836" lon="13.6068202"><ele>19.0</ele><time>2026-04-11T15:12:09.744Z</time></trkpt><trkpt lat="43.3860845" lon="13.6067353"><ele>19.0</ele><time>2026-04-11T15:12:10.743Z</time></trkpt><trkpt lat="43.3858982" lon="13.6066585"><ele>19.0</ele><time>2026-04-11T15:12:11.747Z</time></trkpt><trkpt lat="43.3857229" lon="13.6065909"><ele>19.0</ele><time>2026-04-11T15:12:12.749Z</time></trkpt><trkpt lat="43.3855512" lon="13.606549"><ele>19.0</ele><time>2026-04-11T15:12:13.747Z</time></trkpt><trkpt lat="43.3853786" lon="13.6065388"><ele>19.0</ele><time>2026-04-11T15:12:14.744Z</time></trkpt><trkpt lat="43.3851989" lon="13.6065634"><ele>19.666666666666664</ele><time>2026-04-11T15:12:15.745Z</time></trkpt><trkpt lat="43.3850091" lon="13.6066116"><ele>20.333333333333332</ele><time>2026-04-11T15:12:16.744Z</time></trkpt><trkpt lat="43.3848051" lon="13.6066774"><ele>21.0</ele><time>2026-04-11T15:12:17.744Z</time></trkpt><trkpt lat="43.3845924" lon="13.6067464"><ele>21.333333333333332</ele><time>2026-04-11T15:12:18.747Z</time></trkpt><trkpt lat="43.3843811" lon="13.6068158"><ele>21.666666666666664</ele><time>2026-04-11T15:12:19.75Z</time></trkpt><trkpt lat="43.3841707" lon="13.6068822"><ele>22.0</ele><time>2026-04-11T15:12:20.749Z</time></trkpt><trkpt lat="43.3839557" lon="13.6069489"><ele>22.666666666666664</ele><time>2026-04-11T15:12:21.748Z</time></trkpt><trkpt lat="43.3837416" lon="13.6070222"><ele>23.333333333333332</ele><time>2026-04-11T15:12:22.745Z</time></trkpt><trkpt lat="43.3835312" lon="13.6070984"><ele>24.0</ele><time>2026-04-11T15:12:23.745Z</time></trkpt><trkpt lat="43.383319" lon="13.607174"><ele>24.0</ele><time>2026-04-11T15:12:24.744Z</time></trkpt><trkpt lat="43.3831053" lon="13.6072496"><ele>24.0</ele><time>2026-04-11T15:12:25.745Z</time></trkpt><trkpt lat="43.3828902" lon="13.6073277"><ele>24.0</ele><time>2026-04-11T15:12:26.75Z</time></trkpt><trkpt lat="43.3826748" lon="13.6074042"><ele>23.5</ele><time>2026-04-11T15:12:27.752Z</time></trkpt><trkpt lat="43.3824571" lon="13.6074811"><ele>23.0</ele><time>2026-04-11T15:12:28.744Z</time></trkpt><trkpt lat="43.3822381" lon="13.6075636"><ele>23.0</ele><time>2026-04-11T15:12:29.745Z</time></trkpt><trkpt lat="43.382026" lon="13.607637"><ele>23.0</ele><time>2026-04-11T15:12:30.743Z</time></trkpt><trkpt lat="43.3818183" lon="13.6077114"><ele>23.0</ele><time>2026-04-11T15:12:31.745Z</time></trkpt><trkpt lat="43.3816228" lon="13.607777"><ele>23.0</ele><time>2026-04-11T15:12:32.747Z</time></trkpt><trkpt lat="43.3814351" lon="13.6078446"><ele>23.0</ele><time>2026-04-11T15:12:33.75Z</time></trkpt><trkpt lat="43.3812607" lon="13.6079096"><ele>23.0</ele><time>2026-04-11T15:12:34.745Z</time></trkpt><trkpt lat="43.3810913" lon="13.6079704"><ele>23.0</ele><time>2026-04-11T15:12:35.744Z</time></trkpt><trkpt lat="43.3809385" lon="13.6080262"><ele>23.0</ele><time>2026-04-11T15:12:36.744Z</time></trkpt><trkpt lat="43.3808068" lon="13.6080679"><ele>23.0</ele><time>2026-04-11T15:12:37.744Z</time></trkpt><trkpt lat="43.3806947" lon="13.6081029"><ele>23.0</ele><time>2026-04-11T15:12:38.744Z</time></trkpt><trkpt lat="43.3805972" lon="13.6081374"><ele>23.0</ele><time>2026-04-11T15:12:39.744Z</time></trkpt><trkpt lat="43.3805152" lon="13.6081684"><ele>23.0</ele><time>2026-04-11T15:12:40.747Z</time></trkpt><trkpt lat="43.3804444" lon="13.6081927"><ele>23.0</ele><time>2026-04-11T15:12:41.745Z</time></trkpt><trkpt lat="43.3803326" lon="13.6082456"><ele>23.0</ele><time>2026-04-11T15:12:43.747Z</time></trkpt><trkpt lat="43.3802627" lon="13.6082727"><ele>23.0</ele><time>2026-04-11T15:12:45.75Z</time></trkpt><trkpt lat="43.3801829" lon="13.6083134"><ele>23.0</ele><time>2026-04-11T15:12:49.745Z</time></trkpt><trkpt lat="43.380146" lon="13.6084728"><ele>23.0</ele><time>2026-04-11T15:12:51.748Z</time></trkpt><trkpt lat="43.3801711" lon="13.6085892"><ele>23.0</ele><time>2026-04-11T15:12:52.746Z</time></trkpt><trkpt lat="43.3802104" lon="13.6087159"><ele>23.0</ele><time>2026-04-11T15:12:53.748Z</time></trkpt><trkpt lat="43.3802685" lon="13.6088643"><ele>23.0</ele><time>2026-04-11T15:12:54.746Z</time></trkpt><trkpt lat="43.3803401" lon="13.6090375"><ele>22.666666666666668</ele><time>2026-04-11T15:12:55.748Z</time></trkpt><trkpt lat="43.3804134" lon="13.6092132"><ele>22.333333333333332</ele><time>2026-04-11T15:12:56.744Z</time></trkpt><trkpt lat="43.3804951" lon="13.6094087"><ele>22.0</ele><time>2026-04-11T15:12:57.743Z</time></trkpt><trkpt lat="43.3805791" lon="13.6096072"><ele>22.0</ele><time>2026-04-11T15:12:58.749Z</time></trkpt><trkpt lat="43.3806649" lon="13.6098108"><ele>22.0</ele><time>2026-04-11T15:12:59.744Z</time></trkpt><trkpt lat="43.3807507" lon="13.6100186"><ele>22.0</ele><time>2026-04-11T15:13:00.747Z</time></trkpt><trkpt lat="43.3808399" lon="13.6102319"><ele>21.666666666666664</ele><time>2026-04-11T15:13:01.75Z</time></trkpt><trkpt lat="43.3809283" lon="13.6104495"><ele>21.333333333333332</ele><time>2026-04-11T15:13:02.745Z</time></trkpt><trkpt lat="43.3810124" lon="13.6106666"><ele>21.0</ele><time>2026-04-11T15:13:03.748Z</time></trkpt><trkpt lat="43.3810997" lon="13.610887"><ele>21.0</ele><time>2026-04-11T15:13:04.743Z</time></trkpt><trkpt lat="43.3811934" lon="13.6111137"><ele>21.0</ele><time>2026-04-11T15:13:05.744Z</time></trkpt><trkpt lat="43.3812899" lon="13.6113417"><ele>21.0</ele><time>2026-04-11T15:13:06.744Z</time></trkpt><trkpt lat="43.3813908" lon="13.6115756"><ele>21.0</ele><time>2026-04-11T15:13:07.747Z</time></trkpt><trkpt lat="43.3814906" lon="13.6118148"><ele>21.0</ele><time>2026-04-11T15:13:08.751Z</time></trkpt><trkpt lat="43.3815905" lon="13.6120585"><ele>21.0</ele><time>2026-04-11T15:13:09.744Z</time></trkpt><trkpt lat="43.3816931" lon="13.6123089"><ele>21.0</ele><time>2026-04-11T15:13:10.748Z</time></trkpt><trkpt lat="43.3817957" lon="13.6125606"><ele>21.0</ele><time>2026-04-11T15:13:11.747Z</time></trkpt><trkpt lat="43.3819024" lon="13.6128138"><ele>21.0</ele><time>2026-04-11T15:13:12.743Z</time></trkpt><trkpt lat="43.3820092" lon="13.6130704"><ele>21.0</ele><time>2026-04-11T15:13:13.746Z</time></trkpt><trkpt lat="43.3821192" lon="13.6133317"><ele>21.0</ele><time>2026-04-11T15:13:14.745Z</time></trkpt><trkpt lat="43.3822285" lon="13.6135928"><ele>21.0</ele><time>2026-04-11T15:13:15.748Z</time></trkpt><trkpt lat="43.3823404" lon="13.613859"><ele>21.0</ele><time>2026-04-11T15:13:16.753Z</time></trkpt><trkpt lat="43.3824506" lon="13.6141254"><ele>21.0</ele><time>2026-04-11T15:13:17.744Z</time></trkpt><trkpt lat="43.3825585" lon="13.6143943"><ele>21.0</ele><time>2026-04-11T15:13:18.744Z</time></trkpt><trkpt lat="43.3826689" lon="13.6146627"><ele>20.333333333333332</ele><time>2026-04-11T15:13:19.744Z</time></trkpt><trkpt lat="43.3827777" lon="13.614929"><ele>19.666666666666664</ele><time>2026-04-11T15:13:20.743Z</time></trkpt><trkpt lat="43.3828834" lon="13.6151854"><ele>19.0</ele><time>2026-04-11T15:13:21.746Z</time></trkpt><trkpt lat="43.3829833" lon="13.615426"><ele>19.0</ele><time>2026-04-11T15:13:22.747Z</time></trkpt><trkpt lat="43.3830793" lon="13.6156556"><ele>19.0</ele><time>2026-04-11T15:13:23.747Z</time></trkpt><trkpt lat="43.3831713" lon="13.6158769"><ele>19.0</ele><time>2026-04-11T15:13:24.744Z</time></trkpt><trkpt lat="43.3832581" lon="13.6160919"><ele>18.666666666666664</ele><time>2026-04-11T15:13:25.745Z</time></trkpt><trkpt lat="43.3833382" lon="13.6162946"><ele>18.333333333333332</ele><time>2026-04-11T15:13:26.743Z</time></trkpt><trkpt lat="43.3834169" lon="13.616478"><ele>18.0</ele><time>2026-04-11T15:13:27.745Z</time></trkpt><trkpt lat="43.3834866" lon="13.6166393"><ele>18.0</ele><time>2026-04-11T15:13:28.748Z</time></trkpt><trkpt lat="43.3835424" lon="13.6167702"><ele>18.0</ele><time>2026-04-11T15:13:29.747Z</time></trkpt><trkpt lat="43.3835801" lon="13.6168587"><ele>18.0</ele><time>2026-04-11T15:13:30.744Z</time></trkpt><trkpt lat="43.3835668" lon="13.6169585"><ele>18.0</ele><time>2026-04-11T15:13:32.745Z</time></trkpt><trkpt lat="43.3834435" lon="13.617021"><ele>18.0</ele><time>2026-04-11T15:13:34.744Z</time></trkpt><trkpt lat="43.38333" lon="13.6170574"><ele>18.0</ele><time>2026-04-11T15:13:35.751Z</time></trkpt><trkpt lat="43.383177" lon="13.6171013"><ele>18.0</ele><time>2026-04-11T15:13:36.751Z</time></trkpt><trkpt lat="43.3829916" lon="13.61716"><ele>18.0</ele><time>2026-04-11T15:13:37.751Z</time></trkpt><trkpt lat="43.3827883" lon="13.6172323"><ele>18.0</ele><time>2026-04-11T15:13:38.743Z</time></trkpt><trkpt lat="43.3825725" lon="13.6173089"><ele>18.0</ele><time>2026-04-11T15:13:39.747Z</time></trkpt><trkpt lat="43.3823515" lon="13.6173864"><ele>18.0</ele><time>2026-04-11T15:13:40.745Z</time></trkpt><trkpt lat="43.3821302" lon="13.6174647"><ele>18.0</ele><time>2026-04-11T15:13:41.747Z</time></trkpt><trkpt lat="43.3819153" lon="13.6175413"><ele>18.0</ele><time>2026-04-11T15:13:42.745Z</time></trkpt><trkpt lat="43.3817084" lon="13.6176186"><ele>18.0</ele><time>2026-04-11T15:13:43.751Z</time></trkpt><trkpt lat="43.3815197" lon="13.6176874"><ele>18.0</ele><time>2026-04-11T15:13:44.751Z</time></trkpt><trkpt lat="43.3813617" lon="13.6177471"><ele>18.25</ele><time>2026-04-11T15:13:45.745Z</time></trkpt><trkpt lat="43.3812233" lon="13.6177974"><ele>18.5</ele><time>2026-04-11T15:13:46.745Z</time></trkpt><trkpt lat="43.3811041" lon="13.6178396"><ele>18.75</ele><time>2026-04-11T15:13:47.744Z</time></trkpt><trkpt lat="43.3809998" lon="13.617879"><ele>19.0</ele><time>2026-04-11T15:13:48.744Z</time></trkpt><trkpt lat="43.3808976" lon="13.6179334"><ele>19.0</ele><time>2026-04-11T15:13:49.748Z</time></trkpt><trkpt lat="43.3807905" lon="13.6180113"><ele>19.0</ele><time>2026-04-11T15:13:50.753Z</time></trkpt><trkpt lat="43.3806725" lon="13.6181211"><ele>19.0</ele><time>2026-04-11T15:13:51.747Z</time></trkpt><trkpt lat="43.3805387" lon="13.6182511"><ele>19.0</ele><time>2026-04-11T15:13:52.747Z</time></trkpt><trkpt lat="43.3803994" lon="13.6183814"><ele>19.333333333333332</ele><time>2026-04-11T15:13:53.744Z</time></trkpt><trkpt lat="43.3802578" lon="13.6185166"><ele>19.666666666666668</ele><time>2026-04-11T15:13:54.745Z</time></trkpt><trkpt lat="43.3801094" lon="13.6186557"><ele>20.0</ele><time>2026-04-11T15:13:55.749Z</time></trkpt><trkpt lat="43.3799662" lon="13.6187855"><ele>20.0</ele><time>2026-04-11T15:13:56.745Z</time></trkpt><trkpt lat="43.3798324" lon="13.6189004"><ele>20.0</ele><time>2026-04-11T15:13:57.751Z</time></trkpt><trkpt lat="43.379707" lon="13.6189996"><ele>20.0</ele><time>2026-04-11T15:13:58.744Z</time></trkpt><trkpt lat="43.379584" lon="13.6190885"><ele>20.0</ele><time>2026-04-11T15:13:59.744Z</time></trkpt><trkpt lat="43.37946" lon="13.6191655"><ele>20.0</ele><time>2026-04-11T15:14:00.747Z</time></trkpt><trkpt lat="43.3793385" lon="13.6192394"><ele>20.0</ele><time>2026-04-11T15:14:01.745Z</time></trkpt><trkpt lat="43.3792353" lon="13.6192943"><ele>20.0</ele><time>2026-04-11T15:14:02.748Z</time></trkpt><trkpt lat="43.3791366" lon="13.6193399"><ele>20.0</ele><time>2026-04-11T15:14:03.751Z</time></trkpt><trkpt lat="43.3790452" lon="13.6193737"><ele>20.0</ele><time>2026-04-11T15:14:04.749Z</time></trkpt><trkpt lat="43.378959" lon="13.6193979"><ele>20.0</ele><time>2026-04-11T15:14:05.746Z</time></trkpt><trkpt lat="43.3788829" lon="13.6194112"><ele>20.0</ele><time>2026-04-11T15:14:06.743Z</time></trkpt><trkpt lat="43.3787894" lon="13.6193939"><ele>20.0</ele><time>2026-04-11T15:14:08.746Z</time></trkpt><trkpt lat="43.3787204" lon="13.6193022"><ele>20.0</ele><time>2026-04-11T15:14:10.747Z</time></trkpt><trkpt lat="43.3786954" lon="13.6192066"><ele>20.0</ele><time>2026-04-11T15:14:11.752Z</time></trkpt><trkpt lat="43.37867" lon="13.6190567"><ele>20.5</ele><time>2026-04-11T15:14:12.744Z</time></trkpt><trkpt lat="43.3786405" lon="13.6188792"><ele>21.0</ele><time>2026-04-11T15:14:13.745Z</time></trkpt><trkpt lat="43.3786065" lon="13.6187007"><ele>21.5</ele><time>2026-04-11T15:14:14.745Z</time></trkpt><trkpt lat="43.3785779" lon="13.6185453"><ele>22.0</ele><time>2026-04-11T15:14:15.745Z</time></trkpt><trkpt lat="43.3785499" lon="13.6184163"><ele>22.0</ele><time>2026-04-11T15:14:16.745Z</time></trkpt><trkpt lat="43.3785217" lon="13.6183162"><ele>22.0</ele><time>2026-04-11T15:14:17.749Z</time></trkpt><trkpt lat="43.3784775" lon="13.6182428"><ele>22.0</ele><time>2026-04-11T15:14:18.749Z</time></trkpt><trkpt lat="43.3783654" lon="13.618205"><ele>22.0</ele><time>2026-04-11T15:14:20.745Z</time></trkpt><trkpt lat="43.3782903" lon="13.6182283"><ele>22.0</ele><time>2026-04-11T15:14:21.744Z</time></trkpt><trkpt lat="43.3781861" lon="13.618266"><ele>22.0</ele><time>2026-04-11T15:14:22.747Z</time></trkpt><trkpt lat="43.3780689" lon="13.6183108"><ele>23.5</ele><time>2026-04-11T15:14:23.749Z</time></trkpt><trkpt lat="43.3779329" lon="13.618362"><ele>25.0</ele><time>2026-04-11T15:14:24.751Z</time></trkpt><trkpt lat="43.3777923" lon="13.6184104"><ele>26.5</ele><time>2026-04-11T15:14:25.753Z</time></trkpt><trkpt lat="43.3776444" lon="13.6184718"><ele>28.0</ele><time>2026-04-11T15:14:26.746Z</time></trkpt><trkpt lat="43.3774742" lon="13.6185386"><ele>28.0</ele><time>2026-04-11T15:14:27.744Z</time></trkpt><trkpt lat="43.3773126" lon="13.6186006"><ele>28.0</ele><time>2026-04-11T15:14:28.746Z</time></trkpt><trkpt lat="43.3771447" lon="13.6186647"><ele>28.0</ele><time>2026-04-11T15:14:29.746Z</time></trkpt><trkpt lat="43.3769821" lon="13.6187307"><ele>31.333333333333336</ele><time>2026-04-11T15:14:30.746Z</time></trkpt><trkpt lat="43.3768189" lon="13.6188054"><ele>34.666666666666664</ele><time>2026-04-11T15:14:31.749Z</time></trkpt><trkpt lat="43.3766478" lon="13.6189106"><ele>38.0</ele><time>2026-04-11T15:14:32.752Z</time></trkpt><trkpt lat="43.3764758" lon="13.6190437"><ele>42.0</ele><time>2026-04-11T15:14:33.746Z</time></trkpt><trkpt lat="43.3762978" lon="13.6191847"><ele>46.0</ele><time>2026-04-11T15:14:34.748Z</time></trkpt><trkpt lat="43.3761267" lon="13.6193125"><ele>50.0</ele><time>2026-04-11T15:14:35.743Z</time></trkpt><trkpt lat="43.375952" lon="13.6194345"><ele>49.66666666666667</ele><time>2026-04-11T15:14:36.743Z</time></trkpt><trkpt lat="43.3757768" lon="13.6195478"><ele>49.33333333333333</ele><time>2026-04-11T15:14:37.747Z</time></trkpt><trkpt lat="43.3755954" lon="13.6196423"><ele>49.0</ele><time>2026-04-11T15:14:38.748Z</time></trkpt><trkpt lat="43.3754052" lon="13.6197534"><ele>52.666666666666664</ele><time>2026-04-11T15:14:39.747Z</time></trkpt><trkpt lat="43.3752168" lon="13.6198782"><ele>56.33333333333333</ele><time>2026-04-11T15:14:40.75Z</time></trkpt><trkpt lat="43.3750277" lon="13.6200041"><ele>60.0</ele><time>2026-04-11T15:14:41.744Z</time></trkpt><trkpt lat="43.3748672" lon="13.6201147"><ele>60.0</ele><time>2026-04-11T15:14:42.744Z</time></trkpt><trkpt lat="43.3747221" lon="13.6202121"><ele>60.0</ele><time>2026-04-11T15:14:43.744Z</time></trkpt><trkpt lat="43.3746027" lon="13.6202752"><ele>60.0</ele><time>2026-04-11T15:14:44.748Z</time></trkpt><trkpt lat="43.3745061" lon="13.6203177"><ele>60.0</ele><time>2026-04-11T15:14:45.747Z</time></trkpt><trkpt lat="43.3744289" lon="13.6203582"><ele>63.2</ele><time>2026-04-11T15:14:46.745Z</time></trkpt><trkpt lat="43.3743512" lon="13.6204085"><ele>66.4</ele><time>2026-04-11T15:14:47.744Z</time></trkpt><trkpt lat="43.3742682" lon="13.6204698"><ele>69.6</ele><time>2026-04-11T15:14:48.744Z</time></trkpt><trkpt lat="43.3741866" lon="13.6205419"><ele>72.8</ele><time>2026-04-11T15:14:49.745Z</time></trkpt><trkpt lat="43.3741051" lon="13.6206161"><ele>76.0</ele><time>2026-04-11T15:14:50.746Z</time></trkpt><trkpt lat="43.3740084" lon="13.6206959"><ele>76.0</ele><time>2026-04-11T15:14:51.748Z</time></trkpt><trkpt lat="43.3739246" lon="13.6207531"><ele>76.0</ele><time>2026-04-11T15:14:52.75Z</time></trkpt><trkpt lat="43.3738244" lon="13.6207951"><ele>76.0</ele><time>2026-04-11T15:14:53.748Z</time></trkpt><trkpt lat="43.373716" lon="13.6208318"><ele>76.0</ele><time>2026-04-11T15:14:54.747Z</time></trkpt><trkpt lat="43.3736023" lon="13.6208767"><ele>76.0</ele><time>2026-04-11T15:14:55.744Z</time></trkpt><trkpt lat="43.3734946" lon="13.6209182"><ele>78.25</ele><time>2026-04-11T15:14:56.742Z</time></trkpt><trkpt lat="43.3733749" lon="13.6209949"><ele>80.5</ele><time>2026-04-11T15:14:57.746Z</time></trkpt><trkpt lat="43.3732585" lon="13.6210747"><ele>82.75</ele><time>2026-04-11T15:14:58.745Z</time></trkpt><trkpt lat="43.373155" lon="13.6211713"><ele>85.0</ele><time>2026-04-11T15:14:59.75Z</time></trkpt><trkpt lat="43.3730491" lon="13.6212492"><ele>89.0</ele><time>2026-04-11T15:15:00.748Z</time></trkpt><trkpt lat="43.3729493" lon="13.621284"><ele>93.0</ele><time>2026-04-11T15:15:01.743Z</time></trkpt><trkpt lat="43.3728449" lon="13.6213318"><ele>97.0</ele><time>2026-04-11T15:15:02.75Z</time></trkpt><trkpt lat="43.3727077" lon="13.6213396"><ele>101.0</ele><time>2026-04-11T15:15:03.744Z</time></trkpt><trkpt lat="43.3725812" lon="13.6213657"><ele>101.0</ele><time>2026-04-11T15:15:04.744Z</time></trkpt><trkpt lat="43.3724349" lon="13.6213917"><ele>101.0</ele><time>2026-04-11T15:15:05.744Z</time></trkpt><trkpt lat="43.372299" lon="13.6214205"><ele>101.0</ele><time>2026-04-11T15:15:06.748Z</time></trkpt><trkpt lat="43.3721616" lon="13.6214489"><ele>101.0</ele><time>2026-04-11T15:15:07.748Z</time></trkpt><trkpt lat="43.372026" lon="13.6214777"><ele>106.25</ele><time>2026-04-11T15:15:08.747Z</time></trkpt><trkpt lat="43.3718952" lon="13.6215029"><ele>111.5</ele><time>2026-04-11T15:15:09.743Z</time></trkpt><trkpt lat="43.3717652" lon="13.6215184"><ele>116.75</ele><time>2026-04-11T15:15:10.745Z</time></trkpt><trkpt lat="43.3716353" lon="13.6215299"><ele>122.0</ele><time>2026-04-11T15:15:11.745Z</time></trkpt><trkpt lat="43.371509" lon="13.6215451"><ele>122.0</ele><time>2026-04-11T15:15:12.747Z</time></trkpt><trkpt lat="43.3713801" lon="13.6215632"><ele>122.0</ele><time>2026-04-11T15:15:13.745Z</time></trkpt><trkpt lat="43.3712558" lon="13.6215883"><ele>122.0</ele><time>2026-04-11T15:15:14.745Z</time></trkpt><trkpt lat="43.3711398" lon="13.6216105"><ele>122.0</ele><time>2026-04-11T15:15:15.748Z</time></trkpt><trkpt lat="43.3710269" lon="13.6216286"><ele>126.5</ele><time>2026-04-11T15:15:16.745Z</time></trkpt><trkpt lat="43.3709091" lon="13.6216523"><ele>131.0</ele><time>2026-04-11T15:15:17.745Z</time></trkpt><trkpt lat="43.3707922" lon="13.6216799"><ele>135.5</ele><time>2026-04-11T15:15:18.744Z</time></trkpt><trkpt lat="43.3706864" lon="13.6217041"><ele>140.0</ele><time>2026-04-11T15:15:19.745Z</time></trkpt><trkpt lat="43.3705688" lon="13.6217196"><ele>144.75</ele><time>2026-04-11T15:15:20.745Z</time></trkpt><trkpt lat="43.3704398" lon="13.6217419"><ele>149.5</ele><time>2026-04-11T15:15:21.742Z</time></trkpt><trkpt lat="43.3703168" lon="13.6217689"><ele>154.25</ele><time>2026-04-11T15:15:22.746Z</time></trkpt><trkpt lat="43.3701789" lon="13.621792"><ele>159.0</ele><time>2026-04-11T15:15:23.752Z</time></trkpt><trkpt lat="43.3700357" lon="13.6218209"><ele>159.0</ele><time>2026-04-11T15:15:24.744Z</time></trkpt><trkpt lat="43.3699" lon="13.6218418"><ele>159.0</ele><time>2026-04-11T15:15:25.745Z</time></trkpt><trkpt lat="43.3698168" lon="13.6218544"><ele>159.0</ele><time>2026-04-11T15:15:26.745Z</time></trkpt><trkpt lat="43.3697276" lon="13.6218636"><ele>159.0</ele><time>2026-04-11T15:15:27.747Z</time></trkpt><trkpt lat="43.3696517" lon="13.6218381"><ele>159.0</ele><time>2026-04-11T15:15:28.745Z</time></trkpt><trkpt lat="43.369574" lon="13.6217319"><ele>163.0</ele><time>2026-04-11T15:15:30.746Z</time></trkpt><trkpt lat="43.3695269" lon="13.6216512"><ele>167.0</ele><time>2026-04-11T15:15:32.745Z</time></trkpt><trkpt lat="43.36946" lon="13.6215406"><ele>171.0</ele><time>2026-04-11T15:15:35.749Z</time></trkpt><trkpt lat="43.3694338" lon="13.6213513"><ele>175.0</ele><time>2026-04-11T15:15:37.742Z</time></trkpt><trkpt lat="43.3694333" lon="13.621223"><ele>179.0</ele><time>2026-04-11T15:15:38.744Z</time></trkpt><trkpt lat="43.3694312" lon="13.6210772"><ele>179.0</ele><time>2026-04-11T15:15:39.743Z</time></trkpt><trkpt lat="43.3694725" lon="13.6208913"><ele>179.0</ele><time>2026-04-11T15:15:40.748Z</time></trkpt><trkpt lat="43.3694992" lon="13.6207123"><ele>179.0</ele><time>2026-04-11T15:15:41.747Z</time></trkpt><trkpt lat="43.3695317" lon="13.6205169"><ele>179.0</ele><time>2026-04-11T15:15:42.751Z</time></trkpt><trkpt lat="43.3695637" lon="13.6203209"><ele>178.66666666666666</ele><time>2026-04-11T15:15:43.746Z</time></trkpt><trkpt lat="43.3695942" lon="13.6200874"><ele>178.33333333333334</ele><time>2026-04-11T15:15:44.743Z</time></trkpt><trkpt lat="43.3696322" lon="13.6198679"><ele>178.0</ele><time>2026-04-11T15:15:45.744Z</time></trkpt><trkpt lat="43.369668" lon="13.6196572"><ele>173.4</ele><time>2026-04-11T15:15:46.743Z</time></trkpt><trkpt lat="43.3697034" lon="13.6194697"><ele>168.8</ele><time>2026-04-11T15:15:47.745Z</time></trkpt><trkpt lat="43.3697281" lon="13.6193153"><ele>164.2</ele><time>2026-04-11T15:15:48.75Z</time></trkpt><trkpt lat="43.3697464" lon="13.6191933"><ele>159.6</ele><time>2026-04-11T15:15:49.745Z</time></trkpt><trkpt lat="43.3697591" lon="13.6191045"><ele>155.0</ele><time>2026-04-11T15:15:50.746Z</time></trkpt><trkpt lat="43.3697479" lon="13.6190136"><ele>158.6</ele><time>2026-04-11T15:15:52.744Z</time></trkpt><trkpt lat="43.3696723" lon="13.6190599"><ele>162.2</ele><time>2026-04-11T15:15:55.749Z</time></trkpt><trkpt lat="43.3695952" lon="13.6191988"><ele>165.8</ele><time>2026-04-11T15:15:57.745Z</time></trkpt><trkpt lat="43.3695548" lon="13.6192741"><ele>169.4</ele><time>2026-04-11T15:15:58.744Z</time></trkpt><trkpt lat="43.3695021" lon="13.6193686"><ele>173.0</ele><time>2026-04-11T15:15:59.743Z</time></trkpt><trkpt lat="43.3694359" lon="13.6194583"><ele>173.83333333333331</ele><time>2026-04-11T15:16:00.747Z</time></trkpt><trkpt lat="43.3693818" lon="13.6195501"><ele>174.66666666666666</ele><time>2026-04-11T15:16:01.747Z</time></trkpt><trkpt lat="43.3693211" lon="13.6196232"><ele>175.5</ele><time>2026-04-11T15:16:02.749Z</time></trkpt><trkpt lat="43.3692616" lon="13.6196718"><ele>176.33333333333334</ele><time>2026-04-11T15:16:03.753Z</time></trkpt><trkpt lat="43.3691902" lon="13.6197023"><ele>177.16666666666669</ele><time>2026-04-11T15:16:04.744Z</time></trkpt><trkpt lat="43.3691143" lon="13.6197343"><ele>178.0</ele><time>2026-04-11T15:16:05.746Z</time></trkpt><trkpt lat="43.3690489" lon="13.6196675"><ele>178.0</ele><time>2026-04-11T15:16:06.743Z</time></trkpt><trkpt lat="43.3689135" lon="13.6195641"><ele>178.0</ele><time>2026-04-11T15:16:07.745Z</time></trkpt><trkpt lat="43.368804" lon="13.6194495"><ele>178.0</ele><time>2026-04-11T15:16:08.751Z</time></trkpt><trkpt lat="43.368691" lon="13.6193528"><ele>178.0</ele><time>2026-04-11T15:16:09.746Z</time></trkpt><trkpt lat="43.3685761" lon="13.6192601"><ele>181.5</ele><time>2026-04-11T15:16:10.746Z</time></trkpt><trkpt lat="43.3684523" lon="13.619168"><ele>185.0</ele><time>2026-04-11T15:16:11.744Z</time></trkpt><trkpt lat="43.3683186" lon="13.6190782"><ele>188.5</ele><time>2026-04-11T15:16:12.743Z</time></trkpt><trkpt lat="43.3681919" lon="13.6189931"><ele>192.0</ele><time>2026-04-11T15:16:13.745Z</time></trkpt><trkpt lat="43.3680892" lon="13.6189132"><ele>195.6</ele><time>2026-04-11T15:16:14.745Z</time></trkpt><trkpt lat="43.3679959" lon="13.6188385"><ele>199.2</ele><time>2026-04-11T15:16:15.745Z</time></trkpt><trkpt lat="43.3679134" lon="13.6187889"><ele>202.8</ele><time>2026-04-11T15:16:16.748Z</time></trkpt><trkpt lat="43.3678468" lon="13.6187541"><ele>206.4</ele><time>2026-04-11T15:16:17.747Z</time></trkpt><trkpt lat="43.3677523" lon="13.6187372"><ele>210.0</ele><time>2026-04-11T15:16:19.743Z</time></trkpt><trkpt lat="43.3676225" lon="13.6187316"><ele>210.0</ele><time>2026-04-11T15:16:21.744Z</time></trkpt><trkpt lat="43.3675287" lon="13.6187276"><ele>210.0</ele><time>2026-04-11T15:16:22.75Z</time></trkpt><trkpt lat="43.3674244" lon="13.6187099"><ele>210.0</ele><time>2026-04-11T15:16:23.749Z</time></trkpt><trkpt lat="43.3673044" lon="13.618699"><ele>210.0</ele><time>2026-04-11T15:16:24.747Z</time></trkpt><trkpt lat="43.3671825" lon="13.6186824"><ele>210.0</ele><time>2026-04-11T15:16:25.745Z</time></trkpt><trkpt lat="43.367066" lon="13.6186624"><ele>207.2</ele><time>2026-04-11T15:16:26.743Z</time></trkpt><trkpt lat="43.3669584" lon="13.6186267"><ele>204.4</ele><time>2026-04-11T15:16:27.743Z</time></trkpt><trkpt lat="43.3668683" lon="13.618578"><ele>201.60000000000002</ele><time>2026-04-11T15:16:28.746Z</time></trkpt><trkpt lat="43.3667996" lon="13.6184506"><ele>198.8</ele><time>2026-04-11T15:16:29.746Z</time></trkpt><trkpt lat="43.3667176" lon="13.618359"><ele>196.0</ele><time>2026-04-11T15:16:30.746Z</time></trkpt><trkpt lat="43.3666361" lon="13.6182762"><ele>196.0</ele><time>2026-04-11T15:16:31.747Z</time></trkpt><trkpt lat="43.3665511" lon="13.6182125"><ele>196.0</ele><time>2026-04-11T15:16:32.745Z</time></trkpt><trkpt lat="43.3664707" lon="13.6181625"><ele>196.0</ele><time>2026-04-11T15:16:33.744Z</time></trkpt><trkpt lat="43.3663846" lon="13.6181278"><ele>196.0</ele><time>2026-04-11T15:16:34.744Z</time></trkpt><trkpt lat="43.3662974" lon="13.618094"><ele>196.0</ele><time>2026-04-11T15:16:35.744Z</time></trkpt><trkpt lat="43.3661983" lon="13.6180913"><ele>198.60000000000002</ele><time>2026-04-11T15:16:36.743Z</time></trkpt><trkpt lat="43.3660972" lon="13.6180912"><ele>201.2</ele><time>2026-04-11T15:16:37.75Z</time></trkpt><trkpt lat="43.3659884" lon="13.6181057"><ele>203.8</ele><time>2026-04-11T15:16:38.748Z</time></trkpt><trkpt lat="43.3658818" lon="13.6181367"><ele>206.39999999999998</ele><time>2026-04-11T15:16:39.747Z</time></trkpt><trkpt lat="43.3657753" lon="13.6181898"><ele>209.0</ele><time>2026-04-11T15:16:40.757Z</time></trkpt><trkpt lat="43.3656706" lon="13.6182592"><ele>209.0</ele><time>2026-04-11T15:16:41.744Z</time></trkpt><trkpt lat="43.3655724" lon="13.6183528"><ele>209.0</ele><time>2026-04-11T15:16:42.743Z</time></trkpt><trkpt lat="43.3654767" lon="13.6184435"><ele>209.0</ele><time>2026-04-11T15:16:43.751Z</time></trkpt><trkpt lat="43.3653934" lon="13.6185174"><ele>209.0</ele><time>2026-04-11T15:16:44.744Z</time></trkpt><trkpt lat="43.3653114" lon="13.618565"><ele>209.0</ele><time>2026-04-11T15:16:45.747Z</time></trkpt><trkpt lat="43.3652318" lon="13.6185719"><ele>208.33333333333334</ele><time>2026-04-11T15:16:46.756Z</time></trkpt><trkpt lat="43.3651498" lon="13.6185729"><ele>207.66666666666669</ele><time>2026-04-11T15:16:47.743Z</time></trkpt><trkpt lat="43.3650629" lon="13.6185662"><ele>207.0</ele><time>2026-04-11T15:16:48.744Z</time></trkpt><trkpt lat="43.3649748" lon="13.618559"><ele>206.33333333333331</ele><time>2026-04-11T15:16:49.748Z</time></trkpt><trkpt lat="43.3648798" lon="13.6185383"><ele>205.66666666666666</ele><time>2026-04-11T15:16:50.75Z</time></trkpt><trkpt lat="43.3647922" lon="13.618519"><ele>205.0</ele><time>2026-04-11T15:16:51.746Z</time></trkpt><trkpt lat="43.3647033" lon="13.6184997"><ele>204.16666666666666</ele><time>2026-04-11T15:16:52.755Z</time></trkpt><trkpt lat="43.3646186" lon="13.6184792"><ele>203.33333333333331</ele><time>2026-04-11T15:16:53.753Z</time></trkpt><trkpt lat="43.3645407" lon="13.6184582"><ele>202.5</ele><time>2026-04-11T15:16:54.745Z</time></trkpt><trkpt lat="43.3644603" lon="13.6184312"><ele>201.66666666666669</ele><time>2026-04-11T15:16:55.746Z</time></trkpt><trkpt lat="43.3643787" lon="13.6183965"><ele>200.83333333333334</ele><time>2026-04-11T15:16:56.747Z</time></trkpt><trkpt lat="43.3642934" lon="13.6183325"><ele>200.0</ele><time>2026-04-11T15:16:57.747Z</time></trkpt><trkpt lat="43.3642001" lon="13.6182484"><ele>200.0</ele><time>2026-04-11T15:16:58.752Z</time></trkpt><trkpt lat="43.3640996" lon="13.6181479"><ele>200.0</ele><time>2026-04-11T15:16:59.745Z</time></trkpt><trkpt lat="43.3639922" lon="13.6180422"><ele>200.0</ele><time>2026-04-11T15:17:00.754Z</time></trkpt><trkpt lat="43.3638832" lon="13.6179358"><ele>200.0</ele><time>2026-04-11T15:17:01.745Z</time></trkpt><trkpt lat="43.3637833" lon="13.6178306"><ele>199.4</ele><time>2026-04-11T15:17:02.745Z</time></trkpt><trkpt lat="43.3636922" lon="13.6177373"><ele>198.8</ele><time>2026-04-11T15:17:03.747Z</time></trkpt><trkpt lat="43.3636242" lon="13.6176603"><ele>198.2</ele><time>2026-04-11T15:17:04.746Z</time></trkpt><trkpt lat="43.3635719" lon="13.6176065"><ele>197.6</ele><time>2026-04-11T15:17:05.749Z</time></trkpt><trkpt lat="43.3634765" lon="13.6176123"><ele>197.0</ele><time>2026-04-11T15:17:07.747Z</time></trkpt><trkpt lat="43.3633972" lon="13.6177067"><ele>197.00000000000003</ele><time>2026-04-11T15:17:09.749Z</time></trkpt><trkpt lat="43.3633502" lon="13.6177658"><ele>197.0</ele><time>2026-04-11T15:17:10.743Z</time></trkpt><trkpt lat="43.3632725" lon="13.6177862"><ele>197.0</ele><time>2026-04-11T15:17:11.746Z</time></trkpt><trkpt lat="43.3632033" lon="13.6178122"><ele>197.0</ele><time>2026-04-11T15:17:12.75Z</time></trkpt><trkpt lat="43.3631258" lon="13.6178394"><ele>197.00000000000003</ele><time>2026-04-11T15:17:13.749Z</time></trkpt><trkpt lat="43.3630383" lon="13.6178714"><ele>197.0</ele><time>2026-04-11T15:17:14.745Z</time></trkpt><trkpt lat="43.3629382" lon="13.6179081"><ele>192.25</ele><time>2026-04-11T15:17:15.744Z</time></trkpt><trkpt lat="43.362827" lon="13.6179548"><ele>187.5</ele><time>2026-04-11T15:17:16.744Z</time></trkpt><trkpt lat="43.3627013" lon="13.6180214"><ele>182.75</ele><time>2026-04-11T15:17:17.746Z</time></trkpt><trkpt lat="43.3625714" lon="13.6181006"><ele>178.0</ele><time>2026-04-11T15:17:18.744Z</time></trkpt><trkpt lat="43.3624476" lon="13.618192"><ele>178.0</ele><time>2026-04-11T15:17:19.742Z</time></trkpt><trkpt lat="43.3623249" lon="13.6182828"><ele>178.0</ele><time>2026-04-11T15:17:20.749Z</time></trkpt><trkpt lat="43.3622108" lon="13.6183669"><ele>178.0</ele><time>2026-04-11T15:17:21.744Z</time></trkpt><trkpt lat="43.362114" lon="13.6184511"><ele>178.0</ele><time>2026-04-11T15:17:22.747Z</time></trkpt><trkpt lat="43.36205" lon="13.6185477"><ele>175.8</ele><time>2026-04-11T15:17:23.744Z</time></trkpt><trkpt lat="43.3620055" lon="13.6186673"><ele>173.60000000000002</ele><time>2026-04-11T15:17:24.747Z</time></trkpt><trkpt lat="43.3619901" lon="13.6188079"><ele>171.39999999999998</ele><time>2026-04-11T15:17:25.75Z</time></trkpt><trkpt lat="43.3619866" lon="13.6189463"><ele>169.2</ele><time>2026-04-11T15:17:26.751Z</time></trkpt><trkpt lat="43.3619906" lon="13.6190596"><ele>167.0</ele><time>2026-04-11T15:17:27.753Z</time></trkpt><trkpt lat="43.3619792" lon="13.6192035"><ele>167.0</ele><time>2026-04-11T15:17:29.743Z</time></trkpt><trkpt lat="43.3619547" lon="13.6192877"><ele>167.0</ele><time>2026-04-11T15:17:30.745Z</time></trkpt><trkpt lat="43.3619183" lon="13.6193748"><ele>167.0</ele><time>2026-04-11T15:17:31.745Z</time></trkpt><trkpt lat="43.3618794" lon="13.6194798"><ele>167.0</ele><time>2026-04-11T15:17:32.748Z</time></trkpt><trkpt lat="43.3618429" lon="13.6196027"><ele>167.0</ele><time>2026-04-11T15:17:33.75Z</time></trkpt><trkpt lat="43.3618061" lon="13.6197361"><ele>167.0</ele><time>2026-04-11T15:17:34.743Z</time></trkpt><trkpt lat="43.3617786" lon="13.6199217"><ele>165.0</ele><time>2026-04-11T15:17:35.753Z</time></trkpt><trkpt lat="43.3617569" lon="13.6201208"><ele>163.0</ele><time>2026-04-11T15:17:36.744Z</time></trkpt><trkpt lat="43.3617286" lon="13.6203282"><ele>161.0</ele><time>2026-04-11T15:17:37.743Z</time></trkpt><trkpt lat="43.361707" lon="13.6205683"><ele>159.33333333333331</ele><time>2026-04-11T15:17:38.745Z</time></trkpt><trkpt lat="43.3616805" lon="13.6208072"><ele>157.66666666666666</ele><time>2026-04-11T15:17:39.752Z</time></trkpt><trkpt lat="43.3616685" lon="13.6210932"><ele>156.0</ele><time>2026-04-11T15:17:40.746Z</time></trkpt><trkpt lat="43.3616626" lon="13.6213469"><ele>155.33333333333334</ele><time>2026-04-11T15:17:41.747Z</time></trkpt><trkpt lat="43.3616442" lon="13.6216118"><ele>154.66666666666669</ele><time>2026-04-11T15:17:42.743Z</time></trkpt><trkpt lat="43.361611" lon="13.6218491"><ele>154.0</ele><time>2026-04-11T15:17:43.743Z</time></trkpt><trkpt lat="43.3615992" lon="13.6220813"><ele>152.75</ele><time>2026-04-11T15:17:44.744Z</time></trkpt><trkpt lat="43.3615817" lon="13.622294"><ele>151.5</ele><time>2026-04-11T15:17:45.747Z</time></trkpt><trkpt lat="43.3615735" lon="13.6224707"><ele>150.25</ele><time>2026-04-11T15:17:46.744Z</time></trkpt><trkpt lat="43.3615627" lon="13.6226344"><ele>149.0</ele><time>2026-04-11T15:17:47.747Z</time></trkpt><trkpt lat="43.3615529" lon="13.6227616"><ele>148.5</ele><time>2026-04-11T15:17:48.748Z</time></trkpt><trkpt lat="43.3615295" lon="13.6228648"><ele>148.0</ele><time>2026-04-11T15:17:49.746Z</time></trkpt><trkpt lat="43.361501" lon="13.6229489"><ele>147.5</ele><time>2026-04-11T15:17:50.746Z</time></trkpt><trkpt lat="43.361424" lon="13.6229648"><ele>147.0</ele><time>2026-04-11T15:17:51.744Z</time></trkpt><trkpt lat="43.3613376" lon="13.6229889"><ele>146.5</ele><time>2026-04-11T15:17:52.747Z</time></trkpt><trkpt lat="43.3612315" lon="13.6230163"><ele>146.0</ele><time>2026-04-11T15:17:53.75Z</time></trkpt><trkpt lat="43.3611164" lon="13.6230696"><ele>146.0</ele><time>2026-04-11T15:17:54.754Z</time></trkpt><trkpt lat="43.3610028" lon="13.623154"><ele>146.0</ele><time>2026-04-11T15:17:55.745Z</time></trkpt><trkpt lat="43.3608761" lon="13.6232673"><ele>146.0</ele><time>2026-04-11T15:17:56.748Z</time></trkpt><trkpt lat="43.3607355" lon="13.6234006"><ele>146.0</ele><time>2026-04-11T15:17:57.744Z</time></trkpt><trkpt lat="43.3605914" lon="13.6235421"><ele>146.0</ele><time>2026-04-11T15:17:58.745Z</time></trkpt><trkpt lat="43.3604629" lon="13.6236671"><ele>146.0</ele><time>2026-04-11T15:17:59.749Z</time></trkpt><trkpt lat="43.3603468" lon="13.62377"><ele>148.75</ele><time>2026-04-11T15:18:00.748Z</time></trkpt><trkpt lat="43.3602372" lon="13.6238273"><ele>151.5</ele><time>2026-04-11T15:18:01.747Z</time></trkpt><trkpt lat="43.3601169" lon="13.6238407"><ele>154.25</ele><time>2026-04-11T15:18:02.746Z</time></trkpt><trkpt lat="43.3599943" lon="13.6238319"><ele>157.0</ele><time>2026-04-11T15:18:03.746Z</time></trkpt><trkpt lat="43.3598685" lon="13.6238201"><ele>157.0</ele><time>2026-04-11T15:18:04.744Z</time></trkpt><trkpt lat="43.3597581" lon="13.6238211"><ele>157.0</ele><time>2026-04-11T15:18:05.745Z</time></trkpt><trkpt lat="43.359662" lon="13.6238438"><ele>157.0</ele><time>2026-04-11T15:18:06.746Z</time></trkpt><trkpt lat="43.3595712" lon="13.6238855"><ele>157.0</ele><time>2026-04-11T15:18:07.746Z</time></trkpt><trkpt lat="43.3594887" lon="13.6239507"><ele>157.0</ele><time>2026-04-11T15:18:08.747Z</time></trkpt><trkpt lat="43.3594004" lon="13.624009"><ele>160.75</ele><time>2026-04-11T15:18:09.75Z</time></trkpt><trkpt lat="43.35929" lon="13.6240876"><ele>164.5</ele><time>2026-04-11T15:18:10.748Z</time></trkpt><trkpt lat="43.3591788" lon="13.6241364"><ele>168.25</ele><time>2026-04-11T15:18:11.745Z</time></trkpt><trkpt lat="43.3590642" lon="13.6241885"><ele>172.0</ele><time>2026-04-11T15:18:12.746Z</time></trkpt><trkpt lat="43.3589207" lon="13.6242264"><ele>174.25</ele><time>2026-04-11T15:18:13.748Z</time></trkpt><trkpt lat="43.3587479" lon="13.6241646"><ele>176.5</ele><time>2026-04-11T15:18:14.747Z</time></trkpt><trkpt lat="43.3586138" lon="13.6241713"><ele>178.75</ele><time>2026-04-11T15:18:15.748Z</time></trkpt><trkpt lat="43.3585011" lon="13.6241831"><ele>181.0</ele><time>2026-04-11T15:18:16.742Z</time></trkpt><trkpt lat="43.3584019" lon="13.6241952"><ele>181.0</ele><time>2026-04-11T15:18:17.743Z</time></trkpt><trkpt lat="43.3583145" lon="13.6241996"><ele>181.0</ele><time>2026-04-11T15:18:18.744Z</time></trkpt><trkpt lat="43.3582294" lon="13.6242091"><ele>181.0</ele><time>2026-04-11T15:18:19.745Z</time></trkpt><trkpt lat="43.3581268" lon="13.624224"><ele>181.0</ele><time>2026-04-11T15:18:20.745Z</time></trkpt><trkpt lat="43.3580041" lon="13.6242598"><ele>181.0</ele><time>2026-04-11T15:18:21.747Z</time></trkpt><trkpt lat="43.3578723" lon="13.62431"><ele>181.75</ele><time>2026-04-11T15:18:22.744Z</time></trkpt><trkpt lat="43.3577325" lon="13.6243676"><ele>182.5</ele><time>2026-04-11T15:18:23.745Z</time></trkpt><trkpt lat="43.3575854" lon="13.6244284"><ele>183.25</ele><time>2026-04-11T15:18:24.743Z</time></trkpt><trkpt lat="43.3574445" lon="13.6244933"><ele>184.0</ele><time>2026-04-11T15:18:25.744Z</time></trkpt><trkpt lat="43.3573049" lon="13.6245677"><ele>180.6</ele><time>2026-04-11T15:18:26.743Z</time></trkpt><trkpt lat="43.3571874" lon="13.6246126"><ele>177.2</ele><time>2026-04-11T15:18:27.749Z</time></trkpt><trkpt lat="43.3570785" lon="13.6246458"><ele>173.79999999999998</ele><time>2026-04-11T15:18:28.746Z</time></trkpt><trkpt lat="43.3569796" lon="13.6246588"><ele>170.39999999999998</ele><time>2026-04-11T15:18:29.744Z</time></trkpt><trkpt lat="43.3568823" lon="13.6246353"><ele>167.0</ele><time>2026-04-11T15:18:30.743Z</time></trkpt><trkpt lat="43.3567917" lon="13.6245547"><ele>164.75</ele><time>2026-04-11T15:18:31.743Z</time></trkpt><trkpt lat="43.3567086" lon="13.6244444"><ele>162.5</ele><time>2026-04-11T15:18:32.743Z</time></trkpt><trkpt lat="43.3566263" lon="13.6243126"><ele>160.25</ele><time>2026-04-11T15:18:33.748Z</time></trkpt><trkpt lat="43.3565456" lon="13.6241601"><ele>158.0</ele><time>2026-04-11T15:18:34.746Z</time></trkpt><trkpt lat="43.3564621" lon="13.6239982"><ele>158.0</ele><time>2026-04-11T15:18:35.75Z</time></trkpt><trkpt lat="43.3563826" lon="13.6238046"><ele>158.0</ele><time>2026-04-11T15:18:36.746Z</time></trkpt><trkpt lat="43.3562981" lon="13.62364"><ele>158.0</ele><time>2026-04-11T15:18:37.744Z</time></trkpt><trkpt lat="43.3562129" lon="13.623474"><ele>153.75</ele><time>2026-04-11T15:18:38.742Z</time></trkpt><trkpt lat="43.3561301" lon="13.623318"><ele>149.5</ele><time>2026-04-11T15:18:39.744Z</time></trkpt><trkpt lat="43.3560491" lon="13.6231646"><ele>145.25</ele><time>2026-04-11T15:18:40.748Z</time></trkpt><trkpt lat="43.3559799" lon="13.6230279"><ele>141.0</ele><time>2026-04-11T15:18:41.751Z</time></trkpt><trkpt lat="43.3559069" lon="13.622916"><ele>141.0</ele><time>2026-04-11T15:18:42.746Z</time></trkpt><trkpt lat="43.3558202" lon="13.6228223"><ele>141.0</ele><time>2026-04-11T15:18:43.744Z</time></trkpt><trkpt lat="43.3557325" lon="13.6227374"><ele>141.0</ele><time>2026-04-11T15:18:44.743Z</time></trkpt><trkpt lat="43.3556108" lon="13.6227063"><ele>141.0</ele><time>2026-04-11T15:18:45.743Z</time></trkpt><trkpt lat="43.3555159" lon="13.6226657"><ele>141.0</ele><time>2026-04-11T15:18:46.744Z</time></trkpt><trkpt lat="43.3554439" lon="13.6226024"><ele>137.8</ele><time>2026-04-11T15:18:47.751Z</time></trkpt><trkpt lat="43.3553938" lon="13.6225315"><ele>134.6</ele><time>2026-04-11T15:18:48.744Z</time></trkpt><trkpt lat="43.3553796" lon="13.6224178"><ele>131.4</ele><time>2026-04-11T15:18:49.748Z</time></trkpt><trkpt lat="43.3553875" lon="13.6222771"><ele>128.2</ele><time>2026-04-11T15:18:50.743Z</time></trkpt><trkpt lat="43.3553788" lon="13.6221182"><ele>125.0</ele><time>2026-04-11T15:18:51.745Z</time></trkpt><trkpt lat="43.3553587" lon="13.6219572"><ele>122.75</ele><time>2026-04-11T15:18:52.742Z</time></trkpt><trkpt lat="43.3553366" lon="13.6217842"><ele>120.5</ele><time>2026-04-11T15:18:53.752Z</time></trkpt><trkpt lat="43.3553402" lon="13.6216092"><ele>118.25</ele><time>2026-04-11T15:18:54.746Z</time></trkpt><trkpt lat="43.3553539" lon="13.6214507"><ele>116.0</ele><time>2026-04-11T15:18:55.745Z</time></trkpt><trkpt lat="43.3553539" lon="13.6213043"><ele>116.0</ele><time>2026-04-11T15:18:56.744Z</time></trkpt><trkpt lat="43.3553345" lon="13.6211686"><ele>116.0</ele><time>2026-04-11T15:18:57.744Z</time></trkpt><trkpt lat="43.3552878" lon="13.6210275"><ele>116.0</ele><time>2026-04-11T15:18:58.744Z</time></trkpt><trkpt lat="43.3551701" lon="13.6209087"><ele>116.0</ele><time>2026-04-11T15:18:59.743Z</time></trkpt><trkpt lat="43.3550889" lon="13.620783"><ele>113.5</ele><time>2026-04-11T15:19:00.746Z</time></trkpt><trkpt lat="43.3549956" lon="13.6206618"><ele>111.0</ele><time>2026-04-11T15:19:01.746Z</time></trkpt><trkpt lat="43.3549005" lon="13.6205488"><ele>108.5</ele><time>2026-04-11T15:19:02.743Z</time></trkpt><trkpt lat="43.3547763" lon="13.6204596"><ele>106.0</ele><time>2026-04-11T15:19:03.751Z</time></trkpt><trkpt lat="43.3546605" lon="13.6203579"><ele>101.25</ele><time>2026-04-11T15:19:04.745Z</time></trkpt><trkpt lat="43.3545415" lon="13.6202583"><ele>96.5</ele><time>2026-04-11T15:19:05.744Z</time></trkpt><trkpt lat="43.3544229" lon="13.6201626"><ele>91.75</ele><time>2026-04-11T15:19:06.747Z</time></trkpt><trkpt lat="43.3543004" lon="13.6200667"><ele>87.0</ele><time>2026-04-11T15:19:07.742Z</time></trkpt><trkpt lat="43.3541755" lon="13.6199857"><ele>87.0</ele><time>2026-04-11T15:19:08.745Z</time></trkpt><trkpt lat="43.3540511" lon="13.619911"><ele>87.0</ele><time>2026-04-11T15:19:09.749Z</time></trkpt><trkpt lat="43.3539173" lon="13.6198434"><ele>87.0</ele><time>2026-04-11T15:19:10.743Z</time></trkpt><trkpt lat="43.3537769" lon="13.6197772"><ele>87.0</ele><time>2026-04-11T15:19:11.743Z</time></trkpt><trkpt lat="43.3536322" lon="13.6197079"><ele>84.75</ele><time>2026-04-11T15:19:12.745Z</time></trkpt><trkpt lat="43.3534877" lon="13.6196394"><ele>82.5</ele><time>2026-04-11T15:19:13.743Z</time></trkpt><trkpt lat="43.3533483" lon="13.6195775"><ele>80.25</ele><time>2026-04-11T15:19:14.743Z</time></trkpt><trkpt lat="43.3532191" lon="13.6195239"><ele>78.0</ele><time>2026-04-11T15:19:15.745Z</time></trkpt><trkpt lat="43.3531052" lon="13.619479"><ele>75.4</ele><time>2026-04-11T15:19:16.745Z</time></trkpt><trkpt lat="43.3530086" lon="13.6194384"><ele>72.8</ele><time>2026-04-11T15:19:17.75Z</time></trkpt><trkpt lat="43.3529238" lon="13.6194122"><ele>70.2</ele><time>2026-04-11T15:19:18.744Z</time></trkpt><trkpt lat="43.3528332" lon="13.6194196"><ele>67.6</ele><time>2026-04-11T15:19:19.748Z</time></trkpt><trkpt lat="43.3527539" lon="13.619477"><ele>65.0</ele><time>2026-04-11T15:19:20.742Z</time></trkpt><trkpt lat="43.3526796" lon="13.6195832"><ele>65.0</ele><time>2026-04-11T15:19:21.742Z</time></trkpt><trkpt lat="43.3525875" lon="13.6197131"><ele>65.0</ele><time>2026-04-11T15:19:22.751Z</time></trkpt><trkpt lat="43.3524871" lon="13.6198596"><ele>65.0</ele><time>2026-04-11T15:19:23.748Z</time></trkpt><trkpt lat="43.3523926" lon="13.6200406"><ele>65.0</ele><time>2026-04-11T15:19:24.745Z</time></trkpt><trkpt lat="43.3522875" lon="13.6202042"><ele>63.25</ele><time>2026-04-11T15:19:25.743Z</time></trkpt><trkpt lat="43.3521918" lon="13.6203594"><ele>61.5</ele><time>2026-04-11T15:19:26.743Z</time></trkpt><trkpt lat="43.3521178" lon="13.6204873"><ele>59.75</ele><time>2026-04-11T15:19:27.744Z</time></trkpt><trkpt lat="43.3520459" lon="13.620588"><ele>58.0</ele><time>2026-04-11T15:19:28.744Z</time></trkpt><trkpt lat="43.3519372" lon="13.6206276"><ele>58.0</ele><time>2026-04-11T15:19:29.749Z</time></trkpt><trkpt lat="43.3518173" lon="13.6206623"><ele>58.0</ele><time>2026-04-11T15:19:30.747Z</time></trkpt><trkpt lat="43.3516711" lon="13.6206615"><ele>58.0</ele><time>2026-04-11T15:19:31.749Z</time></trkpt><trkpt lat="43.3515119" lon="13.6206428"><ele>58.0</ele><time>2026-04-11T15:19:32.744Z</time></trkpt><trkpt lat="43.3513504" lon="13.6206143"><ele>59.0</ele><time>2026-04-11T15:19:33.742Z</time></trkpt><trkpt lat="43.351174" lon="13.6205756"><ele>60.0</ele><time>2026-04-11T15:19:34.742Z</time></trkpt><trkpt lat="43.3509888" lon="13.6205292"><ele>61.0</ele><time>2026-04-11T15:19:35.743Z</time></trkpt><trkpt lat="43.3508228" lon="13.6204992"><ele>61.0</ele><time>2026-04-11T15:19:36.744Z</time></trkpt><trkpt lat="43.3506718" lon="13.6205136"><ele>61.0</ele><time>2026-04-11T15:19:37.746Z</time></trkpt><trkpt lat="43.350547" lon="13.6205721"><ele>61.0</ele><time>2026-04-11T15:19:38.747Z</time></trkpt><trkpt lat="43.3504449" lon="13.6206719"><ele>61.0</ele><time>2026-04-11T15:19:39.743Z</time></trkpt><trkpt lat="43.350345" lon="13.6208099"><ele>64.0</ele><time>2026-04-11T15:19:40.745Z</time></trkpt><trkpt lat="43.3502419" lon="13.6209657"><ele>67.0</ele><time>2026-04-11T15:19:41.746Z</time></trkpt><trkpt lat="43.350134" lon="13.6211257"><ele>70.0</ele><time>2026-04-11T15:19:42.745Z</time></trkpt><trkpt lat="43.3500196" lon="13.6212936"><ele>70.0</ele><time>2026-04-11T15:19:43.744Z</time></trkpt><trkpt lat="43.3498974" lon="13.6214765"><ele>70.0</ele><time>2026-04-11T15:19:44.75Z</time></trkpt><trkpt lat="43.3497781" lon="13.6216631"><ele>70.0</ele><time>2026-04-11T15:19:45.75Z</time></trkpt><trkpt lat="43.3496576" lon="13.621848"><ele>72.0</ele><time>2026-04-11T15:19:46.746Z</time></trkpt><trkpt lat="43.3495369" lon="13.6220314"><ele>74.0</ele><time>2026-04-11T15:19:47.743Z</time></trkpt><trkpt lat="43.3494256" lon="13.6221994"><ele>76.0</ele><time>2026-04-11T15:19:48.74Z</time></trkpt><trkpt lat="43.3493225" lon="13.6223628"><ele>76.0</ele><time>2026-04-11T15:19:49.745Z</time></trkpt><trkpt lat="43.3492167" lon="13.6225235"><ele>76.0</ele><time>2026-04-11T15:19:50.744Z</time></trkpt><trkpt lat="43.3491012" lon="13.6226797"><ele>76.0</ele><time>2026-04-11T15:19:51.746Z</time></trkpt><trkpt lat="43.3489661" lon="13.6228129"><ele>76.5</ele><time>2026-04-11T15:19:52.749Z</time></trkpt><trkpt lat="43.3488285" lon="13.6229072"><ele>77.0</ele><time>2026-04-11T15:19:53.743Z</time></trkpt><trkpt lat="43.348697" lon="13.6229476"><ele>77.5</ele><time>2026-04-11T15:19:54.744Z</time></trkpt><trkpt lat="43.3485565" lon="13.6229531"><ele>78.0</ele><time>2026-04-11T15:19:55.743Z</time></trkpt><trkpt lat="43.3483936" lon="13.6229053"><ele>78.0</ele><time>2026-04-11T15:19:56.747Z</time></trkpt><trkpt lat="43.3482204" lon="13.622853"><ele>78.0</ele><time>2026-04-11T15:19:57.749Z</time></trkpt><trkpt lat="43.3480464" lon="13.6227993"><ele>78.0</ele><time>2026-04-11T15:19:58.744Z</time></trkpt><trkpt lat="43.347885" lon="13.6227481"><ele>83.33333333333333</ele><time>2026-04-11T15:19:59.746Z</time></trkpt><trkpt lat="43.3477401" lon="13.6226886"><ele>88.66666666666666</ele><time>2026-04-11T15:20:00.744Z</time></trkpt><trkpt lat="43.3475977" lon="13.6226007"><ele>94.0</ele><time>2026-04-11T15:20:01.742Z</time></trkpt><trkpt lat="43.3474571" lon="13.6224833"><ele>94.0</ele><time>2026-04-11T15:20:02.744Z</time></trkpt><trkpt lat="43.3473203" lon="13.6223472"><ele>94.0</ele><time>2026-04-11T15:20:03.743Z</time></trkpt><trkpt lat="43.3471789" lon="13.62222"><ele>94.0</ele><time>2026-04-11T15:20:04.744Z</time></trkpt><trkpt lat="43.3470448" lon="13.6221144"><ele>96.0</ele><time>2026-04-11T15:20:05.745Z</time></trkpt><trkpt lat="43.346924" lon="13.6220358"><ele>98.0</ele><time>2026-04-11T15:20:06.749Z</time></trkpt><trkpt lat="43.3468245" lon="13.6219744"><ele>100.0</ele><time>2026-04-11T15:20:07.743Z</time></trkpt><trkpt lat="43.3467558" lon="13.6219215"><ele>102.0</ele><time>2026-04-11T15:20:08.742Z</time></trkpt><trkpt lat="43.3466931" lon="13.6218471"><ele>104.0</ele><time>2026-04-11T15:20:11.745Z</time></trkpt><trkpt lat="43.346674" lon="13.6217491"><ele>104.6</ele><time>2026-04-11T15:20:13.748Z</time></trkpt><trkpt lat="43.3466795" lon="13.6215869"><ele>105.2</ele><time>2026-04-11T15:20:15.743Z</time></trkpt><trkpt lat="43.3466645" lon="13.6214407"><ele>105.79999999999998</ele><time>2026-04-11T15:20:17.743Z</time></trkpt><trkpt lat="43.3465848" lon="13.6213801"><ele>106.39999999999999</ele><time>2026-04-11T15:20:19.748Z</time></trkpt><trkpt lat="43.3465033" lon="13.6213667"><ele>107.0</ele><time>2026-04-11T15:20:20.751Z</time></trkpt><trkpt lat="43.3463891" lon="13.6213598"><ele>103.66666666666666</ele><time>2026-04-11T15:20:21.744Z</time></trkpt><trkpt lat="43.3462494" lon="13.6213581"><ele>100.33333333333334</ele><time>2026-04-11T15:20:22.742Z</time></trkpt><trkpt lat="43.3460792" lon="13.6213586"><ele>97.0</ele><time>2026-04-11T15:20:23.745Z</time></trkpt><trkpt lat="43.3459011" lon="13.6213717"><ele>97.0</ele><time>2026-04-11T15:20:24.745Z</time></trkpt><trkpt lat="43.3457244" lon="13.6213898"><ele>97.0</ele><time>2026-04-11T15:20:25.746Z</time></trkpt><trkpt lat="43.3455493" lon="13.6214077"><ele>97.0</ele><time>2026-04-11T15:20:26.747Z</time></trkpt><trkpt lat="43.3453712" lon="13.6214162"><ele>92.66666666666667</ele><time>2026-04-11T15:20:27.746Z</time></trkpt><trkpt lat="43.3451978" lon="13.6214133"><ele>88.33333333333334</ele><time>2026-04-11T15:20:28.743Z</time></trkpt><trkpt lat="43.3450194" lon="13.6214198"><ele>84.0</ele><time>2026-04-11T15:20:29.745Z</time></trkpt><trkpt lat="43.3448354" lon="13.6214287"><ele>82.66666666666667</ele><time>2026-04-11T15:20:30.742Z</time></trkpt><trkpt lat="43.3446479" lon="13.6214363"><ele>81.33333333333334</ele><time>2026-04-11T15:20:31.744Z</time></trkpt><trkpt lat="43.3444599" lon="13.6214438"><ele>80.0</ele><time>2026-04-11T15:20:32.743Z</time></trkpt><trkpt lat="43.3442749" lon="13.6214469"><ele>80.0</ele><time>2026-04-11T15:20:33.745Z</time></trkpt><trkpt lat="43.344096" lon="13.6214471"><ele>80.0</ele><time>2026-04-11T15:20:34.752Z</time></trkpt><trkpt lat="43.3439271" lon="13.6214425"><ele>80.0</ele><time>2026-04-11T15:20:35.745Z</time></trkpt><trkpt lat="43.3437704" lon="13.6214402"><ele>79.5</ele><time>2026-04-11T15:20:36.743Z</time></trkpt><trkpt lat="43.3436241" lon="13.6214288"><ele>79.0</ele><time>2026-04-11T15:20:37.746Z</time></trkpt><trkpt lat="43.3434917" lon="13.6214097"><ele>78.5</ele><time>2026-04-11T15:20:38.746Z</time></trkpt><trkpt lat="43.3433653" lon="13.6213969"><ele>78.0</ele><time>2026-04-11T15:20:39.743Z</time></trkpt><trkpt lat="43.3432322" lon="13.6213909"><ele>78.0</ele><time>2026-04-11T15:20:40.747Z</time></trkpt><trkpt lat="43.3430926" lon="13.6213896"><ele>78.0</ele><time>2026-04-11T15:20:41.745Z</time></trkpt><trkpt lat="43.3429497" lon="13.6213982"><ele>78.0</ele><time>2026-04-11T15:20:42.743Z</time></trkpt><trkpt lat="43.342811" lon="13.6214095"><ele>78.0</ele><time>2026-04-11T15:20:43.743Z</time></trkpt><trkpt lat="43.3426736" lon="13.6214212"><ele>76.0</ele><time>2026-04-11T15:20:44.743Z</time></trkpt><trkpt lat="43.3425363" lon="13.6214349"><ele>74.0</ele><time>2026-04-11T15:20:45.744Z</time></trkpt><trkpt lat="43.3424159" lon="13.6214532"><ele>72.0</ele><time>2026-04-11T15:20:46.748Z</time></trkpt><trkpt lat="43.3423029" lon="13.6214769"><ele>70.0</ele><time>2026-04-11T15:20:47.751Z</time></trkpt><trkpt lat="43.342182" lon="13.621519"><ele>67.0</ele><time>2026-04-11T15:20:48.744Z</time></trkpt><trkpt lat="43.342063" lon="13.621578"><ele>64.0</ele><time>2026-04-11T15:20:49.743Z</time></trkpt><trkpt lat="43.3419477" lon="13.6216412"><ele>61.0</ele><time>2026-04-11T15:20:50.743Z</time></trkpt><trkpt lat="43.3418309" lon="13.6217117"><ele>58.0</ele><time>2026-04-11T15:20:51.744Z</time></trkpt><trkpt lat="43.3417096" lon="13.621773"><ele>58.0</ele><time>2026-04-11T15:20:52.743Z</time></trkpt><trkpt lat="43.3415885" lon="13.621835"><ele>58.0</ele><time>2026-04-11T15:20:53.748Z</time></trkpt><trkpt lat="43.3414725" lon="13.6218938"><ele>58.0</ele><time>2026-04-11T15:20:54.75Z</time></trkpt><trkpt lat="43.3413678" lon="13.621949"><ele>58.0</ele><time>2026-04-11T15:20:55.749Z</time></trkpt><trkpt lat="43.3412608" lon="13.6220123"><ele>54.25</ele><time>2026-04-11T15:20:56.743Z</time></trkpt><trkpt lat="43.3411618" lon="13.6220796"><ele>50.5</ele><time>2026-04-11T15:20:57.741Z</time></trkpt><trkpt lat="43.3410694" lon="13.6221649"><ele>46.75</ele><time>2026-04-11T15:20:58.742Z</time></trkpt><trkpt lat="43.340986" lon="13.6222728"><ele>43.0</ele><time>2026-04-11T15:20:59.747Z</time></trkpt><trkpt lat="43.340911" lon="13.6223925"><ele>43.0</ele><time>2026-04-11T15:21:00.75Z</time></trkpt><trkpt lat="43.3408451" lon="13.6225192"><ele>43.0</ele><time>2026-04-11T15:21:01.746Z</time></trkpt><trkpt lat="43.3407874" lon="13.6226286"><ele>43.0</ele><time>2026-04-11T15:21:02.753Z</time></trkpt><trkpt lat="43.3407206" lon="13.6227108"><ele>43.0</ele><time>2026-04-11T15:21:03.745Z</time></trkpt><trkpt lat="43.340651" lon="13.6227983"><ele>43.0</ele><time>2026-04-11T15:21:04.745Z</time></trkpt><trkpt lat="43.3405337" lon="13.62276"><ele>43.25</ele><time>2026-04-11T15:21:05.747Z</time></trkpt><trkpt lat="43.3404074" lon="13.6227661"><ele>43.5</ele><time>2026-04-11T15:21:06.75Z</time></trkpt><trkpt lat="43.3402757" lon="13.622769"><ele>43.75</ele><time>2026-04-11T15:21:07.744Z</time></trkpt><trkpt lat="43.3401415" lon="13.6227747"><ele>44.0</ele><time>2026-04-11T15:21:08.75Z</time></trkpt><trkpt lat="43.3400242" lon="13.6227973"><ele>44.25</ele><time>2026-04-11T15:21:09.749Z</time></trkpt><trkpt lat="43.339905" lon="13.6228375"><ele>44.5</ele><time>2026-04-11T15:21:10.744Z</time></trkpt><trkpt lat="43.3397759" lon="13.6228905"><ele>44.75</ele><time>2026-04-11T15:21:11.744Z</time></trkpt><trkpt lat="43.3396436" lon="13.6229526"><ele>45.0</ele><time>2026-04-11T15:21:12.742Z</time></trkpt><trkpt lat="43.3395061" lon="13.6230174"><ele>46.66666666666667</ele><time>2026-04-11T15:21:13.744Z</time></trkpt><trkpt lat="43.3393618" lon="13.6230765"><ele>48.333333333333336</ele><time>2026-04-11T15:21:14.745Z</time></trkpt><trkpt lat="43.3392161" lon="13.6231345"><ele>50.0</ele><time>2026-04-11T15:21:15.748Z</time></trkpt><trkpt lat="43.3390649" lon="13.6231938"><ele>50.0</ele><time>2026-04-11T15:21:16.747Z</time></trkpt><trkpt lat="43.3389165" lon="13.6232521"><ele>50.0</ele><time>2026-04-11T15:21:17.743Z</time></trkpt><trkpt lat="43.338767" lon="13.6232977"><ele>50.0</ele><time>2026-04-11T15:21:18.744Z</time></trkpt><trkpt lat="43.3386076" lon="13.6233433"><ele>54.0</ele><time>2026-04-11T15:21:19.745Z</time></trkpt><trkpt lat="43.3384421" lon="13.6233942"><ele>58.0</ele><time>2026-04-11T15:21:20.742Z</time></trkpt><trkpt lat="43.3382849" lon="13.623437"><ele>62.0</ele><time>2026-04-11T15:21:21.745Z</time></trkpt><trkpt lat="43.3381476" lon="13.6234746"><ele>65.25</ele><time>2026-04-11T15:21:22.745Z</time></trkpt><trkpt lat="43.3380075" lon="13.6234938"><ele>68.5</ele><time>2026-04-11T15:21:23.747Z</time></trkpt><trkpt lat="43.3378555" lon="13.6235068"><ele>71.75</ele><time>2026-04-11T15:21:24.743Z</time></trkpt><trkpt lat="43.3377015" lon="13.6235132"><ele>75.0</ele><time>2026-04-11T15:21:25.748Z</time></trkpt><trkpt lat="43.3375357" lon="13.6235169"><ele>75.0</ele><time>2026-04-11T15:21:26.743Z</time></trkpt><trkpt lat="43.3373794" lon="13.6235114"><ele>75.0</ele><time>2026-04-11T15:21:27.746Z</time></trkpt><trkpt lat="43.3372236" lon="13.6235067"><ele>75.0</ele><time>2026-04-11T15:21:28.748Z</time></trkpt><trkpt lat="43.3370677" lon="13.6235109"><ele>81.0</ele><time>2026-04-11T15:21:29.75Z</time></trkpt><trkpt lat="43.3369167" lon="13.623513"><ele>87.0</ele><time>2026-04-11T15:21:30.744Z</time></trkpt><trkpt lat="43.3367384" lon="13.6235068"><ele>93.0</ele><time>2026-04-11T15:21:31.745Z</time></trkpt><trkpt lat="43.3366101" lon="13.6235185"><ele>93.0</ele><time>2026-04-11T15:21:32.743Z</time></trkpt><trkpt lat="43.3364539" lon="13.6235267"><ele>93.0</ele><time>2026-04-11T15:21:33.746Z</time></trkpt><trkpt lat="43.3363594" lon="13.6235258"><ele>93.0</ele><time>2026-04-11T15:21:34.745Z</time></trkpt><trkpt lat="43.3362381" lon="13.6235161"><ele>93.0</ele><time>2026-04-11T15:21:35.745Z</time></trkpt><trkpt lat="43.3361177" lon="13.6235092"><ele>96.75</ele><time>2026-04-11T15:21:36.747Z</time></trkpt><trkpt lat="43.3359938" lon="13.6235171"><ele>100.5</ele><time>2026-04-11T15:21:37.75Z</time></trkpt><trkpt lat="43.3358774" lon="13.623521"><ele>104.25</ele><time>2026-04-11T15:21:38.744Z</time></trkpt><trkpt lat="43.3357405" lon="13.6235361"><ele>108.0</ele><time>2026-04-11T15:21:39.747Z</time></trkpt><trkpt lat="43.335588" lon="13.6235678"><ele>113.0</ele><time>2026-04-11T15:21:40.744Z</time></trkpt><trkpt lat="43.3354372" lon="13.6235931"><ele>118.0</ele><time>2026-04-11T15:21:41.745Z</time></trkpt><trkpt lat="43.3352976" lon="13.6236171"><ele>123.0</ele><time>2026-04-11T15:21:42.745Z</time></trkpt><trkpt lat="43.3351386" lon="13.6236421"><ele>123.0</ele><time>2026-04-11T15:21:43.75Z</time></trkpt><trkpt lat="43.3349798" lon="13.6236739"><ele>123.0</ele><time>2026-04-11T15:21:44.742Z</time></trkpt><trkpt lat="43.3348259" lon="13.6237188"><ele>123.0</ele><time>2026-04-11T15:21:45.743Z</time></trkpt><trkpt lat="43.3346659" lon="13.6237467"><ele>127.25</ele><time>2026-04-11T15:21:46.744Z</time></trkpt><trkpt lat="43.3345354" lon="13.6237681"><ele>131.5</ele><time>2026-04-11T15:21:47.742Z</time></trkpt><trkpt lat="43.3344075" lon="13.6237857"><ele>135.75</ele><time>2026-04-11T15:21:48.746Z</time></trkpt><trkpt lat="43.3342988" lon="13.6238057"><ele>140.0</ele><time>2026-04-11T15:21:49.747Z</time></trkpt><trkpt lat="43.3342003" lon="13.623844"><ele>140.0</ele><time>2026-04-11T15:21:50.747Z</time></trkpt><trkpt lat="43.3340968" lon="13.6238977"><ele>140.0</ele><time>2026-04-11T15:21:51.742Z</time></trkpt><trkpt lat="43.3339749" lon="13.6239708"><ele>140.0</ele><time>2026-04-11T15:21:52.743Z</time></trkpt><trkpt lat="43.3338473" lon="13.6240486"><ele>140.0</ele><time>2026-04-11T15:21:53.744Z</time></trkpt><trkpt lat="43.3337102" lon="13.6241209"><ele>144.33333333333331</ele><time>2026-04-11T15:21:54.743Z</time></trkpt><trkpt lat="43.3335537" lon="13.6241988"><ele>148.66666666666666</ele><time>2026-04-11T15:21:55.747Z</time></trkpt><trkpt lat="43.3333922" lon="13.6242705"><ele>153.0</ele><time>2026-04-11T15:21:56.747Z</time></trkpt><trkpt lat="43.3332509" lon="13.6243213"><ele>153.0</ele><time>2026-04-11T15:21:57.745Z</time></trkpt><trkpt lat="43.333122" lon="13.6243502"><ele>153.0</ele><time>2026-04-11T15:21:58.743Z</time></trkpt><trkpt lat="43.3329934" lon="13.6243488"><ele>153.0</ele><time>2026-04-11T15:21:59.751Z</time></trkpt><trkpt lat="43.3328664" lon="13.6243374"><ele>153.0</ele><time>2026-04-11T15:22:00.745Z</time></trkpt><trkpt lat="43.3327346" lon="13.6243287"><ele>156.33333333333334</ele><time>2026-04-11T15:22:01.756Z</time></trkpt><trkpt lat="43.3325891" lon="13.6243322"><ele>159.66666666666669</ele><time>2026-04-11T15:22:02.746Z</time></trkpt><trkpt lat="43.3324403" lon="13.6243432"><ele>163.0</ele><time>2026-04-11T15:22:03.744Z</time></trkpt><trkpt lat="43.3322843" lon="13.6243581"><ele>167.0</ele><time>2026-04-11T15:22:04.753Z</time></trkpt><trkpt lat="43.3321234" lon="13.6243698"><ele>171.0</ele><time>2026-04-11T15:22:05.748Z</time></trkpt><trkpt lat="43.3319636" lon="13.6243869"><ele>175.0</ele><time>2026-04-11T15:22:06.742Z</time></trkpt><trkpt lat="43.3318075" lon="13.6244097"><ele>175.0</ele><time>2026-04-11T15:22:07.742Z</time></trkpt><trkpt lat="43.3316541" lon="13.6244413"><ele>175.0</ele><time>2026-04-11T15:22:08.744Z</time></trkpt><trkpt lat="43.3314997" lon="13.6244741"><ele>175.0</ele><time>2026-04-11T15:22:09.743Z</time></trkpt><trkpt lat="43.33134" lon="13.6245179"><ele>181.0</ele><time>2026-04-11T15:22:10.746Z</time></trkpt><trkpt lat="43.3311818" lon="13.6245434"><ele>187.0</ele><time>2026-04-11T15:22:11.747Z</time></trkpt><trkpt lat="43.3310367" lon="13.6245563"><ele>193.0</ele><time>2026-04-11T15:22:12.744Z</time></trkpt><trkpt lat="43.3309369" lon="13.6245307"><ele>199.0</ele><time>2026-04-11T15:22:13.745Z</time></trkpt><trkpt lat="43.3308435" lon="13.6245406"><ele>199.0</ele><time>2026-04-11T15:22:14.741Z</time></trkpt><trkpt lat="43.330741" lon="13.6245839"><ele>199.0</ele><time>2026-04-11T15:22:15.743Z</time></trkpt><trkpt lat="43.3306161" lon="13.6246606"><ele>199.0</ele><time>2026-04-11T15:22:16.743Z</time></trkpt><trkpt lat="43.3304893" lon="13.624732"><ele>199.0</ele><time>2026-04-11T15:22:17.746Z</time></trkpt><trkpt lat="43.3303213" lon="13.6248462"><ele>199.66666666666666</ele><time>2026-04-11T15:22:18.746Z</time></trkpt><trkpt lat="43.3301829" lon="13.6249744"><ele>200.33333333333331</ele><time>2026-04-11T15:22:19.747Z</time></trkpt><trkpt lat="43.3300417" lon="13.6250942"><ele>201.0</ele><time>2026-04-11T15:22:20.741Z</time></trkpt><trkpt lat="43.3299436" lon="13.625241"><ele>206.0</ele><time>2026-04-11T15:22:21.742Z</time></trkpt><trkpt lat="43.3298182" lon="13.6254061"><ele>211.0</ele><time>2026-04-11T15:22:22.743Z</time></trkpt><trkpt lat="43.3297053" lon="13.62557"><ele>216.0</ele><time>2026-04-11T15:22:23.747Z</time></trkpt><trkpt lat="43.3295892" lon="13.6257389"><ele>216.33333333333331</ele><time>2026-04-11T15:22:24.749Z</time></trkpt><trkpt lat="43.329479" lon="13.6259039"><ele>216.66666666666666</ele><time>2026-04-11T15:22:25.747Z</time></trkpt><trkpt lat="43.3293575" lon="13.6260531"><ele>217.0</ele><time>2026-04-11T15:22:26.75Z</time></trkpt><trkpt lat="43.3292643" lon="13.6261858"><ele>216.49999999999997</ele><time>2026-04-11T15:22:27.743Z</time></trkpt><trkpt lat="43.3291829" lon="13.6262886"><ele>216.0</ele><time>2026-04-11T15:22:28.743Z</time></trkpt><trkpt lat="43.3291202" lon="13.6263541"><ele>215.5</ele><time>2026-04-11T15:22:29.746Z</time></trkpt><trkpt lat="43.3290608" lon="13.6264219"><ele>215.0</ele><time>2026-04-11T15:22:30.743Z</time></trkpt><trkpt lat="43.328999" lon="13.6264617"><ele>214.49999999999997</ele><time>2026-04-11T15:22:31.745Z</time></trkpt><trkpt lat="43.3289386" lon="13.6264959"><ele>214.0</ele><time>2026-04-11T15:22:32.749Z</time></trkpt><trkpt lat="43.3288771" lon="13.6265272"><ele>214.0</ele><time>2026-04-11T15:22:33.743Z</time></trkpt><trkpt lat="43.3288009" lon="13.6265406"><ele>213.99999999999997</ele><time>2026-04-11T15:22:34.743Z</time></trkpt><trkpt lat="43.3287284" lon="13.6265783"><ele>213.99999999999997</ele><time>2026-04-11T15:22:35.743Z</time></trkpt><trkpt lat="43.3285743" lon="13.6265994"><ele>214.0</ele><time>2026-04-11T15:22:36.743Z</time></trkpt><trkpt lat="43.3284461" lon="13.6266185"><ele>214.0</ele><time>2026-04-11T15:22:37.746Z</time></trkpt><trkpt lat="43.3283227" lon="13.6266355"><ele>213.99999999999997</ele><time>2026-04-11T15:22:38.742Z</time></trkpt><trkpt lat="43.3282156" lon="13.6266612"><ele>214.0</ele><time>2026-04-11T15:22:39.747Z</time></trkpt><trkpt lat="43.3281415" lon="13.6266818"><ele>214.0</ele><time>2026-04-11T15:22:40.746Z</time></trkpt><trkpt lat="43.3280728" lon="13.6267066"><ele>214.0</ele><time>2026-04-11T15:22:41.743Z</time></trkpt><trkpt lat="43.3279969" lon="13.6267423"><ele>213.99999999999997</ele><time>2026-04-11T15:22:42.743Z</time></trkpt><trkpt lat="43.3279085" lon="13.6267896"><ele>214.0</ele><time>2026-04-11T15:22:43.746Z</time></trkpt><trkpt lat="43.3278156" lon="13.626867"><ele>214.0</ele><time>2026-04-11T15:22:44.748Z</time></trkpt><trkpt lat="43.3277269" lon="13.6269764"><ele>214.0</ele><time>2026-04-11T15:22:45.748Z</time></trkpt><trkpt lat="43.3276388" lon="13.6271188"><ele>214.0</ele><time>2026-04-11T15:22:46.747Z</time></trkpt><trkpt lat="43.3275526" lon="13.6272683"><ele>214.0</ele><time>2026-04-11T15:22:47.742Z</time></trkpt><trkpt lat="43.3274641" lon="13.6274302"><ele>213.0</ele><time>2026-04-11T15:22:48.744Z</time></trkpt><trkpt lat="43.3273755" lon="13.6275979"><ele>212.0</ele><time>2026-04-11T15:22:49.743Z</time></trkpt><trkpt lat="43.3272733" lon="13.6277737"><ele>211.0</ele><time>2026-04-11T15:22:50.743Z</time></trkpt><trkpt lat="43.3271726" lon="13.627931"><ele>214.66666666666666</ele><time>2026-04-11T15:22:51.745Z</time></trkpt><trkpt lat="43.327065" lon="13.6280852"><ele>218.33333333333331</ele><time>2026-04-11T15:22:52.748Z</time></trkpt><trkpt lat="43.3269596" lon="13.6282422"><ele>222.0</ele><time>2026-04-11T15:22:53.745Z</time></trkpt><trkpt lat="43.3268638" lon="13.6284079"><ele>222.0</ele><time>2026-04-11T15:22:54.743Z</time></trkpt><trkpt lat="43.3267657" lon="13.6285879"><ele>222.0</ele><time>2026-04-11T15:22:55.744Z</time></trkpt><trkpt lat="43.3266889" lon="13.6287782"><ele>222.0</ele><time>2026-04-11T15:22:56.742Z</time></trkpt><trkpt lat="43.3266118" lon="13.6289638"><ele>221.0</ele><time>2026-04-11T15:22:57.744Z</time></trkpt><trkpt lat="43.3265445" lon="13.6291408"><ele>220.0</ele><time>2026-04-11T15:22:58.745Z</time></trkpt><trkpt lat="43.3264776" lon="13.6293238"><ele>219.0</ele><time>2026-04-11T15:22:59.751Z</time></trkpt><trkpt lat="43.3264138" lon="13.6295025"><ele>218.0</ele><time>2026-04-11T15:23:00.743Z</time></trkpt><trkpt lat="43.3263446" lon="13.6296659"><ele>225.0</ele><time>2026-04-11T15:23:01.744Z</time></trkpt><trkpt lat="43.3262593" lon="13.629814"><ele>232.0</ele><time>2026-04-11T15:23:02.746Z</time></trkpt><trkpt lat="43.3261527" lon="13.6299717"><ele>239.0</ele><time>2026-04-11T15:23:03.745Z</time></trkpt><trkpt lat="43.3260379" lon="13.6301303"><ele>239.0</ele><time>2026-04-11T15:23:04.744Z</time></trkpt><trkpt lat="43.325927" lon="13.6302833"><ele>239.0</ele><time>2026-04-11T15:23:05.744Z</time></trkpt><trkpt lat="43.3258288" lon="13.6304266"><ele>239.0</ele><time>2026-04-11T15:23:06.745Z</time></trkpt><trkpt lat="43.3257375" lon="13.6305592"><ele>239.0</ele><time>2026-04-11T15:23:07.748Z</time></trkpt><trkpt lat="43.3256674" lon="13.6306584"><ele>238.50000000000003</ele><time>2026-04-11T15:23:08.745Z</time></trkpt><trkpt lat="43.3255967" lon="13.6307527"><ele>238.0</ele><time>2026-04-11T15:23:09.742Z</time></trkpt><trkpt lat="43.3255305" lon="13.6308346"><ele>237.5</ele><time>2026-04-11T15:23:10.743Z</time></trkpt><trkpt lat="43.325479" lon="13.6308974"><ele>237.0</ele><time>2026-04-11T15:23:11.745Z</time></trkpt><trkpt lat="43.3254035" lon="13.6309612"><ele>236.50000000000003</ele><time>2026-04-11T15:23:13.746Z</time></trkpt><trkpt lat="43.3253255" lon="13.6309797"><ele>236.0</ele><time>2026-04-11T15:23:15.748Z</time></trkpt><trkpt lat="43.3251784" lon="13.6310007"><ele>235.5</ele><time>2026-04-11T15:23:17.743Z</time></trkpt><trkpt lat="43.3250798" lon="13.6310132"><ele>235.0</ele><time>2026-04-11T15:23:18.743Z</time></trkpt><trkpt lat="43.3249717" lon="13.6310238"><ele>234.5</ele><time>2026-04-11T15:23:19.749Z</time></trkpt><trkpt lat="43.3248466" lon="13.6310372"><ele>234.0</ele><time>2026-04-11T15:23:20.746Z</time></trkpt><trkpt lat="43.3247067" lon="13.6310575"><ele>234.0</ele><time>2026-04-11T15:23:21.747Z</time></trkpt><trkpt lat="43.3245593" lon="13.6310932"><ele>234.0</ele><time>2026-04-11T15:23:22.746Z</time></trkpt><trkpt lat="43.3244091" lon="13.6311345"><ele>234.0</ele><time>2026-04-11T15:23:23.746Z</time></trkpt><trkpt lat="43.3242674" lon="13.6311754"><ele>234.0</ele><time>2026-04-11T15:23:24.744Z</time></trkpt><trkpt lat="43.324131" lon="13.631213"><ele>232.0</ele><time>2026-04-11T15:23:25.742Z</time></trkpt><trkpt lat="43.3240109" lon="13.6312161"><ele>230.0</ele><time>2026-04-11T15:23:26.745Z</time></trkpt><trkpt lat="43.3238925" lon="13.6311891"><ele>228.0</ele><time>2026-04-11T15:23:27.747Z</time></trkpt><trkpt lat="43.3237804" lon="13.6311437"><ele>226.0</ele><time>2026-04-11T15:23:28.748Z</time></trkpt><trkpt lat="43.3236641" lon="13.6310824"><ele>225.60000000000002</ele><time>2026-04-11T15:23:29.743Z</time></trkpt><trkpt lat="43.3235609" lon="13.6310269"><ele>225.20000000000002</ele><time>2026-04-11T15:23:30.744Z</time></trkpt><trkpt lat="43.3234702" lon="13.6309883"><ele>224.79999999999998</ele><time>2026-04-11T15:23:31.743Z</time></trkpt><trkpt lat="43.323389" lon="13.6309582"><ele>224.39999999999998</ele><time>2026-04-11T15:23:32.743Z</time></trkpt><trkpt lat="43.3232996" lon="13.6309305"><ele>224.0</ele><time>2026-04-11T15:23:33.745Z</time></trkpt><trkpt lat="43.3232005" lon="13.6308947"><ele>224.0</ele><time>2026-04-11T15:23:34.746Z</time></trkpt><trkpt lat="43.3230958" lon="13.630853"><ele>223.99999999999997</ele><time>2026-04-11T15:23:35.747Z</time></trkpt><trkpt lat="43.3230014" lon="13.6308141"><ele>223.99999999999997</ele><time>2026-04-11T15:23:36.744Z</time></trkpt><trkpt lat="43.3229147" lon="13.6307879"><ele>224.0</ele><time>2026-04-11T15:23:37.744Z</time></trkpt><trkpt lat="43.3228198" lon="13.6307787"><ele>224.0</ele><time>2026-04-11T15:23:38.742Z</time></trkpt><trkpt lat="43.3227319" lon="13.6307724"><ele>223.66666666666669</ele><time>2026-04-11T15:23:39.744Z</time></trkpt><trkpt lat="43.3226483" lon="13.6307627"><ele>223.33333333333334</ele><time>2026-04-11T15:23:40.745Z</time></trkpt><trkpt lat="43.3225739" lon="13.6307493"><ele>223.0</ele><time>2026-04-11T15:23:41.747Z</time></trkpt><trkpt lat="43.322501" lon="13.6307354"><ele>222.66666666666669</ele><time>2026-04-11T15:23:42.748Z</time></trkpt><trkpt lat="43.3223879" lon="13.6307111"><ele>222.33333333333334</ele><time>2026-04-11T15:23:44.746Z</time></trkpt><trkpt lat="43.3223108" lon="13.630701"><ele>222.0</ele><time>2026-04-11T15:23:46.745Z</time></trkpt><trkpt lat="43.3222064" lon="13.6307104"><ele>223.39999999999998</ele><time>2026-04-11T15:23:48.749Z</time></trkpt><trkpt lat="43.3221222" lon="13.6307482"><ele>224.79999999999998</ele><time>2026-04-11T15:23:49.745Z</time></trkpt><trkpt lat="43.3220353" lon="13.630792"><ele>226.2</ele><time>2026-04-11T15:23:50.748Z</time></trkpt><trkpt lat="43.3219446" lon="13.630839"><ele>227.6</ele><time>2026-04-11T15:23:51.744Z</time></trkpt><trkpt lat="43.3218458" lon="13.6308892"><ele>229.0</ele><time>2026-04-11T15:23:52.744Z</time></trkpt><trkpt lat="43.3217403" lon="13.630942"><ele>229.0</ele><time>2026-04-11T15:23:53.744Z</time></trkpt><trkpt lat="43.3216359" lon="13.6309967"><ele>228.99999999999997</ele><time>2026-04-11T15:23:54.748Z</time></trkpt><trkpt lat="43.3215345" lon="13.6310549"><ele>228.99999999999997</ele><time>2026-04-11T15:23:55.751Z</time></trkpt><trkpt lat="43.3214367" lon="13.6311144"><ele>229.0</ele><time>2026-04-11T15:23:56.747Z</time></trkpt><trkpt lat="43.3213413" lon="13.6311853"><ele>229.0</ele><time>2026-04-11T15:23:57.749Z</time></trkpt><trkpt lat="43.3212466" lon="13.631266"><ele>228.75</ele><time>2026-04-11T15:23:58.744Z</time></trkpt><trkpt lat="43.3211506" lon="13.6313597"><ele>228.5</ele><time>2026-04-11T15:23:59.744Z</time></trkpt><trkpt lat="43.3210548" lon="13.6314642"><ele>228.25</ele><time>2026-04-11T15:24:00.747Z</time></trkpt><trkpt lat="43.3209573" lon="13.6315808"><ele>228.0</ele><time>2026-04-11T15:24:01.747Z</time></trkpt><trkpt lat="43.3208547" lon="13.6317009"><ele>228.0</ele><time>2026-04-11T15:24:02.751Z</time></trkpt><trkpt lat="43.3207497" lon="13.6318254"><ele>228.0</ele><time>2026-04-11T15:24:03.75Z</time></trkpt><trkpt lat="43.3206484" lon="13.6319444"><ele>228.0</ele><time>2026-04-11T15:24:04.745Z</time></trkpt><trkpt lat="43.3205557" lon="13.6320553"><ele>228.0</ele><time>2026-04-11T15:24:05.746Z</time></trkpt><trkpt lat="43.3204692" lon="13.6321619"><ele>226.5</ele><time>2026-04-11T15:24:06.744Z</time></trkpt><trkpt lat="43.3203896" lon="13.6322699"><ele>225.0</ele><time>2026-04-11T15:24:07.745Z</time></trkpt><trkpt lat="43.3203116" lon="13.6323961"><ele>223.5</ele><time>2026-04-11T15:24:08.747Z</time></trkpt><trkpt lat="43.320239" lon="13.6325397"><ele>222.0</ele><time>2026-04-11T15:24:09.752Z</time></trkpt><trkpt lat="43.3201792" lon="13.6327042"><ele>221.0</ele><time>2026-04-11T15:24:10.742Z</time></trkpt><trkpt lat="43.3201271" lon="13.6328733"><ele>220.0</ele><time>2026-04-11T15:24:11.746Z</time></trkpt><trkpt lat="43.3200798" lon="13.6330454"><ele>219.0</ele><time>2026-04-11T15:24:12.744Z</time></trkpt><trkpt lat="43.3200349" lon="13.6332185"><ele>218.0</ele><time>2026-04-11T15:24:13.744Z</time></trkpt><trkpt lat="43.3199828" lon="13.6333907"><ele>218.0</ele><time>2026-04-11T15:24:14.744Z</time></trkpt><trkpt lat="43.3199238" lon="13.6335715"><ele>218.0</ele><time>2026-04-11T15:24:15.745Z</time></trkpt><trkpt lat="43.3198466" lon="13.6337498"><ele>218.0</ele><time>2026-04-11T15:24:16.752Z</time></trkpt><trkpt lat="43.3197549" lon="13.6339178"><ele>218.0</ele><time>2026-04-11T15:24:17.742Z</time></trkpt><trkpt lat="43.3196602" lon="13.634079"><ele>218.0</ele><time>2026-04-11T15:24:18.746Z</time></trkpt><trkpt lat="43.3195671" lon="13.6342367"><ele>218.0</ele><time>2026-04-11T15:24:19.746Z</time></trkpt><trkpt lat="43.3194781" lon="13.6343888"><ele>218.0</ele><time>2026-04-11T15:24:20.745Z</time></trkpt><trkpt lat="43.3193954" lon="13.6345408"><ele>218.0</ele><time>2026-04-11T15:24:21.743Z</time></trkpt><trkpt lat="43.3193212" lon="13.6346956"><ele>218.0</ele><time>2026-04-11T15:24:22.744Z</time></trkpt><trkpt lat="43.3192493" lon="13.6348517"><ele>218.0</ele><time>2026-04-11T15:24:23.746Z</time></trkpt><trkpt lat="43.3191804" lon="13.6350062"><ele>218.0</ele><time>2026-04-11T15:24:24.75Z</time></trkpt><trkpt lat="43.3191125" lon="13.6351614"><ele>218.0</ele><time>2026-04-11T15:24:25.744Z</time></trkpt><trkpt lat="43.3190436" lon="13.6353163"><ele>216.5</ele><time>2026-04-11T15:24:26.744Z</time></trkpt><trkpt lat="43.3189708" lon="13.6354725"><ele>215.0</ele><time>2026-04-11T15:24:27.744Z</time></trkpt><trkpt lat="43.3188926" lon="13.635622"><ele>213.5</ele><time>2026-04-11T15:24:28.745Z</time></trkpt><trkpt lat="43.3188126" lon="13.6357534"><ele>212.0</ele><time>2026-04-11T15:24:29.744Z</time></trkpt><trkpt lat="43.3187326" lon="13.6358707"><ele>213.0</ele><time>2026-04-11T15:24:30.744Z</time></trkpt><trkpt lat="43.3186545" lon="13.6359737"><ele>214.0</ele><time>2026-04-11T15:24:31.748Z</time></trkpt><trkpt lat="43.3185677" lon="13.6360464"><ele>215.0</ele><time>2026-04-11T15:24:32.742Z</time></trkpt><trkpt lat="43.3184918" lon="13.6361099"><ele>216.0</ele><time>2026-04-11T15:24:33.743Z</time></trkpt><trkpt lat="43.3184266" lon="13.6361602"><ele>217.0</ele><time>2026-04-11T15:24:34.746Z</time></trkpt><trkpt lat="43.3183534" lon="13.6362108"><ele>217.0</ele><time>2026-04-11T15:24:35.744Z</time></trkpt><trkpt lat="43.31827" lon="13.6362718"><ele>217.0</ele><time>2026-04-11T15:24:36.748Z</time></trkpt><trkpt lat="43.3181854" lon="13.6363696"><ele>217.0</ele><time>2026-04-11T15:24:37.746Z</time></trkpt><trkpt lat="43.3181133" lon="13.6365059"><ele>217.0</ele><time>2026-04-11T15:24:38.745Z</time></trkpt><trkpt lat="43.3180491" lon="13.6366723"><ele>220.66666666666666</ele><time>2026-04-11T15:24:39.745Z</time></trkpt><trkpt lat="43.3179855" lon="13.6368461"><ele>224.33333333333331</ele><time>2026-04-11T15:24:40.743Z</time></trkpt><trkpt lat="43.3179157" lon="13.6370301"><ele>228.0</ele><time>2026-04-11T15:24:41.744Z</time></trkpt><trkpt lat="43.3178418" lon="13.6372259"><ele>228.0</ele><time>2026-04-11T15:24:42.743Z</time></trkpt><trkpt lat="43.3177679" lon="13.63742"><ele>228.0</ele><time>2026-04-11T15:24:43.746Z</time></trkpt><trkpt lat="43.3176886" lon="13.6376126"><ele>228.0</ele><time>2026-04-11T15:24:44.75Z</time></trkpt><trkpt lat="43.3176009" lon="13.6377889"><ele>228.0</ele><time>2026-04-11T15:24:45.745Z</time></trkpt><trkpt lat="43.3175086" lon="13.6379543"><ele>228.0</ele><time>2026-04-11T15:24:46.744Z</time></trkpt><trkpt lat="43.3174168" lon="13.6381089"><ele>228.0</ele><time>2026-04-11T15:24:47.742Z</time></trkpt><trkpt lat="43.3173234" lon="13.6382645"><ele>228.0</ele><time>2026-04-11T15:24:48.744Z</time></trkpt><trkpt lat="43.3172285" lon="13.6384185"><ele>228.0</ele><time>2026-04-11T15:24:49.742Z</time></trkpt><trkpt lat="43.3171331" lon="13.638559"><ele>228.0</ele><time>2026-04-11T15:24:50.746Z</time></trkpt><trkpt lat="43.3170386" lon="13.6386751"><ele>228.0</ele><time>2026-04-11T15:24:51.748Z</time></trkpt><trkpt lat="43.3169286" lon="13.6387475"><ele>228.0</ele><time>2026-04-11T15:24:52.749Z</time></trkpt><trkpt lat="43.3168359" lon="13.6387777"><ele>228.0</ele><time>2026-04-11T15:24:53.748Z</time></trkpt><trkpt lat="43.3167371" lon="13.6387859"><ele>228.0</ele><time>2026-04-11T15:24:54.742Z</time></trkpt><trkpt lat="43.3166656" lon="13.6387289"><ele>228.0</ele><time>2026-04-11T15:24:55.744Z</time></trkpt><trkpt lat="43.3166013" lon="13.6386607"><ele>228.0</ele><time>2026-04-11T15:24:56.742Z</time></trkpt><trkpt lat="43.3165562" lon="13.638598"><ele>228.0</ele><time>2026-04-11T15:24:57.749Z</time></trkpt><trkpt lat="43.3164852" lon="13.6385368"><ele>228.0</ele><time>2026-04-11T15:24:59.751Z</time></trkpt><trkpt lat="43.3164302" lon="13.6386022"><ele>227.0</ele><time>2026-04-11T15:25:01.745Z</time></trkpt><trkpt lat="43.3164395" lon="13.6388072"><ele>226.0</ele><time>2026-04-11T15:25:03.749Z</time></trkpt><trkpt lat="43.3164517" lon="13.6389253"><ele>225.0</ele><time>2026-04-11T15:25:04.745Z</time></trkpt><trkpt lat="43.3164634" lon="13.6390275"><ele>224.0</ele><time>2026-04-11T15:25:05.748Z</time></trkpt><trkpt lat="43.3164716" lon="13.6391392"><ele>223.0</ele><time>2026-04-11T15:25:06.746Z</time></trkpt><trkpt lat="43.3164755" lon="13.6392606"><ele>223.0</ele><time>2026-04-11T15:25:07.746Z</time></trkpt><trkpt lat="43.3164755" lon="13.6393924"><ele>223.0</ele><time>2026-04-11T15:25:08.742Z</time></trkpt><trkpt lat="43.3164764" lon="13.6395318"><ele>223.0</ele><time>2026-04-11T15:25:09.742Z</time></trkpt><trkpt lat="43.3164842" lon="13.6396708"><ele>223.0</ele><time>2026-04-11T15:25:10.742Z</time></trkpt><trkpt lat="43.3164765" lon="13.6397892"><ele>223.0</ele><time>2026-04-11T15:25:11.746Z</time></trkpt><trkpt lat="43.3164788" lon="13.6398973"><ele>222.0</ele><time>2026-04-11T15:25:12.743Z</time></trkpt><trkpt lat="43.3164754" lon="13.6399982"><ele>221.0</ele><time>2026-04-11T15:25:13.747Z</time></trkpt><trkpt lat="43.3164707" lon="13.6400936"><ele>220.0</ele><time>2026-04-11T15:25:14.742Z</time></trkpt><trkpt lat="43.3164581" lon="13.6402456"><ele>219.0</ele><time>2026-04-11T15:25:16.743Z</time></trkpt><trkpt lat="43.3164306" lon="13.6404257"><ele>218.0</ele><time>2026-04-11T15:25:18.747Z</time></trkpt><trkpt lat="43.3164095" lon="13.6405359"><ele>217.50000000000003</ele><time>2026-04-11T15:25:19.751Z</time></trkpt><trkpt lat="43.3163811" lon="13.6406541"><ele>217.0</ele><time>2026-04-11T15:25:20.745Z</time></trkpt><trkpt lat="43.316349" lon="13.6407751"><ele>216.5</ele><time>2026-04-11T15:25:21.742Z</time></trkpt><trkpt lat="43.3163096" lon="13.6408842"><ele>216.0</ele><time>2026-04-11T15:25:22.74Z</time></trkpt><trkpt lat="43.3162665" lon="13.6409844"><ele>215.50000000000003</ele><time>2026-04-11T15:25:23.742Z</time></trkpt><trkpt lat="43.3162265" lon="13.6410774"><ele>215.0</ele><time>2026-04-11T15:25:24.744Z</time></trkpt><trkpt lat="43.3161942" lon="13.6411636"><ele>215.00000000000003</ele><time>2026-04-11T15:25:25.747Z</time></trkpt><trkpt lat="43.3161659" lon="13.6412508"><ele>215.0</ele><time>2026-04-11T15:25:26.74Z</time></trkpt><trkpt lat="43.3161365" lon="13.64134"><ele>215.0</ele><time>2026-04-11T15:25:27.742Z</time></trkpt><trkpt lat="43.3161048" lon="13.6414316"><ele>215.0</ele><time>2026-04-11T15:25:28.743Z</time></trkpt><trkpt lat="43.3160671" lon="13.6415307"><ele>215.00000000000003</ele><time>2026-04-11T15:25:29.741Z</time></trkpt><trkpt lat="43.3160227" lon="13.6416313"><ele>215.0</ele><time>2026-04-11T15:25:30.745Z</time></trkpt><trkpt lat="43.3159812" lon="13.6417278"><ele>215.00000000000003</ele><time>2026-04-11T15:25:31.743Z</time></trkpt><trkpt lat="43.315942" lon="13.6418261"><ele>215.0</ele><time>2026-04-11T15:25:32.745Z</time></trkpt><trkpt lat="43.3158983" lon="13.6419276"><ele>215.0</ele><time>2026-04-11T15:25:33.741Z</time></trkpt><trkpt lat="43.3158529" lon="13.6420309"><ele>215.0</ele><time>2026-04-11T15:25:34.742Z</time></trkpt><trkpt lat="43.3158118" lon="13.6421355"><ele>215.00000000000003</ele><time>2026-04-11T15:25:35.746Z</time></trkpt><trkpt lat="43.3157708" lon="13.6422323"><ele>215.0</ele><time>2026-04-11T15:25:36.743Z</time></trkpt><trkpt lat="43.3157289" lon="13.6423267"><ele>215.0</ele><time>2026-04-11T15:25:37.744Z</time></trkpt><trkpt lat="43.3156854" lon="13.6424266"><ele>215.0</ele><time>2026-04-11T15:25:38.746Z</time></trkpt><trkpt lat="43.315641" lon="13.6425315"><ele>215.0</ele><time>2026-04-11T15:25:39.749Z</time></trkpt><trkpt lat="43.3155973" lon="13.6426425"><ele>215.0</ele><time>2026-04-11T15:25:40.743Z</time></trkpt><trkpt lat="43.3155534" lon="13.6427579"><ele>215.0</ele><time>2026-04-11T15:25:41.742Z</time></trkpt><trkpt lat="43.3154999" lon="13.6428581"><ele>214.42857142857142</ele><time>2026-04-11T15:25:42.742Z</time></trkpt><trkpt lat="43.3154585" lon="13.6429529"><ele>213.85714285714286</ele><time>2026-04-11T15:25:43.747Z</time></trkpt><trkpt lat="43.315417" lon="13.6430428"><ele>213.28571428571428</ele><time>2026-04-11T15:25:44.75Z</time></trkpt><trkpt lat="43.3153812" lon="13.6431263"><ele>212.71428571428572</ele><time>2026-04-11T15:25:45.747Z</time></trkpt><trkpt lat="43.3153455" lon="13.6432107"><ele>212.14285714285717</ele><time>2026-04-11T15:25:46.745Z</time></trkpt><trkpt lat="43.3153069" lon="13.6432913"><ele>211.57142857142858</ele><time>2026-04-11T15:25:47.742Z</time></trkpt><trkpt lat="43.3152705" lon="13.6433665"><ele>211.0</ele><time>2026-04-11T15:25:48.742Z</time></trkpt><trkpt lat="43.3152143" lon="13.6434798"><ele>211.0</ele><time>2026-04-11T15:25:50.742Z</time></trkpt><trkpt lat="43.3151756" lon="13.6435635"><ele>211.0</ele><time>2026-04-11T15:25:52.744Z</time></trkpt><trkpt lat="43.315137" lon="13.6437162"><ele>211.0</ele><time>2026-04-11T15:25:54.744Z</time></trkpt><trkpt lat="43.3151252" lon="13.643832"><ele>211.0</ele><time>2026-04-11T15:25:55.742Z</time></trkpt><trkpt lat="43.3151099" lon="13.6439681"><ele>211.0</ele><time>2026-04-11T15:25:56.745Z</time></trkpt><trkpt lat="43.3150927" lon="13.6441291"><ele>210.75</ele><time>2026-04-11T15:25:57.742Z</time></trkpt><trkpt lat="43.3150771" lon="13.6443009"><ele>210.5</ele><time>2026-04-11T15:25:58.746Z</time></trkpt><trkpt lat="43.3150627" lon="13.6444712"><ele>210.25</ele><time>2026-04-11T15:25:59.749Z</time></trkpt><trkpt lat="43.3150478" lon="13.6446432"><ele>210.0</ele><time>2026-04-11T15:26:00.744Z</time></trkpt><trkpt lat="43.3150288" lon="13.644808"><ele>208.25</ele><time>2026-04-11T15:26:01.742Z</time></trkpt><trkpt lat="43.3149877" lon="13.6449581"><ele>206.5</ele><time>2026-04-11T15:26:02.742Z</time></trkpt><trkpt lat="43.3149512" lon="13.6451145"><ele>204.75</ele><time>2026-04-11T15:26:03.743Z</time></trkpt><trkpt lat="43.314891" lon="13.6452572"><ele>203.0</ele><time>2026-04-11T15:26:04.747Z</time></trkpt><trkpt lat="43.314856" lon="13.6454099"><ele>200.75</ele><time>2026-04-11T15:26:05.748Z</time></trkpt><trkpt lat="43.3148319" lon="13.6455704"><ele>198.5</ele><time>2026-04-11T15:26:06.744Z</time></trkpt><trkpt lat="43.3148118" lon="13.6457379"><ele>196.25</ele><time>2026-04-11T15:26:07.745Z</time></trkpt><trkpt lat="43.3147952" lon="13.6459002"><ele>194.0</ele><time>2026-04-11T15:26:08.743Z</time></trkpt><trkpt lat="43.3147699" lon="13.6460583"><ele>193.0</ele><time>2026-04-11T15:26:09.743Z</time></trkpt><trkpt lat="43.3147313" lon="13.6462115"><ele>192.0</ele><time>2026-04-11T15:26:10.74Z</time></trkpt><trkpt lat="43.3146909" lon="13.6463579"><ele>191.0</ele><time>2026-04-11T15:26:11.742Z</time></trkpt><trkpt lat="43.3146391" lon="13.646508"><ele>190.0</ele><time>2026-04-11T15:26:12.744Z</time></trkpt><trkpt lat="43.3145868" lon="13.6466683"><ele>190.0</ele><time>2026-04-11T15:26:13.743Z</time></trkpt><trkpt lat="43.3145398" lon="13.6468375"><ele>190.0</ele><time>2026-04-11T15:26:14.745Z</time></trkpt><trkpt lat="43.3144949" lon="13.6470127"><ele>190.0</ele><time>2026-04-11T15:26:15.743Z</time></trkpt><trkpt lat="43.3144578" lon="13.647172"><ele>190.0</ele><time>2026-04-11T15:26:16.744Z</time></trkpt><trkpt lat="43.3144227" lon="13.6473244"><ele>188.4</ele><time>2026-04-11T15:26:17.743Z</time></trkpt><trkpt lat="43.3143737" lon="13.6474522"><ele>186.8</ele><time>2026-04-11T15:26:18.742Z</time></trkpt><trkpt lat="43.3143099" lon="13.6475609"><ele>185.2</ele><time>2026-04-11T15:26:19.742Z</time></trkpt><trkpt lat="43.314235" lon="13.6476516"><ele>183.6</ele><time>2026-04-11T15:26:20.744Z</time></trkpt><trkpt lat="43.3141477" lon="13.647712"><ele>182.0</ele><time>2026-04-11T15:26:21.749Z</time></trkpt><trkpt lat="43.3140516" lon="13.6477445"><ele>182.0</ele><time>2026-04-11T15:26:22.742Z</time></trkpt><trkpt lat="43.3139552" lon="13.6477757"><ele>182.0</ele><time>2026-04-11T15:26:23.748Z</time></trkpt><trkpt lat="43.3138527" lon="13.6477977"><ele>182.0</ele><time>2026-04-11T15:26:24.742Z</time></trkpt><trkpt lat="43.3137544" lon="13.647825"><ele>182.0</ele><time>2026-04-11T15:26:25.743Z</time></trkpt><trkpt lat="43.3136692" lon="13.6478576"><ele>182.0</ele><time>2026-04-11T15:26:26.745Z</time></trkpt><trkpt lat="43.3136114" lon="13.6479134"><ele>180.5</ele><time>2026-04-11T15:26:27.745Z</time></trkpt><trkpt lat="43.3135857" lon="13.6480053"><ele>179.0</ele><time>2026-04-11T15:26:28.749Z</time></trkpt><trkpt lat="43.3135892" lon="13.6481067"><ele>177.5</ele><time>2026-04-11T15:26:29.749Z</time></trkpt><trkpt lat="43.3136041" lon="13.6482128"><ele>176.0</ele><time>2026-04-11T15:26:30.74Z</time></trkpt><trkpt lat="43.3136571" lon="13.6483404"><ele>174.5</ele><time>2026-04-11T15:26:31.745Z</time></trkpt><trkpt lat="43.3136958" lon="13.6484583"><ele>173.0</ele><time>2026-04-11T15:26:32.742Z</time></trkpt><trkpt lat="43.3137255" lon="13.648578"><ele>172.4</ele><time>2026-04-11T15:26:33.744Z</time></trkpt><trkpt lat="43.3136964" lon="13.6486951"><ele>171.8</ele><time>2026-04-11T15:26:34.744Z</time></trkpt><trkpt lat="43.3136752" lon="13.6488"><ele>171.2</ele><time>2026-04-11T15:26:35.746Z</time></trkpt><trkpt lat="43.3136337" lon="13.6489114"><ele>170.6</ele><time>2026-04-11T15:26:36.742Z</time></trkpt><trkpt lat="43.3135826" lon="13.6490313"><ele>170.0</ele><time>2026-04-11T15:26:37.749Z</time></trkpt><trkpt lat="43.3135173" lon="13.6491497"><ele>170.0</ele><time>2026-04-11T15:26:38.741Z</time></trkpt><trkpt lat="43.3134481" lon="13.6492849"><ele>170.0</ele><time>2026-04-11T15:26:39.745Z</time></trkpt><trkpt lat="43.3133808" lon="13.6494384"><ele>170.0</ele><time>2026-04-11T15:26:40.744Z</time></trkpt><trkpt lat="43.313301" lon="13.6495764"><ele>170.0</ele><time>2026-04-11T15:26:41.745Z</time></trkpt><trkpt lat="43.3132346" lon="13.6497133"><ele>168.6</ele><time>2026-04-11T15:26:42.743Z</time></trkpt><trkpt lat="43.3131711" lon="13.649846"><ele>167.2</ele><time>2026-04-11T15:26:43.749Z</time></trkpt><trkpt lat="43.3131092" lon="13.649973"><ele>165.8</ele><time>2026-04-11T15:26:44.746Z</time></trkpt><trkpt lat="43.3130602" lon="13.6500753"><ele>164.4</ele><time>2026-04-11T15:26:45.744Z</time></trkpt><trkpt lat="43.313032" lon="13.6501684"><ele>163.0</ele><time>2026-04-11T15:26:46.742Z</time></trkpt><trkpt lat="43.3130339" lon="13.6502608"><ele>162.20000000000002</ele><time>2026-04-11T15:26:47.744Z</time></trkpt><trkpt lat="43.3130598" lon="13.6503513"><ele>161.4</ele><time>2026-04-11T15:26:48.748Z</time></trkpt><trkpt lat="43.3131001" lon="13.6504581"><ele>160.60000000000002</ele><time>2026-04-11T15:26:49.74Z</time></trkpt><trkpt lat="43.3131584" lon="13.6505986"><ele>159.8</ele><time>2026-04-11T15:26:50.742Z</time></trkpt><trkpt lat="43.3132247" lon="13.6507689"><ele>159.0</ele><time>2026-04-11T15:26:51.742Z</time></trkpt><trkpt lat="43.3132965" lon="13.6509667"><ele>156.33333333333334</ele><time>2026-04-11T15:26:52.743Z</time></trkpt><trkpt lat="43.3133705" lon="13.6511742"><ele>153.66666666666669</ele><time>2026-04-11T15:26:53.743Z</time></trkpt><trkpt lat="43.3134466" lon="13.6513729"><ele>151.0</ele><time>2026-04-11T15:26:54.744Z</time></trkpt><trkpt lat="43.3135213" lon="13.6515671"><ele>151.0</ele><time>2026-04-11T15:26:55.749Z</time></trkpt><trkpt lat="43.3135926" lon="13.6517589"><ele>151.0</ele><time>2026-04-11T15:26:56.743Z</time></trkpt><trkpt lat="43.3136612" lon="13.6519482"><ele>151.0</ele><time>2026-04-11T15:26:57.743Z</time></trkpt><trkpt lat="43.3137309" lon="13.6521338"><ele>149.5</ele><time>2026-04-11T15:26:58.75Z</time></trkpt><trkpt lat="43.3137988" lon="13.6523154"><ele>148.0</ele><time>2026-04-11T15:26:59.744Z</time></trkpt><trkpt lat="43.3138645" lon="13.6524966"><ele>146.5</ele><time>2026-04-11T15:27:00.744Z</time></trkpt><trkpt lat="43.3139315" lon="13.6526726"><ele>145.0</ele><time>2026-04-11T15:27:01.743Z</time></trkpt><trkpt lat="43.3139926" lon="13.6528352"><ele>143.6</ele><time>2026-04-11T15:27:02.746Z</time></trkpt><trkpt lat="43.3140493" lon="13.652988"><ele>142.2</ele><time>2026-04-11T15:27:03.748Z</time></trkpt><trkpt lat="43.3140982" lon="13.6531237"><ele>140.8</ele><time>2026-04-11T15:27:04.741Z</time></trkpt><trkpt lat="43.3141443" lon="13.6532429"><ele>139.4</ele><time>2026-04-11T15:27:05.75Z</time></trkpt><trkpt lat="43.3141909" lon="13.6533522"><ele>138.0</ele><time>2026-04-11T15:27:06.744Z</time></trkpt><trkpt lat="43.3142363" lon="13.6534413"><ele>138.0</ele><time>2026-04-11T15:27:07.745Z</time></trkpt><trkpt lat="43.3142665" lon="13.6535717"><ele>138.0</ele><time>2026-04-11T15:27:09.744Z</time></trkpt><trkpt lat="43.314266" lon="13.6536625"><ele>138.0</ele><time>2026-04-11T15:27:13.743Z</time></trkpt><trkpt lat="43.3143261" lon="13.6536972"><ele>138.0</ele><time>2026-04-11T15:27:19.744Z</time></trkpt><trkpt lat="43.3144148" lon="13.6537182"><ele>138.0</ele><time>2026-04-11T15:27:21.75Z</time></trkpt><trkpt lat="43.3145373" lon="13.6537205"><ele>138.0</ele><time>2026-04-11T15:27:23.743Z</time></trkpt><trkpt lat="43.3145992" lon="13.6537047"><ele>137.33333333333334</ele><time>2026-04-11T15:27:24.745Z</time></trkpt><trkpt lat="43.3146963" lon="13.6536692"><ele>136.66666666666666</ele><time>2026-04-11T15:27:26.744Z</time></trkpt><trkpt lat="43.3147679" lon="13.6536496"><ele>136.0</ele><time>2026-04-11T15:27:28.746Z</time></trkpt><trkpt lat="43.3148456" lon="13.6536385"><ele>135.33333333333331</ele><time>2026-04-11T15:27:30.742Z</time></trkpt><trkpt lat="43.3149142" lon="13.6536486"><ele>134.66666666666666</ele><time>2026-04-11T15:27:34.743Z</time></trkpt><trkpt lat="43.314798" lon="13.6536139"><ele>134.0</ele><time>2026-04-11T15:27:38.742Z</time></trkpt><trkpt lat="43.3147029" lon="13.6536319"><ele>134.0</ele><time>2026-04-11T15:27:39.748Z</time></trkpt><trkpt lat="43.3146105" lon="13.6536683"><ele>134.0</ele><time>2026-04-11T15:27:40.743Z</time></trkpt><trkpt lat="43.3145479" lon="13.6536828"><ele>134.0</ele><time>2026-04-11T15:27:41.749Z</time></trkpt><trkpt lat="43.3144844" lon="13.6536891"><ele>134.0</ele><time>2026-04-11T15:27:42.747Z</time></trkpt><trkpt lat="43.3144182" lon="13.6536845"><ele>134.0</ele><time>2026-04-11T15:27:43.75Z</time></trkpt><trkpt lat="43.3143314" lon="13.6536697"><ele>134.0</ele><time>2026-04-11T15:27:45.744Z</time></trkpt><trkpt lat="43.3142317" lon="13.6536728"><ele>134.0</ele><time>2026-04-11T15:27:47.749Z</time></trkpt><trkpt lat="43.3141664" lon="13.6536996"><ele>134.0</ele><time>2026-04-11T15:27:48.746Z</time></trkpt><trkpt lat="43.3140926" lon="13.653749"><ele>134.0</ele><time>2026-04-11T15:27:49.749Z</time></trkpt><trkpt lat="43.3140208" lon="13.6538014"><ele>134.0</ele><time>2026-04-11T15:27:50.742Z</time></trkpt><trkpt lat="43.3139526" lon="13.6538555"><ele>134.0</ele><time>2026-04-11T15:27:51.743Z</time></trkpt><trkpt lat="43.3138879" lon="13.6539037"><ele>134.0</ele><time>2026-04-11T15:27:52.742Z</time></trkpt><trkpt lat="43.3138292" lon="13.6539492"><ele>133.8</ele><time>2026-04-11T15:27:53.743Z</time></trkpt><trkpt lat="43.3137372" lon="13.6540436"><ele>133.60000000000002</ele><time>2026-04-11T15:27:55.747Z</time></trkpt><trkpt lat="43.3137259" lon="13.6541872"><ele>133.4</ele><time>2026-04-11T15:27:57.749Z</time></trkpt><trkpt lat="43.31374" lon="13.6542786"><ele>133.20000000000002</ele><time>2026-04-11T15:27:58.741Z</time></trkpt><trkpt lat="43.313763" lon="13.6544089"><ele>133.0</ele><time>2026-04-11T15:27:59.746Z</time></trkpt><trkpt lat="43.3137764" lon="13.6545296"><ele>133.0</ele><time>2026-04-11T15:28:00.746Z</time></trkpt><trkpt lat="43.3137873" lon="13.654652"><ele>133.0</ele><time>2026-04-11T15:28:01.748Z</time></trkpt><trkpt lat="43.3138023" lon="13.6547707"><ele>133.0</ele><time>2026-04-11T15:28:02.743Z</time></trkpt><trkpt lat="43.313816" lon="13.6549023"><ele>133.0</ele><time>2026-04-11T15:28:03.751Z</time></trkpt><trkpt lat="43.313835" lon="13.655042"><ele>133.0</ele><time>2026-04-11T15:28:04.742Z</time></trkpt><trkpt lat="43.3138688" lon="13.6551893"><ele>129.75</ele><time>2026-04-11T15:28:05.745Z</time></trkpt><trkpt lat="43.3139082" lon="13.6553516"><ele>126.5</ele><time>2026-04-11T15:28:06.746Z</time></trkpt><trkpt lat="43.3139414" lon="13.6555307"><ele>123.25</ele><time>2026-04-11T15:28:07.748Z</time></trkpt><trkpt lat="43.313975" lon="13.6557278"><ele>120.0</ele><time>2026-04-11T15:28:08.745Z</time></trkpt><trkpt lat="43.3140013" lon="13.6559265"><ele>118.0</ele><time>2026-04-11T15:28:09.745Z</time></trkpt><trkpt lat="43.3140205" lon="13.6561226"><ele>116.0</ele><time>2026-04-11T15:28:10.75Z</time></trkpt><trkpt lat="43.3140349" lon="13.6563082"><ele>114.0</ele><time>2026-04-11T15:28:11.744Z</time></trkpt><trkpt lat="43.3140455" lon="13.6564899"><ele>112.0</ele><time>2026-04-11T15:28:12.746Z</time></trkpt><trkpt lat="43.3140567" lon="13.6566683"><ele>112.0</ele><time>2026-04-11T15:28:13.742Z</time></trkpt><trkpt lat="43.3140773" lon="13.6568479"><ele>112.0</ele><time>2026-04-11T15:28:14.742Z</time></trkpt><trkpt lat="43.314095" lon="13.6570277"><ele>112.0</ele><time>2026-04-11T15:28:15.741Z</time></trkpt><trkpt lat="43.314108" lon="13.6572049"><ele>112.0</ele><time>2026-04-11T15:28:16.749Z</time></trkpt><trkpt lat="43.3141044" lon="13.6573787"><ele>110.75</ele><time>2026-04-11T15:28:17.747Z</time></trkpt><trkpt lat="43.3141032" lon="13.6575596"><ele>109.5</ele><time>2026-04-11T15:28:18.745Z</time></trkpt><trkpt lat="43.3141134" lon="13.657741"><ele>108.25</ele><time>2026-04-11T15:28:19.742Z</time></trkpt><trkpt lat="43.3141259" lon="13.6579025"><ele>107.0</ele><time>2026-04-11T15:28:20.743Z</time></trkpt><trkpt lat="43.3141348" lon="13.6580509"><ele>106.39999999999999</ele><time>2026-04-11T15:28:21.746Z</time></trkpt><trkpt lat="43.3141517" lon="13.6581817"><ele>105.79999999999998</ele><time>2026-04-11T15:28:22.746Z</time></trkpt><trkpt lat="43.3141857" lon="13.6583046"><ele>105.2</ele><time>2026-04-11T15:28:23.75Z</time></trkpt><trkpt lat="43.3142409" lon="13.6584154"><ele>104.6</ele><time>2026-04-11T15:28:24.745Z</time></trkpt><trkpt lat="43.3143219" lon="13.658514"><ele>104.0</ele><time>2026-04-11T15:28:25.741Z</time></trkpt><trkpt lat="43.3144366" lon="13.6586133"><ele>103.0</ele><time>2026-04-11T15:28:26.742Z</time></trkpt><trkpt lat="43.3145579" lon="13.6587284"><ele>102.0</ele><time>2026-04-11T15:28:27.742Z</time></trkpt><trkpt lat="43.3147097" lon="13.6588757"><ele>101.0</ele><time>2026-04-11T15:28:28.743Z</time></trkpt><trkpt lat="43.3148678" lon="13.6590389"><ele>103.33333333333333</ele><time>2026-04-11T15:28:29.744Z</time></trkpt><trkpt lat="43.3150024" lon="13.6591891"><ele>105.66666666666666</ele><time>2026-04-11T15:28:30.742Z</time></trkpt><trkpt lat="43.3151411" lon="13.6593343"><ele>108.0</ele><time>2026-04-11T15:28:31.748Z</time></trkpt><trkpt lat="43.3152821" lon="13.659478"><ele>109.5</ele><time>2026-04-11T15:28:32.744Z</time></trkpt><trkpt lat="43.3153736" lon="13.6595085"><ele>111.0</ele><time>2026-04-11T15:28:33.74Z</time></trkpt><trkpt lat="43.315443" lon="13.6595165"><ele>112.5</ele><time>2026-04-11T15:28:34.742Z</time></trkpt><trkpt lat="43.3155183" lon="13.6595518"><ele>114.0</ele><time>2026-04-11T15:28:35.743Z</time></trkpt><trkpt lat="43.3155663" lon="13.6596089"><ele>115.5</ele><time>2026-04-11T15:28:36.745Z</time></trkpt><trkpt lat="43.3155867" lon="13.6597562"><ele>117.0</ele><time>2026-04-11T15:28:38.749Z</time></trkpt><trkpt lat="43.3155682" lon="13.6599611"><ele>117.0</ele><time>2026-04-11T15:28:40.745Z</time></trkpt><trkpt lat="43.315546" lon="13.6601131"><ele>117.0</ele><time>2026-04-11T15:28:41.743Z</time></trkpt><trkpt lat="43.3155102" lon="13.6602899"><ele>117.0</ele><time>2026-04-11T15:28:42.741Z</time></trkpt><trkpt lat="43.3154641" lon="13.6604973"><ele>117.0</ele><time>2026-04-11T15:28:43.749Z</time></trkpt><trkpt lat="43.3154141" lon="13.660704"><ele>120.33333333333334</ele><time>2026-04-11T15:28:44.747Z</time></trkpt><trkpt lat="43.3153713" lon="13.6609111"><ele>123.66666666666667</ele><time>2026-04-11T15:28:45.749Z</time></trkpt><trkpt lat="43.315338" lon="13.6611402"><ele>127.0</ele><time>2026-04-11T15:28:46.743Z</time></trkpt><trkpt lat="43.3153179" lon="13.6613761"><ele>129.75</ele><time>2026-04-11T15:28:47.744Z</time></trkpt><trkpt lat="43.3153008" lon="13.6615858"><ele>132.5</ele><time>2026-04-11T15:28:48.742Z</time></trkpt><trkpt lat="43.3152808" lon="13.6617729"><ele>135.25</ele><time>2026-04-11T15:28:49.744Z</time></trkpt><trkpt lat="43.3152507" lon="13.6619151"><ele>138.0</ele><time>2026-04-11T15:28:50.742Z</time></trkpt><trkpt lat="43.3152142" lon="13.662061"><ele>140.8</ele><time>2026-04-11T15:28:51.748Z</time></trkpt><trkpt lat="43.3151822" lon="13.6622038"><ele>143.60000000000002</ele><time>2026-04-11T15:28:52.749Z</time></trkpt><trkpt lat="43.3151565" lon="13.6623343"><ele>146.39999999999998</ele><time>2026-04-11T15:28:53.744Z</time></trkpt><trkpt lat="43.3151244" lon="13.6624653"><ele>149.2</ele><time>2026-04-11T15:28:54.742Z</time></trkpt><trkpt lat="43.3151035" lon="13.6626041"><ele>152.0</ele><time>2026-04-11T15:28:55.742Z</time></trkpt><trkpt lat="43.3150654" lon="13.6627087"><ele>152.16666666666666</ele><time>2026-04-11T15:28:56.746Z</time></trkpt><trkpt lat="43.3150185" lon="13.66281"><ele>152.33333333333331</ele><time>2026-04-11T15:28:57.748Z</time></trkpt><trkpt lat="43.314969" lon="13.6629215"><ele>152.5</ele><time>2026-04-11T15:28:58.747Z</time></trkpt><trkpt lat="43.3148875" lon="13.6629747"><ele>152.66666666666666</ele><time>2026-04-11T15:28:59.75Z</time></trkpt><trkpt lat="43.3148336" lon="13.6630307"><ele>152.83333333333334</ele><time>2026-04-11T15:29:00.743Z</time></trkpt><trkpt lat="43.3147731" lon="13.6631419"><ele>153.0</ele><time>2026-04-11T15:29:02.742Z</time></trkpt><trkpt lat="43.3147299" lon="13.6632115"><ele>153.0</ele><time>2026-04-11T15:29:03.742Z</time></trkpt><trkpt lat="43.314673" lon="13.6632818"><ele>153.0</ele><time>2026-04-11T15:29:04.744Z</time></trkpt><trkpt lat="43.3145904" lon="13.6633432"><ele>153.0</ele><time>2026-04-11T15:29:05.747Z</time></trkpt><trkpt lat="43.3145071" lon="13.6634168"><ele>153.0</ele><time>2026-04-11T15:29:06.749Z</time></trkpt><trkpt lat="43.3144134" lon="13.6634997"><ele>153.0</ele><time>2026-04-11T15:29:07.747Z</time></trkpt><trkpt lat="43.3143428" lon="13.6635612"><ele>153.0</ele><time>2026-04-11T15:29:08.744Z</time></trkpt><trkpt lat="43.3142734" lon="13.6636097"><ele>153.0</ele><time>2026-04-11T15:29:10.753Z</time></trkpt><trkpt lat="43.314351" lon="13.6635868"><ele>153.0</ele><time>2026-04-11T15:29:16.741Z</time></trkpt><trkpt lat="43.3144422" lon="13.6634836"><ele>153.0</ele><time>2026-04-11T15:29:18.743Z</time></trkpt><trkpt lat="43.3145051" lon="13.6634259"><ele>153.0</ele><time>2026-04-11T15:29:19.746Z</time></trkpt><trkpt lat="43.3145782" lon="13.6633634"><ele>153.0</ele><time>2026-04-11T15:29:20.747Z</time></trkpt><trkpt lat="43.3146542" lon="13.6632908"><ele>153.0</ele><time>2026-04-11T15:29:21.744Z</time></trkpt><trkpt lat="43.3147184" lon="13.6632265"><ele>153.0</ele><time>2026-04-11T15:29:22.743Z</time></trkpt><trkpt lat="43.3147757" lon="13.6631786"><ele>153.0</ele><time>2026-04-11T15:29:23.741Z</time></trkpt><trkpt lat="43.3148599" lon="13.6632226"><ele>153.0</ele><time>2026-04-11T15:29:26.75Z</time></trkpt><trkpt lat="43.3149052" lon="13.6633626"><ele>153.0</ele><time>2026-04-11T15:29:28.744Z</time></trkpt><trkpt lat="43.3149259" lon="13.6634517"><ele>153.0</ele><time>2026-04-11T15:29:29.744Z</time></trkpt><trkpt lat="43.3149442" lon="13.6635402"><ele>153.66666666666666</ele><time>2026-04-11T15:29:30.743Z</time></trkpt><trkpt lat="43.3149529" lon="13.6636329"><ele>154.33333333333334</ele><time>2026-04-11T15:29:31.742Z</time></trkpt><trkpt lat="43.3149614" lon="13.6637219"><ele>155.0</ele><time>2026-04-11T15:29:32.743Z</time></trkpt><trkpt lat="43.3149047" lon="13.6638147"><ele>155.66666666666669</ele><time>2026-04-11T15:29:33.747Z</time></trkpt><trkpt lat="43.3148529" lon="13.6639093"><ele>156.33333333333334</ele><time>2026-04-11T15:29:34.743Z</time></trkpt><trkpt lat="43.3147813" lon="13.6640332"><ele>157.0</ele><time>2026-04-11T15:29:35.744Z</time></trkpt><trkpt lat="43.3146993" lon="13.6641885"><ele>157.0</ele><time>2026-04-11T15:29:36.742Z</time></trkpt><trkpt lat="43.3146138" lon="13.6643279"><ele>157.0</ele><time>2026-04-11T15:29:37.745Z</time></trkpt><trkpt lat="43.3145348" lon="13.6644659"><ele>157.0</ele><time>2026-04-11T15:29:38.748Z</time></trkpt><trkpt lat="43.3144551" lon="13.6645919"><ele>157.0</ele><time>2026-04-11T15:29:39.748Z</time></trkpt><trkpt lat="43.3143718" lon="13.6647259"><ele>155.0</ele><time>2026-04-11T15:29:40.75Z</time></trkpt><trkpt lat="43.3142914" lon="13.6648695"><ele>153.0</ele><time>2026-04-11T15:29:41.743Z</time></trkpt><trkpt lat="43.3142151" lon="13.66501"><ele>151.0</ele><time>2026-04-11T15:29:42.742Z</time></trkpt><trkpt lat="43.3141501" lon="13.6651318"><ele>149.0</ele><time>2026-04-11T15:29:43.742Z</time></trkpt><trkpt lat="43.3140883" lon="13.6652497"><ele>147.0</ele><time>2026-04-11T15:29:44.742Z</time></trkpt><trkpt lat="43.3140402" lon="13.6653664"><ele>145.0</ele><time>2026-04-11T15:29:45.745Z</time></trkpt><trkpt lat="43.31399" lon="13.6654789"><ele>143.0</ele><time>2026-04-11T15:29:46.745Z</time></trkpt><trkpt lat="43.3139581" lon="13.6656119"><ele>141.0</ele><time>2026-04-11T15:29:48.743Z</time></trkpt><trkpt lat="43.3139743" lon="13.6657698"><ele>139.0</ele><time>2026-04-11T15:29:50.746Z</time></trkpt><trkpt lat="43.3140079" lon="13.6658459"><ele>139.0</ele><time>2026-04-11T15:29:51.743Z</time></trkpt><trkpt lat="43.3140352" lon="13.6659265"><ele>139.0</ele><time>2026-04-11T15:29:52.745Z</time></trkpt><trkpt lat="43.3141061" lon="13.6660289"><ele>139.0</ele><time>2026-04-11T15:29:53.746Z</time></trkpt><trkpt lat="43.3141707" lon="13.6661147"><ele>139.0</ele><time>2026-04-11T15:29:54.748Z</time></trkpt><trkpt lat="43.3143062" lon="13.6662371"><ele>139.0</ele><time>2026-04-11T15:29:55.75Z</time></trkpt><trkpt lat="43.3143885" lon="13.6663222"><ele>137.83333333333334</ele><time>2026-04-11T15:29:56.747Z</time></trkpt><trkpt lat="43.3144713" lon="13.6663977"><ele>136.66666666666669</ele><time>2026-04-11T15:29:57.745Z</time></trkpt><trkpt lat="43.3145581" lon="13.6664479"><ele>135.5</ele><time>2026-04-11T15:29:58.742Z</time></trkpt><trkpt lat="43.3146339" lon="13.6664948"><ele>134.33333333333334</ele><time>2026-04-11T15:29:59.742Z</time></trkpt><trkpt lat="43.3146621" lon="13.6665804"><ele>133.16666666666666</ele><time>2026-04-11T15:30:00.747Z</time></trkpt><trkpt lat="43.3146765" lon="13.6666675"><ele>132.0</ele><time>2026-04-11T15:30:01.748Z</time></trkpt><trkpt lat="43.3146679" lon="13.6667636"><ele>132.0</ele><time>2026-04-11T15:30:02.747Z</time></trkpt><trkpt lat="43.3146534" lon="13.6668754"><ele>132.0</ele><time>2026-04-11T15:30:03.747Z</time></trkpt><trkpt lat="43.3146401" lon="13.6669858"><ele>132.0</ele><time>2026-04-11T15:30:04.743Z</time></trkpt><trkpt lat="43.3146187" lon="13.6670814"><ele>132.0</ele><time>2026-04-11T15:30:05.742Z</time></trkpt><trkpt lat="43.3146313" lon="13.6671696"><ele>132.0</ele><time>2026-04-11T15:30:06.74Z</time></trkpt><trkpt lat="43.314645" lon="13.6673215"><ele>132.0</ele><time>2026-04-11T15:30:08.762Z</time></trkpt><trkpt lat="43.3146715" lon="13.6674007"><ele>130.5</ele><time>2026-04-11T15:30:09.742Z</time></trkpt><trkpt lat="43.3147305" lon="13.6674741"><ele>129.0</ele><time>2026-04-11T15:30:10.747Z</time></trkpt><trkpt lat="43.3148627" lon="13.6675769"><ele>127.5</ele><time>2026-04-11T15:30:11.745Z</time></trkpt><trkpt lat="43.3149757" lon="13.6677042"><ele>126.0</ele><time>2026-04-11T15:30:12.743Z</time></trkpt><trkpt lat="43.3150636" lon="13.6678256"><ele>121.75</ele><time>2026-04-11T15:30:13.74Z</time></trkpt><trkpt lat="43.3151597" lon="13.6679428"><ele>117.5</ele><time>2026-04-11T15:30:14.744Z</time></trkpt><trkpt lat="43.315245" lon="13.6680653"><ele>113.25</ele><time>2026-04-11T15:30:15.745Z</time></trkpt><trkpt lat="43.3153242" lon="13.6681834"><ele>109.0</ele><time>2026-04-11T15:30:16.743Z</time></trkpt><trkpt lat="43.3153963" lon="13.6682814"><ele>109.0</ele><time>2026-04-11T15:30:17.743Z</time></trkpt><trkpt lat="43.3154384" lon="13.6683483"><ele>109.0</ele><time>2026-04-11T15:30:18.751Z</time></trkpt><trkpt lat="43.3154648" lon="13.6684294"><ele>109.0</ele><time>2026-04-11T15:30:19.741Z</time></trkpt><trkpt lat="43.3154459" lon="13.6685688"><ele>109.0</ele><time>2026-04-11T15:30:21.744Z</time></trkpt><trkpt lat="43.3153925" lon="13.6687752"><ele>109.0</ele><time>2026-04-11T15:30:23.75Z</time></trkpt><trkpt lat="43.3153139" lon="13.6688993"><ele>108.0</ele><time>2026-04-11T15:30:24.744Z</time></trkpt><trkpt lat="43.3152475" lon="13.669043"><ele>107.0</ele><time>2026-04-11T15:30:25.742Z</time></trkpt><trkpt lat="43.3151882" lon="13.6691819"><ele>106.0</ele><time>2026-04-11T15:30:26.743Z</time></trkpt><trkpt lat="43.3151267" lon="13.6693139"><ele>105.0</ele><time>2026-04-11T15:30:27.747Z</time></trkpt><trkpt lat="43.3151106" lon="13.6694404"><ele>104.0</ele><time>2026-04-11T15:30:28.745Z</time></trkpt><trkpt lat="43.3150822" lon="13.6695448"><ele>102.49999999999999</ele><time>2026-04-11T15:30:29.743Z</time></trkpt><trkpt lat="43.3150591" lon="13.6696362"><ele>101.0</ele><time>2026-04-11T15:30:30.748Z</time></trkpt><trkpt lat="43.3150257" lon="13.6697774"><ele>99.5</ele><time>2026-04-11T15:30:32.745Z</time></trkpt><trkpt lat="43.3149978" lon="13.6698811"><ele>98.0</ele><time>2026-04-11T15:30:34.744Z</time></trkpt><trkpt lat="43.314936" lon="13.6699198"><ele>96.5</ele><time>2026-04-11T15:30:37.744Z</time></trkpt><trkpt lat="43.3148497" lon="13.669878"><ele>95.0</ele><time>2026-04-11T15:30:39.743Z</time></trkpt><trkpt lat="43.3147536" lon="13.6697977"><ele>96.66666666666667</ele><time>2026-04-11T15:30:41.744Z</time></trkpt><trkpt lat="43.3146693" lon="13.6697492"><ele>98.33333333333334</ele><time>2026-04-11T15:30:42.744Z</time></trkpt><trkpt lat="43.3145857" lon="13.6697252"><ele>100.0</ele><time>2026-04-11T15:30:43.742Z</time></trkpt><trkpt lat="43.3145101" lon="13.669711"><ele>101.66666666666667</ele><time>2026-04-11T15:30:44.741Z</time></trkpt><trkpt lat="43.3144121" lon="13.6697623"><ele>103.33333333333333</ele><time>2026-04-11T15:30:45.743Z</time></trkpt><trkpt lat="43.3143333" lon="13.6697871"><ele>105.0</ele><time>2026-04-11T15:30:46.741Z</time></trkpt><trkpt lat="43.3142372" lon="13.6698204"><ele>105.0</ele><time>2026-04-11T15:30:47.746Z</time></trkpt><trkpt lat="43.3141821" lon="13.669898"><ele>105.0</ele><time>2026-04-11T15:30:48.743Z</time></trkpt><trkpt lat="43.3141081" lon="13.6699423"><ele>105.0</ele><time>2026-04-11T15:30:49.745Z</time></trkpt><trkpt lat="43.3140268" lon="13.6699711"><ele>105.0</ele><time>2026-04-11T15:30:50.752Z</time></trkpt><trkpt lat="43.3139484" lon="13.6699966"><ele>105.0</ele><time>2026-04-11T15:30:51.742Z</time></trkpt><trkpt lat="43.3138604" lon="13.6699708"><ele>105.0</ele><time>2026-04-11T15:30:52.745Z</time></trkpt><trkpt lat="43.3137664" lon="13.6698906"><ele>106.5</ele><time>2026-04-11T15:30:53.744Z</time></trkpt><trkpt lat="43.3136734" lon="13.6698272"><ele>108.0</ele><time>2026-04-11T15:30:54.742Z</time></trkpt><trkpt lat="43.3135471" lon="13.6697476"><ele>109.5</ele><time>2026-04-11T15:30:55.744Z</time></trkpt><trkpt lat="43.313417" lon="13.6696705"><ele>111.0</ele><time>2026-04-11T15:30:56.745Z</time></trkpt><trkpt lat="43.3132755" lon="13.6695717"><ele>111.0</ele><time>2026-04-11T15:30:57.746Z</time></trkpt><trkpt lat="43.3131171" lon="13.6694874"><ele>111.0</ele><time>2026-04-11T15:30:58.744Z</time></trkpt><trkpt lat="43.3129393" lon="13.6693906"><ele>111.0</ele><time>2026-04-11T15:30:59.743Z</time></trkpt><trkpt lat="43.3127426" lon="13.6692923"><ele>115.66666666666666</ele><time>2026-04-11T15:31:00.741Z</time></trkpt><trkpt lat="43.3125466" lon="13.6692079"><ele>120.33333333333333</ele><time>2026-04-11T15:31:01.742Z</time></trkpt><trkpt lat="43.3123588" lon="13.6691341"><ele>125.0</ele><time>2026-04-11T15:31:02.745Z</time></trkpt><trkpt lat="43.3121921" lon="13.6690633"><ele>127.0</ele><time>2026-04-11T15:31:03.745Z</time></trkpt><trkpt lat="43.312049" lon="13.6689992"><ele>129.0</ele><time>2026-04-11T15:31:04.746Z</time></trkpt><trkpt lat="43.3119298" lon="13.6689469"><ele>131.0</ele><time>2026-04-11T15:31:05.744Z</time></trkpt><trkpt lat="43.3118259" lon="13.6688973"><ele>133.0</ele><time>2026-04-11T15:31:06.743Z</time></trkpt><trkpt lat="43.3117343" lon="13.6688586"><ele>133.0</ele><time>2026-04-11T15:31:07.744Z</time></trkpt><trkpt lat="43.3116618" lon="13.6688415"><ele>133.0</ele><time>2026-04-11T15:31:08.743Z</time></trkpt><trkpt lat="43.3115833" lon="13.6688395"><ele>133.0</ele><time>2026-04-11T15:31:09.742Z</time></trkpt><trkpt lat="43.311462" lon="13.6688672"><ele>133.0</ele><time>2026-04-11T15:31:11.748Z</time></trkpt><trkpt lat="43.3113881" lon="13.6689426"><ele>133.0</ele><time>2026-04-11T15:31:12.751Z</time></trkpt><trkpt lat="43.3113166" lon="13.6690102"><ele>133.0</ele><time>2026-04-11T15:31:13.745Z</time></trkpt><trkpt lat="43.3112359" lon="13.6690937"><ele>133.0</ele><time>2026-04-11T15:31:14.741Z</time></trkpt><trkpt lat="43.3111631" lon="13.6691835"><ele>133.0</ele><time>2026-04-11T15:31:15.742Z</time></trkpt><trkpt lat="43.3110931" lon="13.6692775"><ele>133.0</ele><time>2026-04-11T15:31:16.743Z</time></trkpt><trkpt lat="43.3110291" lon="13.6693567"><ele>133.0</ele><time>2026-04-11T15:31:17.747Z</time></trkpt><trkpt lat="43.3109785" lon="13.6694184"><ele>131.20000000000002</ele><time>2026-04-11T15:31:18.744Z</time></trkpt><trkpt lat="43.3109314" lon="13.6695376"><ele>129.4</ele><time>2026-04-11T15:31:20.746Z</time></trkpt><trkpt lat="43.3109333" lon="13.6696315"><ele>127.60000000000001</ele><time>2026-04-11T15:31:21.744Z</time></trkpt><trkpt lat="43.3109633" lon="13.6697413"><ele>125.80000000000001</ele><time>2026-04-11T15:31:22.743Z</time></trkpt><trkpt lat="43.3110169" lon="13.6698747"><ele>124.0</ele><time>2026-04-11T15:31:23.744Z</time></trkpt><trkpt lat="43.3110791" lon="13.6700228"><ele>124.0</ele><time>2026-04-11T15:31:24.743Z</time></trkpt><trkpt lat="43.3111393" lon="13.6701682"><ele>124.0</ele><time>2026-04-11T15:31:25.748Z</time></trkpt><trkpt lat="43.3111953" lon="13.6703244"><ele>124.0</ele><time>2026-04-11T15:31:26.742Z</time></trkpt><trkpt lat="43.3112465" lon="13.6705014"><ele>124.0</ele><time>2026-04-11T15:31:27.741Z</time></trkpt><trkpt lat="43.3112887" lon="13.6706933"><ele>121.33333333333334</ele><time>2026-04-11T15:31:28.745Z</time></trkpt><trkpt lat="43.3113311" lon="13.6708936"><ele>118.66666666666666</ele><time>2026-04-11T15:31:29.742Z</time></trkpt><trkpt lat="43.3113772" lon="13.6710901"><ele>116.0</ele><time>2026-04-11T15:31:30.747Z</time></trkpt><trkpt lat="43.3114224" lon="13.6712885"><ele>112.5</ele><time>2026-04-11T15:31:31.746Z</time></trkpt><trkpt lat="43.3114648" lon="13.6714843"><ele>109.0</ele><time>2026-04-11T15:31:32.741Z</time></trkpt><trkpt lat="43.3115032" lon="13.67168"><ele>105.5</ele><time>2026-04-11T15:31:33.742Z</time></trkpt><trkpt lat="43.3115351" lon="13.6718792"><ele>102.0</ele><time>2026-04-11T15:31:34.741Z</time></trkpt><trkpt lat="43.3115602" lon="13.6720743"><ele>99.75</ele><time>2026-04-11T15:31:35.741Z</time></trkpt><trkpt lat="43.311577" lon="13.6722662"><ele>97.5</ele><time>2026-04-11T15:31:36.746Z</time></trkpt><trkpt lat="43.3115929" lon="13.6724563"><ele>95.25</ele><time>2026-04-11T15:31:37.747Z</time></trkpt><trkpt lat="43.3116047" lon="13.6726464"><ele>93.0</ele><time>2026-04-11T15:31:38.746Z</time></trkpt><trkpt lat="43.3116119" lon="13.6728324"><ele>91.25</ele><time>2026-04-11T15:31:39.747Z</time></trkpt><trkpt lat="43.3116208" lon="13.6730122"><ele>89.5</ele><time>2026-04-11T15:31:40.743Z</time></trkpt><trkpt lat="43.3116329" lon="13.6731964"><ele>87.75</ele><time>2026-04-11T15:31:41.742Z</time></trkpt><trkpt lat="43.3116588" lon="13.6733919"><ele>86.0</ele><time>2026-04-11T15:31:42.743Z</time></trkpt><trkpt lat="43.3116922" lon="13.6735941"><ele>83.66666666666667</ele><time>2026-04-11T15:31:43.743Z</time></trkpt><trkpt lat="43.3117333" lon="13.6738027"><ele>81.33333333333333</ele><time>2026-04-11T15:31:44.744Z</time></trkpt><trkpt lat="43.3117709" lon="13.6740084"><ele>79.0</ele><time>2026-04-11T15:31:45.747Z</time></trkpt><trkpt lat="43.3118088" lon="13.6742127"><ele>79.0</ele><time>2026-04-11T15:31:46.756Z</time></trkpt><trkpt lat="43.3118507" lon="13.6744115"><ele>79.0</ele><time>2026-04-11T15:31:47.745Z</time></trkpt><trkpt lat="43.3118865" lon="13.6746154"><ele>79.0</ele><time>2026-04-11T15:31:48.741Z</time></trkpt><trkpt lat="43.3119244" lon="13.6748191"><ele>77.33333333333333</ele><time>2026-04-11T15:31:49.742Z</time></trkpt><trkpt lat="43.3119659" lon="13.6750279"><ele>75.66666666666667</ele><time>2026-04-11T15:31:50.742Z</time></trkpt><trkpt lat="43.3120209" lon="13.6752254"><ele>74.0</ele><time>2026-04-11T15:31:51.742Z</time></trkpt><trkpt lat="43.3120924" lon="13.6754334"><ele>72.75</ele><time>2026-04-11T15:31:52.743Z</time></trkpt><trkpt lat="43.3121606" lon="13.6756127"><ele>71.5</ele><time>2026-04-11T15:31:53.747Z</time></trkpt><trkpt lat="43.3122275" lon="13.675799"><ele>70.25</ele><time>2026-04-11T15:31:54.743Z</time></trkpt><trkpt lat="43.3122844" lon="13.6759659"><ele>69.0</ele><time>2026-04-11T15:31:55.743Z</time></trkpt><trkpt lat="43.3123289" lon="13.6760983"><ele>68.83333333333333</ele><time>2026-04-11T15:31:56.749Z</time></trkpt><trkpt lat="43.312359" lon="13.6762062"><ele>68.66666666666667</ele><time>2026-04-11T15:31:57.742Z</time></trkpt><trkpt lat="43.3123794" lon="13.6763036"><ele>68.5</ele><time>2026-04-11T15:31:58.744Z</time></trkpt><trkpt lat="43.3123739" lon="13.6764023"><ele>68.33333333333334</ele><time>2026-04-11T15:32:00.743Z</time></trkpt><trkpt lat="43.3123585" lon="13.6765006"><ele>68.16666666666667</ele><time>2026-04-11T15:32:04.743Z</time></trkpt><trkpt lat="43.3124086" lon="13.676637"><ele>68.0</ele><time>2026-04-11T15:32:06.747Z</time></trkpt><trkpt lat="43.3124598" lon="13.6766899"><ele>68.0</ele><time>2026-04-11T15:32:07.745Z</time></trkpt><trkpt lat="43.3125226" lon="13.6767503"><ele>68.0</ele><time>2026-04-11T15:32:08.742Z</time></trkpt><trkpt lat="43.3126016" lon="13.6768098"><ele>68.0</ele><time>2026-04-11T15:32:09.74Z</time></trkpt><trkpt lat="43.3126885" lon="13.6768628"><ele>68.0</ele><time>2026-04-11T15:32:10.742Z</time></trkpt><trkpt lat="43.3127842" lon="13.6769126"><ele>68.0</ele><time>2026-04-11T15:32:11.743Z</time></trkpt><trkpt lat="43.3128918" lon="13.6769571"><ele>68.5</ele><time>2026-04-11T15:32:12.745Z</time></trkpt><trkpt lat="43.3130011" lon="13.6770133"><ele>69.0</ele><time>2026-04-11T15:32:13.745Z</time></trkpt><trkpt lat="43.3131123" lon="13.6770677"><ele>69.5</ele><time>2026-04-11T15:32:14.743Z</time></trkpt><trkpt lat="43.3132242" lon="13.6771221"><ele>70.0</ele><time>2026-04-11T15:32:15.742Z</time></trkpt><trkpt lat="43.3133425" lon="13.6771825"><ele>72.75</ele><time>2026-04-11T15:32:16.741Z</time></trkpt><trkpt lat="43.3134547" lon="13.6772415"><ele>75.5</ele><time>2026-04-11T15:32:17.739Z</time></trkpt><trkpt lat="43.3135635" lon="13.6773128"><ele>78.25</ele><time>2026-04-11T15:32:18.741Z</time></trkpt><trkpt lat="43.3136599" lon="13.6773951"><ele>81.0</ele><time>2026-04-11T15:32:19.743Z</time></trkpt><trkpt lat="43.3137494" lon="13.6774889"><ele>81.0</ele><time>2026-04-11T15:32:20.744Z</time></trkpt><trkpt lat="43.3138389" lon="13.6775865"><ele>81.0</ele><time>2026-04-11T15:32:21.749Z</time></trkpt><trkpt lat="43.3139243" lon="13.67768"><ele>81.0</ele><time>2026-04-11T15:32:22.744Z</time></trkpt><trkpt lat="43.313994" lon="13.6777564"><ele>81.0</ele><time>2026-04-11T15:32:23.743Z</time></trkpt><trkpt lat="43.3140538" lon="13.6778254"><ele>81.0</ele><time>2026-04-11T15:32:24.743Z</time></trkpt><trkpt lat="43.3140809" lon="13.6779089"><ele>82.0</ele><time>2026-04-11T15:32:25.742Z</time></trkpt><trkpt lat="43.3140684" lon="13.6780581"><ele>83.0</ele><time>2026-04-11T15:32:27.746Z</time></trkpt><trkpt lat="43.3140339" lon="13.6781455"><ele>84.0</ele><time>2026-04-11T15:32:28.744Z</time></trkpt><trkpt lat="43.3139864" lon="13.6782381"><ele>85.0</ele><time>2026-04-11T15:32:29.748Z</time></trkpt><trkpt lat="43.3139382" lon="13.6783264"><ele>86.0</ele><time>2026-04-11T15:32:30.74Z</time></trkpt><trkpt lat="43.3138881" lon="13.6784145"><ele>87.0</ele><time>2026-04-11T15:32:31.743Z</time></trkpt><trkpt lat="43.3138357" lon="13.6785063"><ele>87.0</ele><time>2026-04-11T15:32:32.744Z</time></trkpt><trkpt lat="43.313788" lon="13.6785922"><ele>87.0</ele><time>2026-04-11T15:32:33.748Z</time></trkpt><trkpt lat="43.3137378" lon="13.678685"><ele>87.0</ele><time>2026-04-11T15:32:34.743Z</time></trkpt><trkpt lat="43.313684" lon="13.6787823"><ele>87.0</ele><time>2026-04-11T15:32:35.74Z</time></trkpt><trkpt lat="43.3136281" lon="13.6788848"><ele>87.0</ele><time>2026-04-11T15:32:36.741Z</time></trkpt><trkpt lat="43.3135707" lon="13.6789878"><ele>87.0</ele><time>2026-04-11T15:32:37.745Z</time></trkpt><trkpt lat="43.3135147" lon="13.6790844"><ele>87.5</ele><time>2026-04-11T15:32:38.74Z</time></trkpt><trkpt lat="43.3134592" lon="13.6791685"><ele>88.0</ele><time>2026-04-11T15:32:39.743Z</time></trkpt><trkpt lat="43.3134088" lon="13.6792533"><ele>88.5</ele><time>2026-04-11T15:32:40.748Z</time></trkpt><trkpt lat="43.3133618" lon="13.6793381"><ele>89.0</ele><time>2026-04-11T15:32:41.74Z</time></trkpt><trkpt lat="43.3133183" lon="13.6794353"><ele>89.5</ele><time>2026-04-11T15:32:42.743Z</time></trkpt><trkpt lat="43.3132895" lon="13.6795732"><ele>90.0</ele><time>2026-04-11T15:32:43.742Z</time></trkpt><trkpt lat="43.313259" lon="13.6797622"><ele>90.0</ele><time>2026-04-11T15:32:44.74Z</time></trkpt><trkpt lat="43.3132172" lon="13.6799597"><ele>90.0</ele><time>2026-04-11T15:32:45.741Z</time></trkpt><trkpt lat="43.3131726" lon="13.6801708"><ele>90.0</ele><time>2026-04-11T15:32:46.746Z</time></trkpt><trkpt lat="43.3131283" lon="13.6803887"><ele>90.0</ele><time>2026-04-11T15:32:47.744Z</time></trkpt><trkpt lat="43.3130905" lon="13.6806101"><ele>90.0</ele><time>2026-04-11T15:32:48.75Z</time></trkpt><trkpt lat="43.3130594" lon="13.6808314"><ele>90.0</ele><time>2026-04-11T15:32:49.743Z</time></trkpt><trkpt lat="43.3130374" lon="13.6810516"><ele>85.0</ele><time>2026-04-11T15:32:50.75Z</time></trkpt><trkpt lat="43.313026" lon="13.6812794"><ele>80.0</ele><time>2026-04-11T15:32:51.742Z</time></trkpt><trkpt lat="43.3130204" lon="13.6815103"><ele>75.0</ele><time>2026-04-11T15:32:52.742Z</time></trkpt><trkpt lat="43.3130191" lon="13.6817461"><ele>74.0</ele><time>2026-04-11T15:32:53.745Z</time></trkpt><trkpt lat="43.3130142" lon="13.681983"><ele>73.0</ele><time>2026-04-11T15:32:54.746Z</time></trkpt><trkpt lat="43.3130105" lon="13.6822198"><ele>72.0</ele><time>2026-04-11T15:32:55.748Z</time></trkpt><trkpt lat="43.3130092" lon="13.6824481"><ele>72.0</ele><time>2026-04-11T15:32:56.741Z</time></trkpt><trkpt lat="43.3130055" lon="13.682667"><ele>72.0</ele><time>2026-04-11T15:32:57.744Z</time></trkpt><trkpt lat="43.3130056" lon="13.6828763"><ele>72.0</ele><time>2026-04-11T15:32:58.743Z</time></trkpt><trkpt lat="43.3130084" lon="13.683081"><ele>71.0</ele><time>2026-04-11T15:32:59.74Z</time></trkpt><trkpt lat="43.3130125" lon="13.6832768"><ele>70.0</ele><time>2026-04-11T15:33:00.745Z</time></trkpt><trkpt lat="43.3130169" lon="13.6834531"><ele>69.0</ele><time>2026-04-11T15:33:01.742Z</time></trkpt><trkpt lat="43.3130198" lon="13.68362"><ele>68.0</ele><time>2026-04-11T15:33:02.748Z</time></trkpt><trkpt lat="43.3130188" lon="13.6837746"><ele>67.4</ele><time>2026-04-11T15:33:03.748Z</time></trkpt><trkpt lat="43.3130224" lon="13.6838991"><ele>66.8</ele><time>2026-04-11T15:33:04.743Z</time></trkpt><trkpt lat="43.3130259" lon="13.6840092"><ele>66.2</ele><time>2026-04-11T15:33:05.741Z</time></trkpt><trkpt lat="43.3130184" lon="13.6841616"><ele>65.6</ele><time>2026-04-11T15:33:07.745Z</time></trkpt><trkpt lat="43.3129378" lon="13.6842504"><ele>65.0</ele><time>2026-04-11T15:33:09.748Z</time></trkpt><trkpt lat="43.3128528" lon="13.6842723"><ele>65.0</ele><time>2026-04-11T15:33:10.74Z</time></trkpt><trkpt lat="43.312748" lon="13.6842913"><ele>65.0</ele><time>2026-04-11T15:33:11.743Z</time></trkpt><trkpt lat="43.3126181" lon="13.6843256"><ele>65.0</ele><time>2026-04-11T15:33:12.742Z</time></trkpt><trkpt lat="43.3124761" lon="13.6843717"><ele>65.0</ele><time>2026-04-11T15:33:13.742Z</time></trkpt><trkpt lat="43.3123081" lon="13.6844311"><ele>59.333333333333336</ele><time>2026-04-11T15:33:14.744Z</time></trkpt><trkpt lat="43.3121192" lon="13.6844865"><ele>53.66666666666667</ele><time>2026-04-11T15:33:15.748Z</time></trkpt><trkpt lat="43.3119284" lon="13.6845215"><ele>48.0</ele><time>2026-04-11T15:33:16.743Z</time></trkpt><trkpt lat="43.3117381" lon="13.6845496"><ele>48.0</ele><time>2026-04-11T15:33:17.744Z</time></trkpt><trkpt lat="43.3115433" lon="13.6845722"><ele>48.0</ele><time>2026-04-11T15:33:18.739Z</time></trkpt><trkpt lat="43.3113438" lon="13.6846008"><ele>48.0</ele><time>2026-04-11T15:33:19.74Z</time></trkpt><trkpt lat="43.3111381" lon="13.6846219"><ele>47.333333333333336</ele><time>2026-04-11T15:33:20.742Z</time></trkpt><trkpt lat="43.3109297" lon="13.6846352"><ele>46.66666666666667</ele><time>2026-04-11T15:33:21.745Z</time></trkpt><trkpt lat="43.3107195" lon="13.6846309"><ele>46.0</ele><time>2026-04-11T15:33:22.746Z</time></trkpt><trkpt lat="43.3105064" lon="13.6846251"><ele>48.66666666666667</ele><time>2026-04-11T15:33:23.748Z</time></trkpt><trkpt lat="43.310294" lon="13.6846298"><ele>51.333333333333336</ele><time>2026-04-11T15:33:24.742Z</time></trkpt><trkpt lat="43.3100767" lon="13.6846651"><ele>54.0</ele><time>2026-04-11T15:33:25.742Z</time></trkpt><trkpt lat="43.3098491" lon="13.6847263"><ele>58.33333333333333</ele><time>2026-04-11T15:33:26.74Z</time></trkpt><trkpt lat="43.3096264" lon="13.6847906"><ele>62.666666666666664</ele><time>2026-04-11T15:33:27.741Z</time></trkpt><trkpt lat="43.3094301" lon="13.684892"><ele>67.0</ele><time>2026-04-11T15:33:28.745Z</time></trkpt><trkpt lat="43.3092586" lon="13.6849814"><ele>67.0</ele><time>2026-04-11T15:33:29.743Z</time></trkpt><trkpt lat="43.309101" lon="13.6850707"><ele>67.0</ele><time>2026-04-11T15:33:30.744Z</time></trkpt><trkpt lat="43.3089504" lon="13.6851608"><ele>67.0</ele><time>2026-04-11T15:33:31.743Z</time></trkpt><trkpt lat="43.3088178" lon="13.6851456"><ele>69.75</ele><time>2026-04-11T15:33:32.743Z</time></trkpt><trkpt lat="43.3086856" lon="13.6851453"><ele>72.5</ele><time>2026-04-11T15:33:33.741Z</time></trkpt><trkpt lat="43.3085541" lon="13.6851361"><ele>75.25</ele><time>2026-04-11T15:33:34.742Z</time></trkpt><trkpt lat="43.3084263" lon="13.6851311"><ele>78.0</ele><time>2026-04-11T15:33:35.742Z</time></trkpt><trkpt lat="43.3083024" lon="13.6851309"><ele>78.0</ele><time>2026-04-11T15:33:36.747Z</time></trkpt><trkpt lat="43.308183" lon="13.6851385"><ele>78.0</ele><time>2026-04-11T15:33:37.746Z</time></trkpt><trkpt lat="43.3080646" lon="13.6851532"><ele>78.0</ele><time>2026-04-11T15:33:38.745Z</time></trkpt><trkpt lat="43.3079454" lon="13.6851744"><ele>78.0</ele><time>2026-04-11T15:33:39.74Z</time></trkpt><trkpt lat="43.3078285" lon="13.6852027"><ele>81.75</ele><time>2026-04-11T15:33:40.741Z</time></trkpt><trkpt lat="43.3077076" lon="13.6852296"><ele>85.5</ele><time>2026-04-11T15:33:41.741Z</time></trkpt><trkpt lat="43.3075859" lon="13.6852572"><ele>89.25</ele><time>2026-04-11T15:33:42.74Z</time></trkpt><trkpt lat="43.3074652" lon="13.6852857"><ele>93.0</ele><time>2026-04-11T15:33:43.744Z</time></trkpt><trkpt lat="43.3073433" lon="13.6853154"><ele>95.25</ele><time>2026-04-11T15:33:44.742Z</time></trkpt><trkpt lat="43.3072232" lon="13.6853383"><ele>97.5</ele><time>2026-04-11T15:33:45.749Z</time></trkpt><trkpt lat="43.3071042" lon="13.6853601"><ele>99.75</ele><time>2026-04-11T15:33:46.746Z</time></trkpt><trkpt lat="43.3069871" lon="13.6853826"><ele>102.0</ele><time>2026-04-11T15:33:47.74Z</time></trkpt><trkpt lat="43.3068698" lon="13.6854028"><ele>102.0</ele><time>2026-04-11T15:33:48.741Z</time></trkpt><trkpt lat="43.3067539" lon="13.6854213"><ele>102.0</ele><time>2026-04-11T15:33:49.742Z</time></trkpt><trkpt lat="43.3066532" lon="13.6854322"><ele>102.0</ele><time>2026-04-11T15:33:50.742Z</time></trkpt><trkpt lat="43.3065638" lon="13.6854115"><ele>102.0</ele><time>2026-04-11T15:33:52.743Z</time></trkpt><trkpt lat="43.3065114" lon="13.6853258"><ele>102.0</ele><time>2026-04-11T15:33:54.748Z</time></trkpt><trkpt lat="43.3064168" lon="13.6851899"><ele>104.19999999999999</ele><time>2026-04-11T15:33:56.743Z</time></trkpt><trkpt lat="43.3063537" lon="13.6851027"><ele>106.4</ele><time>2026-04-11T15:33:57.742Z</time></trkpt><trkpt lat="43.3062842" lon="13.6849912"><ele>108.60000000000001</ele><time>2026-04-11T15:33:58.748Z</time></trkpt><trkpt lat="43.3062131" lon="13.6848799"><ele>110.80000000000001</ele><time>2026-04-11T15:33:59.744Z</time></trkpt><trkpt lat="43.3061376" lon="13.6847615"><ele>113.0</ele><time>2026-04-11T15:34:00.745Z</time></trkpt><trkpt lat="43.3060602" lon="13.6846352"><ele>113.0</ele><time>2026-04-11T15:34:01.74Z</time></trkpt><trkpt lat="43.3059828" lon="13.6845149"><ele>113.00000000000001</ele><time>2026-04-11T15:34:02.744Z</time></trkpt><trkpt lat="43.3059104" lon="13.6843989"><ele>113.00000000000001</ele><time>2026-04-11T15:34:03.744Z</time></trkpt><trkpt lat="43.3058489" lon="13.6842962"><ele>113.0</ele><time>2026-04-11T15:34:04.745Z</time></trkpt><trkpt lat="43.3058023" lon="13.6842145"><ele>113.0</ele><time>2026-04-11T15:34:05.75Z</time></trkpt><trkpt lat="43.3057572" lon="13.6841479"><ele>115.0</ele><time>2026-04-11T15:34:06.744Z</time></trkpt><trkpt lat="43.3057206" lon="13.6840667"><ele>117.00000000000001</ele><time>2026-04-11T15:34:08.74Z</time></trkpt><trkpt lat="43.3056962" lon="13.6839377"><ele>119.00000000000001</ele><time>2026-04-11T15:34:11.747Z</time></trkpt><trkpt lat="43.3056795" lon="13.6838044"><ele>121.0</ele><time>2026-04-11T15:34:13.752Z</time></trkpt><trkpt lat="43.305657" lon="13.6836537"><ele>123.0</ele><time>2026-04-11T15:34:15.741Z</time></trkpt><trkpt lat="43.3056241" lon="13.6834861"><ele>123.33333333333333</ele><time>2026-04-11T15:34:17.742Z</time></trkpt><trkpt lat="43.3056084" lon="13.6833809"><ele>123.66666666666666</ele><time>2026-04-11T15:34:18.746Z</time></trkpt><trkpt lat="43.3055905" lon="13.6832767"><ele>124.0</ele><time>2026-04-11T15:34:19.743Z</time></trkpt><trkpt lat="43.3055676" lon="13.683159"><ele>124.33333333333333</ele><time>2026-04-11T15:34:20.747Z</time></trkpt><trkpt lat="43.305548" lon="13.683041"><ele>124.66666666666666</ele><time>2026-04-11T15:34:21.747Z</time></trkpt><trkpt lat="43.3055251" lon="13.6829395"><ele>125.0</ele><time>2026-04-11T15:34:22.74Z</time></trkpt><trkpt lat="43.3054964" lon="13.6828588"><ele>126.8</ele><time>2026-04-11T15:34:23.742Z</time></trkpt><trkpt lat="43.3054041" lon="13.6827585"><ele>128.6</ele><time>2026-04-11T15:34:25.746Z</time></trkpt><trkpt lat="43.3053401" lon="13.6827476"><ele>130.4</ele><time>2026-04-11T15:34:26.743Z</time></trkpt><trkpt lat="43.3052601" lon="13.6827613"><ele>132.2</ele><time>2026-04-11T15:34:27.743Z</time></trkpt><trkpt lat="43.3051525" lon="13.6828048"><ele>134.0</ele><time>2026-04-11T15:34:28.742Z</time></trkpt><trkpt lat="43.3050452" lon="13.6828579"><ele>134.0</ele><time>2026-04-11T15:34:29.749Z</time></trkpt><trkpt lat="43.3049339" lon="13.6829048"><ele>134.0</ele><time>2026-04-11T15:34:30.742Z</time></trkpt><trkpt lat="43.3048241" lon="13.6829417"><ele>134.0</ele><time>2026-04-11T15:34:31.746Z</time></trkpt><trkpt lat="43.304727" lon="13.6829724"><ele>134.0</ele><time>2026-04-11T15:34:32.745Z</time></trkpt><trkpt lat="43.304631" lon="13.6829409"><ele>134.0</ele><time>2026-04-11T15:34:33.74Z</time></trkpt><trkpt lat="43.30453" lon="13.6829087"><ele>133.75</ele><time>2026-04-11T15:34:34.741Z</time></trkpt><trkpt lat="43.3044096" lon="13.6828456"><ele>133.5</ele><time>2026-04-11T15:34:35.741Z</time></trkpt><trkpt lat="43.304274" lon="13.6827751"><ele>133.25</ele><time>2026-04-11T15:34:36.742Z</time></trkpt><trkpt lat="43.3041207" lon="13.6826946"><ele>133.0</ele><time>2026-04-11T15:34:37.743Z</time></trkpt><trkpt lat="43.3039885" lon="13.6826241"><ele>135.25</ele><time>2026-04-11T15:34:38.745Z</time></trkpt><trkpt lat="43.3038736" lon="13.6825479"><ele>137.5</ele><time>2026-04-11T15:34:39.746Z</time></trkpt><trkpt lat="43.3037678" lon="13.6824639"><ele>139.75</ele><time>2026-04-11T15:34:40.749Z</time></trkpt><trkpt lat="43.3036738" lon="13.6823847"><ele>142.0</ele><time>2026-04-11T15:34:41.752Z</time></trkpt><trkpt lat="43.3036031" lon="13.6822876"><ele>142.0</ele><time>2026-04-11T15:34:42.741Z</time></trkpt><trkpt lat="43.3035266" lon="13.6821889"><ele>142.0</ele><time>2026-04-11T15:34:43.741Z</time></trkpt><trkpt lat="43.3034461" lon="13.6820877"><ele>142.0</ele><time>2026-04-11T15:34:44.742Z</time></trkpt><trkpt lat="43.3033655" lon="13.6819808"><ele>142.0</ele><time>2026-04-11T15:34:45.743Z</time></trkpt><trkpt lat="43.30329" lon="13.6818804"><ele>142.0</ele><time>2026-04-11T15:34:46.746Z</time></trkpt><trkpt lat="43.3032239" lon="13.6817991"><ele>141.83333333333334</ele><time>2026-04-11T15:34:47.74Z</time></trkpt><trkpt lat="43.3031724" lon="13.6817336"><ele>141.66666666666669</ele><time>2026-04-11T15:34:48.741Z</time></trkpt><trkpt lat="43.3031192" lon="13.6816486"><ele>141.5</ele><time>2026-04-11T15:34:50.741Z</time></trkpt><trkpt lat="43.3030594" lon="13.6816201"><ele>141.33333333333334</ele><time>2026-04-11T15:34:53.742Z</time></trkpt><trkpt lat="43.302999" lon="13.6817027"><ele>141.16666666666666</ele><time>2026-04-11T15:34:55.759Z</time></trkpt><trkpt lat="43.3029472" lon="13.6818889"><ele>141.0</ele><time>2026-04-11T15:34:57.742Z</time></trkpt><trkpt lat="43.3029143" lon="13.682007"><ele>139.0</ele><time>2026-04-11T15:34:58.741Z</time></trkpt><trkpt lat="43.3028787" lon="13.6821421"><ele>137.0</ele><time>2026-04-11T15:34:59.746Z</time></trkpt><trkpt lat="43.3028443" lon="13.682295"><ele>135.0</ele><time>2026-04-11T15:35:00.745Z</time></trkpt><trkpt lat="43.3028119" lon="13.682459"><ele>133.0</ele><time>2026-04-11T15:35:01.742Z</time></trkpt><trkpt lat="43.3027862" lon="13.6826339"><ele>132.5</ele><time>2026-04-11T15:35:02.746Z</time></trkpt><trkpt lat="43.3027593" lon="13.6828051"><ele>132.0</ele><time>2026-04-11T15:35:03.741Z</time></trkpt><trkpt lat="43.3027352" lon="13.6829895"><ele>131.5</ele><time>2026-04-11T15:35:04.74Z</time></trkpt><trkpt lat="43.3027111" lon="13.6831771"><ele>131.0</ele><time>2026-04-11T15:35:05.74Z</time></trkpt><trkpt lat="43.3026846" lon="13.6833737"><ele>131.0</ele><time>2026-04-11T15:35:06.743Z</time></trkpt><trkpt lat="43.3026608" lon="13.6835669"><ele>131.0</ele><time>2026-04-11T15:35:07.746Z</time></trkpt><trkpt lat="43.302639" lon="13.6837555"><ele>131.0</ele><time>2026-04-11T15:35:08.742Z</time></trkpt><trkpt lat="43.302612" lon="13.6839438"><ele>131.0</ele><time>2026-04-11T15:35:09.744Z</time></trkpt><trkpt lat="43.3025838" lon="13.6841282"><ele>130.25</ele><time>2026-04-11T15:35:10.743Z</time></trkpt><trkpt lat="43.3025572" lon="13.684307"><ele>129.5</ele><time>2026-04-11T15:35:11.74Z</time></trkpt><trkpt lat="43.3025346" lon="13.6844852"><ele>128.75</ele><time>2026-04-11T15:35:12.745Z</time></trkpt><trkpt lat="43.302516" lon="13.6846669"><ele>128.0</ele><time>2026-04-11T15:35:13.745Z</time></trkpt><trkpt lat="43.3025052" lon="13.6848395"><ele>127.0</ele><time>2026-04-11T15:35:14.743Z</time></trkpt><trkpt lat="43.3024994" lon="13.6850034"><ele>126.0</ele><time>2026-04-11T15:35:15.739Z</time></trkpt><trkpt lat="43.3025025" lon="13.6851619"><ele>125.0</ele><time>2026-04-11T15:35:16.743Z</time></trkpt><trkpt lat="43.3025178" lon="13.6853238"><ele>124.0</ele><time>2026-04-11T15:35:17.746Z</time></trkpt><trkpt lat="43.3025391" lon="13.6854942"><ele>122.25</ele><time>2026-04-11T15:35:18.749Z</time></trkpt><trkpt lat="43.3025661" lon="13.6856754"><ele>120.5</ele><time>2026-04-11T15:35:19.743Z</time></trkpt><trkpt lat="43.3025902" lon="13.6858542"><ele>118.75</ele><time>2026-04-11T15:35:20.741Z</time></trkpt><trkpt lat="43.302615" lon="13.686034"><ele>117.0</ele><time>2026-04-11T15:35:21.743Z</time></trkpt><trkpt lat="43.3026402" lon="13.686218"><ele>115.0</ele><time>2026-04-11T15:35:22.745Z</time></trkpt><trkpt lat="43.3026691" lon="13.6864027"><ele>113.0</ele><time>2026-04-11T15:35:23.747Z</time></trkpt><trkpt lat="43.3026961" lon="13.6865853"><ele>111.0</ele><time>2026-04-11T15:35:24.747Z</time></trkpt><trkpt lat="43.3027215" lon="13.6867615"><ele>109.0</ele><time>2026-04-11T15:35:25.742Z</time></trkpt><trkpt lat="43.3027463" lon="13.6869185"><ele>108.6</ele><time>2026-04-11T15:35:26.746Z</time></trkpt><trkpt lat="43.3027673" lon="13.6870523"><ele>108.2</ele><time>2026-04-11T15:35:27.742Z</time></trkpt><trkpt lat="43.3027884" lon="13.6871652"><ele>107.79999999999998</ele><time>2026-04-11T15:35:28.744Z</time></trkpt><trkpt lat="43.3028029" lon="13.6873025"><ele>107.39999999999999</ele><time>2026-04-11T15:35:30.745Z</time></trkpt><trkpt lat="43.3028075" lon="13.6873947"><ele>107.0</ele><time>2026-04-11T15:35:33.741Z</time></trkpt><trkpt lat="43.302698" lon="13.6874655"><ele>107.0</ele><time>2026-04-11T15:35:36.749Z</time></trkpt><trkpt lat="43.3026219" lon="13.6874958"><ele>107.0</ele><time>2026-04-11T15:35:37.748Z</time></trkpt><trkpt lat="43.302512" lon="13.6875435"><ele>107.0</ele><time>2026-04-11T15:35:38.745Z</time></trkpt><trkpt lat="43.3023862" lon="13.6876086"><ele>107.0</ele><time>2026-04-11T15:35:39.742Z</time></trkpt><trkpt lat="43.302257" lon="13.6876866"><ele>105.5</ele><time>2026-04-11T15:35:40.741Z</time></trkpt><trkpt lat="43.3021312" lon="13.6877793"><ele>104.0</ele><time>2026-04-11T15:35:41.744Z</time></trkpt><trkpt lat="43.3020052" lon="13.6878837"><ele>102.5</ele><time>2026-04-11T15:35:42.743Z</time></trkpt><trkpt lat="43.3018813" lon="13.6880016"><ele>101.0</ele><time>2026-04-11T15:35:43.744Z</time></trkpt><trkpt lat="43.3017704" lon="13.6881297"><ele>101.0</ele><time>2026-04-11T15:35:44.746Z</time></trkpt><trkpt lat="43.3016682" lon="13.6882549"><ele>101.0</ele><time>2026-04-11T15:35:45.744Z</time></trkpt><trkpt lat="43.3015791" lon="13.6883855"><ele>101.0</ele><time>2026-04-11T15:35:46.742Z</time></trkpt><trkpt lat="43.3014943" lon="13.6885263"><ele>101.0</ele><time>2026-04-11T15:35:47.74Z</time></trkpt><trkpt lat="43.3014147" lon="13.6886706"><ele>97.0</ele><time>2026-04-11T15:35:48.741Z</time></trkpt><trkpt lat="43.3013331" lon="13.6888207"><ele>93.0</ele><time>2026-04-11T15:35:49.748Z</time></trkpt><trkpt lat="43.3012547" lon="13.68897"><ele>89.0</ele><time>2026-04-11T15:35:50.745Z</time></trkpt><trkpt lat="43.3011764" lon="13.6891011"><ele>85.0</ele><time>2026-04-11T15:35:51.744Z</time></trkpt><trkpt lat="43.3011017" lon="13.6892229"><ele>85.0</ele><time>2026-04-11T15:35:52.74Z</time></trkpt><trkpt lat="43.3010338" lon="13.6893585"><ele>85.0</ele><time>2026-04-11T15:35:53.742Z</time></trkpt><trkpt lat="43.3009517" lon="13.6894819"><ele>85.0</ele><time>2026-04-11T15:35:54.744Z</time></trkpt><trkpt lat="43.3008658" lon="13.6895925"><ele>85.0</ele><time>2026-04-11T15:35:55.742Z</time></trkpt><trkpt lat="43.3007738" lon="13.6896888"><ele>84.2</ele><time>2026-04-11T15:35:56.745Z</time></trkpt><trkpt lat="43.3006833" lon="13.6897648"><ele>83.4</ele><time>2026-04-11T15:35:57.743Z</time></trkpt><trkpt lat="43.300578" lon="13.6898352"><ele>82.6</ele><time>2026-04-11T15:35:58.748Z</time></trkpt><trkpt lat="43.3004668" lon="13.6898678"><ele>81.8</ele><time>2026-04-11T15:35:59.746Z</time></trkpt><trkpt lat="43.3003604" lon="13.6898932"><ele>81.0</ele><time>2026-04-11T15:36:00.747Z</time></trkpt><trkpt lat="43.3002523" lon="13.6899132"><ele>77.25</ele><time>2026-04-11T15:36:01.74Z</time></trkpt><trkpt lat="43.3001381" lon="13.6899324"><ele>73.5</ele><time>2026-04-11T15:36:02.743Z</time></trkpt><trkpt lat="43.3000365" lon="13.6899669"><ele>69.75</ele><time>2026-04-11T15:36:03.743Z</time></trkpt><trkpt lat="43.2999185" lon="13.69003"><ele>66.0</ele><time>2026-04-11T15:36:04.747Z</time></trkpt><trkpt lat="43.2997839" lon="13.6901022"><ele>62.75</ele><time>2026-04-11T15:36:05.745Z</time></trkpt><trkpt lat="43.2996506" lon="13.6901808"><ele>59.5</ele><time>2026-04-11T15:36:06.748Z</time></trkpt><trkpt lat="43.2995223" lon="13.6902594"><ele>56.25</ele><time>2026-04-11T15:36:07.742Z</time></trkpt><trkpt lat="43.2994042" lon="13.6903359"><ele>53.0</ele><time>2026-04-11T15:36:08.743Z</time></trkpt><trkpt lat="43.299299" lon="13.6904041"><ele>52.66666666666667</ele><time>2026-04-11T15:36:09.74Z</time></trkpt><trkpt lat="43.2992095" lon="13.6904623"><ele>52.333333333333336</ele><time>2026-04-11T15:36:10.743Z</time></trkpt><trkpt lat="43.2991342" lon="13.6905136"><ele>52.0</ele><time>2026-04-11T15:36:11.746Z</time></trkpt><trkpt lat="43.2990665" lon="13.6905553"><ele>51.66666666666667</ele><time>2026-04-11T15:36:12.747Z</time></trkpt><trkpt lat="43.2990016" lon="13.6905911"><ele>51.333333333333336</ele><time>2026-04-11T15:36:13.741Z</time></trkpt><trkpt lat="43.298941" lon="13.6906258"><ele>51.0</ele><time>2026-04-11T15:36:14.744Z</time></trkpt><trkpt lat="43.2988824" lon="13.6906592"><ele>49.599999999999994</ele><time>2026-04-11T15:36:15.74Z</time></trkpt><trkpt lat="43.2987665" lon="13.6907299"><ele>48.2</ele><time>2026-04-11T15:36:17.742Z</time></trkpt><trkpt lat="43.2987041" lon="13.6907647"><ele>46.8</ele><time>2026-04-11T15:36:18.746Z</time></trkpt><trkpt lat="43.2985832" lon="13.6908359"><ele>45.400000000000006</ele><time>2026-04-11T15:36:20.744Z</time></trkpt><trkpt lat="43.2985123" lon="13.6908727"><ele>44.0</ele><time>2026-04-11T15:36:21.745Z</time></trkpt><trkpt lat="43.2984422" lon="13.690909"><ele>44.0</ele><time>2026-04-11T15:36:22.742Z</time></trkpt><trkpt lat="43.2983677" lon="13.69096"><ele>44.0</ele><time>2026-04-11T15:36:23.739Z</time></trkpt><trkpt lat="43.2982682" lon="13.6910296"><ele>44.0</ele><time>2026-04-11T15:36:24.743Z</time></trkpt><trkpt lat="43.298155" lon="13.6910918"><ele>44.0</ele><time>2026-04-11T15:36:25.742Z</time></trkpt><trkpt lat="43.2980265" lon="13.6911485"><ele>42.75</ele><time>2026-04-11T15:36:26.743Z</time></trkpt><trkpt lat="43.2978988" lon="13.6912077"><ele>41.5</ele><time>2026-04-11T15:36:27.744Z</time></trkpt><trkpt lat="43.2977792" lon="13.6912633"><ele>40.25</ele><time>2026-04-11T15:36:28.743Z</time></trkpt><trkpt lat="43.2976646" lon="13.6913123"><ele>39.0</ele><time>2026-04-11T15:36:29.742Z</time></trkpt><trkpt lat="43.2975471" lon="13.6913632"><ele>39.0</ele><time>2026-04-11T15:36:30.74Z</time></trkpt><trkpt lat="43.2974335" lon="13.6914053"><ele>39.0</ele><time>2026-04-11T15:36:31.74Z</time></trkpt><trkpt lat="43.2973334" lon="13.691464"><ele>39.0</ele><time>2026-04-11T15:36:32.746Z</time></trkpt><trkpt lat="43.2972398" lon="13.691512"><ele>39.0</ele><time>2026-04-11T15:36:33.748Z</time></trkpt><trkpt lat="43.2971589" lon="13.691571"><ele>39.0</ele><time>2026-04-11T15:36:34.742Z</time></trkpt><trkpt lat="43.2970795" lon="13.6916344"><ele>38.2</ele><time>2026-04-11T15:36:35.744Z</time></trkpt><trkpt lat="43.2970029" lon="13.691714"><ele>37.4</ele><time>2026-04-11T15:36:36.743Z</time></trkpt><trkpt lat="43.2969143" lon="13.6917981"><ele>36.6</ele><time>2026-04-11T15:36:37.741Z</time></trkpt><trkpt lat="43.2968195" lon="13.6918892"><ele>35.8</ele><time>2026-04-11T15:36:38.742Z</time></trkpt><trkpt lat="43.296719" lon="13.6919848"><ele>35.0</ele><time>2026-04-11T15:36:39.745Z</time></trkpt><trkpt lat="43.296613" lon="13.6920781"><ele>34.75</ele><time>2026-04-11T15:36:40.746Z</time></trkpt><trkpt lat="43.2965018" lon="13.6921832"><ele>34.5</ele><time>2026-04-11T15:36:41.746Z</time></trkpt><trkpt lat="43.2963869" lon="13.6922892"><ele>34.25</ele><time>2026-04-11T15:36:42.743Z</time></trkpt><trkpt lat="43.2962775" lon="13.6923848"><ele>34.0</ele><time>2026-04-11T15:36:43.741Z</time></trkpt><trkpt lat="43.2961761" lon="13.6924701"><ele>33.4</ele><time>2026-04-11T15:36:44.742Z</time></trkpt><trkpt lat="43.2960902" lon="13.6925447"><ele>32.8</ele><time>2026-04-11T15:36:45.743Z</time></trkpt><trkpt lat="43.2960228" lon="13.6926118"><ele>32.2</ele><time>2026-04-11T15:36:46.747Z</time></trkpt><trkpt lat="43.295962" lon="13.6926746"><ele>31.6</ele><time>2026-04-11T15:36:47.746Z</time></trkpt><trkpt lat="43.2959071" lon="13.6928194"><ele>31.0</ele><time>2026-04-11T15:36:49.744Z</time></trkpt><trkpt lat="43.295916" lon="13.692931"><ele>30.6</ele><time>2026-04-11T15:36:50.742Z</time></trkpt><trkpt lat="43.2959278" lon="13.6930673"><ele>30.200000000000003</ele><time>2026-04-11T15:36:51.744Z</time></trkpt><trkpt lat="43.2959357" lon="13.6932086"><ele>29.799999999999997</ele><time>2026-04-11T15:36:52.743Z</time></trkpt><trkpt lat="43.2959402" lon="13.6933633"><ele>29.4</ele><time>2026-04-11T15:36:53.744Z</time></trkpt><trkpt lat="43.2959464" lon="13.6935271"><ele>29.0</ele><time>2026-04-11T15:36:54.748Z</time></trkpt><trkpt lat="43.2959545" lon="13.6936978"><ele>28.5</ele><time>2026-04-11T15:36:55.746Z</time></trkpt><trkpt lat="43.2959617" lon="13.6938742"><ele>28.0</ele><time>2026-04-11T15:36:56.745Z</time></trkpt><trkpt lat="43.2959681" lon="13.6940557"><ele>27.5</ele><time>2026-04-11T15:36:57.741Z</time></trkpt><trkpt lat="43.2959716" lon="13.6942245"><ele>27.0</ele><time>2026-04-11T15:36:58.744Z</time></trkpt><trkpt lat="43.2959764" lon="13.694381"><ele>26.400000000000002</ele><time>2026-04-11T15:36:59.744Z</time></trkpt><trkpt lat="43.2959862" lon="13.6945364"><ele>25.800000000000004</ele><time>2026-04-11T15:37:00.745Z</time></trkpt><trkpt lat="43.2959943" lon="13.6946887"><ele>25.2</ele><time>2026-04-11T15:37:01.747Z</time></trkpt><trkpt lat="43.2960212" lon="13.6947889"><ele>24.6</ele><time>2026-04-11T15:37:02.741Z</time></trkpt><trkpt lat="43.2960925" lon="13.6948663"><ele>24.0</ele><time>2026-04-11T15:37:03.743Z</time></trkpt><trkpt lat="43.2961729" lon="13.6949297"><ele>24.0</ele><time>2026-04-11T15:37:04.74Z</time></trkpt><trkpt lat="43.2962691" lon="13.6949827"><ele>24.0</ele><time>2026-04-11T15:37:05.742Z</time></trkpt><trkpt lat="43.2963679" lon="13.6950341"><ele>24.0</ele><time>2026-04-11T15:37:06.741Z</time></trkpt><trkpt lat="43.296448" lon="13.69506"><ele>24.0</ele><time>2026-04-11T15:37:07.748Z</time></trkpt><trkpt lat="43.2965369" lon="13.6950924"><ele>24.0</ele><time>2026-04-11T15:37:09.741Z</time></trkpt><trkpt lat="43.2966052" lon="13.6952155"><ele>24.0</ele><time>2026-04-11T15:37:11.744Z</time></trkpt><trkpt lat="43.2966375" lon="13.6953333"><ele>24.0</ele><time>2026-04-11T15:37:12.745Z</time></trkpt><trkpt lat="43.2966748" lon="13.6954671"><ele>24.0</ele><time>2026-04-11T15:37:13.746Z</time></trkpt><trkpt lat="43.2967179" lon="13.695606"><ele>24.0</ele><time>2026-04-11T15:37:14.747Z</time></trkpt><trkpt lat="43.2967604" lon="13.6957553"><ele>24.0</ele><time>2026-04-11T15:37:15.742Z</time></trkpt><trkpt lat="43.2967958" lon="13.6959001"><ele>24.0</ele><time>2026-04-11T15:37:16.742Z</time></trkpt><trkpt lat="43.2968146" lon="13.6960372"><ele>24.0</ele><time>2026-04-11T15:37:17.742Z</time></trkpt><trkpt lat="43.2968364" lon="13.6961668"><ele>24.0</ele><time>2026-04-11T15:37:18.741Z</time></trkpt><trkpt lat="43.296868" lon="13.6962994"><ele>24.0</ele><time>2026-04-11T15:37:19.742Z</time></trkpt><trkpt lat="43.2969038" lon="13.6964336"><ele>24.0</ele><time>2026-04-11T15:37:20.745Z</time></trkpt><trkpt lat="43.2969415" lon="13.6965727"><ele>23.75</ele><time>2026-04-11T15:37:21.746Z</time></trkpt><trkpt lat="43.2969767" lon="13.696722"><ele>23.5</ele><time>2026-04-11T15:37:22.748Z</time></trkpt><trkpt lat="43.2970115" lon="13.6968791"><ele>23.25</ele><time>2026-04-11T15:37:23.74Z</time></trkpt><trkpt lat="43.2970481" lon="13.6970402"><ele>23.0</ele><time>2026-04-11T15:37:24.746Z</time></trkpt><trkpt lat="43.2970869" lon="13.6971914"><ele>23.0</ele><time>2026-04-11T15:37:25.742Z</time></trkpt><trkpt lat="43.2971264" lon="13.6973404"><ele>23.0</ele><time>2026-04-11T15:37:26.741Z</time></trkpt><trkpt lat="43.2971666" lon="13.6974917"><ele>23.0</ele><time>2026-04-11T15:37:27.745Z</time></trkpt><trkpt lat="43.2972068" lon="13.6976466"><ele>23.0</ele><time>2026-04-11T15:37:28.745Z</time></trkpt><trkpt lat="43.2972466" lon="13.6978082"><ele>23.75</ele><time>2026-04-11T15:37:29.748Z</time></trkpt><trkpt lat="43.2972908" lon="13.6979802"><ele>24.5</ele><time>2026-04-11T15:37:30.744Z</time></trkpt><trkpt lat="43.2973379" lon="13.6981555"><ele>25.25</ele><time>2026-04-11T15:37:31.741Z</time></trkpt><trkpt lat="43.297385" lon="13.698336"><ele>26.0</ele><time>2026-04-11T15:37:32.741Z</time></trkpt><trkpt lat="43.2974279" lon="13.698512"><ele>25.0</ele><time>2026-04-11T15:37:33.743Z</time></trkpt><trkpt lat="43.2974681" lon="13.6986793"><ele>24.0</ele><time>2026-04-11T15:37:34.743Z</time></trkpt><trkpt lat="43.2975072" lon="13.6988368"><ele>23.0</ele><time>2026-04-11T15:37:35.743Z</time></trkpt><trkpt lat="43.2975497" lon="13.6989867"><ele>22.0</ele><time>2026-04-11T15:37:36.749Z</time></trkpt><trkpt lat="43.2975963" lon="13.6991353"><ele>22.0</ele><time>2026-04-11T15:37:37.739Z</time></trkpt><trkpt lat="43.2976369" lon="13.69929"><ele>22.0</ele><time>2026-04-11T15:37:38.744Z</time></trkpt><trkpt lat="43.2976748" lon="13.6994525"><ele>22.0</ele><time>2026-04-11T15:37:39.742Z</time></trkpt><trkpt lat="43.2977189" lon="13.6996211"><ele>22.0</ele><time>2026-04-11T15:37:40.741Z</time></trkpt><trkpt lat="43.2977654" lon="13.6997979"><ele>21.25</ele><time>2026-04-11T15:37:41.743Z</time></trkpt><trkpt lat="43.2978116" lon="13.6999797"><ele>20.5</ele><time>2026-04-11T15:37:42.748Z</time></trkpt><trkpt lat="43.2978523" lon="13.7001521"><ele>19.75</ele><time>2026-04-11T15:37:43.743Z</time></trkpt><trkpt lat="43.297889" lon="13.7003174"><ele>19.0</ele><time>2026-04-11T15:37:44.745Z</time></trkpt><trkpt lat="43.2979247" lon="13.7004658"><ele>18.8</ele><time>2026-04-11T15:37:45.741Z</time></trkpt><trkpt lat="43.2979562" lon="13.7005804"><ele>18.599999999999998</ele><time>2026-04-11T15:37:46.742Z</time></trkpt><trkpt lat="43.2979828" lon="13.7006636"><ele>18.4</ele><time>2026-04-11T15:37:47.743Z</time></trkpt><trkpt lat="43.298033" lon="13.7007527"><ele>18.2</ele><time>2026-04-11T15:37:49.742Z</time></trkpt><trkpt lat="43.2981702" lon="13.7007574"><ele>18.0</ele><time>2026-04-11T15:37:51.743Z</time></trkpt><trkpt lat="43.2982838" lon="13.7006987"><ele>18.6</ele><time>2026-04-11T15:37:52.742Z</time></trkpt><trkpt lat="43.2983893" lon="13.7006401"><ele>19.200000000000003</ele><time>2026-04-11T15:37:53.741Z</time></trkpt><trkpt lat="43.2984929" lon="13.7005796"><ele>19.8</ele><time>2026-04-11T15:37:54.742Z</time></trkpt><trkpt lat="43.2985871" lon="13.7005535"><ele>20.400000000000002</ele><time>2026-04-11T15:37:55.746Z</time></trkpt><trkpt lat="43.2986689" lon="13.7005654"><ele>21.0</ele><time>2026-04-11T15:37:56.74Z</time></trkpt><trkpt lat="43.2987345" lon="13.7006172"><ele>21.0</ele><time>2026-04-11T15:37:57.744Z</time></trkpt><trkpt lat="43.2988051" lon="13.7006765"><ele>21.0</ele><time>2026-04-11T15:37:58.741Z</time></trkpt><trkpt lat="43.2988757" lon="13.7007491"><ele>21.0</ele><time>2026-04-11T15:37:59.742Z</time></trkpt><trkpt lat="43.2989239" lon="13.7008538"><ele>21.0</ele><time>2026-04-11T15:38:00.742Z</time></trkpt><trkpt lat="43.2989557" lon="13.7009777"><ele>21.0</ele><time>2026-04-11T15:38:01.742Z</time></trkpt><trkpt lat="43.2989905" lon="13.7011075"><ele>21.75</ele><time>2026-04-11T15:38:02.746Z</time></trkpt><trkpt lat="43.2990306" lon="13.7012473"><ele>22.5</ele><time>2026-04-11T15:38:03.745Z</time></trkpt><trkpt lat="43.2990718" lon="13.7013861"><ele>23.25</ele><time>2026-04-11T15:38:04.745Z</time></trkpt><trkpt lat="43.2991154" lon="13.7015321"><ele>24.0</ele><time>2026-04-11T15:38:05.744Z</time></trkpt><trkpt lat="43.2991595" lon="13.7016883"><ele>24.0</ele><time>2026-04-11T15:38:06.742Z</time></trkpt><trkpt lat="43.2992023" lon="13.7018511"><ele>24.0</ele><time>2026-04-11T15:38:07.741Z</time></trkpt><trkpt lat="43.2992465" lon="13.7020077"><ele>24.0</ele><time>2026-04-11T15:38:08.744Z</time></trkpt><trkpt lat="43.2992905" lon="13.7021536"><ele>24.0</ele><time>2026-04-11T15:38:09.745Z</time></trkpt><trkpt lat="43.2993362" lon="13.7022988"><ele>23.2</ele><time>2026-04-11T15:38:10.744Z</time></trkpt><trkpt lat="43.2993812" lon="13.7024469"><ele>22.4</ele><time>2026-04-11T15:38:11.741Z</time></trkpt><trkpt lat="43.2994224" lon="13.7025937"><ele>21.6</ele><time>2026-04-11T15:38:12.742Z</time></trkpt><trkpt lat="43.2994554" lon="13.7027277"><ele>20.8</ele><time>2026-04-11T15:38:13.742Z</time></trkpt><trkpt lat="43.299483" lon="13.7028465"><ele>20.0</ele><time>2026-04-11T15:38:14.743Z</time></trkpt><trkpt lat="43.2994969" lon="13.7029592"><ele>20.0</ele><time>2026-04-11T15:38:15.742Z</time></trkpt><trkpt lat="43.299499" lon="13.7030502"><ele>20.0</ele><time>2026-04-11T15:38:16.745Z</time></trkpt><trkpt lat="43.2994927" lon="13.7032343"><ele>20.0</ele><time>2026-04-11T15:38:18.745Z</time></trkpt><trkpt lat="43.2994837" lon="13.7033686"><ele>20.0</ele><time>2026-04-11T15:38:19.746Z</time></trkpt><trkpt lat="43.2994818" lon="13.7034814"><ele>20.0</ele><time>2026-04-11T15:38:20.74Z</time></trkpt><trkpt lat="43.299498" lon="13.7035666"><ele>20.0</ele><time>2026-04-11T15:38:21.742Z</time></trkpt><trkpt lat="43.2995435" lon="13.7036669"><ele>20.25</ele><time>2026-04-11T15:38:23.744Z</time></trkpt><trkpt lat="43.2996485" lon="13.7038064"><ele>20.5</ele><time>2026-04-11T15:38:25.751Z</time></trkpt><trkpt lat="43.2997157" lon="13.7038982"><ele>20.75</ele><time>2026-04-11T15:38:26.74Z</time></trkpt><trkpt lat="43.299786" lon="13.7040047"><ele>21.0</ele><time>2026-04-11T15:38:27.74Z</time></trkpt><trkpt lat="43.2998504" lon="13.7041302"><ele>21.5</ele><time>2026-04-11T15:38:28.741Z</time></trkpt><trkpt lat="43.2999041" lon="13.7042757"><ele>22.0</ele><time>2026-04-11T15:38:29.74Z</time></trkpt><trkpt lat="43.2999545" lon="13.7044364"><ele>22.5</ele><time>2026-04-11T15:38:30.743Z</time></trkpt><trkpt lat="43.3000027" lon="13.7045957"><ele>23.0</ele><time>2026-04-11T15:38:31.745Z</time></trkpt><trkpt lat="43.3000357" lon="13.7047136"><ele>23.0</ele><time>2026-04-11T15:38:32.745Z</time></trkpt><trkpt lat="43.300066" lon="13.7048509"><ele>23.0</ele><time>2026-04-11T15:38:34.741Z</time></trkpt><trkpt lat="43.300074" lon="13.7049998"><ele>23.0</ele><time>2026-04-11T15:38:36.741Z</time></trkpt><trkpt lat="43.3000579" lon="13.7051027"><ele>23.0</ele><time>2026-04-11T15:38:37.742Z</time></trkpt><trkpt lat="43.300048" lon="13.7052206"><ele>23.0</ele><time>2026-04-11T15:38:38.742Z</time></trkpt><trkpt lat="43.300054" lon="13.7053339"><ele>23.0</ele><time>2026-04-11T15:38:39.743Z</time></trkpt><trkpt lat="43.3000378" lon="13.7054789"><ele>23.0</ele><time>2026-04-11T15:38:41.739Z</time></trkpt><trkpt lat="43.299973" lon="13.7055512"><ele>23.0</ele><time>2026-04-11T15:38:43.742Z</time></trkpt><trkpt lat="43.299894" lon="13.7055637"><ele>23.0</ele><time>2026-04-11T15:39:38.743Z</time></trkpt><trkpt lat="43.2998267" lon="13.7055907"><ele>23.0</ele><time>2026-04-11T15:39:43.744Z</time></trkpt><trkpt lat="43.299873" lon="13.7056572"><ele>23.0</ele><time>2026-04-11T15:43:22.727Z</time></trkpt><trkpt lat="43.2998776" lon="13.7055602"><ele>23.0</ele><time>2026-04-11T15:45:56.727Z</time></trkpt><trkpt lat="43.2998554" lon="13.7057285"><ele>23.0</ele><time>2026-04-11T15:49:28.727Z</time></trkpt><trkpt lat="43.2998646" lon="13.7056409"><ele>23.0</ele><time>2026-04-11T15:49:41.682Z</time></trkpt><trkpt lat="43.2998501" lon="13.7057289"><ele>23.0</ele><time>2026-04-11T15:52:47.727Z</time></trkpt><trkpt lat="43.2998317" lon="13.7056387"><ele>23.0</ele><time>2026-04-11T15:53:35.726Z</time></trkpt><trkpt lat="43.2998773" lon="13.7055753"><ele>23.0</ele><time>2026-04-11T15:53:39.738Z</time></trkpt><trkpt lat="43.2999295" lon="13.7055222"><ele>23.0</ele><time>2026-04-11T15:54:03.727Z</time></trkpt><trkpt lat="43.2999712" lon="13.7055872"><ele>23.0</ele><time>2026-04-11T15:54:32.727Z</time></trkpt><trkpt lat="43.3000065" lon="13.7054858"><ele>23.0</ele><time>2026-04-11T15:56:06.726Z</time></trkpt><trkpt lat="43.3000818" lon="13.705441"><ele>23.0</ele><time>2026-04-11T15:56:09.727Z</time></trkpt><trkpt lat="43.30009" lon="13.7053405"><ele>23.0</ele><time>2026-04-11T15:56:12.727Z</time></trkpt><trkpt lat="43.300094" lon="13.7052451"><ele>23.0</ele><time>2026-04-11T15:56:15.727Z</time></trkpt><trkpt lat="43.3001649" lon="13.7052482"><ele>23.0</ele><time>2026-04-11T15:56:21.726Z</time></trkpt><trkpt lat="43.30019" lon="13.7053784"><ele>23.0</ele><time>2026-04-11T15:56:23.726Z</time></trkpt><trkpt lat="43.3002302" lon="13.7055238"><ele>23.0</ele><time>2026-04-11T15:56:25.726Z</time></trkpt><trkpt lat="43.3002549" lon="13.7056159"><ele>23.0</ele><time>2026-04-11T15:56:26.726Z</time></trkpt><trkpt lat="43.3002778" lon="13.7057051"><ele>23.0</ele><time>2026-04-11T15:56:27.727Z</time></trkpt><trkpt lat="43.3002999" lon="13.7057924"><ele>23.0</ele><time>2026-04-11T15:56:28.727Z</time></trkpt><trkpt lat="43.3003233" lon="13.7058774"><ele>23.0</ele><time>2026-04-11T15:56:29.727Z</time></trkpt><trkpt lat="43.300368" lon="13.7060296"><ele>23.0</ele><time>2026-04-11T15:56:31.727Z</time></trkpt><trkpt lat="43.3003992" lon="13.706162"><ele>23.0</ele><time>2026-04-11T15:56:33.727Z</time></trkpt><trkpt lat="43.3004156" lon="13.7062552"><ele>23.0</ele><time>2026-04-11T15:56:35.727Z</time></trkpt><trkpt lat="43.3004885" lon="13.7063189"><ele>23.0</ele><time>2026-04-11T15:56:38.727Z</time></trkpt><trkpt lat="43.3005503" lon="13.7062433"><ele>23.0</ele><time>2026-04-11T15:56:40.727Z</time></trkpt><trkpt lat="43.3005454" lon="13.7061144"><ele>23.0</ele><time>2026-04-11T15:56:42.727Z</time></trkpt><trkpt lat="43.3005232" lon="13.7059897"><ele>23.0</ele><time>2026-04-11T15:56:44.727Z</time></trkpt><trkpt lat="43.3004954" lon="13.7058901"><ele>23.0</ele><time>2026-04-11T15:56:46.727Z</time></trkpt><trkpt lat="43.3004589" lon="13.7057619"><ele>23.0</ele><time>2026-04-11T15:56:48.727Z</time></trkpt><trkpt lat="43.3004075" lon="13.7056138"><ele>23.0</ele><time>2026-04-11T15:56:50.727Z</time></trkpt><trkpt lat="43.3003638" lon="13.7054926"><ele>23.0</ele><time>2026-04-11T15:56:52.727Z</time></trkpt><trkpt lat="43.3003394" lon="13.7053986"><ele>23.0</ele><time>2026-04-11T15:56:54.726Z</time></trkpt><trkpt lat="43.3002746" lon="13.7053174"><ele>23.0</ele><time>2026-04-11T15:56:57.727Z</time></trkpt><trkpt lat="43.300226" lon="13.7051938"><ele>23.0</ele><time>2026-04-11T15:56:59.727Z</time></trkpt><trkpt lat="43.3001753" lon="13.7050471"><ele>23.0</ele><time>2026-04-11T15:57:01.726Z</time></trkpt><trkpt lat="43.3001501" lon="13.7049596"><ele>23.0</ele><time>2026-04-11T15:57:02.727Z</time></trkpt><trkpt lat="43.3001273" lon="13.7048669"><ele>23.0</ele><time>2026-04-11T15:57:03.727Z</time></trkpt><trkpt lat="43.3001074" lon="13.7047737"><ele>23.0</ele><time>2026-04-11T15:57:04.727Z</time></trkpt><trkpt lat="43.3000789" lon="13.7046125"><ele>23.0</ele><time>2026-04-11T15:57:06.727Z</time></trkpt><trkpt lat="43.3000502" lon="13.7045114"><ele>23.0</ele><time>2026-04-11T15:57:07.727Z</time></trkpt><trkpt lat="43.3000172" lon="13.7043994"><ele>23.0</ele><time>2026-04-11T15:57:08.727Z</time></trkpt><trkpt lat="43.2999836" lon="13.7042826"><ele>23.0</ele><time>2026-04-11T15:57:09.726Z</time></trkpt><trkpt lat="43.2999518" lon="13.7041738"><ele>23.2</ele><time>2026-04-11T15:57:10.727Z</time></trkpt><trkpt lat="43.2999212" lon="13.7040782"><ele>23.4</ele><time>2026-04-11T15:57:11.727Z</time></trkpt><trkpt lat="43.2998742" lon="13.7039301"><ele>23.599999999999998</ele><time>2026-04-11T15:57:13.726Z</time></trkpt><trkpt lat="43.2998406" lon="13.7037926"><ele>23.799999999999997</ele><time>2026-04-11T15:57:15.727Z</time></trkpt><trkpt lat="43.2998408" lon="13.7036224"><ele>24.0</ele><time>2026-04-11T15:57:17.727Z</time></trkpt><trkpt lat="43.2998398" lon="13.703522"><ele>24.5</ele><time>2026-04-11T15:57:18.727Z</time></trkpt><trkpt lat="43.2998279" lon="13.7034297"><ele>25.0</ele><time>2026-04-11T15:57:19.726Z</time></trkpt><trkpt lat="43.2997983" lon="13.7033444"><ele>25.5</ele><time>2026-04-11T15:57:20.726Z</time></trkpt><trkpt lat="43.2997527" lon="13.7032714"><ele>26.0</ele><time>2026-04-11T15:57:21.727Z</time></trkpt><trkpt lat="43.2996935" lon="13.703202"><ele>26.5</ele><time>2026-04-11T15:57:22.727Z</time></trkpt><trkpt lat="43.2996133" lon="13.7031045"><ele>27.0</ele><time>2026-04-11T15:57:23.726Z</time></trkpt><trkpt lat="43.2995493" lon="13.7029715"><ele>24.666666666666668</ele><time>2026-04-11T15:57:24.727Z</time></trkpt><trkpt lat="43.2994941" lon="13.7027988"><ele>22.333333333333336</ele><time>2026-04-11T15:57:25.726Z</time></trkpt><trkpt lat="43.2994314" lon="13.7025841"><ele>20.0</ele><time>2026-04-11T15:57:26.727Z</time></trkpt><trkpt lat="43.299373" lon="13.7023674"><ele>20.0</ele><time>2026-04-11T15:57:27.727Z</time></trkpt><trkpt lat="43.2993147" lon="13.7021378"><ele>20.0</ele><time>2026-04-11T15:57:28.727Z</time></trkpt><trkpt lat="43.2992598" lon="13.7019168"><ele>20.0</ele><time>2026-04-11T15:57:29.726Z</time></trkpt><trkpt lat="43.299204" lon="13.7017168"><ele>21.0</ele><time>2026-04-11T15:57:30.727Z</time></trkpt><trkpt lat="43.2991502" lon="13.7015319"><ele>22.0</ele><time>2026-04-11T15:57:31.727Z</time></trkpt><trkpt lat="43.2991027" lon="13.7013578"><ele>23.0</ele><time>2026-04-11T15:57:32.727Z</time></trkpt><trkpt lat="43.2990592" lon="13.7011969"><ele>24.0</ele><time>2026-04-11T15:57:33.727Z</time></trkpt><trkpt lat="43.2990234" lon="13.7010549"><ele>24.6</ele><time>2026-04-11T15:57:34.727Z</time></trkpt><trkpt lat="43.2989974" lon="13.7009335"><ele>25.2</ele><time>2026-04-11T15:57:35.726Z</time></trkpt><trkpt lat="43.298984" lon="13.7008369"><ele>25.800000000000004</ele><time>2026-04-11T15:57:36.727Z</time></trkpt><trkpt lat="43.2989862" lon="13.7007217"><ele>26.400000000000002</ele><time>2026-04-11T15:57:38.726Z</time></trkpt><trkpt lat="43.2990154" lon="13.70059"><ele>27.0</ele><time>2026-04-11T15:57:40.726Z</time></trkpt><trkpt lat="43.2990174" lon="13.7004204"><ele>27.0</ele><time>2026-04-11T15:57:42.727Z</time></trkpt><trkpt lat="43.2989858" lon="13.7003418"><ele>27.0</ele><time>2026-04-11T15:57:43.727Z</time></trkpt><trkpt lat="43.2989378" lon="13.7002692"><ele>27.0</ele><time>2026-04-11T15:57:44.727Z</time></trkpt><trkpt lat="43.2988867" lon="13.700175"><ele>27.0</ele><time>2026-04-11T15:57:45.727Z</time></trkpt><trkpt lat="43.2988436" lon="13.7000682"><ele>27.0</ele><time>2026-04-11T15:57:46.726Z</time></trkpt><trkpt lat="43.2988258" lon="13.6999325"><ele>27.0</ele><time>2026-04-11T15:57:47.727Z</time></trkpt><trkpt lat="43.2988007" lon="13.6998118"><ele>26.6</ele><time>2026-04-11T15:57:48.726Z</time></trkpt><trkpt lat="43.2987768" lon="13.6996783"><ele>26.200000000000003</ele><time>2026-04-11T15:57:49.726Z</time></trkpt><trkpt lat="43.2987517" lon="13.6995418"><ele>25.8</ele><time>2026-04-11T15:57:50.727Z</time></trkpt><trkpt lat="43.2987278" lon="13.6993991"><ele>25.4</ele><time>2026-04-11T15:57:51.726Z</time></trkpt><trkpt lat="43.2987067" lon="13.6992532"><ele>25.0</ele><time>2026-04-11T15:57:52.726Z</time></trkpt><trkpt lat="43.2986906" lon="13.6991036"><ele>25.0</ele><time>2026-04-11T15:57:53.727Z</time></trkpt><trkpt lat="43.2986701" lon="13.6989491"><ele>25.0</ele><time>2026-04-11T15:57:54.726Z</time></trkpt><trkpt lat="43.2986485" lon="13.6987923"><ele>25.0</ele><time>2026-04-11T15:57:55.726Z</time></trkpt><trkpt lat="43.298621" lon="13.6986345"><ele>25.0</ele><time>2026-04-11T15:57:56.727Z</time></trkpt><trkpt lat="43.2985925" lon="13.6984739"><ele>25.75</ele><time>2026-04-11T15:57:57.727Z</time></trkpt><trkpt lat="43.2985641" lon="13.6983065"><ele>26.5</ele><time>2026-04-11T15:57:58.726Z</time></trkpt><trkpt lat="43.2985352" lon="13.6981403"><ele>27.25</ele><time>2026-04-11T15:57:59.727Z</time></trkpt><trkpt lat="43.2984993" lon="13.6979763"><ele>28.0</ele><time>2026-04-11T15:58:00.727Z</time></trkpt><trkpt lat="43.2984539" lon="13.6978106"><ele>29.0</ele><time>2026-04-11T15:58:01.726Z</time></trkpt><trkpt lat="43.298398" lon="13.6976509"><ele>30.0</ele><time>2026-04-11T15:58:02.727Z</time></trkpt><trkpt lat="43.2983339" lon="13.6974943"><ele>31.0</ele><time>2026-04-11T15:58:03.726Z</time></trkpt><trkpt lat="43.298267" lon="13.6973403"><ele>32.0</ele><time>2026-04-11T15:58:04.727Z</time></trkpt><trkpt lat="43.2981956" lon="13.6971866"><ele>32.0</ele><time>2026-04-11T15:58:05.726Z</time></trkpt><trkpt lat="43.2981248" lon="13.6970351"><ele>32.0</ele><time>2026-04-11T15:58:06.727Z</time></trkpt><trkpt lat="43.2980584" lon="13.6968912"><ele>32.0</ele><time>2026-04-11T15:58:07.726Z</time></trkpt><trkpt lat="43.297996" lon="13.6967478"><ele>32.0</ele><time>2026-04-11T15:58:08.727Z</time></trkpt><trkpt lat="43.2979305" lon="13.6966119"><ele>31.5</ele><time>2026-04-11T15:58:09.726Z</time></trkpt><trkpt lat="43.2978663" lon="13.6964778"><ele>31.0</ele><time>2026-04-11T15:58:10.727Z</time></trkpt><trkpt lat="43.2978062" lon="13.6963398"><ele>30.5</ele><time>2026-04-11T15:58:11.726Z</time></trkpt><trkpt lat="43.2977476" lon="13.6961956"><ele>30.0</ele><time>2026-04-11T15:58:12.726Z</time></trkpt><trkpt lat="43.2976866" lon="13.6960477"><ele>30.0</ele><time>2026-04-11T15:58:13.726Z</time></trkpt><trkpt lat="43.297624" lon="13.6958953"><ele>30.0</ele><time>2026-04-11T15:58:14.727Z</time></trkpt><trkpt lat="43.2975692" lon="13.695743"><ele>30.0</ele><time>2026-04-11T15:58:15.726Z</time></trkpt><trkpt lat="43.2975167" lon="13.6955933"><ele>30.0</ele><time>2026-04-11T15:58:16.727Z</time></trkpt><trkpt lat="43.2974703" lon="13.6954437"><ele>30.0</ele><time>2026-04-11T15:58:17.726Z</time></trkpt><trkpt lat="43.2974265" lon="13.6952939"><ele>30.0</ele><time>2026-04-11T15:58:18.727Z</time></trkpt><trkpt lat="43.2973823" lon="13.6951423"><ele>30.0</ele><time>2026-04-11T15:58:19.726Z</time></trkpt><trkpt lat="43.2973384" lon="13.6949882"><ele>30.0</ele><time>2026-04-11T15:58:20.727Z</time></trkpt><trkpt lat="43.2973004" lon="13.6948416"><ele>30.0</ele><time>2026-04-11T15:58:21.726Z</time></trkpt><trkpt lat="43.297267" lon="13.6947001"><ele>30.0</ele><time>2026-04-11T15:58:22.726Z</time></trkpt><trkpt lat="43.2972393" lon="13.6945667"><ele>30.0</ele><time>2026-04-11T15:58:23.726Z</time></trkpt><trkpt lat="43.2972175" lon="13.6944416"><ele>30.0</ele><time>2026-04-11T15:58:24.727Z</time></trkpt><trkpt lat="43.2972005" lon="13.694326"><ele>30.0</ele><time>2026-04-11T15:58:25.727Z</time></trkpt><trkpt lat="43.2971876" lon="13.694225"><ele>30.0</ele><time>2026-04-11T15:58:26.726Z</time></trkpt><trkpt lat="43.2971794" lon="13.6941355"><ele>30.0</ele><time>2026-04-11T15:58:27.727Z</time></trkpt><trkpt lat="43.2971563" lon="13.6939734"><ele>30.0</ele><time>2026-04-11T15:58:29.727Z</time></trkpt><trkpt lat="43.2971487" lon="13.6938858"><ele>30.0</ele><time>2026-04-11T15:58:30.727Z</time></trkpt><trkpt lat="43.2971429" lon="13.6937897"><ele>30.0</ele><time>2026-04-11T15:58:31.727Z</time></trkpt><trkpt lat="43.297141" lon="13.6936903"><ele>30.0</ele><time>2026-04-11T15:58:32.727Z</time></trkpt><trkpt lat="43.297138" lon="13.6935899"><ele>30.6</ele><time>2026-04-11T15:58:33.726Z</time></trkpt><trkpt lat="43.2971358" lon="13.6934992"><ele>31.2</ele><time>2026-04-11T15:58:34.726Z</time></trkpt><trkpt lat="43.2971263" lon="13.6933311"><ele>31.799999999999997</ele><time>2026-04-11T15:58:36.726Z</time></trkpt><trkpt lat="43.2971257" lon="13.6931587"><ele>32.4</ele><time>2026-04-11T15:58:38.727Z</time></trkpt><trkpt lat="43.297122" lon="13.6930626"><ele>33.0</ele><time>2026-04-11T15:58:39.727Z</time></trkpt><trkpt lat="43.2971182" lon="13.6929583"><ele>33.0</ele><time>2026-04-11T15:58:40.726Z</time></trkpt><trkpt lat="43.297117" lon="13.692847"><ele>33.0</ele><time>2026-04-11T15:58:41.727Z</time></trkpt><trkpt lat="43.297116" lon="13.6927308"><ele>33.0</ele><time>2026-04-11T15:58:42.727Z</time></trkpt><trkpt lat="43.2971165" lon="13.6926095"><ele>33.0</ele><time>2026-04-11T15:58:43.727Z</time></trkpt><trkpt lat="43.297115" lon="13.692489"><ele>33.0</ele><time>2026-04-11T15:58:44.727Z</time></trkpt><trkpt lat="43.2971141" lon="13.6923734"><ele>33.0</ele><time>2026-04-11T15:58:45.727Z</time></trkpt><trkpt lat="43.2971161" lon="13.6922704"><ele>33.166666666666664</ele><time>2026-04-11T15:58:46.727Z</time></trkpt><trkpt lat="43.2971168" lon="13.6921812"><ele>33.333333333333336</ele><time>2026-04-11T15:58:47.726Z</time></trkpt><trkpt lat="43.2971206" lon="13.6920626"><ele>33.5</ele><time>2026-04-11T15:58:49.726Z</time></trkpt><trkpt lat="43.297138" lon="13.6919532"><ele>33.66666666666667</ele><time>2026-04-11T15:58:51.726Z</time></trkpt><trkpt lat="43.2971445" lon="13.6918508"><ele>33.833333333333336</ele><time>2026-04-11T15:58:52.727Z</time></trkpt><trkpt lat="43.2971554" lon="13.6917402"><ele>34.0</ele><time>2026-04-11T15:58:53.726Z</time></trkpt><trkpt lat="43.2971844" lon="13.691644"><ele>35.0</ele><time>2026-04-11T15:58:54.727Z</time></trkpt><trkpt lat="43.2972941" lon="13.6915412"><ele>36.0</ele><time>2026-04-11T15:58:56.727Z</time></trkpt><trkpt lat="43.297374" lon="13.69151"><ele>37.0</ele><time>2026-04-11T15:58:57.727Z</time></trkpt><trkpt lat="43.2974566" lon="13.6914695"><ele>38.0</ele><time>2026-04-11T15:58:58.727Z</time></trkpt><trkpt lat="43.2975483" lon="13.691422"><ele>39.0</ele><time>2026-04-11T15:58:59.727Z</time></trkpt><trkpt lat="43.2976462" lon="13.6913775"><ele>39.0</ele><time>2026-04-11T15:59:00.726Z</time></trkpt><trkpt lat="43.2977499" lon="13.6913302"><ele>39.0</ele><time>2026-04-11T15:59:01.727Z</time></trkpt><trkpt lat="43.2978586" lon="13.6912795"><ele>39.0</ele><time>2026-04-11T15:59:02.726Z</time></trkpt><trkpt lat="43.2979726" lon="13.6912273"><ele>39.0</ele><time>2026-04-11T15:59:03.726Z</time></trkpt><trkpt lat="43.2980879" lon="13.6911761"><ele>39.75</ele><time>2026-04-11T15:59:04.727Z</time></trkpt><trkpt lat="43.2982029" lon="13.6910957"><ele>40.5</ele><time>2026-04-11T15:59:05.727Z</time></trkpt><trkpt lat="43.2983238" lon="13.6910243"><ele>41.25</ele><time>2026-04-11T15:59:06.726Z</time></trkpt><trkpt lat="43.2984493" lon="13.6909582"><ele>42.0</ele><time>2026-04-11T15:59:07.727Z</time></trkpt><trkpt lat="43.2985814" lon="13.6908935"><ele>42.5</ele><time>2026-04-11T15:59:08.726Z</time></trkpt><trkpt lat="43.2987109" lon="13.6908117"><ele>43.0</ele><time>2026-04-11T15:59:09.727Z</time></trkpt><trkpt lat="43.2988386" lon="13.6907375"><ele>43.5</ele><time>2026-04-11T15:59:10.726Z</time></trkpt><trkpt lat="43.2989661" lon="13.6906609"><ele>44.0</ele><time>2026-04-11T15:59:11.726Z</time></trkpt><trkpt lat="43.2990923" lon="13.6905797"><ele>45.75</ele><time>2026-04-11T15:59:12.727Z</time></trkpt><trkpt lat="43.2992166" lon="13.690499"><ele>47.5</ele><time>2026-04-11T15:59:13.727Z</time></trkpt><trkpt lat="43.2993412" lon="13.6904137"><ele>49.25</ele><time>2026-04-11T15:59:14.727Z</time></trkpt><trkpt lat="43.2994646" lon="13.6903305"><ele>51.0</ele><time>2026-04-11T15:59:15.727Z</time></trkpt><trkpt lat="43.2995857" lon="13.6902435"><ele>51.5</ele><time>2026-04-11T15:59:16.726Z</time></trkpt><trkpt lat="43.2997061" lon="13.6901651"><ele>52.0</ele><time>2026-04-11T15:59:17.727Z</time></trkpt><trkpt lat="43.2998316" lon="13.6900871"><ele>52.5</ele><time>2026-04-11T15:59:18.727Z</time></trkpt><trkpt lat="43.2999619" lon="13.6900288"><ele>53.0</ele><time>2026-04-11T15:59:19.727Z</time></trkpt><trkpt lat="43.3000936" lon="13.6899853"><ele>56.25</ele><time>2026-04-11T15:59:20.726Z</time></trkpt><trkpt lat="43.3002272" lon="13.689951"><ele>59.5</ele><time>2026-04-11T15:59:21.727Z</time></trkpt><trkpt lat="43.3003629" lon="13.6899228"><ele>62.75</ele><time>2026-04-11T15:59:22.726Z</time></trkpt><trkpt lat="43.3004948" lon="13.689889"><ele>66.0</ele><time>2026-04-11T15:59:23.726Z</time></trkpt><trkpt lat="43.3006234" lon="13.689834"><ele>69.75</ele><time>2026-04-11T15:59:24.726Z</time></trkpt><trkpt lat="43.3007348" lon="13.6897436"><ele>73.5</ele><time>2026-04-11T15:59:25.727Z</time></trkpt><trkpt lat="43.3008434" lon="13.6896469"><ele>77.25</ele><time>2026-04-11T15:59:26.726Z</time></trkpt><trkpt lat="43.3009429" lon="13.6895335"><ele>81.0</ele><time>2026-04-11T15:59:27.727Z</time></trkpt><trkpt lat="43.3010355" lon="13.6894092"><ele>82.0</ele><time>2026-04-11T15:59:28.727Z</time></trkpt><trkpt lat="43.3011205" lon="13.6892773"><ele>83.0</ele><time>2026-04-11T15:59:29.727Z</time></trkpt><trkpt lat="43.3012054" lon="13.6891447"><ele>84.0</ele><time>2026-04-11T15:59:30.726Z</time></trkpt><trkpt lat="43.3012861" lon="13.6890065"><ele>85.0</ele><time>2026-04-11T15:59:31.727Z</time></trkpt><trkpt lat="43.3013684" lon="13.688865"><ele>87.5</ele><time>2026-04-11T15:59:32.726Z</time></trkpt><trkpt lat="43.3014505" lon="13.6887216"><ele>90.0</ele><time>2026-04-11T15:59:33.727Z</time></trkpt><trkpt lat="43.3015296" lon="13.6885771"><ele>92.5</ele><time>2026-04-11T15:59:34.727Z</time></trkpt><trkpt lat="43.3016073" lon="13.6884286"><ele>95.0</ele><time>2026-04-11T15:59:35.727Z</time></trkpt><trkpt lat="43.3017039" lon="13.6883087"><ele>96.5</ele><time>2026-04-11T15:59:36.726Z</time></trkpt><trkpt lat="43.3017904" lon="13.688165"><ele>98.0</ele><time>2026-04-11T15:59:37.727Z</time></trkpt><trkpt lat="43.3019017" lon="13.6880552"><ele>99.5</ele><time>2026-04-11T15:59:38.727Z</time></trkpt><trkpt lat="43.3020133" lon="13.6879315"><ele>101.0</ele><time>2026-04-11T15:59:39.726Z</time></trkpt><trkpt lat="43.3021336" lon="13.6878209"><ele>102.5</ele><time>2026-04-11T15:59:40.726Z</time></trkpt><trkpt lat="43.3022627" lon="13.6877204"><ele>104.0</ele><time>2026-04-11T15:59:41.726Z</time></trkpt><trkpt lat="43.3023907" lon="13.6876392"><ele>105.5</ele><time>2026-04-11T15:59:42.727Z</time></trkpt><trkpt lat="43.3025162" lon="13.6875706"><ele>107.0</ele><time>2026-04-11T15:59:43.726Z</time></trkpt><trkpt lat="43.3026269" lon="13.6875151"><ele>107.0</ele><time>2026-04-11T15:59:44.726Z</time></trkpt><trkpt lat="43.3027194" lon="13.6874697"><ele>106.99999999999999</ele><time>2026-04-11T15:59:45.726Z</time></trkpt><trkpt lat="43.3027843" lon="13.6874342"><ele>106.99999999999999</ele><time>2026-04-11T15:59:46.727Z</time></trkpt><trkpt lat="43.3028545" lon="13.6873358"><ele>107.0</ele><time>2026-04-11T15:59:48.726Z</time></trkpt><trkpt lat="43.3028565" lon="13.6872085"><ele>107.0</ele><time>2026-04-11T15:59:49.726Z</time></trkpt><trkpt lat="43.3028077" lon="13.6870803"><ele>107.0</ele><time>2026-04-11T15:59:50.727Z</time></trkpt><trkpt lat="43.3027814" lon="13.6869389"><ele>107.0</ele><time>2026-04-11T15:59:51.727Z</time></trkpt><trkpt lat="43.3027437" lon="13.686788"><ele>107.0</ele><time>2026-04-11T15:59:52.726Z</time></trkpt><trkpt lat="43.3027201" lon="13.686624"><ele>107.0</ele><time>2026-04-11T15:59:53.726Z</time></trkpt><trkpt lat="43.3026926" lon="13.6864651"><ele>107.5</ele><time>2026-04-11T15:59:54.727Z</time></trkpt><trkpt lat="43.3026716" lon="13.6863016"><ele>108.0</ele><time>2026-04-11T15:59:55.726Z</time></trkpt><trkpt lat="43.3026484" lon="13.6861361"><ele>108.5</ele><time>2026-04-11T15:59:56.726Z</time></trkpt><trkpt lat="43.3026258" lon="13.6859683"><ele>109.0</ele><time>2026-04-11T15:59:57.727Z</time></trkpt><trkpt lat="43.3026025" lon="13.685803"><ele>111.0</ele><time>2026-04-11T15:59:58.726Z</time></trkpt><trkpt lat="43.3025822" lon="13.6856365"><ele>113.0</ele><time>2026-04-11T15:59:59.726Z</time></trkpt><trkpt lat="43.3025616" lon="13.6854689"><ele>115.0</ele><time>2026-04-11T16:00:00.726Z</time></trkpt><trkpt lat="43.3025424" lon="13.6853083"><ele>117.0</ele><time>2026-04-11T16:00:01.727Z</time></trkpt><trkpt lat="43.3025243" lon="13.6851556"><ele>118.39999999999999</ele><time>2026-04-11T16:00:02.727Z</time></trkpt><trkpt lat="43.3025194" lon="13.6850089"><ele>119.79999999999998</ele><time>2026-04-11T16:00:03.726Z</time></trkpt><trkpt lat="43.3025216" lon="13.6848643"><ele>121.2</ele><time>2026-04-11T16:00:04.727Z</time></trkpt><trkpt lat="43.3025318" lon="13.684722"><ele>122.6</ele><time>2026-04-11T16:00:05.727Z</time></trkpt><trkpt lat="43.3025527" lon="13.6845818"><ele>124.0</ele><time>2026-04-11T16:00:06.727Z</time></trkpt><trkpt lat="43.3025725" lon="13.6844362"><ele>125.0</ele><time>2026-04-11T16:00:07.727Z</time></trkpt><trkpt lat="43.3025899" lon="13.6842803"><ele>126.0</ele><time>2026-04-11T16:00:08.727Z</time></trkpt><trkpt lat="43.3026096" lon="13.6841144"><ele>127.0</ele><time>2026-04-11T16:00:09.726Z</time></trkpt><trkpt lat="43.3026319" lon="13.6839422"><ele>128.0</ele><time>2026-04-11T16:00:10.726Z</time></trkpt><trkpt lat="43.3026528" lon="13.6837623"><ele>128.75</ele><time>2026-04-11T16:00:11.726Z</time></trkpt><trkpt lat="43.3026784" lon="13.683575"><ele>129.5</ele><time>2026-04-11T16:00:12.726Z</time></trkpt><trkpt lat="43.3026986" lon="13.6833896"><ele>130.25</ele><time>2026-04-11T16:00:13.727Z</time></trkpt><trkpt lat="43.3027179" lon="13.6831999"><ele>131.0</ele><time>2026-04-11T16:00:14.726Z</time></trkpt><trkpt lat="43.3027402" lon="13.683015"><ele>131.0</ele><time>2026-04-11T16:00:15.727Z</time></trkpt><trkpt lat="43.3027657" lon="13.6828417"><ele>131.0</ele><time>2026-04-11T16:00:16.727Z</time></trkpt><trkpt lat="43.3027884" lon="13.6826799"><ele>131.0</ele><time>2026-04-11T16:00:17.727Z</time></trkpt><trkpt lat="43.3028214" lon="13.6825232"><ele>131.0</ele><time>2026-04-11T16:00:18.727Z</time></trkpt><trkpt lat="43.3028491" lon="13.6823694"><ele>131.5</ele><time>2026-04-11T16:00:19.727Z</time></trkpt><trkpt lat="43.3028876" lon="13.682208"><ele>132.0</ele><time>2026-04-11T16:00:20.727Z</time></trkpt><trkpt lat="43.3029223" lon="13.6820546"><ele>132.5</ele><time>2026-04-11T16:00:21.727Z</time></trkpt><trkpt lat="43.3029659" lon="13.6819123"><ele>133.0</ele><time>2026-04-11T16:00:22.726Z</time></trkpt><trkpt lat="43.3030084" lon="13.6817791"><ele>132.20000000000002</ele><time>2026-04-11T16:00:23.727Z</time></trkpt><trkpt lat="43.3030586" lon="13.6816572"><ele>131.4</ele><time>2026-04-11T16:00:24.726Z</time></trkpt><trkpt lat="43.3031194" lon="13.6815313"><ele>130.60000000000002</ele><time>2026-04-11T16:00:25.726Z</time></trkpt><trkpt lat="43.30318" lon="13.6814148"><ele>129.8</ele><time>2026-04-11T16:00:26.727Z</time></trkpt><trkpt lat="43.3032579" lon="13.6813144"><ele>129.0</ele><time>2026-04-11T16:00:27.727Z</time></trkpt><trkpt lat="43.3033381" lon="13.6812035"><ele>130.6</ele><time>2026-04-11T16:00:28.727Z</time></trkpt><trkpt lat="43.3034186" lon="13.6810959"><ele>132.2</ele><time>2026-04-11T16:00:29.726Z</time></trkpt><trkpt lat="43.3035048" lon="13.6810133"><ele>133.79999999999998</ele><time>2026-04-11T16:00:30.726Z</time></trkpt><trkpt lat="43.3035801" lon="13.6809231"><ele>135.4</ele><time>2026-04-11T16:00:31.727Z</time></trkpt><trkpt lat="43.3036578" lon="13.6808233"><ele>137.0</ele><time>2026-04-11T16:00:32.726Z</time></trkpt><trkpt lat="43.3037378" lon="13.6807261"><ele>137.0</ele><time>2026-04-11T16:00:33.727Z</time></trkpt><trkpt lat="43.3038189" lon="13.6806253"><ele>137.0</ele><time>2026-04-11T16:00:34.726Z</time></trkpt><trkpt lat="43.3039059" lon="13.680524"><ele>137.0</ele><time>2026-04-11T16:00:35.727Z</time></trkpt><trkpt lat="43.3039849" lon="13.6804031"><ele>137.0</ele><time>2026-04-11T16:00:36.727Z</time></trkpt><trkpt lat="43.3040628" lon="13.6802816"><ele>138.25</ele><time>2026-04-11T16:00:37.726Z</time></trkpt><trkpt lat="43.3041331" lon="13.6801407"><ele>139.5</ele><time>2026-04-11T16:00:38.727Z</time></trkpt><trkpt lat="43.3041917" lon="13.6799981"><ele>140.75</ele><time>2026-04-11T16:00:39.726Z</time></trkpt><trkpt lat="43.304245" lon="13.6798508"><ele>142.0</ele><time>2026-04-11T16:00:40.726Z</time></trkpt><trkpt lat="43.3042931" lon="13.6797051"><ele>142.0</ele><time>2026-04-11T16:00:41.727Z</time></trkpt><trkpt lat="43.3043411" lon="13.6795699"><ele>142.0</ele><time>2026-04-11T16:00:42.727Z</time></trkpt><trkpt lat="43.3043896" lon="13.6794428"><ele>142.0</ele><time>2026-04-11T16:00:43.727Z</time></trkpt><trkpt lat="43.3044366" lon="13.6793242"><ele>142.0</ele><time>2026-04-11T16:00:44.727Z</time></trkpt><trkpt lat="43.3044806" lon="13.6792013"><ele>142.0</ele><time>2026-04-11T16:00:45.726Z</time></trkpt><trkpt lat="43.3045234" lon="13.6790757"><ele>140.5</ele><time>2026-04-11T16:00:46.727Z</time></trkpt><trkpt lat="43.304558" lon="13.6789389"><ele>139.0</ele><time>2026-04-11T16:00:47.727Z</time></trkpt><trkpt lat="43.3045877" lon="13.678793"><ele>137.5</ele><time>2026-04-11T16:00:48.726Z</time></trkpt><trkpt lat="43.3046021" lon="13.6786346"><ele>136.0</ele><time>2026-04-11T16:00:49.726Z</time></trkpt><trkpt lat="43.3046092" lon="13.678459"><ele>135.75</ele><time>2026-04-11T16:00:50.726Z</time></trkpt><trkpt lat="43.304615" lon="13.6782754"><ele>135.5</ele><time>2026-04-11T16:00:51.726Z</time></trkpt><trkpt lat="43.3046201" lon="13.6780854"><ele>135.25</ele><time>2026-04-11T16:00:52.727Z</time></trkpt><trkpt lat="43.3046329" lon="13.6778916"><ele>135.0</ele><time>2026-04-11T16:00:53.727Z</time></trkpt><trkpt lat="43.3046556" lon="13.6776901"><ele>136.0</ele><time>2026-04-11T16:00:54.726Z</time></trkpt><trkpt lat="43.3046857" lon="13.6774802"><ele>137.0</ele><time>2026-04-11T16:00:55.726Z</time></trkpt><trkpt lat="43.3047171" lon="13.6772658"><ele>138.0</ele><time>2026-04-11T16:00:56.727Z</time></trkpt><trkpt lat="43.3047494" lon="13.6770597"><ele>139.66666666666666</ele><time>2026-04-11T16:00:57.726Z</time></trkpt><trkpt lat="43.3047799" lon="13.6768526"><ele>141.33333333333331</ele><time>2026-04-11T16:00:58.727Z</time></trkpt><trkpt lat="43.304811" lon="13.6766459"><ele>143.0</ele><time>2026-04-11T16:00:59.726Z</time></trkpt><trkpt lat="43.3048437" lon="13.6764422"><ele>143.0</ele><time>2026-04-11T16:01:00.726Z</time></trkpt><trkpt lat="43.3048776" lon="13.6762481"><ele>143.0</ele><time>2026-04-11T16:01:01.727Z</time></trkpt><trkpt lat="43.3049216" lon="13.6760791"><ele>143.0</ele><time>2026-04-11T16:01:02.727Z</time></trkpt><trkpt lat="43.3049802" lon="13.6759323"><ele>143.0</ele><time>2026-04-11T16:01:03.726Z</time></trkpt><trkpt lat="43.3050556" lon="13.6758036"><ele>144.0</ele><time>2026-04-11T16:01:04.727Z</time></trkpt><trkpt lat="43.3051415" lon="13.6756937"><ele>145.0</ele><time>2026-04-11T16:01:05.726Z</time></trkpt><trkpt lat="43.3052266" lon="13.6756046"><ele>146.0</ele><time>2026-04-11T16:01:06.726Z</time></trkpt><trkpt lat="43.3052905" lon="13.6755367"><ele>147.0</ele><time>2026-04-11T16:01:07.727Z</time></trkpt><trkpt lat="43.3053486" lon="13.6754767"><ele>148.0</ele><time>2026-04-11T16:01:08.726Z</time></trkpt><trkpt lat="43.3054195" lon="13.6754209"><ele>148.0</ele><time>2026-04-11T16:01:10.727Z</time></trkpt><trkpt lat="43.3054606" lon="13.6753401"><ele>148.0</ele><time>2026-04-11T16:01:13.727Z</time></trkpt><trkpt lat="43.3054358" lon="13.6752181"><ele>148.0</ele><time>2026-04-11T16:01:15.727Z</time></trkpt><trkpt lat="43.3054103" lon="13.6751357"><ele>148.0</ele><time>2026-04-11T16:01:16.727Z</time></trkpt><trkpt lat="43.3053841" lon="13.6750477"><ele>148.0</ele><time>2026-04-11T16:01:17.727Z</time></trkpt><trkpt lat="43.3053559" lon="13.6749547"><ele>148.0</ele><time>2026-04-11T16:01:18.727Z</time></trkpt><trkpt lat="43.3053311" lon="13.674852"><ele>148.5</ele><time>2026-04-11T16:01:19.727Z</time></trkpt><trkpt lat="43.3053122" lon="13.6747428"><ele>149.0</ele><time>2026-04-11T16:01:20.727Z</time></trkpt><trkpt lat="43.3052973" lon="13.6746177"><ele>149.5</ele><time>2026-04-11T16:01:21.727Z</time></trkpt><trkpt lat="43.3052894" lon="13.674503"><ele>150.0</ele><time>2026-04-11T16:01:22.727Z</time></trkpt><trkpt lat="43.3052618" lon="13.6744025"><ele>150.5</ele><time>2026-04-11T16:01:23.727Z</time></trkpt><trkpt lat="43.3052109" lon="13.6743207"><ele>151.0</ele><time>2026-04-11T16:01:24.727Z</time></trkpt><trkpt lat="43.3051354" lon="13.6742609"><ele>151.0</ele><time>2026-04-11T16:01:25.726Z</time></trkpt><trkpt lat="43.3050575" lon="13.6742047"><ele>151.0</ele><time>2026-04-11T16:01:26.726Z</time></trkpt><trkpt lat="43.3049513" lon="13.6741799"><ele>151.0</ele><time>2026-04-11T16:01:27.726Z</time></trkpt><trkpt lat="43.3048422" lon="13.6741429"><ele>151.0</ele><time>2026-04-11T16:01:28.727Z</time></trkpt><trkpt lat="43.3047288" lon="13.6740838"><ele>151.0</ele><time>2026-04-11T16:01:29.727Z</time></trkpt><trkpt lat="43.3046337" lon="13.6739509"><ele>149.5</ele><time>2026-04-11T16:01:30.727Z</time></trkpt><trkpt lat="43.3045386" lon="13.6738026"><ele>148.0</ele><time>2026-04-11T16:01:31.726Z</time></trkpt><trkpt lat="43.3044537" lon="13.6736442"><ele>146.5</ele><time>2026-04-11T16:01:32.727Z</time></trkpt><trkpt lat="43.3043701" lon="13.6734732"><ele>145.0</ele><time>2026-04-11T16:01:33.727Z</time></trkpt><trkpt lat="43.3042869" lon="13.6733054"><ele>145.0</ele><time>2026-04-11T16:01:34.727Z</time></trkpt><trkpt lat="43.3042082" lon="13.6731411"><ele>145.0</ele><time>2026-04-11T16:01:35.726Z</time></trkpt><trkpt lat="43.3041287" lon="13.6729881"><ele>145.0</ele><time>2026-04-11T16:01:36.727Z</time></trkpt><trkpt lat="43.3040495" lon="13.6728456"><ele>145.0</ele><time>2026-04-11T16:01:37.727Z</time></trkpt><trkpt lat="43.3039563" lon="13.6727211"><ele>144.0</ele><time>2026-04-11T16:01:38.726Z</time></trkpt><trkpt lat="43.303847" lon="13.6726097"><ele>143.0</ele><time>2026-04-11T16:01:39.727Z</time></trkpt><trkpt lat="43.3037331" lon="13.6724938"><ele>142.0</ele><time>2026-04-11T16:01:40.727Z</time></trkpt><trkpt lat="43.3035962" lon="13.6724225"><ele>141.0</ele><time>2026-04-11T16:01:41.727Z</time></trkpt><trkpt lat="43.303458" lon="13.6723303"><ele>141.0</ele><time>2026-04-11T16:01:42.726Z</time></trkpt><trkpt lat="43.303313" lon="13.672237"><ele>141.0</ele><time>2026-04-11T16:01:43.727Z</time></trkpt><trkpt lat="43.3031627" lon="13.6721411"><ele>141.0</ele><time>2026-04-11T16:01:44.727Z</time></trkpt><trkpt lat="43.303011" lon="13.6720464"><ele>138.66666666666666</ele><time>2026-04-11T16:01:45.726Z</time></trkpt><trkpt lat="43.3028581" lon="13.6719529"><ele>136.33333333333331</ele><time>2026-04-11T16:01:46.726Z</time></trkpt><trkpt lat="43.3027103" lon="13.671856"><ele>134.0</ele><time>2026-04-11T16:01:47.727Z</time></trkpt><trkpt lat="43.302555" lon="13.6717688"><ele>133.66666666666666</ele><time>2026-04-11T16:01:48.726Z</time></trkpt><trkpt lat="43.3024045" lon="13.6716725"><ele>133.33333333333334</ele><time>2026-04-11T16:01:49.727Z</time></trkpt><trkpt lat="43.3022591" lon="13.6715733"><ele>133.0</ele><time>2026-04-11T16:01:50.727Z</time></trkpt><trkpt lat="43.3021131" lon="13.6714695"><ele>128.66666666666669</ele><time>2026-04-11T16:01:51.726Z</time></trkpt><trkpt lat="43.3019635" lon="13.6713785"><ele>124.33333333333334</ele><time>2026-04-11T16:01:52.726Z</time></trkpt><trkpt lat="43.301806" lon="13.6712947"><ele>120.0</ele><time>2026-04-11T16:01:53.726Z</time></trkpt><trkpt lat="43.3016442" lon="13.6712129"><ele>120.0</ele><time>2026-04-11T16:01:54.727Z</time></trkpt><trkpt lat="43.3014801" lon="13.67114"><ele>120.0</ele><time>2026-04-11T16:01:55.726Z</time></trkpt><trkpt lat="43.3013152" lon="13.6710744"><ele>120.0</ele><time>2026-04-11T16:01:56.727Z</time></trkpt><trkpt lat="43.3011464" lon="13.6710171"><ele>117.0</ele><time>2026-04-11T16:01:57.727Z</time></trkpt><trkpt lat="43.3009993" lon="13.6709768"><ele>114.0</ele><time>2026-04-11T16:01:58.727Z</time></trkpt><trkpt lat="43.3008732" lon="13.6709404"><ele>111.0</ele><time>2026-04-11T16:01:59.726Z</time></trkpt><trkpt lat="43.3007598" lon="13.6709071"><ele>108.0</ele><time>2026-04-11T16:02:00.727Z</time></trkpt><trkpt lat="43.3006408" lon="13.6708775"><ele>106.16666666666667</ele><time>2026-04-11T16:02:01.727Z</time></trkpt><trkpt lat="43.3005302" lon="13.6708494"><ele>104.33333333333334</ele><time>2026-04-11T16:02:02.726Z</time></trkpt><trkpt lat="43.3004292" lon="13.6708214"><ele>102.5</ele><time>2026-04-11T16:02:03.727Z</time></trkpt><trkpt lat="43.3003438" lon="13.6707968"><ele>100.66666666666667</ele><time>2026-04-11T16:02:04.727Z</time></trkpt><trkpt lat="43.3002789" lon="13.6707773"><ele>98.83333333333334</ele><time>2026-04-11T16:02:05.726Z</time></trkpt><trkpt lat="43.300212" lon="13.6707558"><ele>97.0</ele><time>2026-04-11T16:02:07.726Z</time></trkpt><trkpt lat="43.3002355" lon="13.6708466"><ele>97.0</ele><time>2026-04-11T16:02:11.727Z</time></trkpt><trkpt lat="43.3003596" lon="13.6708558"><ele>97.0</ele><time>2026-04-11T16:02:13.727Z</time></trkpt><trkpt lat="43.3004407" lon="13.6708754"><ele>97.0</ele><time>2026-04-11T16:02:14.726Z</time></trkpt><trkpt lat="43.3005419" lon="13.6708989"><ele>97.0</ele><time>2026-04-11T16:02:15.727Z</time></trkpt><trkpt lat="43.3006513" lon="13.6709226"><ele>97.0</ele><time>2026-04-11T16:02:16.727Z</time></trkpt><trkpt lat="43.3007677" lon="13.6709501"><ele>99.75</ele><time>2026-04-11T16:02:17.727Z</time></trkpt><trkpt lat="43.3008994" lon="13.6709779"><ele>102.5</ele><time>2026-04-11T16:02:18.727Z</time></trkpt><trkpt lat="43.3010382" lon="13.6710141"><ele>105.25</ele><time>2026-04-11T16:02:19.727Z</time></trkpt><trkpt lat="43.301178" lon="13.6710554"><ele>108.0</ele><time>2026-04-11T16:02:20.726Z</time></trkpt><trkpt lat="43.3013114" lon="13.6711043"><ele>111.0</ele><time>2026-04-11T16:02:21.726Z</time></trkpt><trkpt lat="43.3014483" lon="13.671164"><ele>114.0</ele><time>2026-04-11T16:02:22.726Z</time></trkpt><trkpt lat="43.3015855" lon="13.6712308"><ele>117.0</ele><time>2026-04-11T16:02:23.726Z</time></trkpt><trkpt lat="43.3017238" lon="13.6713005"><ele>120.0</ele><time>2026-04-11T16:02:24.727Z</time></trkpt><trkpt lat="43.301856" lon="13.6713734"><ele>120.0</ele><time>2026-04-11T16:02:25.727Z</time></trkpt><trkpt lat="43.3019884" lon="13.6714518"><ele>120.0</ele><time>2026-04-11T16:02:26.727Z</time></trkpt><trkpt lat="43.3021162" lon="13.6715303"><ele>120.0</ele><time>2026-04-11T16:02:27.726Z</time></trkpt><trkpt lat="43.3022304" lon="13.6716043"><ele>120.0</ele><time>2026-04-11T16:02:28.726Z</time></trkpt><trkpt lat="43.3023299" lon="13.6716679"><ele>122.16666666666667</ele><time>2026-04-11T16:02:29.727Z</time></trkpt><trkpt lat="43.3024043" lon="13.6717144"><ele>124.33333333333334</ele><time>2026-04-11T16:02:30.726Z</time></trkpt><trkpt lat="43.3024947" lon="13.6716986"><ele>126.5</ele><time>2026-04-11T16:02:32.727Z</time></trkpt><trkpt lat="43.3025105" lon="13.6716057"><ele>128.66666666666669</ele><time>2026-04-11T16:02:34.726Z</time></trkpt><trkpt lat="43.3024595" lon="13.6715244"><ele>130.83333333333334</ele><time>2026-04-11T16:02:35.727Z</time></trkpt><trkpt lat="43.3024173" lon="13.6713942"><ele>133.0</ele><time>2026-04-11T16:02:36.727Z</time></trkpt><trkpt lat="43.3023918" lon="13.6712547"><ele>131.75</ele><time>2026-04-11T16:02:37.726Z</time></trkpt><trkpt lat="43.3023573" lon="13.671103"><ele>130.5</ele><time>2026-04-11T16:02:38.726Z</time></trkpt><trkpt lat="43.3023252" lon="13.6709303"><ele>129.25</ele><time>2026-04-11T16:02:39.727Z</time></trkpt><trkpt lat="43.3022843" lon="13.6707444"><ele>128.0</ele><time>2026-04-11T16:02:40.726Z</time></trkpt><trkpt lat="43.302247" lon="13.6705547"><ele>125.75</ele><time>2026-04-11T16:02:41.726Z</time></trkpt><trkpt lat="43.302206" lon="13.6703713"><ele>123.5</ele><time>2026-04-11T16:02:42.727Z</time></trkpt><trkpt lat="43.3021707" lon="13.6701869"><ele>121.25</ele><time>2026-04-11T16:02:43.726Z</time></trkpt><trkpt lat="43.3021328" lon="13.6699905"><ele>119.0</ele><time>2026-04-11T16:02:44.726Z</time></trkpt><trkpt lat="43.3020972" lon="13.6697986"><ele>118.25</ele><time>2026-04-11T16:02:45.727Z</time></trkpt><trkpt lat="43.3020618" lon="13.6696223"><ele>117.5</ele><time>2026-04-11T16:02:46.727Z</time></trkpt><trkpt lat="43.3020249" lon="13.6694572"><ele>116.75</ele><time>2026-04-11T16:02:47.727Z</time></trkpt><trkpt lat="43.301989" lon="13.6692978"><ele>116.0</ele><time>2026-04-11T16:02:48.727Z</time></trkpt><trkpt lat="43.3019623" lon="13.6691532"><ele>115.19999999999999</ele><time>2026-04-11T16:02:49.727Z</time></trkpt><trkpt lat="43.301937" lon="13.66902"><ele>114.39999999999999</ele><time>2026-04-11T16:02:50.727Z</time></trkpt><trkpt lat="43.3019123" lon="13.6688947"><ele>113.6</ele><time>2026-04-11T16:02:51.727Z</time></trkpt><trkpt lat="43.3018876" lon="13.6687754"><ele>112.8</ele><time>2026-04-11T16:02:52.726Z</time></trkpt><trkpt lat="43.3018627" lon="13.6686644"><ele>112.0</ele><time>2026-04-11T16:02:53.726Z</time></trkpt><trkpt lat="43.3018392" lon="13.6685543"><ele>111.57142857142857</ele><time>2026-04-11T16:02:54.727Z</time></trkpt><trkpt lat="43.3018186" lon="13.6684515"><ele>111.14285714285714</ele><time>2026-04-11T16:02:55.727Z</time></trkpt><trkpt lat="43.3017963" lon="13.6683564"><ele>110.71428571428572</ele><time>2026-04-11T16:02:56.727Z</time></trkpt><trkpt lat="43.3017772" lon="13.6682615"><ele>110.28571428571428</ele><time>2026-04-11T16:02:57.727Z</time></trkpt><trkpt lat="43.3017571" lon="13.6681647"><ele>109.85714285714286</ele><time>2026-04-11T16:02:58.727Z</time></trkpt><trkpt lat="43.3017392" lon="13.6680649"><ele>109.42857142857143</ele><time>2026-04-11T16:02:59.726Z</time></trkpt><trkpt lat="43.3017215" lon="13.6679647"><ele>109.0</ele><time>2026-04-11T16:03:00.726Z</time></trkpt><trkpt lat="43.3017068" lon="13.6678653"><ele>108.28571428571429</ele><time>2026-04-11T16:03:01.727Z</time></trkpt><trkpt lat="43.3016859" lon="13.6677639"><ele>107.57142857142858</ele><time>2026-04-11T16:03:02.726Z</time></trkpt><trkpt lat="43.301666" lon="13.6676641"><ele>106.85714285714286</ele><time>2026-04-11T16:03:03.726Z</time></trkpt><trkpt lat="43.3016433" lon="13.6675691"><ele>106.14285714285714</ele><time>2026-04-11T16:03:04.727Z</time></trkpt><trkpt lat="43.3016168" lon="13.6674717"><ele>105.42857142857143</ele><time>2026-04-11T16:03:05.727Z</time></trkpt><trkpt lat="43.3015908" lon="13.6673775"><ele>104.71428571428571</ele><time>2026-04-11T16:03:06.727Z</time></trkpt><trkpt lat="43.3015615" lon="13.667286"><ele>104.0</ele><time>2026-04-11T16:03:07.727Z</time></trkpt><trkpt lat="43.3015372" lon="13.6671943"><ele>104.0</ele><time>2026-04-11T16:03:08.726Z</time></trkpt><trkpt lat="43.3015139" lon="13.6671018"><ele>104.0</ele><time>2026-04-11T16:03:09.727Z</time></trkpt><trkpt lat="43.3014862" lon="13.6670136"><ele>104.0</ele><time>2026-04-11T16:03:10.727Z</time></trkpt><trkpt lat="43.3014628" lon="13.6669245"><ele>104.0</ele><time>2026-04-11T16:03:11.726Z</time></trkpt><trkpt lat="43.3014372" lon="13.6668379"><ele>104.0</ele><time>2026-04-11T16:03:12.727Z</time></trkpt><trkpt lat="43.3014127" lon="13.6667484"><ele>104.0</ele><time>2026-04-11T16:03:13.726Z</time></trkpt><trkpt lat="43.3013849" lon="13.6666629"><ele>104.0</ele><time>2026-04-11T16:03:14.726Z</time></trkpt><trkpt lat="43.301352" lon="13.6665785"><ele>102.6</ele><time>2026-04-11T16:03:15.727Z</time></trkpt><trkpt lat="43.3012963" lon="13.6664192"><ele>101.2</ele><time>2026-04-11T16:03:17.727Z</time></trkpt><trkpt lat="43.3012477" lon="13.6662853"><ele>99.8</ele><time>2026-04-11T16:03:19.727Z</time></trkpt><trkpt lat="43.3012437" lon="13.6661908"><ele>98.39999999999999</ele><time>2026-04-11T16:03:22.726Z</time></trkpt><trkpt lat="43.3013283" lon="13.6662238"><ele>97.0</ele><time>2026-04-11T16:03:25.727Z</time></trkpt><trkpt lat="43.3013901" lon="13.6662714"><ele>97.0</ele><time>2026-04-11T16:03:26.727Z</time></trkpt><trkpt lat="43.3014618" lon="13.6663103"><ele>97.0</ele><time>2026-04-11T16:03:27.727Z</time></trkpt><trkpt lat="43.301553" lon="13.666338"><ele>97.0</ele><time>2026-04-11T16:03:28.726Z</time></trkpt><trkpt lat="43.3016684" lon="13.6663397"><ele>97.0</ele><time>2026-04-11T16:03:29.727Z</time></trkpt><trkpt lat="43.3017987" lon="13.6663247"><ele>97.0</ele><time>2026-04-11T16:03:30.727Z</time></trkpt><trkpt lat="43.3019334" lon="13.6663078"><ele>97.0</ele><time>2026-04-11T16:03:31.727Z</time></trkpt><trkpt lat="43.3020781" lon="13.6662892"><ele>97.0</ele><time>2026-04-11T16:03:32.726Z</time></trkpt><trkpt lat="43.302224" lon="13.6662642"><ele>97.0</ele><time>2026-04-11T16:03:33.727Z</time></trkpt><trkpt lat="43.302374" lon="13.6662418"><ele>97.0</ele><time>2026-04-11T16:03:34.727Z</time></trkpt><trkpt lat="43.3025283" lon="13.6662232"><ele>97.66666666666667</ele><time>2026-04-11T16:03:35.727Z</time></trkpt><trkpt lat="43.3026923" lon="13.666194"><ele>98.33333333333334</ele><time>2026-04-11T16:03:36.727Z</time></trkpt><trkpt lat="43.3028614" lon="13.6661713"><ele>99.0</ele><time>2026-04-11T16:03:37.727Z</time></trkpt><trkpt lat="43.3030373" lon="13.66615"><ele>98.66666666666666</ele><time>2026-04-11T16:03:38.726Z</time></trkpt><trkpt lat="43.303213" lon="13.6661269"><ele>98.33333333333333</ele><time>2026-04-11T16:03:39.726Z</time></trkpt><trkpt lat="43.3033866" lon="13.6660878"><ele>98.0</ele><time>2026-04-11T16:03:40.726Z</time></trkpt><trkpt lat="43.3035558" lon="13.6660448"><ele>96.0</ele><time>2026-04-11T16:03:41.726Z</time></trkpt><trkpt lat="43.3037188" lon="13.6660244"><ele>94.0</ele><time>2026-04-11T16:03:42.726Z</time></trkpt><trkpt lat="43.3038683" lon="13.6660176"><ele>92.0</ele><time>2026-04-11T16:03:43.726Z</time></trkpt><trkpt lat="43.3040047" lon="13.6660252"><ele>92.0</ele><time>2026-04-11T16:03:44.726Z</time></trkpt><trkpt lat="43.3041361" lon="13.6660481"><ele>92.0</ele><time>2026-04-11T16:03:45.727Z</time></trkpt><trkpt lat="43.3042634" lon="13.6660897"><ele>92.0</ele><time>2026-04-11T16:03:46.726Z</time></trkpt><trkpt lat="43.3043912" lon="13.6661378"><ele>92.0</ele><time>2026-04-11T16:03:47.726Z</time></trkpt><trkpt lat="43.3045222" lon="13.6661755"><ele>94.25</ele><time>2026-04-11T16:03:48.727Z</time></trkpt><trkpt lat="43.3046553" lon="13.6661947"><ele>96.5</ele><time>2026-04-11T16:03:49.726Z</time></trkpt><trkpt lat="43.3047856" lon="13.6661978"><ele>98.75</ele><time>2026-04-11T16:03:50.726Z</time></trkpt><trkpt lat="43.3049192" lon="13.6661942"><ele>101.0</ele><time>2026-04-11T16:03:51.726Z</time></trkpt><trkpt lat="43.3050574" lon="13.6661962"><ele>102.5</ele><time>2026-04-11T16:03:52.727Z</time></trkpt><trkpt lat="43.3051972" lon="13.6662133"><ele>104.0</ele><time>2026-04-11T16:03:53.726Z</time></trkpt><trkpt lat="43.3053403" lon="13.6662278"><ele>105.5</ele><time>2026-04-11T16:03:54.727Z</time></trkpt><trkpt lat="43.3054815" lon="13.6662483"><ele>107.0</ele><time>2026-04-11T16:03:55.727Z</time></trkpt><trkpt lat="43.3056245" lon="13.6662651"><ele>108.25</ele><time>2026-04-11T16:03:56.726Z</time></trkpt><trkpt lat="43.3057622" lon="13.6662875"><ele>109.5</ele><time>2026-04-11T16:03:57.727Z</time></trkpt><trkpt lat="43.3059014" lon="13.6663398"><ele>110.75</ele><time>2026-04-11T16:03:58.727Z</time></trkpt><trkpt lat="43.3060395" lon="13.6663858"><ele>112.0</ele><time>2026-04-11T16:03:59.727Z</time></trkpt><trkpt lat="43.3061793" lon="13.6664222"><ele>112.0</ele><time>2026-04-11T16:04:00.726Z</time></trkpt><trkpt lat="43.3063252" lon="13.6664398"><ele>112.0</ele><time>2026-04-11T16:04:01.727Z</time></trkpt><trkpt lat="43.3064717" lon="13.6664409"><ele>112.0</ele><time>2026-04-11T16:04:02.726Z</time></trkpt><trkpt lat="43.3066224" lon="13.6664349"><ele>112.0</ele><time>2026-04-11T16:04:03.727Z</time></trkpt><trkpt lat="43.3067754" lon="13.6664212"><ele>113.0</ele><time>2026-04-11T16:04:04.726Z</time></trkpt><trkpt lat="43.3069292" lon="13.6664033"><ele>114.0</ele><time>2026-04-11T16:04:05.726Z</time></trkpt><trkpt lat="43.3070866" lon="13.6663809"><ele>115.0</ele><time>2026-04-11T16:04:06.726Z</time></trkpt><trkpt lat="43.3072448" lon="13.666365"><ele>117.5</ele><time>2026-04-11T16:04:07.726Z</time></trkpt><trkpt lat="43.3073926" lon="13.6663538"><ele>120.0</ele><time>2026-04-11T16:04:08.726Z</time></trkpt><trkpt lat="43.3075216" lon="13.6663454"><ele>122.5</ele><time>2026-04-11T16:04:09.726Z</time></trkpt><trkpt lat="43.3076271" lon="13.6663499"><ele>125.0</ele><time>2026-04-11T16:04:10.727Z</time></trkpt><trkpt lat="43.3077128" lon="13.666355"><ele>125.0</ele><time>2026-04-11T16:04:11.727Z</time></trkpt><trkpt lat="43.3078153" lon="13.6663392"><ele>125.0</ele><time>2026-04-11T16:04:13.726Z</time></trkpt><trkpt lat="43.3077649" lon="13.6662577"><ele>125.0</ele><time>2026-04-11T16:04:17.726Z</time></trkpt><trkpt lat="43.3077008" lon="13.666243"><ele>125.0</ele><time>2026-04-11T16:04:19.727Z</time></trkpt><trkpt lat="43.3075853" lon="13.6662008"><ele>125.0</ele><time>2026-04-11T16:04:21.726Z</time></trkpt><trkpt lat="43.3074707" lon="13.6661457"><ele>122.16666666666666</ele><time>2026-04-11T16:04:23.726Z</time></trkpt><trkpt lat="43.3073625" lon="13.6660758"><ele>119.33333333333333</ele><time>2026-04-11T16:04:25.726Z</time></trkpt><trkpt lat="43.3073196" lon="13.6660105"><ele>116.5</ele><time>2026-04-11T16:04:26.726Z</time></trkpt><trkpt lat="43.307284" lon="13.6659253"><ele>113.66666666666666</ele><time>2026-04-11T16:04:27.727Z</time></trkpt><trkpt lat="43.3072513" lon="13.6658288"><ele>110.83333333333333</ele><time>2026-04-11T16:04:28.727Z</time></trkpt><trkpt lat="43.3072191" lon="13.6657222"><ele>108.0</ele><time>2026-04-11T16:04:29.727Z</time></trkpt><trkpt lat="43.3071849" lon="13.6656108"><ele>106.4</ele><time>2026-04-11T16:04:30.727Z</time></trkpt><trkpt lat="43.3071483" lon="13.6654947"><ele>104.80000000000001</ele><time>2026-04-11T16:04:31.727Z</time></trkpt><trkpt lat="43.3071091" lon="13.6653743"><ele>103.2</ele><time>2026-04-11T16:04:32.727Z</time></trkpt><trkpt lat="43.3070694" lon="13.6652443"><ele>101.6</ele><time>2026-04-11T16:04:33.726Z</time></trkpt><trkpt lat="43.3070191" lon="13.6650924"><ele>100.0</ele><time>2026-04-11T16:04:34.727Z</time></trkpt><trkpt lat="43.3069635" lon="13.6649051"><ele>95.66666666666667</ele><time>2026-04-11T16:04:35.726Z</time></trkpt><trkpt lat="43.3069108" lon="13.6646971"><ele>91.33333333333334</ele><time>2026-04-11T16:04:36.727Z</time></trkpt><trkpt lat="43.3068589" lon="13.6644743"><ele>87.0</ele><time>2026-04-11T16:04:37.726Z</time></trkpt><trkpt lat="43.3068157" lon="13.6642516"><ele>84.33333333333333</ele><time>2026-04-11T16:04:38.727Z</time></trkpt><trkpt lat="43.3067817" lon="13.6640315"><ele>81.66666666666666</ele><time>2026-04-11T16:04:39.726Z</time></trkpt><trkpt lat="43.3067596" lon="13.6638023"><ele>79.0</ele><time>2026-04-11T16:04:40.727Z</time></trkpt><trkpt lat="43.3067449" lon="13.6635675"><ele>79.0</ele><time>2026-04-11T16:04:41.727Z</time></trkpt><trkpt lat="43.3067332" lon="13.6633333"><ele>79.0</ele><time>2026-04-11T16:04:42.727Z</time></trkpt><trkpt lat="43.3067238" lon="13.6630933"><ele>79.0</ele><time>2026-04-11T16:04:43.727Z</time></trkpt><trkpt lat="43.3067124" lon="13.6628599"><ele>80.0</ele><time>2026-04-11T16:04:44.726Z</time></trkpt><trkpt lat="43.3067062" lon="13.6626413"><ele>81.0</ele><time>2026-04-11T16:04:45.727Z</time></trkpt><trkpt lat="43.306701" lon="13.6624415"><ele>82.0</ele><time>2026-04-11T16:04:46.727Z</time></trkpt><trkpt lat="43.3066938" lon="13.6622564"><ele>83.0</ele><time>2026-04-11T16:04:47.727Z</time></trkpt><trkpt lat="43.3066851" lon="13.6620742"><ele>84.5</ele><time>2026-04-11T16:04:48.727Z</time></trkpt><trkpt lat="43.3066821" lon="13.6618968"><ele>86.0</ele><time>2026-04-11T16:04:49.726Z</time></trkpt><trkpt lat="43.3067023" lon="13.6617222"><ele>87.5</ele><time>2026-04-11T16:04:50.726Z</time></trkpt><trkpt lat="43.3067252" lon="13.6615243"><ele>89.0</ele><time>2026-04-11T16:04:51.727Z</time></trkpt><trkpt lat="43.3067482" lon="13.6613092"><ele>91.0</ele><time>2026-04-11T16:04:52.726Z</time></trkpt><trkpt lat="43.3067896" lon="13.6610979"><ele>93.0</ele><time>2026-04-11T16:04:53.726Z</time></trkpt><trkpt lat="43.3068389" lon="13.6609186"><ele>95.0</ele><time>2026-04-11T16:04:54.727Z</time></trkpt><trkpt lat="43.3068918" lon="13.6607793"><ele>97.0</ele><time>2026-04-11T16:04:55.727Z</time></trkpt><trkpt lat="43.3069532" lon="13.6606767"><ele>97.0</ele><time>2026-04-11T16:04:56.726Z</time></trkpt><trkpt lat="43.307033" lon="13.6606179"><ele>97.0</ele><time>2026-04-11T16:04:57.727Z</time></trkpt><trkpt lat="43.3071131" lon="13.6605929"><ele>97.0</ele><time>2026-04-11T16:04:58.726Z</time></trkpt><trkpt lat="43.3072054" lon="13.6605712"><ele>97.0</ele><time>2026-04-11T16:04:59.726Z</time></trkpt><trkpt lat="43.3073073" lon="13.6605434"><ele>97.0</ele><time>2026-04-11T16:05:00.726Z</time></trkpt><trkpt lat="43.3074065" lon="13.6605224"><ele>97.8</ele><time>2026-04-11T16:05:01.727Z</time></trkpt><trkpt lat="43.3075148" lon="13.6604986"><ele>98.6</ele><time>2026-04-11T16:05:02.727Z</time></trkpt><trkpt lat="43.3076235" lon="13.6604801"><ele>99.39999999999999</ele><time>2026-04-11T16:05:03.727Z</time></trkpt><trkpt lat="43.307724" lon="13.6604484"><ele>100.19999999999999</ele><time>2026-04-11T16:05:04.727Z</time></trkpt><trkpt lat="43.3078125" lon="13.6604017"><ele>101.0</ele><time>2026-04-11T16:05:05.727Z</time></trkpt><trkpt lat="43.307892" lon="13.6603313"><ele>101.83333333333333</ele><time>2026-04-11T16:05:06.726Z</time></trkpt><trkpt lat="43.3079502" lon="13.6602553"><ele>102.66666666666666</ele><time>2026-04-11T16:05:07.726Z</time></trkpt><trkpt lat="43.3079924" lon="13.6601857"><ele>103.5</ele><time>2026-04-11T16:05:08.727Z</time></trkpt><trkpt lat="43.308039" lon="13.6601261"><ele>104.33333333333334</ele><time>2026-04-11T16:05:09.726Z</time></trkpt><trkpt lat="43.3081614" lon="13.6600672"><ele>105.16666666666667</ele><time>2026-04-11T16:05:11.726Z</time></trkpt><trkpt lat="43.3082381" lon="13.6600329"><ele>106.0</ele><time>2026-04-11T16:05:12.727Z</time></trkpt><trkpt lat="43.3083362" lon="13.6600011"><ele>106.25</ele><time>2026-04-11T16:05:13.726Z</time></trkpt><trkpt lat="43.3084488" lon="13.6599649"><ele>106.5</ele><time>2026-04-11T16:05:14.727Z</time></trkpt><trkpt lat="43.3085712" lon="13.6599214"><ele>106.75</ele><time>2026-04-11T16:05:15.727Z</time></trkpt><trkpt lat="43.3086943" lon="13.6598655"><ele>107.0</ele><time>2026-04-11T16:05:16.727Z</time></trkpt><trkpt lat="43.3088104" lon="13.6597977"><ele>107.0</ele><time>2026-04-11T16:05:17.727Z</time></trkpt><trkpt lat="43.3089194" lon="13.6597332"><ele>106.99999999999999</ele><time>2026-04-11T16:05:18.726Z</time></trkpt><trkpt lat="43.3090168" lon="13.6596759"><ele>106.99999999999999</ele><time>2026-04-11T16:05:19.726Z</time></trkpt><trkpt lat="43.3091017" lon="13.65962"><ele>107.0</ele><time>2026-04-11T16:05:20.726Z</time></trkpt><trkpt lat="43.3091764" lon="13.6595614"><ele>107.0</ele><time>2026-04-11T16:05:21.727Z</time></trkpt><trkpt lat="43.3092305" lon="13.6594906"><ele>108.16666666666666</ele><time>2026-04-11T16:05:22.727Z</time></trkpt><trkpt lat="43.3092625" lon="13.6594064"><ele>109.33333333333333</ele><time>2026-04-11T16:05:23.727Z</time></trkpt><trkpt lat="43.3092726" lon="13.6593104"><ele>110.5</ele><time>2026-04-11T16:05:24.726Z</time></trkpt><trkpt lat="43.3092653" lon="13.659203"><ele>111.66666666666666</ele><time>2026-04-11T16:05:25.727Z</time></trkpt><trkpt lat="43.3092492" lon="13.6590784"><ele>112.83333333333333</ele><time>2026-04-11T16:05:26.727Z</time></trkpt><trkpt lat="43.3092249" lon="13.6589366"><ele>114.0</ele><time>2026-04-11T16:05:27.727Z</time></trkpt><trkpt lat="43.3091985" lon="13.6587829"><ele>115.5</ele><time>2026-04-11T16:05:28.727Z</time></trkpt><trkpt lat="43.309172" lon="13.6586178"><ele>117.0</ele><time>2026-04-11T16:05:29.727Z</time></trkpt><trkpt lat="43.3091518" lon="13.6584414"><ele>118.5</ele><time>2026-04-11T16:05:30.726Z</time></trkpt><trkpt lat="43.3091483" lon="13.6582882"><ele>120.0</ele><time>2026-04-11T16:05:31.727Z</time></trkpt><trkpt lat="43.3091698" lon="13.6581381"><ele>120.0</ele><time>2026-04-11T16:05:32.727Z</time></trkpt><trkpt lat="43.3092142" lon="13.6579985"><ele>120.0</ele><time>2026-04-11T16:05:33.727Z</time></trkpt><trkpt lat="43.3092749" lon="13.6578658"><ele>120.0</ele><time>2026-04-11T16:05:34.727Z</time></trkpt><trkpt lat="43.3093473" lon="13.6577133"><ele>120.0</ele><time>2026-04-11T16:05:35.727Z</time></trkpt><trkpt lat="43.3094099" lon="13.6575573"><ele>121.25</ele><time>2026-04-11T16:05:36.727Z</time></trkpt><trkpt lat="43.3094684" lon="13.6573955"><ele>122.5</ele><time>2026-04-11T16:05:37.726Z</time></trkpt><trkpt lat="43.3095221" lon="13.6572236"><ele>123.75</ele><time>2026-04-11T16:05:38.726Z</time></trkpt><trkpt lat="43.30957" lon="13.6570489"><ele>125.0</ele><time>2026-04-11T16:05:39.727Z</time></trkpt><trkpt lat="43.3096354" lon="13.6568813"><ele>126.5</ele><time>2026-04-11T16:05:40.727Z</time></trkpt><trkpt lat="43.3097033" lon="13.6567123"><ele>128.0</ele><time>2026-04-11T16:05:41.726Z</time></trkpt><trkpt lat="43.3097807" lon="13.6565389"><ele>129.5</ele><time>2026-04-11T16:05:42.726Z</time></trkpt><trkpt lat="43.3098604" lon="13.6563659"><ele>131.0</ele><time>2026-04-11T16:05:43.726Z</time></trkpt><trkpt lat="43.3099472" lon="13.6561934"><ele>133.0</ele><time>2026-04-11T16:05:44.727Z</time></trkpt><trkpt lat="43.310037" lon="13.656021"><ele>135.0</ele><time>2026-04-11T16:05:45.727Z</time></trkpt><trkpt lat="43.3101265" lon="13.6558483"><ele>137.0</ele><time>2026-04-11T16:05:46.726Z</time></trkpt><trkpt lat="43.3102155" lon="13.6556792"><ele>137.0</ele><time>2026-04-11T16:05:47.727Z</time></trkpt><trkpt lat="43.3103021" lon="13.6555119"><ele>137.0</ele><time>2026-04-11T16:05:48.726Z</time></trkpt><trkpt lat="43.3103828" lon="13.6553439"><ele>137.0</ele><time>2026-04-11T16:05:49.726Z</time></trkpt><trkpt lat="43.3104608" lon="13.6551779"><ele>137.0</ele><time>2026-04-11T16:05:50.726Z</time></trkpt><trkpt lat="43.3105346" lon="13.6550129"><ele>137.75</ele><time>2026-04-11T16:05:51.727Z</time></trkpt><trkpt lat="43.3106062" lon="13.6548521"><ele>138.5</ele><time>2026-04-11T16:05:52.726Z</time></trkpt><trkpt lat="43.3106723" lon="13.6546916"><ele>139.25</ele><time>2026-04-11T16:05:53.726Z</time></trkpt><trkpt lat="43.3107429" lon="13.6545333"><ele>140.0</ele><time>2026-04-11T16:05:54.726Z</time></trkpt><trkpt lat="43.3108107" lon="13.6543803"><ele>142.0</ele><time>2026-04-11T16:05:55.726Z</time></trkpt><trkpt lat="43.310881" lon="13.6542265"><ele>144.0</ele><time>2026-04-11T16:05:56.727Z</time></trkpt><trkpt lat="43.3109495" lon="13.6540751"><ele>146.0</ele><time>2026-04-11T16:05:57.727Z</time></trkpt><trkpt lat="43.3110194" lon="13.6539241"><ele>148.0</ele><time>2026-04-11T16:05:58.727Z</time></trkpt><trkpt lat="43.3110912" lon="13.6537783"><ele>148.0</ele><time>2026-04-11T16:05:59.727Z</time></trkpt><trkpt lat="43.311168" lon="13.6536464"><ele>148.0</ele><time>2026-04-11T16:06:00.727Z</time></trkpt><trkpt lat="43.3112422" lon="13.6535186"><ele>148.0</ele><time>2026-04-11T16:06:01.726Z</time></trkpt><trkpt lat="43.3113138" lon="13.6533965"><ele>148.0</ele><time>2026-04-11T16:06:02.726Z</time></trkpt><trkpt lat="43.3113782" lon="13.6532693"><ele>148.25</ele><time>2026-04-11T16:06:03.726Z</time></trkpt><trkpt lat="43.3114503" lon="13.6531467"><ele>148.5</ele><time>2026-04-11T16:06:04.727Z</time></trkpt><trkpt lat="43.3115354" lon="13.6530184"><ele>148.75</ele><time>2026-04-11T16:06:05.726Z</time></trkpt><trkpt lat="43.3116117" lon="13.6528909"><ele>149.0</ele><time>2026-04-11T16:06:06.726Z</time></trkpt><trkpt lat="43.31168" lon="13.652769"><ele>150.5</ele><time>2026-04-11T16:06:07.726Z</time></trkpt><trkpt lat="43.3117313" lon="13.6526504"><ele>152.0</ele><time>2026-04-11T16:06:08.727Z</time></trkpt><trkpt lat="43.3118142" lon="13.6524809"><ele>153.5</ele><time>2026-04-11T16:06:10.727Z</time></trkpt><trkpt lat="43.31187" lon="13.6523823"><ele>155.0</ele><time>2026-04-11T16:06:11.726Z</time></trkpt><trkpt lat="43.311946" lon="13.6522708"><ele>155.0</ele><time>2026-04-11T16:06:12.726Z</time></trkpt><trkpt lat="43.3120164" lon="13.65215"><ele>155.0</ele><time>2026-04-11T16:06:13.727Z</time></trkpt><trkpt lat="43.3120973" lon="13.6520296"><ele>155.0</ele><time>2026-04-11T16:06:14.727Z</time></trkpt><trkpt lat="43.3121786" lon="13.6519039"><ele>155.0</ele><time>2026-04-11T16:06:15.727Z</time></trkpt><trkpt lat="43.3122672" lon="13.6517707"><ele>155.25</ele><time>2026-04-11T16:06:16.726Z</time></trkpt><trkpt lat="43.3123497" lon="13.6516303"><ele>155.5</ele><time>2026-04-11T16:06:17.726Z</time></trkpt><trkpt lat="43.3124429" lon="13.6514861"><ele>155.75</ele><time>2026-04-11T16:06:18.727Z</time></trkpt><trkpt lat="43.3125341" lon="13.6513363"><ele>156.0</ele><time>2026-04-11T16:06:19.726Z</time></trkpt><trkpt lat="43.3126292" lon="13.6511816"><ele>157.0</ele><time>2026-04-11T16:06:20.726Z</time></trkpt><trkpt lat="43.3127204" lon="13.6510155"><ele>158.0</ele><time>2026-04-11T16:06:21.726Z</time></trkpt><trkpt lat="43.3128085" lon="13.6508404"><ele>159.0</ele><time>2026-04-11T16:06:22.726Z</time></trkpt><trkpt lat="43.3128885" lon="13.6506492"><ele>159.0</ele><time>2026-04-11T16:06:23.727Z</time></trkpt><trkpt lat="43.312961" lon="13.6504471"><ele>159.0</ele><time>2026-04-11T16:06:24.726Z</time></trkpt><trkpt lat="43.3130319" lon="13.6502452"><ele>159.0</ele><time>2026-04-11T16:06:25.726Z</time></trkpt><trkpt lat="43.3131087" lon="13.6500483"><ele>160.33333333333334</ele><time>2026-04-11T16:06:26.726Z</time></trkpt><trkpt lat="43.3132019" lon="13.6498597"><ele>161.66666666666669</ele><time>2026-04-11T16:06:27.726Z</time></trkpt><trkpt lat="43.3132894" lon="13.6496692"><ele>163.0</ele><time>2026-04-11T16:06:28.727Z</time></trkpt><trkpt lat="43.3133828" lon="13.6494818"><ele>164.75</ele><time>2026-04-11T16:06:29.726Z</time></trkpt><trkpt lat="43.3134696" lon="13.6493013"><ele>166.5</ele><time>2026-04-11T16:06:30.726Z</time></trkpt><trkpt lat="43.3135483" lon="13.6491373"><ele>168.25</ele><time>2026-04-11T16:06:31.726Z</time></trkpt><trkpt lat="43.3136191" lon="13.6489977"><ele>170.0</ele><time>2026-04-11T16:06:32.726Z</time></trkpt><trkpt lat="43.3136806" lon="13.6488513"><ele>170.0</ele><time>2026-04-11T16:06:33.726Z</time></trkpt><trkpt lat="43.313721" lon="13.6487127"><ele>170.0</ele><time>2026-04-11T16:06:34.727Z</time></trkpt><trkpt lat="43.3137363" lon="13.6485735"><ele>170.0</ele><time>2026-04-11T16:06:35.726Z</time></trkpt><trkpt lat="43.3137218" lon="13.6484315"><ele>170.0</ele><time>2026-04-11T16:06:36.726Z</time></trkpt><trkpt lat="43.3136836" lon="13.6483038"><ele>170.0</ele><time>2026-04-11T16:06:37.726Z</time></trkpt><trkpt lat="43.3136419" lon="13.6482048"><ele>170.5</ele><time>2026-04-11T16:06:38.726Z</time></trkpt><trkpt lat="43.3136154" lon="13.6481057"><ele>171.0</ele><time>2026-04-11T16:06:39.726Z</time></trkpt><trkpt lat="43.3136186" lon="13.647997"><ele>171.5</ele><time>2026-04-11T16:06:40.726Z</time></trkpt><trkpt lat="43.3136491" lon="13.6479097"><ele>172.0</ele><time>2026-04-11T16:06:41.727Z</time></trkpt><trkpt lat="43.3136837" lon="13.6478328"><ele>172.5</ele><time>2026-04-11T16:06:42.727Z</time></trkpt><trkpt lat="43.3138041" lon="13.6478387"><ele>173.0</ele><time>2026-04-11T16:06:43.727Z</time></trkpt><trkpt lat="43.3139092" lon="13.6478103"><ele>175.25</ele><time>2026-04-11T16:06:44.727Z</time></trkpt><trkpt lat="43.3140227" lon="13.647781"><ele>177.5</ele><time>2026-04-11T16:06:45.726Z</time></trkpt><trkpt lat="43.3141348" lon="13.6477375"><ele>179.75</ele><time>2026-04-11T16:06:46.726Z</time></trkpt><trkpt lat="43.3142444" lon="13.6476717"><ele>182.0</ele><time>2026-04-11T16:06:47.727Z</time></trkpt><trkpt lat="43.3143376" lon="13.6475664"><ele>182.0</ele><time>2026-04-11T16:06:48.727Z</time></trkpt><trkpt lat="43.3144066" lon="13.6474209"><ele>182.0</ele><time>2026-04-11T16:06:49.726Z</time></trkpt><trkpt lat="43.3144612" lon="13.6472367"><ele>182.0</ele><time>2026-04-11T16:06:50.727Z</time></trkpt><trkpt lat="43.3145055" lon="13.6470278"><ele>182.0</ele><time>2026-04-11T16:06:51.726Z</time></trkpt><trkpt lat="43.3145564" lon="13.6468172"><ele>182.66666666666666</ele><time>2026-04-11T16:06:52.727Z</time></trkpt><trkpt lat="43.3146177" lon="13.6466162"><ele>183.33333333333334</ele><time>2026-04-11T16:06:53.726Z</time></trkpt><trkpt lat="43.3146849" lon="13.6464246"><ele>184.0</ele><time>2026-04-11T16:06:54.727Z</time></trkpt><trkpt lat="43.3147486" lon="13.6462311"><ele>187.33333333333334</ele><time>2026-04-11T16:06:55.726Z</time></trkpt><trkpt lat="43.3147918" lon="13.646025"><ele>190.66666666666669</ele><time>2026-04-11T16:06:56.726Z</time></trkpt><trkpt lat="43.3148209" lon="13.6458092"><ele>194.0</ele><time>2026-04-11T16:06:57.727Z</time></trkpt><trkpt lat="43.3148439" lon="13.6455889"><ele>194.0</ele><time>2026-04-11T16:06:58.727Z</time></trkpt><trkpt lat="43.3148786" lon="13.6453724"><ele>194.0</ele><time>2026-04-11T16:06:59.727Z</time></trkpt><trkpt lat="43.3149418" lon="13.6451826"><ele>194.0</ele><time>2026-04-11T16:07:00.727Z</time></trkpt><trkpt lat="43.3150039" lon="13.644996"><ele>197.0</ele><time>2026-04-11T16:07:01.727Z</time></trkpt><trkpt lat="43.3150518" lon="13.6448034"><ele>200.0</ele><time>2026-04-11T16:07:02.726Z</time></trkpt><trkpt lat="43.3150822" lon="13.6445863"><ele>203.0</ele><time>2026-04-11T16:07:03.727Z</time></trkpt><trkpt lat="43.3150974" lon="13.6443709"><ele>204.75</ele><time>2026-04-11T16:07:04.726Z</time></trkpt><trkpt lat="43.3151164" lon="13.6441566"><ele>206.5</ele><time>2026-04-11T16:07:05.727Z</time></trkpt><trkpt lat="43.3151431" lon="13.6439636"><ele>208.25</ele><time>2026-04-11T16:07:06.726Z</time></trkpt><trkpt lat="43.3151667" lon="13.6437958"><ele>210.0</ele><time>2026-04-11T16:07:07.726Z</time></trkpt><trkpt lat="43.3151959" lon="13.6436516"><ele>210.2</ele><time>2026-04-11T16:07:08.727Z</time></trkpt><trkpt lat="43.3152406" lon="13.6435242"><ele>210.4</ele><time>2026-04-11T16:07:09.726Z</time></trkpt><trkpt lat="43.315301" lon="13.6434048"><ele>210.60000000000002</ele><time>2026-04-11T16:07:10.727Z</time></trkpt><trkpt lat="43.3153539" lon="13.6432853"><ele>210.8</ele><time>2026-04-11T16:07:11.727Z</time></trkpt><trkpt lat="43.3154204" lon="13.6431539"><ele>211.0</ele><time>2026-04-11T16:07:12.726Z</time></trkpt><trkpt lat="43.3154728" lon="13.6430156"><ele>211.0</ele><time>2026-04-11T16:07:13.726Z</time></trkpt><trkpt lat="43.3155276" lon="13.6428776"><ele>211.0</ele><time>2026-04-11T16:07:14.727Z</time></trkpt><trkpt lat="43.3155923" lon="13.642734"><ele>211.0</ele><time>2026-04-11T16:07:15.727Z</time></trkpt><trkpt lat="43.3156524" lon="13.6425902"><ele>211.0</ele><time>2026-04-11T16:07:16.726Z</time></trkpt><trkpt lat="43.3157151" lon="13.642457"><ele>211.8</ele><time>2026-04-11T16:07:17.726Z</time></trkpt><trkpt lat="43.3157772" lon="13.6423285"><ele>212.60000000000002</ele><time>2026-04-11T16:07:18.727Z</time></trkpt><trkpt lat="43.3158374" lon="13.6421984"><ele>213.4</ele><time>2026-04-11T16:07:19.727Z</time></trkpt><trkpt lat="43.3158935" lon="13.642074"><ele>214.2</ele><time>2026-04-11T16:07:20.727Z</time></trkpt><trkpt lat="43.3159491" lon="13.6419437"><ele>215.0</ele><time>2026-04-11T16:07:21.727Z</time></trkpt><trkpt lat="43.3160013" lon="13.64181"><ele>215.00000000000003</ele><time>2026-04-11T16:07:22.727Z</time></trkpt><trkpt lat="43.3160462" lon="13.6416861"><ele>215.0</ele><time>2026-04-11T16:07:23.726Z</time></trkpt><trkpt lat="43.3160897" lon="13.6415752"><ele>215.0</ele><time>2026-04-11T16:07:24.727Z</time></trkpt><trkpt lat="43.3161328" lon="13.6414601"><ele>215.0</ele><time>2026-04-11T16:07:25.727Z</time></trkpt><trkpt lat="43.3161608" lon="13.6413697"><ele>215.00000000000003</ele><time>2026-04-11T16:07:26.727Z</time></trkpt><trkpt lat="43.3161931" lon="13.6412891"><ele>215.0</ele><time>2026-04-11T16:07:27.726Z</time></trkpt><trkpt lat="43.3162238" lon="13.6412061"><ele>214.6</ele><time>2026-04-11T16:07:28.727Z</time></trkpt><trkpt lat="43.3162527" lon="13.6411176"><ele>214.2</ele><time>2026-04-11T16:07:29.727Z</time></trkpt><trkpt lat="43.3163045" lon="13.6410184"><ele>213.8</ele><time>2026-04-11T16:07:30.727Z</time></trkpt><trkpt lat="43.3163526" lon="13.6409177"><ele>213.4</ele><time>2026-04-11T16:07:31.727Z</time></trkpt><trkpt lat="43.3164018" lon="13.6407911"><ele>213.0</ele><time>2026-04-11T16:07:32.727Z</time></trkpt><trkpt lat="43.3164427" lon="13.6406517"><ele>214.0</ele><time>2026-04-11T16:07:33.727Z</time></trkpt><trkpt lat="43.3164762" lon="13.6404959"><ele>215.0</ele><time>2026-04-11T16:07:34.726Z</time></trkpt><trkpt lat="43.3164978" lon="13.6403337"><ele>216.0</ele><time>2026-04-11T16:07:35.726Z</time></trkpt><trkpt lat="43.3165175" lon="13.6401801"><ele>217.0</ele><time>2026-04-11T16:07:36.727Z</time></trkpt><trkpt lat="43.3165148" lon="13.640024"><ele>217.2</ele><time>2026-04-11T16:07:37.727Z</time></trkpt><trkpt lat="43.3165139" lon="13.6398746"><ele>217.39999999999998</ele><time>2026-04-11T16:07:38.726Z</time></trkpt><trkpt lat="43.3165134" lon="13.6397203"><ele>217.60000000000002</ele><time>2026-04-11T16:07:39.727Z</time></trkpt><trkpt lat="43.3165118" lon="13.6395755"><ele>217.8</ele><time>2026-04-11T16:07:40.727Z</time></trkpt><trkpt lat="43.3165094" lon="13.6394287"><ele>218.0</ele><time>2026-04-11T16:07:41.727Z</time></trkpt><trkpt lat="43.3165148" lon="13.6393017"><ele>218.83333333333334</ele><time>2026-04-11T16:07:42.727Z</time></trkpt><trkpt lat="43.3165284" lon="13.6391867"><ele>219.66666666666669</ele><time>2026-04-11T16:07:43.726Z</time></trkpt><trkpt lat="43.3165607" lon="13.6390799"><ele>220.5</ele><time>2026-04-11T16:07:44.726Z</time></trkpt><trkpt lat="43.3166056" lon="13.6389873"><ele>221.33333333333331</ele><time>2026-04-11T16:07:45.727Z</time></trkpt><trkpt lat="43.3166584" lon="13.638929"><ele>222.16666666666666</ele><time>2026-04-11T16:07:46.727Z</time></trkpt><trkpt lat="43.3167186" lon="13.638887"><ele>223.0</ele><time>2026-04-11T16:07:47.726Z</time></trkpt><trkpt lat="43.3168334" lon="13.6388497"><ele>223.0</ele><time>2026-04-11T16:07:49.727Z</time></trkpt><trkpt lat="43.3169117" lon="13.6388156"><ele>223.0</ele><time>2026-04-11T16:07:50.727Z</time></trkpt><trkpt lat="43.3169896" lon="13.6387647"><ele>223.0</ele><time>2026-04-11T16:07:51.726Z</time></trkpt><trkpt lat="43.3170732" lon="13.6386836"><ele>223.0</ele><time>2026-04-11T16:07:52.727Z</time></trkpt><trkpt lat="43.317165" lon="13.6385612"><ele>223.0</ele><time>2026-04-11T16:07:53.727Z</time></trkpt><trkpt lat="43.3172624" lon="13.6384134"><ele>223.0</ele><time>2026-04-11T16:07:54.726Z</time></trkpt><trkpt lat="43.3173602" lon="13.6382628"><ele>223.0</ele><time>2026-04-11T16:07:55.727Z</time></trkpt><trkpt lat="43.3174651" lon="13.6380956"><ele>223.0</ele><time>2026-04-11T16:07:56.727Z</time></trkpt><trkpt lat="43.3175672" lon="13.6379179"><ele>224.66666666666666</ele><time>2026-04-11T16:07:57.726Z</time></trkpt><trkpt lat="43.3176682" lon="13.6377333"><ele>226.33333333333331</ele><time>2026-04-11T16:07:58.726Z</time></trkpt><trkpt lat="43.3177602" lon="13.6375314"><ele>228.0</ele><time>2026-04-11T16:07:59.727Z</time></trkpt><trkpt lat="43.3178427" lon="13.6373171"><ele>228.0</ele><time>2026-04-11T16:08:00.727Z</time></trkpt><trkpt lat="43.3179193" lon="13.6370968"><ele>228.0</ele><time>2026-04-11T16:08:01.726Z</time></trkpt><trkpt lat="43.3179923" lon="13.6368886"><ele>228.0</ele><time>2026-04-11T16:08:02.727Z</time></trkpt><trkpt lat="43.3180653" lon="13.6366905"><ele>224.33333333333331</ele><time>2026-04-11T16:08:03.727Z</time></trkpt><trkpt lat="43.3181465" lon="13.6365073"><ele>220.66666666666666</ele><time>2026-04-11T16:08:04.727Z</time></trkpt><trkpt lat="43.318247" lon="13.6363478"><ele>217.0</ele><time>2026-04-11T16:08:05.726Z</time></trkpt><trkpt lat="43.3183765" lon="13.6362385"><ele>217.0</ele><time>2026-04-11T16:08:06.726Z</time></trkpt><trkpt lat="43.3185079" lon="13.6361505"><ele>217.0</ele><time>2026-04-11T16:08:07.727Z</time></trkpt><trkpt lat="43.3186353" lon="13.636038"><ele>217.0</ele><time>2026-04-11T16:08:08.727Z</time></trkpt><trkpt lat="43.3187522" lon="13.6358992"><ele>215.33333333333331</ele><time>2026-04-11T16:08:09.726Z</time></trkpt><trkpt lat="43.3188653" lon="13.6357389"><ele>213.66666666666669</ele><time>2026-04-11T16:08:10.727Z</time></trkpt><trkpt lat="43.3189699" lon="13.6355567"><ele>212.0</ele><time>2026-04-11T16:08:11.727Z</time></trkpt><trkpt lat="43.3190677" lon="13.6353517"><ele>214.0</ele><time>2026-04-11T16:08:12.726Z</time></trkpt><trkpt lat="43.319167" lon="13.6351374"><ele>216.0</ele><time>2026-04-11T16:08:13.727Z</time></trkpt><trkpt lat="43.3192701" lon="13.634916"><ele>218.0</ele><time>2026-04-11T16:08:14.727Z</time></trkpt><trkpt lat="43.319374" lon="13.6346917"><ele>218.0</ele><time>2026-04-11T16:08:15.726Z</time></trkpt><trkpt lat="43.3194866" lon="13.634477"><ele>218.0</ele><time>2026-04-11T16:08:16.727Z</time></trkpt><trkpt lat="43.3196099" lon="13.6342716"><ele>218.0</ele><time>2026-04-11T16:08:17.726Z</time></trkpt><trkpt lat="43.3197324" lon="13.6340708"><ele>218.0</ele><time>2026-04-11T16:08:18.727Z</time></trkpt><trkpt lat="43.3198463" lon="13.633863"><ele>218.0</ele><time>2026-04-11T16:08:19.726Z</time></trkpt><trkpt lat="43.3199452" lon="13.6336408"><ele>218.0</ele><time>2026-04-11T16:08:20.727Z</time></trkpt><trkpt lat="43.3200286" lon="13.6334017"><ele>218.0</ele><time>2026-04-11T16:08:21.727Z</time></trkpt><trkpt lat="43.3200989" lon="13.6331522"><ele>218.0</ele><time>2026-04-11T16:08:22.727Z</time></trkpt><trkpt lat="43.3201633" lon="13.6329051"><ele>218.0</ele><time>2026-04-11T16:08:23.727Z</time></trkpt><trkpt lat="43.3202305" lon="13.6326801"><ele>219.33333333333334</ele><time>2026-04-11T16:08:24.726Z</time></trkpt><trkpt lat="43.3203199" lon="13.6324793"><ele>220.66666666666669</ele><time>2026-04-11T16:08:25.727Z</time></trkpt><trkpt lat="43.3204323" lon="13.6323019"><ele>222.0</ele><time>2026-04-11T16:08:26.726Z</time></trkpt><trkpt lat="43.3205585" lon="13.6321311"><ele>224.0</ele><time>2026-04-11T16:08:27.726Z</time></trkpt><trkpt lat="43.3206922" lon="13.6319664"><ele>226.0</ele><time>2026-04-11T16:08:28.727Z</time></trkpt><trkpt lat="43.3208178" lon="13.6318111"><ele>228.0</ele><time>2026-04-11T16:08:29.727Z</time></trkpt><trkpt lat="43.320933" lon="13.6316726"><ele>228.0</ele><time>2026-04-11T16:08:30.727Z</time></trkpt><trkpt lat="43.3210329" lon="13.6315531"><ele>228.0</ele><time>2026-04-11T16:08:31.726Z</time></trkpt><trkpt lat="43.3211341" lon="13.6314379"><ele>228.0</ele><time>2026-04-11T16:08:32.727Z</time></trkpt><trkpt lat="43.3212426" lon="13.6313272"><ele>228.0</ele><time>2026-04-11T16:08:33.726Z</time></trkpt><trkpt lat="43.3213598" lon="13.6312249"><ele>228.25</ele><time>2026-04-11T16:08:34.726Z</time></trkpt><trkpt lat="43.3214857" lon="13.6311318"><ele>228.5</ele><time>2026-04-11T16:08:35.727Z</time></trkpt><trkpt lat="43.3216188" lon="13.6310493"><ele>228.75</ele><time>2026-04-11T16:08:36.726Z</time></trkpt><trkpt lat="43.3217482" lon="13.6309795"><ele>229.0</ele><time>2026-04-11T16:08:37.727Z</time></trkpt><trkpt lat="43.3218726" lon="13.6309142"><ele>229.0</ele><time>2026-04-11T16:08:38.727Z</time></trkpt><trkpt lat="43.3219901" lon="13.6308512"><ele>229.0</ele><time>2026-04-11T16:08:39.726Z</time></trkpt><trkpt lat="43.3221003" lon="13.6307956"><ele>229.0</ele><time>2026-04-11T16:08:40.727Z</time></trkpt><trkpt lat="43.3222044" lon="13.6307606"><ele>229.0</ele><time>2026-04-11T16:08:41.727Z</time></trkpt><trkpt lat="43.3223123" lon="13.6307544"><ele>227.6</ele><time>2026-04-11T16:08:42.727Z</time></trkpt><trkpt lat="43.3224198" lon="13.6307668"><ele>226.2</ele><time>2026-04-11T16:08:43.727Z</time></trkpt><trkpt lat="43.3225297" lon="13.6307808"><ele>224.79999999999998</ele><time>2026-04-11T16:08:44.727Z</time></trkpt><trkpt lat="43.3226367" lon="13.6307942"><ele>223.39999999999998</ele><time>2026-04-11T16:08:45.726Z</time></trkpt><trkpt lat="43.3227299" lon="13.6308086"><ele>222.0</ele><time>2026-04-11T16:08:46.727Z</time></trkpt><trkpt lat="43.3228077" lon="13.6308234"><ele>222.0</ele><time>2026-04-11T16:08:47.727Z</time></trkpt><trkpt lat="43.3228937" lon="13.6308386"><ele>222.0</ele><time>2026-04-11T16:08:48.727Z</time></trkpt><trkpt lat="43.3229893" lon="13.6308615"><ele>222.0</ele><time>2026-04-11T16:08:49.727Z</time></trkpt><trkpt lat="43.3230908" lon="13.6309"><ele>222.0</ele><time>2026-04-11T16:08:50.727Z</time></trkpt><trkpt lat="43.3231973" lon="13.6309493"><ele>222.0</ele><time>2026-04-11T16:08:51.726Z</time></trkpt><trkpt lat="43.3233114" lon="13.6309961"><ele>222.5</ele><time>2026-04-11T16:08:52.726Z</time></trkpt><trkpt lat="43.3234279" lon="13.6310216"><ele>223.0</ele><time>2026-04-11T16:08:53.727Z</time></trkpt><trkpt lat="43.3235404" lon="13.6310512"><ele>223.5</ele><time>2026-04-11T16:08:54.727Z</time></trkpt><trkpt lat="43.3236454" lon="13.631107"><ele>224.0</ele><time>2026-04-11T16:08:55.727Z</time></trkpt><trkpt lat="43.3237501" lon="13.6311647"><ele>224.5</ele><time>2026-04-11T16:08:56.726Z</time></trkpt><trkpt lat="43.3238599" lon="13.6312129"><ele>225.0</ele><time>2026-04-11T16:08:57.727Z</time></trkpt><trkpt lat="43.3239762" lon="13.6312448"><ele>225.5</ele><time>2026-04-11T16:08:58.726Z</time></trkpt><trkpt lat="43.3241038" lon="13.63125"><ele>226.0</ele><time>2026-04-11T16:08:59.727Z</time></trkpt><trkpt lat="43.3242521" lon="13.6312222"><ele>226.0</ele><time>2026-04-11T16:09:00.727Z</time></trkpt><trkpt lat="43.3244171" lon="13.631178"><ele>226.0</ele><time>2026-04-11T16:09:01.727Z</time></trkpt><trkpt lat="43.3245966" lon="13.6311304"><ele>226.0</ele><time>2026-04-11T16:09:02.726Z</time></trkpt><trkpt lat="43.3247701" lon="13.6310937"><ele>230.0</ele><time>2026-04-11T16:09:03.727Z</time></trkpt><trkpt lat="43.3249325" lon="13.6310671"><ele>234.0</ele><time>2026-04-11T16:09:04.726Z</time></trkpt><trkpt lat="43.3250751" lon="13.6310499"><ele>238.0</ele><time>2026-04-11T16:09:05.726Z</time></trkpt><trkpt lat="43.325195" lon="13.6310392"><ele>242.0</ele><time>2026-04-11T16:09:06.727Z</time></trkpt><trkpt lat="43.3252876" lon="13.6310296"><ele>242.0</ele><time>2026-04-11T16:09:07.727Z</time></trkpt><trkpt lat="43.3253619" lon="13.6310115"><ele>242.0</ele><time>2026-04-11T16:09:08.726Z</time></trkpt><trkpt lat="43.3254348" lon="13.6309737"><ele>242.0</ele><time>2026-04-11T16:09:09.726Z</time></trkpt><trkpt lat="43.3255032" lon="13.6309114"><ele>242.0</ele><time>2026-04-11T16:09:10.726Z</time></trkpt><trkpt lat="43.3255801" lon="13.6308185"><ele>242.0</ele><time>2026-04-11T16:09:11.727Z</time></trkpt><trkpt lat="43.3256671" lon="13.6307041"><ele>241.25</ele><time>2026-04-11T16:09:12.727Z</time></trkpt><trkpt lat="43.3257638" lon="13.6305763"><ele>240.5</ele><time>2026-04-11T16:09:13.727Z</time></trkpt><trkpt lat="43.3258721" lon="13.6304296"><ele>239.75</ele><time>2026-04-11T16:09:14.727Z</time></trkpt><trkpt lat="43.3259832" lon="13.6302834"><ele>239.0</ele><time>2026-04-11T16:09:15.727Z</time></trkpt><trkpt lat="43.3260911" lon="13.6301419"><ele>239.0</ele><time>2026-04-11T16:09:16.727Z</time></trkpt><trkpt lat="43.3261933" lon="13.6299868"><ele>239.0</ele><time>2026-04-11T16:09:17.727Z</time></trkpt><trkpt lat="43.3262867" lon="13.6298391"><ele>239.0</ele><time>2026-04-11T16:09:18.726Z</time></trkpt><trkpt lat="43.3263709" lon="13.6296774"><ele>239.0</ele><time>2026-04-11T16:09:19.727Z</time></trkpt><trkpt lat="43.3264482" lon="13.6294903"><ele>232.0</ele><time>2026-04-11T16:09:20.727Z</time></trkpt><trkpt lat="43.3265258" lon="13.629289"><ele>225.0</ele><time>2026-04-11T16:09:21.727Z</time></trkpt><trkpt lat="43.3266078" lon="13.6290833"><ele>218.0</ele><time>2026-04-11T16:09:22.726Z</time></trkpt><trkpt lat="43.326689" lon="13.6288768"><ele>218.0</ele><time>2026-04-11T16:09:23.727Z</time></trkpt><trkpt lat="43.3267763" lon="13.6286786"><ele>218.0</ele><time>2026-04-11T16:09:24.727Z</time></trkpt><trkpt lat="43.3268735" lon="13.6284889"><ele>218.0</ele><time>2026-04-11T16:09:25.727Z</time></trkpt><trkpt lat="43.3269614" lon="13.6283276"><ele>219.0</ele><time>2026-04-11T16:09:26.726Z</time></trkpt><trkpt lat="43.327045" lon="13.6281801"><ele>220.0</ele><time>2026-04-11T16:09:27.727Z</time></trkpt><trkpt lat="43.3271307" lon="13.628028"><ele>221.0</ele><time>2026-04-11T16:09:28.727Z</time></trkpt><trkpt lat="43.3272193" lon="13.6278943"><ele>222.0</ele><time>2026-04-11T16:09:29.726Z</time></trkpt><trkpt lat="43.327311" lon="13.6277295"><ele>218.33333333333331</ele><time>2026-04-11T16:09:30.727Z</time></trkpt><trkpt lat="43.3274116" lon="13.6275455"><ele>214.66666666666666</ele><time>2026-04-11T16:09:31.727Z</time></trkpt><trkpt lat="43.3275138" lon="13.6273687"><ele>211.0</ele><time>2026-04-11T16:09:32.726Z</time></trkpt><trkpt lat="43.3276112" lon="13.6271937"><ele>211.0</ele><time>2026-04-11T16:09:33.727Z</time></trkpt><trkpt lat="43.3277102" lon="13.62704"><ele>211.0</ele><time>2026-04-11T16:09:34.727Z</time></trkpt><trkpt lat="43.3278217" lon="13.6269125"><ele>211.0</ele><time>2026-04-11T16:09:35.726Z</time></trkpt><trkpt lat="43.3279377" lon="13.6268164"><ele>211.0</ele><time>2026-04-11T16:09:36.726Z</time></trkpt><trkpt lat="43.3280388" lon="13.6267598"><ele>211.60000000000002</ele><time>2026-04-11T16:09:37.726Z</time></trkpt><trkpt lat="43.328124" lon="13.6267269"><ele>212.2</ele><time>2026-04-11T16:09:38.726Z</time></trkpt><trkpt lat="43.3282187" lon="13.6266966"><ele>212.79999999999998</ele><time>2026-04-11T16:09:39.727Z</time></trkpt><trkpt lat="43.3283277" lon="13.6266697"><ele>213.39999999999998</ele><time>2026-04-11T16:09:40.726Z</time></trkpt><trkpt lat="43.3284515" lon="13.6266497"><ele>214.0</ele><time>2026-04-11T16:09:41.726Z</time></trkpt><trkpt lat="43.3285871" lon="13.6266283"><ele>214.0</ele><time>2026-04-11T16:09:42.726Z</time></trkpt><trkpt lat="43.3287272" lon="13.626595"><ele>214.0</ele><time>2026-04-11T16:09:43.726Z</time></trkpt><trkpt lat="43.3288756" lon="13.6265462"><ele>214.0</ele><time>2026-04-11T16:09:44.727Z</time></trkpt><trkpt lat="43.3290064" lon="13.6264994"><ele>214.0</ele><time>2026-04-11T16:09:45.727Z</time></trkpt><trkpt lat="43.3291126" lon="13.6264722"><ele>214.6</ele><time>2026-04-11T16:09:46.727Z</time></trkpt><trkpt lat="43.329185" lon="13.6263584"><ele>215.2</ele><time>2026-04-11T16:09:48.727Z</time></trkpt><trkpt lat="43.3292451" lon="13.6263067"><ele>215.79999999999998</ele><time>2026-04-11T16:09:49.726Z</time></trkpt><trkpt lat="43.3293026" lon="13.6261904"><ele>216.39999999999998</ele><time>2026-04-11T16:09:50.727Z</time></trkpt><trkpt lat="43.3293658" lon="13.6260912"><ele>217.0</ele><time>2026-04-11T16:09:51.726Z</time></trkpt><trkpt lat="43.329436" lon="13.6259863"><ele>217.0</ele><time>2026-04-11T16:09:52.727Z</time></trkpt><trkpt lat="43.3295155" lon="13.6258724"><ele>217.0</ele><time>2026-04-11T16:09:53.726Z</time></trkpt><trkpt lat="43.3295977" lon="13.6257555"><ele>217.0</ele><time>2026-04-11T16:09:54.726Z</time></trkpt><trkpt lat="43.3296831" lon="13.6256292"><ele>217.0</ele><time>2026-04-11T16:09:55.726Z</time></trkpt><trkpt lat="43.3297661" lon="13.6255076"><ele>216.75</ele><time>2026-04-11T16:09:56.727Z</time></trkpt><trkpt lat="43.3298477" lon="13.625389"><ele>216.5</ele><time>2026-04-11T16:09:57.727Z</time></trkpt><trkpt lat="43.3299309" lon="13.6252652"><ele>216.25</ele><time>2026-04-11T16:09:58.726Z</time></trkpt><trkpt lat="43.3300223" lon="13.6251533"><ele>216.0</ele><time>2026-04-11T16:09:59.727Z</time></trkpt><trkpt lat="43.3301203" lon="13.6250583"><ele>212.25</ele><time>2026-04-11T16:10:00.726Z</time></trkpt><trkpt lat="43.3302315" lon="13.6249726"><ele>208.5</ele><time>2026-04-11T16:10:01.726Z</time></trkpt><trkpt lat="43.3303499" lon="13.6248816"><ele>204.75</ele><time>2026-04-11T16:10:02.727Z</time></trkpt><trkpt lat="43.330467" lon="13.6247941"><ele>201.0</ele><time>2026-04-11T16:10:03.726Z</time></trkpt><trkpt lat="43.3305838" lon="13.6247082"><ele>200.60000000000002</ele><time>2026-04-11T16:10:04.726Z</time></trkpt><trkpt lat="43.3306771" lon="13.6246368"><ele>200.2</ele><time>2026-04-11T16:10:05.727Z</time></trkpt><trkpt lat="43.3307793" lon="13.6245683"><ele>199.8</ele><time>2026-04-11T16:10:06.727Z</time></trkpt><trkpt lat="43.3308908" lon="13.6245344"><ele>199.39999999999998</ele><time>2026-04-11T16:10:07.726Z</time></trkpt><trkpt lat="43.3309947" lon="13.6245328"><ele>199.0</ele><time>2026-04-11T16:10:08.726Z</time></trkpt><trkpt lat="43.331117" lon="13.6245413"><ele>199.0</ele><time>2026-04-11T16:10:09.726Z</time></trkpt><trkpt lat="43.3312498" lon="13.6245373"><ele>199.0</ele><time>2026-04-11T16:10:10.727Z</time></trkpt><trkpt lat="43.3313831" lon="13.6245378"><ele>199.0</ele><time>2026-04-11T16:10:11.726Z</time></trkpt><trkpt lat="43.3315433" lon="13.6245038"><ele>199.0</ele><time>2026-04-11T16:10:12.726Z</time></trkpt><trkpt lat="43.3317009" lon="13.6244801"><ele>191.0</ele><time>2026-04-11T16:10:13.727Z</time></trkpt><trkpt lat="43.3318548" lon="13.6244494"><ele>183.0</ele><time>2026-04-11T16:10:14.727Z</time></trkpt><trkpt lat="43.3320099" lon="13.6244298"><ele>175.0</ele><time>2026-04-11T16:10:15.726Z</time></trkpt><trkpt lat="43.332165" lon="13.6244153"><ele>172.0</ele><time>2026-04-11T16:10:16.726Z</time></trkpt><trkpt lat="43.3323203" lon="13.6243941"><ele>169.0</ele><time>2026-04-11T16:10:17.727Z</time></trkpt><trkpt lat="43.3324712" lon="13.6243793"><ele>166.0</ele><time>2026-04-11T16:10:18.726Z</time></trkpt><trkpt lat="43.332611" lon="13.6243695"><ele>163.0</ele><time>2026-04-11T16:10:19.727Z</time></trkpt><trkpt lat="43.332741" lon="13.6243726"><ele>163.0</ele><time>2026-04-11T16:10:20.726Z</time></trkpt><trkpt lat="43.3328562" lon="13.6243835"><ele>163.0</ele><time>2026-04-11T16:10:21.727Z</time></trkpt><trkpt lat="43.332971" lon="13.624396"><ele>163.0</ele><time>2026-04-11T16:10:22.726Z</time></trkpt><trkpt lat="43.3330828" lon="13.6243987"><ele>163.0</ele><time>2026-04-11T16:10:23.727Z</time></trkpt><trkpt lat="43.3331991" lon="13.6243894"><ele>160.5</ele><time>2026-04-11T16:10:24.726Z</time></trkpt><trkpt lat="43.3333127" lon="13.6243515"><ele>158.0</ele><time>2026-04-11T16:10:25.727Z</time></trkpt><trkpt lat="43.3334207" lon="13.6243057"><ele>155.5</ele><time>2026-04-11T16:10:26.726Z</time></trkpt><trkpt lat="43.3335344" lon="13.6242525"><ele>153.0</ele><time>2026-04-11T16:10:27.727Z</time></trkpt><trkpt lat="43.3336425" lon="13.6241991"><ele>153.0</ele><time>2026-04-11T16:10:28.726Z</time></trkpt><trkpt lat="43.3337421" lon="13.6241465"><ele>153.0</ele><time>2026-04-11T16:10:29.726Z</time></trkpt><trkpt lat="43.3338429" lon="13.6240882"><ele>153.0</ele><time>2026-04-11T16:10:30.727Z</time></trkpt><trkpt lat="43.3339412" lon="13.6240297"><ele>153.0</ele><time>2026-04-11T16:10:31.727Z</time></trkpt><trkpt lat="43.334034" lon="13.6239729"><ele>153.0</ele><time>2026-04-11T16:10:32.727Z</time></trkpt><trkpt lat="43.33413" lon="13.6239204"><ele>150.4</ele><time>2026-04-11T16:10:33.727Z</time></trkpt><trkpt lat="43.3342323" lon="13.6238717"><ele>147.8</ele><time>2026-04-11T16:10:34.726Z</time></trkpt><trkpt lat="43.3343368" lon="13.6238345"><ele>145.2</ele><time>2026-04-11T16:10:35.726Z</time></trkpt><trkpt lat="43.3344475" lon="13.6238127"><ele>142.6</ele><time>2026-04-11T16:10:36.727Z</time></trkpt><trkpt lat="43.3345626" lon="13.6237902"><ele>140.0</ele><time>2026-04-11T16:10:37.726Z</time></trkpt><trkpt lat="43.334678" lon="13.6237652"><ele>135.75</ele><time>2026-04-11T16:10:38.726Z</time></trkpt><trkpt lat="43.3348071" lon="13.6237446"><ele>131.5</ele><time>2026-04-11T16:10:39.727Z</time></trkpt><trkpt lat="43.3349335" lon="13.6237219"><ele>127.25</ele><time>2026-04-11T16:10:40.727Z</time></trkpt><trkpt lat="43.335061" lon="13.6236955"><ele>123.0</ele><time>2026-04-11T16:10:41.727Z</time></trkpt><trkpt lat="43.335188" lon="13.6236706"><ele>123.0</ele><time>2026-04-11T16:10:42.727Z</time></trkpt><trkpt lat="43.3353168" lon="13.6236486"><ele>123.0</ele><time>2026-04-11T16:10:43.726Z</time></trkpt><trkpt lat="43.335443" lon="13.623622"><ele>123.0</ele><time>2026-04-11T16:10:44.727Z</time></trkpt><trkpt lat="43.3355692" lon="13.6236073"><ele>123.0</ele><time>2026-04-11T16:10:45.726Z</time></trkpt><trkpt lat="43.3356939" lon="13.6236011"><ele>119.25</ele><time>2026-04-11T16:10:46.726Z</time></trkpt><trkpt lat="43.3358217" lon="13.6235733"><ele>115.5</ele><time>2026-04-11T16:10:47.726Z</time></trkpt><trkpt lat="43.3359464" lon="13.6235444"><ele>111.75</ele><time>2026-04-11T16:10:48.726Z</time></trkpt><trkpt lat="43.3360676" lon="13.623528"><ele>108.0</ele><time>2026-04-11T16:10:49.727Z</time></trkpt><trkpt lat="43.3361863" lon="13.6235303"><ele>108.0</ele><time>2026-04-11T16:10:50.727Z</time></trkpt><trkpt lat="43.3363115" lon="13.6235425"><ele>108.0</ele><time>2026-04-11T16:10:51.727Z</time></trkpt><trkpt lat="43.3364277" lon="13.623569"><ele>108.0</ele><time>2026-04-11T16:10:52.726Z</time></trkpt><trkpt lat="43.3365525" lon="13.623554"><ele>108.0</ele><time>2026-04-11T16:10:53.727Z</time></trkpt><trkpt lat="43.3366814" lon="13.6235559"><ele>104.25</ele><time>2026-04-11T16:10:54.726Z</time></trkpt><trkpt lat="43.3368099" lon="13.6235498"><ele>100.5</ele><time>2026-04-11T16:10:55.726Z</time></trkpt><trkpt lat="43.3369417" lon="13.6235403"><ele>96.75</ele><time>2026-04-11T16:10:56.727Z</time></trkpt><trkpt lat="43.3370761" lon="13.6235347"><ele>93.0</ele><time>2026-04-11T16:10:57.727Z</time></trkpt><trkpt lat="43.337216" lon="13.6235343"><ele>88.5</ele><time>2026-04-11T16:10:58.726Z</time></trkpt><trkpt lat="43.3373511" lon="13.6235325"><ele>84.0</ele><time>2026-04-11T16:10:59.727Z</time></trkpt><trkpt lat="43.3374798" lon="13.623525"><ele>79.5</ele><time>2026-04-11T16:11:00.727Z</time></trkpt><trkpt lat="43.3376012" lon="13.6235152"><ele>75.0</ele><time>2026-04-11T16:11:01.726Z</time></trkpt><trkpt lat="43.3377179" lon="13.6235184"><ele>75.0</ele><time>2026-04-11T16:11:02.727Z</time></trkpt><trkpt lat="43.3378268" lon="13.6235227"><ele>75.0</ele><time>2026-04-11T16:11:03.726Z</time></trkpt><trkpt lat="43.3379296" lon="13.6235196"><ele>75.0</ele><time>2026-04-11T16:11:04.727Z</time></trkpt><trkpt lat="43.3380394" lon="13.6235272"><ele>75.0</ele><time>2026-04-11T16:11:05.727Z</time></trkpt><trkpt lat="43.3381574" lon="13.6235247"><ele>75.0</ele><time>2026-04-11T16:11:06.726Z</time></trkpt><trkpt lat="43.3382955" lon="13.6235064"><ele>70.66666666666667</ele><time>2026-04-11T16:11:07.726Z</time></trkpt><trkpt lat="43.3384258" lon="13.6234239"><ele>66.33333333333334</ele><time>2026-04-11T16:11:08.727Z</time></trkpt><trkpt lat="43.3385753" lon="13.6233867"><ele>62.0</ele><time>2026-04-11T16:11:09.727Z</time></trkpt><trkpt lat="43.3387385" lon="13.6233455"><ele>58.0</ele><time>2026-04-11T16:11:10.727Z</time></trkpt><trkpt lat="43.3388901" lon="13.6233021"><ele>54.0</ele><time>2026-04-11T16:11:11.727Z</time></trkpt><trkpt lat="43.3390292" lon="13.6232496"><ele>50.0</ele><time>2026-04-11T16:11:12.726Z</time></trkpt><trkpt lat="43.3392069" lon="13.6231788"><ele>50.0</ele><time>2026-04-11T16:11:13.727Z</time></trkpt><trkpt lat="43.3393739" lon="13.6231058"><ele>50.0</ele><time>2026-04-11T16:11:14.726Z</time></trkpt><trkpt lat="43.3395281" lon="13.623041"><ele>50.0</ele><time>2026-04-11T16:11:15.727Z</time></trkpt><trkpt lat="43.3396797" lon="13.622972"><ele>48.75</ele><time>2026-04-11T16:11:16.727Z</time></trkpt><trkpt lat="43.339823" lon="13.622909"><ele>47.5</ele><time>2026-04-11T16:11:17.726Z</time></trkpt><trkpt lat="43.3399504" lon="13.6228552"><ele>46.25</ele><time>2026-04-11T16:11:18.726Z</time></trkpt><trkpt lat="43.3400768" lon="13.6228141"><ele>45.0</ele><time>2026-04-11T16:11:19.727Z</time></trkpt><trkpt lat="43.3402054" lon="13.6227985"><ele>44.8</ele><time>2026-04-11T16:11:20.727Z</time></trkpt><trkpt lat="43.3403226" lon="13.6227959"><ele>44.6</ele><time>2026-04-11T16:11:21.726Z</time></trkpt><trkpt lat="43.3404329" lon="13.6227976"><ele>44.400000000000006</ele><time>2026-04-11T16:11:22.727Z</time></trkpt><trkpt lat="43.3405378" lon="13.6227966"><ele>44.2</ele><time>2026-04-11T16:11:23.727Z</time></trkpt><trkpt lat="43.3406299" lon="13.6227887"><ele>44.0</ele><time>2026-04-11T16:11:24.726Z</time></trkpt><trkpt lat="43.3407082" lon="13.6227656"><ele>43.800000000000004</ele><time>2026-04-11T16:11:25.726Z</time></trkpt><trkpt lat="43.3407737" lon="13.6227039"><ele>43.6</ele><time>2026-04-11T16:11:26.727Z</time></trkpt><trkpt lat="43.3408251" lon="13.6226093"><ele>43.4</ele><time>2026-04-11T16:11:27.726Z</time></trkpt><trkpt lat="43.3408782" lon="13.6224964"><ele>43.2</ele><time>2026-04-11T16:11:28.727Z</time></trkpt><trkpt lat="43.3409348" lon="13.6223614"><ele>43.0</ele><time>2026-04-11T16:11:29.726Z</time></trkpt><trkpt lat="43.3410277" lon="13.6222571"><ele>43.0</ele><time>2026-04-11T16:11:30.727Z</time></trkpt><trkpt lat="43.3411122" lon="13.6221579"><ele>43.0</ele><time>2026-04-11T16:11:31.727Z</time></trkpt><trkpt lat="43.3412186" lon="13.622075"><ele>43.0</ele><time>2026-04-11T16:11:32.727Z</time></trkpt><trkpt lat="43.3413432" lon="13.6219961"><ele>43.0</ele><time>2026-04-11T16:11:33.727Z</time></trkpt><trkpt lat="43.3414807" lon="13.6219201"><ele>48.0</ele><time>2026-04-11T16:11:34.726Z</time></trkpt><trkpt lat="43.3416198" lon="13.6218439"><ele>53.0</ele><time>2026-04-11T16:11:35.726Z</time></trkpt><trkpt lat="43.3417596" lon="13.6217731"><ele>58.0</ele><time>2026-04-11T16:11:36.726Z</time></trkpt><trkpt lat="43.3419158" lon="13.6216942"><ele>58.0</ele><time>2026-04-11T16:11:37.727Z</time></trkpt><trkpt lat="43.342043" lon="13.6216161"><ele>58.0</ele><time>2026-04-11T16:11:38.726Z</time></trkpt><trkpt lat="43.3421698" lon="13.6215512"><ele>58.0</ele><time>2026-04-11T16:11:39.726Z</time></trkpt><trkpt lat="43.3422985" lon="13.6215163"><ele>58.0</ele><time>2026-04-11T16:11:40.726Z</time></trkpt><trkpt lat="43.342447" lon="13.6214843"><ele>62.0</ele><time>2026-04-11T16:11:41.727Z</time></trkpt><trkpt lat="43.3426093" lon="13.6214593"><ele>66.0</ele><time>2026-04-11T16:11:42.726Z</time></trkpt><trkpt lat="43.34277" lon="13.6214427"><ele>70.0</ele><time>2026-04-11T16:11:43.727Z</time></trkpt><trkpt lat="43.3429314" lon="13.6214308"><ele>72.66666666666666</ele><time>2026-04-11T16:11:44.727Z</time></trkpt><trkpt lat="43.3430964" lon="13.6214247"><ele>75.33333333333333</ele><time>2026-04-11T16:11:45.726Z</time></trkpt><trkpt lat="43.3432569" lon="13.6214245"><ele>78.0</ele><time>2026-04-11T16:11:46.727Z</time></trkpt><trkpt lat="43.3434218" lon="13.6214366"><ele>78.0</ele><time>2026-04-11T16:11:47.727Z</time></trkpt><trkpt lat="43.3435873" lon="13.6214506"><ele>78.0</ele><time>2026-04-11T16:11:48.726Z</time></trkpt><trkpt lat="43.343767" lon="13.6214621"><ele>78.0</ele><time>2026-04-11T16:11:49.726Z</time></trkpt><trkpt lat="43.3439584" lon="13.6214673"><ele>78.66666666666667</ele><time>2026-04-11T16:11:50.727Z</time></trkpt><trkpt lat="43.3441577" lon="13.6214647"><ele>79.33333333333334</ele><time>2026-04-11T16:11:51.727Z</time></trkpt><trkpt lat="43.3443641" lon="13.6214614"><ele>80.0</ele><time>2026-04-11T16:11:52.726Z</time></trkpt><trkpt lat="43.3445747" lon="13.6214577"><ele>81.33333333333334</ele><time>2026-04-11T16:11:53.727Z</time></trkpt><trkpt lat="43.3447842" lon="13.6214471"><ele>82.66666666666667</ele><time>2026-04-11T16:11:54.726Z</time></trkpt><trkpt lat="43.3449939" lon="13.6214387"><ele>84.0</ele><time>2026-04-11T16:11:55.726Z</time></trkpt><trkpt lat="43.3451986" lon="13.6214304"><ele>84.0</ele><time>2026-04-11T16:11:56.727Z</time></trkpt><trkpt lat="43.3454026" lon="13.6214257"><ele>84.0</ele><time>2026-04-11T16:11:57.727Z</time></trkpt><trkpt lat="43.3455992" lon="13.6214138"><ele>84.0</ele><time>2026-04-11T16:11:58.727Z</time></trkpt><trkpt lat="43.3457882" lon="13.6213959"><ele>88.33333333333334</ele><time>2026-04-11T16:11:59.726Z</time></trkpt><trkpt lat="43.3459671" lon="13.6213824"><ele>92.66666666666667</ele><time>2026-04-11T16:12:00.727Z</time></trkpt><trkpt lat="43.3461326" lon="13.6213721"><ele>97.0</ele><time>2026-04-11T16:12:01.726Z</time></trkpt><trkpt lat="43.3462694" lon="13.6213633"><ele>99.0</ele><time>2026-04-11T16:12:02.726Z</time></trkpt><trkpt lat="43.3463831" lon="13.6213692"><ele>101.0</ele><time>2026-04-11T16:12:03.726Z</time></trkpt><trkpt lat="43.3464759" lon="13.6213789"><ele>102.99999999999999</ele><time>2026-04-11T16:12:04.727Z</time></trkpt><trkpt lat="43.3465518" lon="13.6213853"><ele>105.0</ele><time>2026-04-11T16:12:05.726Z</time></trkpt><trkpt lat="43.3466426" lon="13.6214172"><ele>107.0</ele><time>2026-04-11T16:12:07.727Z</time></trkpt><trkpt lat="43.3466685" lon="13.621511"><ele>107.0</ele><time>2026-04-11T16:12:09.727Z</time></trkpt><trkpt lat="43.3466661" lon="13.6216797"><ele>107.0</ele><time>2026-04-11T16:12:11.726Z</time></trkpt><trkpt lat="43.3466766" lon="13.6218308"><ele>107.0</ele><time>2026-04-11T16:12:13.726Z</time></trkpt><trkpt lat="43.346783" lon="13.6219636"><ele>107.0</ele><time>2026-04-11T16:12:15.727Z</time></trkpt><trkpt lat="43.3468778" lon="13.6220172"><ele>106.25</ele><time>2026-04-11T16:12:16.727Z</time></trkpt><trkpt lat="43.3469774" lon="13.6220855"><ele>105.5</ele><time>2026-04-11T16:12:17.727Z</time></trkpt><trkpt lat="43.3470927" lon="13.6221678"><ele>104.75</ele><time>2026-04-11T16:12:18.726Z</time></trkpt><trkpt lat="43.3472018" lon="13.6222628"><ele>104.0</ele><time>2026-04-11T16:12:19.727Z</time></trkpt><trkpt lat="43.3473064" lon="13.6223693"><ele>101.5</ele><time>2026-04-11T16:12:20.726Z</time></trkpt><trkpt lat="43.3474103" lon="13.6224762"><ele>99.0</ele><time>2026-04-11T16:12:21.726Z</time></trkpt><trkpt lat="43.3475165" lon="13.6225779"><ele>96.5</ele><time>2026-04-11T16:12:22.727Z</time></trkpt><trkpt lat="43.3476318" lon="13.6226585"><ele>94.0</ele><time>2026-04-11T16:12:23.726Z</time></trkpt><trkpt lat="43.3477655" lon="13.6227239"><ele>94.0</ele><time>2026-04-11T16:12:24.726Z</time></trkpt><trkpt lat="43.3479049" lon="13.6227764"><ele>94.0</ele><time>2026-04-11T16:12:25.726Z</time></trkpt><trkpt lat="43.3480429" lon="13.622831"><ele>94.0</ele><time>2026-04-11T16:12:26.727Z</time></trkpt><trkpt lat="43.3481866" lon="13.6228827"><ele>94.0</ele><time>2026-04-11T16:12:27.726Z</time></trkpt><trkpt lat="43.3483285" lon="13.6229232"><ele>90.8</ele><time>2026-04-11T16:12:28.727Z</time></trkpt><trkpt lat="43.3484597" lon="13.6229651"><ele>87.60000000000001</ele><time>2026-04-11T16:12:29.727Z</time></trkpt><trkpt lat="43.3485654" lon="13.6229885"><ele>84.4</ele><time>2026-04-11T16:12:30.726Z</time></trkpt><trkpt lat="43.3486637" lon="13.6229922"><ele>81.2</ele><time>2026-04-11T16:12:31.727Z</time></trkpt><trkpt lat="43.3487352" lon="13.622991"><ele>78.0</ele><time>2026-04-11T16:12:32.727Z</time></trkpt><trkpt lat="43.3488221" lon="13.6229979"><ele>77.6</ele><time>2026-04-11T16:12:34.727Z</time></trkpt><trkpt lat="43.3488807" lon="13.6229532"><ele>77.19999999999999</ele><time>2026-04-11T16:12:43.727Z</time></trkpt><trkpt lat="43.3489312" lon="13.6228722"><ele>76.8</ele><time>2026-04-11T16:12:45.727Z</time></trkpt><trkpt lat="43.3490543" lon="13.6227595"><ele>76.39999999999999</ele><time>2026-04-11T16:12:47.726Z</time></trkpt><trkpt lat="43.3491323" lon="13.622673"><ele>76.0</ele><time>2026-04-11T16:12:48.727Z</time></trkpt><trkpt lat="43.3492097" lon="13.6225639"><ele>76.0</ele><time>2026-04-11T16:12:49.726Z</time></trkpt><trkpt lat="43.3492933" lon="13.6224441"><ele>76.0</ele><time>2026-04-11T16:12:50.727Z</time></trkpt><trkpt lat="43.3493781" lon="13.6223116"><ele>76.0</ele><time>2026-04-11T16:12:51.727Z</time></trkpt><trkpt lat="43.3494704" lon="13.6221722"><ele>76.0</ele><time>2026-04-11T16:12:52.727Z</time></trkpt><trkpt lat="43.349566" lon="13.6220255"><ele>77.0</ele><time>2026-04-11T16:12:53.727Z</time></trkpt><trkpt lat="43.3496628" lon="13.6218786"><ele>78.0</ele><time>2026-04-11T16:12:54.727Z</time></trkpt><trkpt lat="43.3497561" lon="13.6217344"><ele>79.0</ele><time>2026-04-11T16:12:55.727Z</time></trkpt><trkpt lat="43.3498467" lon="13.6215939"><ele>80.0</ele><time>2026-04-11T16:12:56.727Z</time></trkpt><trkpt lat="43.3499386" lon="13.6214531"><ele>78.0</ele><time>2026-04-11T16:12:57.727Z</time></trkpt><trkpt lat="43.3500334" lon="13.6213162"><ele>76.0</ele><time>2026-04-11T16:12:58.726Z</time></trkpt><trkpt lat="43.3501267" lon="13.6211781"><ele>74.0</ele><time>2026-04-11T16:12:59.726Z</time></trkpt><trkpt lat="43.3502193" lon="13.6210381"><ele>72.0</ele><time>2026-04-11T16:13:00.727Z</time></trkpt><trkpt lat="43.3503068" lon="13.6209031"><ele>72.0</ele><time>2026-04-11T16:13:01.726Z</time></trkpt><trkpt lat="43.3503907" lon="13.620772"><ele>72.0</ele><time>2026-04-11T16:13:02.727Z</time></trkpt><trkpt lat="43.3504754" lon="13.6206554"><ele>72.0</ele><time>2026-04-11T16:13:03.726Z</time></trkpt><trkpt lat="43.3505757" lon="13.6205782"><ele>72.0</ele><time>2026-04-11T16:13:04.726Z</time></trkpt><trkpt lat="43.3506788" lon="13.6204968"><ele>68.33333333333333</ele><time>2026-04-11T16:13:05.726Z</time></trkpt><trkpt lat="43.350852" lon="13.620543"><ele>64.66666666666666</ele><time>2026-04-11T16:13:06.726Z</time></trkpt><trkpt lat="43.3510204" lon="13.6205651"><ele>61.0</ele><time>2026-04-11T16:13:07.727Z</time></trkpt><trkpt lat="43.3511983" lon="13.6206003"><ele>61.0</ele><time>2026-04-11T16:13:08.726Z</time></trkpt><trkpt lat="43.3513729" lon="13.6206332"><ele>61.0</ele><time>2026-04-11T16:13:09.726Z</time></trkpt><trkpt lat="43.3515357" lon="13.6206626"><ele>61.0</ele><time>2026-04-11T16:13:10.727Z</time></trkpt><trkpt lat="43.3516819" lon="13.620679"><ele>60.25</ele><time>2026-04-11T16:13:11.727Z</time></trkpt><trkpt lat="43.3518224" lon="13.6206842"><ele>59.5</ele><time>2026-04-11T16:13:12.727Z</time></trkpt><trkpt lat="43.3519422" lon="13.6206569"><ele>58.75</ele><time>2026-04-11T16:13:13.727Z</time></trkpt><trkpt lat="43.3520452" lon="13.6205901"><ele>58.0</ele><time>2026-04-11T16:13:14.727Z</time></trkpt><trkpt lat="43.3521371" lon="13.6204767"><ele>59.75</ele><time>2026-04-11T16:13:15.727Z</time></trkpt><trkpt lat="43.3522288" lon="13.6203337"><ele>61.5</ele><time>2026-04-11T16:13:16.727Z</time></trkpt><trkpt lat="43.3523176" lon="13.6201874"><ele>63.25</ele><time>2026-04-11T16:13:17.726Z</time></trkpt><trkpt lat="43.3524174" lon="13.6200223"><ele>65.0</ele><time>2026-04-11T16:13:18.727Z</time></trkpt><trkpt lat="43.3525216" lon="13.6198567"><ele>65.0</ele><time>2026-04-11T16:13:19.727Z</time></trkpt><trkpt lat="43.3526132" lon="13.6197033"><ele>65.0</ele><time>2026-04-11T16:13:20.726Z</time></trkpt><trkpt lat="43.3526939" lon="13.619574"><ele>65.0</ele><time>2026-04-11T16:13:21.727Z</time></trkpt><trkpt lat="43.3527741" lon="13.619478"><ele>65.0</ele><time>2026-04-11T16:13:22.727Z</time></trkpt><trkpt lat="43.3528505" lon="13.6194363"><ele>65.0</ele><time>2026-04-11T16:13:23.727Z</time></trkpt><trkpt lat="43.3529283" lon="13.6194412"><ele>65.0</ele><time>2026-04-11T16:13:24.726Z</time></trkpt><trkpt lat="43.3530215" lon="13.6194726"><ele>65.0</ele><time>2026-04-11T16:13:25.727Z</time></trkpt><trkpt lat="43.3531361" lon="13.6195194"><ele>65.0</ele><time>2026-04-11T16:13:26.727Z</time></trkpt><trkpt lat="43.3532747" lon="13.6195753"><ele>65.0</ele><time>2026-04-11T16:13:27.727Z</time></trkpt><trkpt lat="43.3534388" lon="13.6196446"><ele>69.33333333333334</ele><time>2026-04-11T16:13:28.726Z</time></trkpt><trkpt lat="43.3536326" lon="13.619734"><ele>73.66666666666667</ele><time>2026-04-11T16:13:29.727Z</time></trkpt><trkpt lat="43.3538464" lon="13.6198356"><ele>78.0</ele><time>2026-04-11T16:13:30.726Z</time></trkpt><trkpt lat="43.3540549" lon="13.619945"><ele>81.0</ele><time>2026-04-11T16:13:31.727Z</time></trkpt><trkpt lat="43.3542598" lon="13.6200721"><ele>84.0</ele><time>2026-04-11T16:13:32.727Z</time></trkpt><trkpt lat="43.3544497" lon="13.6202115"><ele>87.0</ele><time>2026-04-11T16:13:33.726Z</time></trkpt><trkpt lat="43.3546194" lon="13.6203444"><ele>93.33333333333334</ele><time>2026-04-11T16:13:34.727Z</time></trkpt><trkpt lat="43.3547678" lon="13.6204726"><ele>99.66666666666667</ele><time>2026-04-11T16:13:35.726Z</time></trkpt><trkpt lat="43.3549053" lon="13.6205971"><ele>106.0</ele><time>2026-04-11T16:13:36.726Z</time></trkpt><trkpt lat="43.3550488" lon="13.6207388"><ele>106.0</ele><time>2026-04-11T16:13:37.727Z</time></trkpt><trkpt lat="43.3551541" lon="13.6209015"><ele>106.0</ele><time>2026-04-11T16:13:38.726Z</time></trkpt><trkpt lat="43.3552505" lon="13.6210367"><ele>106.0</ele><time>2026-04-11T16:13:39.726Z</time></trkpt><trkpt lat="43.3553149" lon="13.6211705"><ele>106.0</ele><time>2026-04-11T16:13:40.727Z</time></trkpt><trkpt lat="43.35534" lon="13.6213195"><ele>108.5</ele><time>2026-04-11T16:13:41.727Z</time></trkpt><trkpt lat="43.3553365" lon="13.6215003"><ele>111.0</ele><time>2026-04-11T16:13:42.727Z</time></trkpt><trkpt lat="43.3553408" lon="13.621712"><ele>113.5</ele><time>2026-04-11T16:13:43.726Z</time></trkpt><trkpt lat="43.3553689" lon="13.6219325"><ele>116.0</ele><time>2026-04-11T16:13:44.727Z</time></trkpt><trkpt lat="43.3553833" lon="13.6221178"><ele>117.8</ele><time>2026-04-11T16:13:45.726Z</time></trkpt><trkpt lat="43.3553816" lon="13.6222788"><ele>119.6</ele><time>2026-04-11T16:13:46.727Z</time></trkpt><trkpt lat="43.3553745" lon="13.6224119"><ele>121.4</ele><time>2026-04-11T16:13:47.727Z</time></trkpt><trkpt lat="43.3553894" lon="13.6225359"><ele>123.2</ele><time>2026-04-11T16:13:48.726Z</time></trkpt><trkpt lat="43.3554412" lon="13.6226325"><ele>125.0</ele><time>2026-04-11T16:13:49.726Z</time></trkpt><trkpt lat="43.3555007" lon="13.6227279"><ele>127.0</ele><time>2026-04-11T16:13:50.727Z</time></trkpt><trkpt lat="43.3556235" lon="13.6228064"><ele>129.0</ele><time>2026-04-11T16:13:51.727Z</time></trkpt><trkpt lat="43.3557774" lon="13.622848"><ele>131.0</ele><time>2026-04-11T16:13:52.726Z</time></trkpt><trkpt lat="43.3558626" lon="13.6229261"><ele>133.0</ele><time>2026-04-11T16:13:53.726Z</time></trkpt><trkpt lat="43.3559448" lon="13.6230068"><ele>135.0</ele><time>2026-04-11T16:13:54.727Z</time></trkpt><trkpt lat="43.3559908" lon="13.6231282"><ele>137.0</ele><time>2026-04-11T16:13:55.727Z</time></trkpt><trkpt lat="43.3560699" lon="13.6232489"><ele>139.0</ele><time>2026-04-11T16:13:56.726Z</time></trkpt><trkpt lat="43.356158" lon="13.6234289"><ele>141.0</ele><time>2026-04-11T16:13:57.727Z</time></trkpt><trkpt lat="43.3562611" lon="13.623622"><ele>146.66666666666666</ele><time>2026-04-11T16:13:58.727Z</time></trkpt><trkpt lat="43.3563769" lon="13.6238345"><ele>152.33333333333331</ele><time>2026-04-11T16:13:59.727Z</time></trkpt><trkpt lat="43.3564752" lon="13.6240679"><ele>158.0</ele><time>2026-04-11T16:14:00.727Z</time></trkpt><trkpt lat="43.3565764" lon="13.6242805"><ele>158.0</ele><time>2026-04-11T16:14:01.726Z</time></trkpt><trkpt lat="43.3566703" lon="13.6244213"><ele>158.0</ele><time>2026-04-11T16:14:02.726Z</time></trkpt><trkpt lat="43.3567567" lon="13.6245495"><ele>158.0</ele><time>2026-04-11T16:14:03.727Z</time></trkpt><trkpt lat="43.3568485" lon="13.6246332"><ele>158.0</ele><time>2026-04-11T16:14:04.727Z</time></trkpt><trkpt lat="43.3569418" lon="13.6246704"><ele>159.8</ele><time>2026-04-11T16:14:05.727Z</time></trkpt><trkpt lat="43.3570246" lon="13.6246827"><ele>161.60000000000002</ele><time>2026-04-11T16:14:06.727Z</time></trkpt><trkpt lat="43.3571083" lon="13.6246794"><ele>163.39999999999998</ele><time>2026-04-11T16:14:07.726Z</time></trkpt><trkpt lat="43.3571931" lon="13.6246527"><ele>165.2</ele><time>2026-04-11T16:14:08.726Z</time></trkpt><trkpt lat="43.3572802" lon="13.624633"><ele>167.0</ele><time>2026-04-11T16:14:09.727Z</time></trkpt><trkpt lat="43.3574227" lon="13.6245601"><ele>167.0</ele><time>2026-04-11T16:14:10.726Z</time></trkpt><trkpt lat="43.3575488" lon="13.6245036"><ele>167.0</ele><time>2026-04-11T16:14:11.726Z</time></trkpt><trkpt lat="43.3576729" lon="13.6244362"><ele>167.0</ele><time>2026-04-11T16:14:12.727Z</time></trkpt><trkpt lat="43.3577988" lon="13.6243727"><ele>167.0</ele><time>2026-04-11T16:14:13.726Z</time></trkpt><trkpt lat="43.3579395" lon="13.6243164"><ele>169.8</ele><time>2026-04-11T16:14:14.726Z</time></trkpt><trkpt lat="43.3580589" lon="13.624276"><ele>172.6</ele><time>2026-04-11T16:14:15.726Z</time></trkpt><trkpt lat="43.3581779" lon="13.6242553"><ele>175.4</ele><time>2026-04-11T16:14:16.726Z</time></trkpt><trkpt lat="43.3582807" lon="13.6242567"><ele>178.20000000000002</ele><time>2026-04-11T16:14:17.727Z</time></trkpt><trkpt lat="43.3583653" lon="13.6242515"><ele>181.0</ele><time>2026-04-11T16:14:18.726Z</time></trkpt><trkpt lat="43.358447" lon="13.6242376"><ele>181.0</ele><time>2026-04-11T16:14:19.727Z</time></trkpt><trkpt lat="43.3585351" lon="13.6242333"><ele>181.0</ele><time>2026-04-11T16:14:20.727Z</time></trkpt><trkpt lat="43.3586383" lon="13.6242331"><ele>181.0</ele><time>2026-04-11T16:14:21.727Z</time></trkpt><trkpt lat="43.3587581" lon="13.6242331"><ele>181.0</ele><time>2026-04-11T16:14:22.727Z</time></trkpt><trkpt lat="43.3588825" lon="13.6242377"><ele>181.0</ele><time>2026-04-11T16:14:23.727Z</time></trkpt><trkpt lat="43.3590076" lon="13.6242331"><ele>178.75</ele><time>2026-04-11T16:14:24.726Z</time></trkpt><trkpt lat="43.3591258" lon="13.6242034"><ele>176.5</ele><time>2026-04-11T16:14:25.727Z</time></trkpt><trkpt lat="43.3592503" lon="13.624158"><ele>174.25</ele><time>2026-04-11T16:14:26.726Z</time></trkpt><trkpt lat="43.3593598" lon="13.6240986"><ele>172.0</ele><time>2026-04-11T16:14:27.727Z</time></trkpt><trkpt lat="43.3594602" lon="13.6239909"><ele>172.0</ele><time>2026-04-11T16:14:28.727Z</time></trkpt><trkpt lat="43.3595516" lon="13.6239205"><ele>172.0</ele><time>2026-04-11T16:14:29.726Z</time></trkpt><trkpt lat="43.359668" lon="13.6238664"><ele>172.0</ele><time>2026-04-11T16:14:30.726Z</time></trkpt><trkpt lat="43.3598052" lon="13.6238309"><ele>172.0</ele><time>2026-04-11T16:14:31.727Z</time></trkpt><trkpt lat="43.3599531" lon="13.6238591"><ele>168.25</ele><time>2026-04-11T16:14:32.727Z</time></trkpt><trkpt lat="43.3600724" lon="13.6238688"><ele>164.5</ele><time>2026-04-11T16:14:33.726Z</time></trkpt><trkpt lat="43.3601838" lon="13.6238605"><ele>160.75</ele><time>2026-04-11T16:14:34.727Z</time></trkpt><trkpt lat="43.3602957" lon="13.6238271"><ele>157.0</ele><time>2026-04-11T16:14:35.727Z</time></trkpt><trkpt lat="43.3604122" lon="13.6237435"><ele>157.0</ele><time>2026-04-11T16:14:36.726Z</time></trkpt><trkpt lat="43.3605271" lon="13.6236527"><ele>157.0</ele><time>2026-04-11T16:14:37.727Z</time></trkpt><trkpt lat="43.360648" lon="13.6235245"><ele>157.0</ele><time>2026-04-11T16:14:38.726Z</time></trkpt><trkpt lat="43.3607809" lon="13.6234082"><ele>157.0</ele><time>2026-04-11T16:14:39.727Z</time></trkpt><trkpt lat="43.3609101" lon="13.6232839"><ele>154.25</ele><time>2026-04-11T16:14:40.727Z</time></trkpt><trkpt lat="43.3610307" lon="13.6231723"><ele>151.5</ele><time>2026-04-11T16:14:41.727Z</time></trkpt><trkpt lat="43.3611431" lon="13.6230862"><ele>148.75</ele><time>2026-04-11T16:14:42.727Z</time></trkpt><trkpt lat="43.3612485" lon="13.6230381"><ele>146.0</ele><time>2026-04-11T16:14:43.726Z</time></trkpt><trkpt lat="43.36134" lon="13.6230098"><ele>145.83333333333331</ele><time>2026-04-11T16:14:44.726Z</time></trkpt><trkpt lat="43.3614127" lon="13.6229988"><ele>145.66666666666666</ele><time>2026-04-11T16:14:45.727Z</time></trkpt><trkpt lat="43.3614942" lon="13.6229833"><ele>145.5</ele><time>2026-04-11T16:14:47.726Z</time></trkpt><trkpt lat="43.3615769" lon="13.6229517"><ele>145.33333333333334</ele><time>2026-04-11T16:14:49.726Z</time></trkpt><trkpt lat="43.3616482" lon="13.6229185"><ele>145.16666666666669</ele><time>2026-04-11T16:14:50.727Z</time></trkpt><trkpt lat="43.3617413" lon="13.6228832"><ele>145.0</ele><time>2026-04-11T16:14:51.727Z</time></trkpt><trkpt lat="43.3619242" lon="13.6228489"><ele>145.0</ele><time>2026-04-11T16:14:52.727Z</time></trkpt><trkpt lat="43.3620927" lon="13.6228499"><ele>145.0</ele><time>2026-04-11T16:14:53.727Z</time></trkpt><trkpt lat="43.3622964" lon="13.6228563"><ele>145.0</ele><time>2026-04-11T16:14:54.727Z</time></trkpt><trkpt lat="43.362518" lon="13.6228553"><ele>148.33333333333334</ele><time>2026-04-11T16:14:55.726Z</time></trkpt><trkpt lat="43.3627274" lon="13.6228418"><ele>151.66666666666666</ele><time>2026-04-11T16:14:56.727Z</time></trkpt><trkpt lat="43.3629352" lon="13.6228184"><ele>155.0</ele><time>2026-04-11T16:14:57.726Z</time></trkpt><trkpt lat="43.3631369" lon="13.622799"><ele>160.33333333333331</ele><time>2026-04-11T16:14:58.726Z</time></trkpt><trkpt lat="43.3633185" lon="13.622779"><ele>165.66666666666666</ele><time>2026-04-11T16:14:59.726Z</time></trkpt><trkpt lat="43.3634869" lon="13.622766"><ele>171.0</ele><time>2026-04-11T16:15:00.726Z</time></trkpt><trkpt lat="43.3636646" lon="13.6227797"><ele>170.33333333333334</ele><time>2026-04-11T16:15:01.727Z</time></trkpt><trkpt lat="43.3638551" lon="13.6228332"><ele>169.66666666666669</ele><time>2026-04-11T16:15:02.727Z</time></trkpt><trkpt lat="43.3640451" lon="13.6229028"><ele>169.0</ele><time>2026-04-11T16:15:03.726Z</time></trkpt><trkpt lat="43.3642204" lon="13.6229474"><ele>173.66666666666669</ele><time>2026-04-11T16:15:04.727Z</time></trkpt><trkpt lat="43.364386" lon="13.622964"><ele>178.33333333333334</ele><time>2026-04-11T16:15:05.727Z</time></trkpt><trkpt lat="43.3645361" lon="13.6229694"><ele>183.0</ele><time>2026-04-11T16:15:06.726Z</time></trkpt><trkpt lat="43.3646722" lon="13.6229947"><ele>186.25</ele><time>2026-04-11T16:15:07.727Z</time></trkpt><trkpt lat="43.3647952" lon="13.6230643"><ele>189.5</ele><time>2026-04-11T16:15:08.727Z</time></trkpt><trkpt lat="43.3649183" lon="13.6231827"><ele>192.75</ele><time>2026-04-11T16:15:09.726Z</time></trkpt><trkpt lat="43.3650458" lon="13.6233171"><ele>196.0</ele><time>2026-04-11T16:15:10.726Z</time></trkpt><trkpt lat="43.3651635" lon="13.623425"><ele>196.0</ele><time>2026-04-11T16:15:11.727Z</time></trkpt><trkpt lat="43.3652655" lon="13.6235153"><ele>196.0</ele><time>2026-04-11T16:15:12.727Z</time></trkpt><trkpt lat="43.3653434" lon="13.6235794"><ele>196.0</ele><time>2026-04-11T16:15:13.727Z</time></trkpt><trkpt lat="43.3654232" lon="13.6236288"><ele>196.0</ele><time>2026-04-11T16:15:14.727Z</time></trkpt><trkpt lat="43.3655144" lon="13.6236799"><ele>196.0</ele><time>2026-04-11T16:15:15.727Z</time></trkpt><trkpt lat="43.3656264" lon="13.6237361"><ele>194.33333333333331</ele><time>2026-04-11T16:15:16.727Z</time></trkpt><trkpt lat="43.3657679" lon="13.6238144"><ele>192.66666666666666</ele><time>2026-04-11T16:15:17.727Z</time></trkpt><trkpt lat="43.3659282" lon="13.6238882"><ele>191.0</ele><time>2026-04-11T16:15:18.727Z</time></trkpt><trkpt lat="43.3660873" lon="13.6239426"><ele>191.0</ele><time>2026-04-11T16:15:19.727Z</time></trkpt><trkpt lat="43.3662505" lon="13.6239675"><ele>191.0</ele><time>2026-04-11T16:15:20.726Z</time></trkpt><trkpt lat="43.3664128" lon="13.6239623"><ele>191.0</ele><time>2026-04-11T16:15:21.727Z</time></trkpt><trkpt lat="43.3665725" lon="13.6239388"><ele>193.0</ele><time>2026-04-11T16:15:22.727Z</time></trkpt><trkpt lat="43.3667305" lon="13.6239034"><ele>195.0</ele><time>2026-04-11T16:15:23.726Z</time></trkpt><trkpt lat="43.3668764" lon="13.623844"><ele>197.0</ele><time>2026-04-11T16:15:24.727Z</time></trkpt><trkpt lat="43.3670097" lon="13.6237549"><ele>198.75</ele><time>2026-04-11T16:15:25.727Z</time></trkpt><trkpt lat="43.3671308" lon="13.6236407"><ele>200.5</ele><time>2026-04-11T16:15:26.727Z</time></trkpt><trkpt lat="43.3672366" lon="13.6235076"><ele>202.25</ele><time>2026-04-11T16:15:27.727Z</time></trkpt><trkpt lat="43.3673315" lon="13.6233759"><ele>204.0</ele><time>2026-04-11T16:15:28.726Z</time></trkpt><trkpt lat="43.3674111" lon="13.6232423"><ele>204.0</ele><time>2026-04-11T16:15:29.727Z</time></trkpt><trkpt lat="43.3674816" lon="13.6231256"><ele>204.0</ele><time>2026-04-11T16:15:30.726Z</time></trkpt><trkpt lat="43.3675464" lon="13.6230216"><ele>204.0</ele><time>2026-04-11T16:15:31.726Z</time></trkpt><trkpt lat="43.3676098" lon="13.6229249"><ele>204.0</ele><time>2026-04-11T16:15:32.727Z</time></trkpt><trkpt lat="43.367682" lon="13.6228244"><ele>204.0</ele><time>2026-04-11T16:15:33.726Z</time></trkpt><trkpt lat="43.367764" lon="13.6227179"><ele>203.5</ele><time>2026-04-11T16:15:34.727Z</time></trkpt><trkpt lat="43.3678523" lon="13.6226018"><ele>203.0</ele><time>2026-04-11T16:15:35.727Z</time></trkpt><trkpt lat="43.3679417" lon="13.6224878"><ele>202.5</ele><time>2026-04-11T16:15:36.726Z</time></trkpt><trkpt lat="43.3680331" lon="13.6223911"><ele>202.0</ele><time>2026-04-11T16:15:37.726Z</time></trkpt><trkpt lat="43.3681126" lon="13.6222967"><ele>202.0</ele><time>2026-04-11T16:15:38.727Z</time></trkpt><trkpt lat="43.368185" lon="13.6222477"><ele>202.0</ele><time>2026-04-11T16:15:39.727Z</time></trkpt><trkpt lat="43.3682976" lon="13.6221967"><ele>202.0</ele><time>2026-04-11T16:15:41.727Z</time></trkpt><trkpt lat="43.3683598" lon="13.6223206"><ele>202.0</ele><time>2026-04-11T16:15:43.726Z</time></trkpt><trkpt lat="43.3683967" lon="13.6224597"><ele>202.0</ele><time>2026-04-11T16:15:44.727Z</time></trkpt><trkpt lat="43.368463" lon="13.6226192"><ele>202.0</ele><time>2026-04-11T16:15:45.726Z</time></trkpt><trkpt lat="43.3685397" lon="13.6228005"><ele>202.0</ele><time>2026-04-11T16:15:46.727Z</time></trkpt><trkpt lat="43.3686343" lon="13.6230188"><ele>202.0</ele><time>2026-04-11T16:15:47.726Z</time></trkpt><trkpt lat="43.3687203" lon="13.6232501"><ele>200.66666666666666</ele><time>2026-04-11T16:15:48.727Z</time></trkpt><trkpt lat="43.3688101" lon="13.6234547"><ele>199.33333333333331</ele><time>2026-04-11T16:15:49.727Z</time></trkpt><trkpt lat="43.368885" lon="13.6236304"><ele>198.0</ele><time>2026-04-11T16:15:50.727Z</time></trkpt><trkpt lat="43.3689569" lon="13.6237869"><ele>196.25</ele><time>2026-04-11T16:15:51.726Z</time></trkpt><trkpt lat="43.3690161" lon="13.6239391"><ele>194.5</ele><time>2026-04-11T16:15:52.727Z</time></trkpt><trkpt lat="43.3690755" lon="13.6240843"><ele>192.75</ele><time>2026-04-11T16:15:53.726Z</time></trkpt><trkpt lat="43.3691337" lon="13.6242211"><ele>191.0</ele><time>2026-04-11T16:15:54.727Z</time></trkpt><trkpt lat="43.3691838" lon="13.6243478"><ele>191.0</ele><time>2026-04-11T16:15:55.726Z</time></trkpt><trkpt lat="43.3692309" lon="13.6244733"><ele>191.0</ele><time>2026-04-11T16:15:56.726Z</time></trkpt><trkpt lat="43.3692769" lon="13.6245912"><ele>191.0</ele><time>2026-04-11T16:15:57.726Z</time></trkpt><trkpt lat="43.3693241" lon="13.6247028"><ele>191.0</ele><time>2026-04-11T16:15:58.726Z</time></trkpt><trkpt lat="43.3693714" lon="13.6248057"><ele>191.0</ele><time>2026-04-11T16:15:59.727Z</time></trkpt><trkpt lat="43.3694122" lon="13.6249058"><ele>190.83333333333331</ele><time>2026-04-11T16:16:00.726Z</time></trkpt><trkpt lat="43.369451" lon="13.6250021"><ele>190.66666666666666</ele><time>2026-04-11T16:16:01.726Z</time></trkpt><trkpt lat="43.3694963" lon="13.6250938"><ele>190.5</ele><time>2026-04-11T16:16:02.727Z</time></trkpt><trkpt lat="43.3695501" lon="13.6251902"><ele>190.33333333333334</ele><time>2026-04-11T16:16:03.726Z</time></trkpt><trkpt lat="43.3696077" lon="13.6252868"><ele>190.16666666666669</ele><time>2026-04-11T16:16:04.727Z</time></trkpt><trkpt lat="43.3696645" lon="13.625372"><ele>190.0</ele><time>2026-04-11T16:16:05.727Z</time></trkpt><trkpt lat="43.3697224" lon="13.625451"><ele>190.4</ele><time>2026-04-11T16:16:06.726Z</time></trkpt><trkpt lat="43.3697782" lon="13.6255217"><ele>190.8</ele><time>2026-04-11T16:16:07.726Z</time></trkpt><trkpt lat="43.3698842" lon="13.6255396"><ele>191.2</ele><time>2026-04-11T16:16:09.727Z</time></trkpt><trkpt lat="43.3699198" lon="13.6254281"><ele>191.6</ele><time>2026-04-11T16:16:11.726Z</time></trkpt><trkpt lat="43.3699202" lon="13.6252491"><ele>192.0</ele><time>2026-04-11T16:16:13.727Z</time></trkpt><trkpt lat="43.3699171" lon="13.6251262"><ele>190.39999999999998</ele><time>2026-04-11T16:16:14.726Z</time></trkpt><trkpt lat="43.3699089" lon="13.6249898"><ele>188.79999999999998</ele><time>2026-04-11T16:16:15.727Z</time></trkpt><trkpt lat="43.3698998" lon="13.6248515"><ele>187.2</ele><time>2026-04-11T16:16:16.727Z</time></trkpt><trkpt lat="43.369891" lon="13.6247148"><ele>185.6</ele><time>2026-04-11T16:16:17.727Z</time></trkpt><trkpt lat="43.3698799" lon="13.6245784"><ele>184.0</ele><time>2026-04-11T16:16:18.727Z</time></trkpt><trkpt lat="43.3698697" lon="13.624433"><ele>182.75</ele><time>2026-04-11T16:16:19.727Z</time></trkpt><trkpt lat="43.3698569" lon="13.6242808"><ele>181.5</ele><time>2026-04-11T16:16:20.727Z</time></trkpt><trkpt lat="43.3698444" lon="13.6241233"><ele>180.25</ele><time>2026-04-11T16:16:21.726Z</time></trkpt><trkpt lat="43.3698354" lon="13.6239682"><ele>179.0</ele><time>2026-04-11T16:16:22.726Z</time></trkpt><trkpt lat="43.3698278" lon="13.6238171"><ele>179.0</ele><time>2026-04-11T16:16:23.726Z</time></trkpt><trkpt lat="43.3698193" lon="13.6236665"><ele>179.0</ele><time>2026-04-11T16:16:24.727Z</time></trkpt><trkpt lat="43.3698139" lon="13.6235128"><ele>179.0</ele><time>2026-04-11T16:16:25.726Z</time></trkpt><trkpt lat="43.3698022" lon="13.6233559"><ele>179.0</ele><time>2026-04-11T16:16:26.727Z</time></trkpt><trkpt lat="43.3697936" lon="13.6231911"><ele>177.5</ele><time>2026-04-11T16:16:27.726Z</time></trkpt><trkpt lat="43.3697813" lon="13.6230258"><ele>176.0</ele><time>2026-04-11T16:16:28.727Z</time></trkpt><trkpt lat="43.3697695" lon="13.6228577"><ele>174.5</ele><time>2026-04-11T16:16:29.726Z</time></trkpt><trkpt lat="43.369758" lon="13.6226924"><ele>173.0</ele><time>2026-04-11T16:16:30.726Z</time></trkpt><trkpt lat="43.3697453" lon="13.6225281"><ele>171.25</ele><time>2026-04-11T16:16:31.727Z</time></trkpt><trkpt lat="43.3697176" lon="13.6223677"><ele>169.5</ele><time>2026-04-11T16:16:32.726Z</time></trkpt><trkpt lat="43.3696823" lon="13.6222102"><ele>167.75</ele><time>2026-04-11T16:16:33.726Z</time></trkpt><trkpt lat="43.3696395" lon="13.6220539"><ele>166.0</ele><time>2026-04-11T16:16:34.727Z</time></trkpt><trkpt lat="43.3695875" lon="13.6218983"><ele>170.25</ele><time>2026-04-11T16:16:35.727Z</time></trkpt><trkpt lat="43.3695419" lon="13.6217436"><ele>174.5</ele><time>2026-04-11T16:16:36.726Z</time></trkpt><trkpt lat="43.3695125" lon="13.6215897"><ele>178.75</ele><time>2026-04-11T16:16:37.727Z</time></trkpt><trkpt lat="43.3694827" lon="13.6214365"><ele>183.0</ele><time>2026-04-11T16:16:38.727Z</time></trkpt><trkpt lat="43.3694819" lon="13.621289"><ele>182.2</ele><time>2026-04-11T16:16:39.726Z</time></trkpt><trkpt lat="43.3694806" lon="13.6211388"><ele>181.4</ele><time>2026-04-11T16:16:40.727Z</time></trkpt><trkpt lat="43.369492" lon="13.6209958"><ele>180.6</ele><time>2026-04-11T16:16:41.727Z</time></trkpt><trkpt lat="43.369513" lon="13.6208539"><ele>179.79999999999998</ele><time>2026-04-11T16:16:42.727Z</time></trkpt><trkpt lat="43.3695351" lon="13.6207119"><ele>179.0</ele><time>2026-04-11T16:16:43.726Z</time></trkpt><trkpt lat="43.3695592" lon="13.6205606"><ele>179.0</ele><time>2026-04-11T16:16:44.726Z</time></trkpt><trkpt lat="43.3695832" lon="13.6204027"><ele>179.0</ele><time>2026-04-11T16:16:45.726Z</time></trkpt><trkpt lat="43.3696027" lon="13.6202434"><ele>179.0</ele><time>2026-04-11T16:16:46.726Z</time></trkpt><trkpt lat="43.3696305" lon="13.620078"><ele>179.0</ele><time>2026-04-11T16:16:47.726Z</time></trkpt><trkpt lat="43.3696614" lon="13.6199284"><ele>178.83333333333331</ele><time>2026-04-11T16:16:48.727Z</time></trkpt><trkpt lat="43.3696839" lon="13.6197903"><ele>178.66666666666666</ele><time>2026-04-11T16:16:49.727Z</time></trkpt><trkpt lat="43.3697008" lon="13.6196781"><ele>178.5</ele><time>2026-04-11T16:16:50.727Z</time></trkpt><trkpt lat="43.3697401" lon="13.6195432"><ele>178.33333333333334</ele><time>2026-04-11T16:16:52.727Z</time></trkpt><trkpt lat="43.3697992" lon="13.6194703"><ele>178.16666666666669</ele><time>2026-04-11T16:16:54.727Z</time></trkpt><trkpt lat="43.3698" lon="13.6193689"><ele>178.0</ele><time>2026-04-11T16:16:57.726Z</time></trkpt><trkpt lat="43.3697206" lon="13.6194403"><ele>178.0</ele><time>2026-04-11T16:17:01.727Z</time></trkpt><trkpt lat="43.3696813" lon="13.6195789"><ele>178.0</ele><time>2026-04-11T16:17:03.727Z</time></trkpt><trkpt lat="43.3696672" lon="13.6196898"><ele>178.0</ele><time>2026-04-11T16:17:05.727Z</time></trkpt><trkpt lat="43.3696461" lon="13.6198174"><ele>178.0</ele><time>2026-04-11T16:17:07.727Z</time></trkpt><trkpt lat="43.3696256" lon="13.6199185"><ele>178.0</ele><time>2026-04-11T16:17:08.727Z</time></trkpt><trkpt lat="43.3696104" lon="13.620018"><ele>178.0</ele><time>2026-04-11T16:17:09.727Z</time></trkpt><trkpt lat="43.3695903" lon="13.6201301"><ele>178.0</ele><time>2026-04-11T16:17:10.727Z</time></trkpt><trkpt lat="43.3695692" lon="13.6202533"><ele>178.0</ele><time>2026-04-11T16:17:11.727Z</time></trkpt><trkpt lat="43.3695483" lon="13.6203951"><ele>178.0</ele><time>2026-04-11T16:17:12.727Z</time></trkpt><trkpt lat="43.3695278" lon="13.6205336"><ele>178.0</ele><time>2026-04-11T16:17:13.726Z</time></trkpt><trkpt lat="43.3695044" lon="13.6206923"><ele>178.0</ele><time>2026-04-11T16:17:14.726Z</time></trkpt><trkpt lat="43.3694766" lon="13.6208676"><ele>178.2</ele><time>2026-04-11T16:17:15.727Z</time></trkpt><trkpt lat="43.3694562" lon="13.6210284"><ele>178.4</ele><time>2026-04-11T16:17:16.726Z</time></trkpt><trkpt lat="43.3694477" lon="13.621181"><ele>178.6</ele><time>2026-04-11T16:17:17.726Z</time></trkpt><trkpt lat="43.3694515" lon="13.6213343"><ele>178.79999999999998</ele><time>2026-04-11T16:17:18.726Z</time></trkpt><trkpt lat="43.3694622" lon="13.6214579"><ele>179.0</ele><time>2026-04-11T16:17:19.727Z</time></trkpt><trkpt lat="43.3694694" lon="13.6215592"><ele>179.79999999999998</ele><time>2026-04-11T16:17:20.726Z</time></trkpt><trkpt lat="43.3695484" lon="13.6216743"><ele>180.6</ele><time>2026-04-11T16:17:22.727Z</time></trkpt><trkpt lat="43.3696098" lon="13.6217871"><ele>181.4</ele><time>2026-04-11T16:17:24.727Z</time></trkpt><trkpt lat="43.3697304" lon="13.6218491"><ele>182.2</ele><time>2026-04-11T16:17:26.727Z</time></trkpt><trkpt lat="43.3698087" lon="13.6218447"><ele>183.0</ele><time>2026-04-11T16:17:27.726Z</time></trkpt><trkpt lat="43.3698936" lon="13.6218389"><ele>178.20000000000002</ele><time>2026-04-11T16:17:28.727Z</time></trkpt><trkpt lat="43.369996" lon="13.6218273"><ele>173.4</ele><time>2026-04-11T16:17:29.726Z</time></trkpt><trkpt lat="43.370099" lon="13.6218111"><ele>168.60000000000002</ele><time>2026-04-11T16:17:30.727Z</time></trkpt><trkpt lat="43.3702113" lon="13.6217927"><ele>163.8</ele><time>2026-04-11T16:17:31.727Z</time></trkpt><trkpt lat="43.370322" lon="13.6217758"><ele>159.0</ele><time>2026-04-11T16:17:32.727Z</time></trkpt><trkpt lat="43.3704358" lon="13.6217581"><ele>154.25</ele><time>2026-04-11T16:17:33.727Z</time></trkpt><trkpt lat="43.370545" lon="13.6217365"><ele>149.5</ele><time>2026-04-11T16:17:34.726Z</time></trkpt><trkpt lat="43.3706533" lon="13.6217233"><ele>144.75</ele><time>2026-04-11T16:17:35.726Z</time></trkpt><trkpt lat="43.3707797" lon="13.6217003"><ele>140.0</ele><time>2026-04-11T16:17:36.727Z</time></trkpt><trkpt lat="43.3708924" lon="13.621687"><ele>140.0</ele><time>2026-04-11T16:17:37.727Z</time></trkpt><trkpt lat="43.3710003" lon="13.6216602"><ele>140.0</ele><time>2026-04-11T16:17:38.726Z</time></trkpt><trkpt lat="43.3711142" lon="13.6216428"><ele>140.0</ele><time>2026-04-11T16:17:39.727Z</time></trkpt><trkpt lat="43.3712274" lon="13.6216252"><ele>140.0</ele><time>2026-04-11T16:17:40.727Z</time></trkpt><trkpt lat="43.371342" lon="13.6216222"><ele>135.5</ele><time>2026-04-11T16:17:41.727Z</time></trkpt><trkpt lat="43.3714511" lon="13.6215814"><ele>131.0</ele><time>2026-04-11T16:17:42.727Z</time></trkpt><trkpt lat="43.3715736" lon="13.6215457"><ele>126.5</ele><time>2026-04-11T16:17:43.727Z</time></trkpt><trkpt lat="43.3716921" lon="13.6215383"><ele>122.0</ele><time>2026-04-11T16:17:44.727Z</time></trkpt><trkpt lat="43.371786" lon="13.621526"><ele>122.0</ele><time>2026-04-11T16:17:45.726Z</time></trkpt><trkpt lat="43.371961" lon="13.6215114"><ele>122.0</ele><time>2026-04-11T16:17:46.727Z</time></trkpt><trkpt lat="43.3721093" lon="13.6214722"><ele>122.0</ele><time>2026-04-11T16:17:47.726Z</time></trkpt><trkpt lat="43.3722602" lon="13.6214635"><ele>115.0</ele><time>2026-04-11T16:17:48.726Z</time></trkpt><trkpt lat="43.3723928" lon="13.6214333"><ele>108.0</ele><time>2026-04-11T16:17:49.727Z</time></trkpt><trkpt lat="43.3725596" lon="13.6213994"><ele>101.0</ele><time>2026-04-11T16:17:50.726Z</time></trkpt><trkpt lat="43.3727059" lon="13.6213821"><ele>101.0</ele><time>2026-04-11T16:17:51.727Z</time></trkpt><trkpt lat="43.3728202" lon="13.6213562"><ele>101.0</ele><time>2026-04-11T16:17:52.726Z</time></trkpt><trkpt lat="43.3729386" lon="13.6213402"><ele>101.0</ele><time>2026-04-11T16:17:53.726Z</time></trkpt><trkpt lat="43.3730597" lon="13.6213041"><ele>101.0</ele><time>2026-04-11T16:17:54.726Z</time></trkpt><trkpt lat="43.3731595" lon="13.6212405"><ele>97.75</ele><time>2026-04-11T16:17:55.726Z</time></trkpt><trkpt lat="43.37327" lon="13.6211567"><ele>94.5</ele><time>2026-04-11T16:17:56.726Z</time></trkpt><trkpt lat="43.3733741" lon="13.6210613"><ele>91.25</ele><time>2026-04-11T16:17:57.727Z</time></trkpt><trkpt lat="43.373497" lon="13.6209918"><ele>88.0</ele><time>2026-04-11T16:17:58.727Z</time></trkpt><trkpt lat="43.3736104" lon="13.6209351"><ele>88.0</ele><time>2026-04-11T16:17:59.727Z</time></trkpt><trkpt lat="43.3737163" lon="13.6208805"><ele>88.0</ele><time>2026-04-11T16:18:00.727Z</time></trkpt><trkpt lat="43.3738147" lon="13.6208579"><ele>88.0</ele><time>2026-04-11T16:18:01.726Z</time></trkpt><trkpt lat="43.3738875" lon="13.6208274"><ele>88.0</ele><time>2026-04-11T16:18:02.726Z</time></trkpt><trkpt lat="43.3739718" lon="13.6207786"><ele>88.0</ele><time>2026-04-11T16:18:03.726Z</time></trkpt><trkpt lat="43.3740457" lon="13.6207207"><ele>85.60000000000001</ele><time>2026-04-11T16:18:04.727Z</time></trkpt><trkpt lat="43.3741323" lon="13.6206567"><ele>83.2</ele><time>2026-04-11T16:18:05.727Z</time></trkpt><trkpt lat="43.3742234" lon="13.6205501"><ele>80.8</ele><time>2026-04-11T16:18:06.727Z</time></trkpt><trkpt lat="43.374315" lon="13.6204792"><ele>78.4</ele><time>2026-04-11T16:18:07.726Z</time></trkpt><trkpt lat="43.3743958" lon="13.6204134"><ele>76.0</ele><time>2026-04-11T16:18:08.727Z</time></trkpt><trkpt lat="43.3744924" lon="13.620357"><ele>75.0</ele><time>2026-04-11T16:18:09.726Z</time></trkpt><trkpt lat="43.374592" lon="13.6203059"><ele>74.0</ele><time>2026-04-11T16:18:10.727Z</time></trkpt><trkpt lat="43.3747068" lon="13.6202375"><ele>73.0</ele><time>2026-04-11T16:18:11.727Z</time></trkpt><trkpt lat="43.3748497" lon="13.6201528"><ele>72.0</ele><time>2026-04-11T16:18:12.727Z</time></trkpt><trkpt lat="43.3750033" lon="13.6200535"><ele>68.0</ele><time>2026-04-11T16:18:13.727Z</time></trkpt><trkpt lat="43.3751452" lon="13.6199494"><ele>64.0</ele><time>2026-04-11T16:18:14.726Z</time></trkpt><trkpt lat="43.3752865" lon="13.6198473"><ele>60.0</ele><time>2026-04-11T16:18:15.726Z</time></trkpt><trkpt lat="43.3754279" lon="13.6197572"><ele>56.33333333333333</ele><time>2026-04-11T16:18:16.727Z</time></trkpt><trkpt lat="43.3755673" lon="13.6196746"><ele>52.666666666666664</ele><time>2026-04-11T16:18:17.727Z</time></trkpt><trkpt lat="43.3757055" lon="13.6196032"><ele>49.0</ele><time>2026-04-11T16:18:18.727Z</time></trkpt><trkpt lat="43.3758454" lon="13.6195257"><ele>49.33333333333333</ele><time>2026-04-11T16:18:19.726Z</time></trkpt><trkpt lat="43.3759841" lon="13.6194387"><ele>49.66666666666667</ele><time>2026-04-11T16:18:20.726Z</time></trkpt><trkpt lat="43.3761238" lon="13.6193381"><ele>50.0</ele><time>2026-04-11T16:18:21.726Z</time></trkpt><trkpt lat="43.3762569" lon="13.619237"><ele>47.0</ele><time>2026-04-11T16:18:22.727Z</time></trkpt><trkpt lat="43.3763817" lon="13.6191404"><ele>44.0</ele><time>2026-04-11T16:18:23.727Z</time></trkpt><trkpt lat="43.3764995" lon="13.6190431"><ele>41.0</ele><time>2026-04-11T16:18:24.727Z</time></trkpt><trkpt lat="43.3766192" lon="13.61895"><ele>38.0</ele><time>2026-04-11T16:18:25.727Z</time></trkpt><trkpt lat="43.3767499" lon="13.6188601"><ele>38.0</ele><time>2026-04-11T16:18:26.727Z</time></trkpt><trkpt lat="43.3768851" lon="13.6187876"><ele>38.0</ele><time>2026-04-11T16:18:27.727Z</time></trkpt><trkpt lat="43.3770272" lon="13.6187326"><ele>38.0</ele><time>2026-04-11T16:18:28.726Z</time></trkpt><trkpt lat="43.3771774" lon="13.6186773"><ele>38.0</ele><time>2026-04-11T16:18:29.726Z</time></trkpt><trkpt lat="43.3773355" lon="13.6186211"><ele>34.666666666666664</ele><time>2026-04-11T16:18:30.726Z</time></trkpt><trkpt lat="43.3774928" lon="13.6185623"><ele>31.333333333333336</ele><time>2026-04-11T16:18:31.726Z</time></trkpt><trkpt lat="43.3776482" lon="13.6185039"><ele>28.0</ele><time>2026-04-11T16:18:32.726Z</time></trkpt><trkpt lat="43.3778025" lon="13.6184435"><ele>28.0</ele><time>2026-04-11T16:18:33.727Z</time></trkpt><trkpt lat="43.3779528" lon="13.6183868"><ele>28.0</ele><time>2026-04-11T16:18:34.726Z</time></trkpt><trkpt lat="43.3780907" lon="13.618333"><ele>28.0</ele><time>2026-04-11T16:18:35.727Z</time></trkpt><trkpt lat="43.378211" lon="13.6182826"><ele>28.0</ele><time>2026-04-11T16:18:36.726Z</time></trkpt><trkpt lat="43.3783131" lon="13.6182382"><ele>26.799999999999997</ele><time>2026-04-11T16:18:37.727Z</time></trkpt><trkpt lat="43.3783962" lon="13.618225"><ele>25.599999999999998</ele><time>2026-04-11T16:18:38.727Z</time></trkpt><trkpt lat="43.3784653" lon="13.61826"><ele>24.4</ele><time>2026-04-11T16:18:39.726Z</time></trkpt><trkpt lat="43.3785093" lon="13.618346"><ele>23.200000000000003</ele><time>2026-04-11T16:18:40.727Z</time></trkpt><trkpt lat="43.3785436" lon="13.6184873"><ele>22.0</ele><time>2026-04-11T16:18:41.726Z</time></trkpt><trkpt lat="43.3785776" lon="13.6186488"><ele>22.75</ele><time>2026-04-11T16:18:42.727Z</time></trkpt><trkpt lat="43.378606" lon="13.6188502"><ele>23.5</ele><time>2026-04-11T16:18:43.726Z</time></trkpt><trkpt lat="43.3786336" lon="13.61901"><ele>24.25</ele><time>2026-04-11T16:18:44.726Z</time></trkpt><trkpt lat="43.378663" lon="13.6191524"><ele>25.0</ele><time>2026-04-11T16:18:45.727Z</time></trkpt><trkpt lat="43.3786872" lon="13.6192726"><ele>25.000000000000004</ele><time>2026-04-11T16:18:46.726Z</time></trkpt><trkpt lat="43.3787249" lon="13.6193604"><ele>25.0</ele><time>2026-04-11T16:18:47.727Z</time></trkpt><trkpt lat="43.3787791" lon="13.6194112"><ele>25.0</ele><time>2026-04-11T16:18:48.726Z</time></trkpt><trkpt lat="43.3788452" lon="13.6194256"><ele>25.0</ele><time>2026-04-11T16:18:49.726Z</time></trkpt><trkpt lat="43.3789377" lon="13.6194169"><ele>25.000000000000004</ele><time>2026-04-11T16:18:50.727Z</time></trkpt><trkpt lat="43.3790632" lon="13.6193848"><ele>25.0</ele><time>2026-04-11T16:18:51.727Z</time></trkpt><trkpt lat="43.3792019" lon="13.6193321"><ele>23.333333333333336</ele><time>2026-04-11T16:18:52.727Z</time></trkpt><trkpt lat="43.3793541" lon="13.6192478"><ele>21.666666666666668</ele><time>2026-04-11T16:18:53.727Z</time></trkpt><trkpt lat="43.3795352" lon="13.6191289"><ele>20.0</ele><time>2026-04-11T16:18:54.726Z</time></trkpt><trkpt lat="43.3797366" lon="13.6189834"><ele>20.0</ele><time>2026-04-11T16:18:55.727Z</time></trkpt><trkpt lat="43.3799439" lon="13.6188069"><ele>20.0</ele><time>2026-04-11T16:18:56.727Z</time></trkpt><trkpt lat="43.3801525" lon="13.6186243"><ele>20.0</ele><time>2026-04-11T16:18:57.727Z</time></trkpt><trkpt lat="43.3803529" lon="13.6184408"><ele>20.0</ele><time>2026-04-11T16:18:58.727Z</time></trkpt><trkpt lat="43.3805342" lon="13.6182695"><ele>19.666666666666668</ele><time>2026-04-11T16:18:59.727Z</time></trkpt><trkpt lat="43.3807008" lon="13.6181139"><ele>19.333333333333332</ele><time>2026-04-11T16:19:00.726Z</time></trkpt><trkpt lat="43.3808552" lon="13.6179848"><ele>19.0</ele><time>2026-04-11T16:19:01.727Z</time></trkpt><trkpt lat="43.380998" lon="13.6179007"><ele>19.0</ele><time>2026-04-11T16:19:02.726Z</time></trkpt><trkpt lat="43.3811559" lon="13.6178231"><ele>19.0</ele><time>2026-04-11T16:19:03.726Z</time></trkpt><trkpt lat="43.3813639" lon="13.6177655"><ele>19.0</ele><time>2026-04-11T16:19:04.727Z</time></trkpt><trkpt lat="43.3815648" lon="13.6176873"><ele>18.666666666666664</ele><time>2026-04-11T16:19:05.726Z</time></trkpt><trkpt lat="43.3817784" lon="13.6176045"><ele>18.333333333333332</ele><time>2026-04-11T16:19:06.727Z</time></trkpt><trkpt lat="43.3819951" lon="13.6175241"><ele>18.0</ele><time>2026-04-11T16:19:07.727Z</time></trkpt><trkpt lat="43.3822103" lon="13.6174442"><ele>18.0</ele><time>2026-04-11T16:19:08.726Z</time></trkpt><trkpt lat="43.3824082" lon="13.617373"><ele>18.0</ele><time>2026-04-11T16:19:09.727Z</time></trkpt><trkpt lat="43.3825943" lon="13.6173109"><ele>18.0</ele><time>2026-04-11T16:19:10.726Z</time></trkpt><trkpt lat="43.3827658" lon="13.6172542"><ele>18.0</ele><time>2026-04-11T16:19:11.727Z</time></trkpt><trkpt lat="43.3829216" lon="13.6171991"><ele>18.0</ele><time>2026-04-11T16:19:12.726Z</time></trkpt><trkpt lat="43.3830633" lon="13.617148"><ele>18.0</ele><time>2026-04-11T16:19:13.726Z</time></trkpt><trkpt lat="43.3831956" lon="13.6171008"><ele>18.0</ele><time>2026-04-11T16:19:14.727Z</time></trkpt><trkpt lat="43.3833107" lon="13.6170636"><ele>18.0</ele><time>2026-04-11T16:19:15.726Z</time></trkpt><trkpt lat="43.38341" lon="13.6170343"><ele>18.0</ele><time>2026-04-11T16:19:16.727Z</time></trkpt><trkpt lat="43.3834905" lon="13.6170116"><ele>18.0</ele><time>2026-04-11T16:19:17.727Z</time></trkpt><trkpt lat="43.3835732" lon="13.6169819"><ele>18.0</ele><time>2026-04-11T16:19:19.727Z</time></trkpt><trkpt lat="43.3836151" lon="13.6168704"><ele>18.0</ele><time>2026-04-11T16:19:22.726Z</time></trkpt><trkpt lat="43.3835477" lon="13.6167006"><ele>18.0</ele><time>2026-04-11T16:19:24.726Z</time></trkpt><trkpt lat="43.3834928" lon="13.6165734"><ele>18.0</ele><time>2026-04-11T16:19:25.727Z</time></trkpt><trkpt lat="43.3834333" lon="13.6164266"><ele>18.0</ele><time>2026-04-11T16:19:26.727Z</time></trkpt><trkpt lat="43.3833643" lon="13.6162556"><ele>18.0</ele><time>2026-04-11T16:19:27.727Z</time></trkpt><trkpt lat="43.3832897" lon="13.6160739"><ele>18.333333333333332</ele><time>2026-04-11T16:19:28.726Z</time></trkpt><trkpt lat="43.3832087" lon="13.6158751"><ele>18.666666666666664</ele><time>2026-04-11T16:19:29.726Z</time></trkpt><trkpt lat="43.3831153" lon="13.6156443"><ele>19.0</ele><time>2026-04-11T16:19:30.726Z</time></trkpt><trkpt lat="43.3830124" lon="13.6153906"><ele>19.0</ele><time>2026-04-11T16:19:31.726Z</time></trkpt><trkpt lat="43.3829101" lon="13.6151371"><ele>19.0</ele><time>2026-04-11T16:19:32.727Z</time></trkpt><trkpt lat="43.3828072" lon="13.614884"><ele>19.0</ele><time>2026-04-11T16:19:33.727Z</time></trkpt><trkpt lat="43.3827013" lon="13.6146309"><ele>19.666666666666664</ele><time>2026-04-11T16:19:34.727Z</time></trkpt><trkpt lat="43.3825966" lon="13.6143807"><ele>20.333333333333332</ele><time>2026-04-11T16:19:35.727Z</time></trkpt><trkpt lat="43.382499" lon="13.614141"><ele>21.0</ele><time>2026-04-11T16:19:36.726Z</time></trkpt><trkpt lat="43.3824069" lon="13.613915"><ele>21.0</ele><time>2026-04-11T16:19:37.726Z</time></trkpt><trkpt lat="43.382318" lon="13.6136959"><ele>21.0</ele><time>2026-04-11T16:19:38.727Z</time></trkpt><trkpt lat="43.3822277" lon="13.6134787"><ele>21.0</ele><time>2026-04-11T16:19:39.727Z</time></trkpt><trkpt lat="43.382139" lon="13.6132607"><ele>21.0</ele><time>2026-04-11T16:19:40.727Z</time></trkpt><trkpt lat="43.3820497" lon="13.6130433"><ele>21.0</ele><time>2026-04-11T16:19:41.727Z</time></trkpt><trkpt lat="43.3819579" lon="13.6128263"><ele>21.0</ele><time>2026-04-11T16:19:42.726Z</time></trkpt><trkpt lat="43.381867" lon="13.6126065"><ele>21.0</ele><time>2026-04-11T16:19:43.727Z</time></trkpt><trkpt lat="43.3817758" lon="13.6123878"><ele>21.0</ele><time>2026-04-11T16:19:44.727Z</time></trkpt><trkpt lat="43.3816881" lon="13.6121751"><ele>21.0</ele><time>2026-04-11T16:19:45.727Z</time></trkpt><trkpt lat="43.3816028" lon="13.6119728"><ele>21.0</ele><time>2026-04-11T16:19:46.726Z</time></trkpt><trkpt lat="43.3815222" lon="13.6117806"><ele>21.0</ele><time>2026-04-11T16:19:47.727Z</time></trkpt><trkpt lat="43.3814459" lon="13.6115957"><ele>21.0</ele><time>2026-04-11T16:19:48.726Z</time></trkpt><trkpt lat="43.381373" lon="13.6114172"><ele>21.0</ele><time>2026-04-11T16:19:49.727Z</time></trkpt><trkpt lat="43.3813041" lon="13.6112458"><ele>21.0</ele><time>2026-04-11T16:19:50.726Z</time></trkpt><trkpt lat="43.3812367" lon="13.6110789"><ele>21.0</ele><time>2026-04-11T16:19:51.727Z</time></trkpt><trkpt lat="43.3811665" lon="13.6109131"><ele>21.0</ele><time>2026-04-11T16:19:52.727Z</time></trkpt><trkpt lat="43.381099" lon="13.6107473"><ele>21.0</ele><time>2026-04-11T16:19:53.727Z</time></trkpt><trkpt lat="43.3810342" lon="13.6105884"><ele>21.0</ele><time>2026-04-11T16:19:54.726Z</time></trkpt><trkpt lat="43.380973" lon="13.6104353"><ele>21.0</ele><time>2026-04-11T16:19:55.727Z</time></trkpt><trkpt lat="43.3809139" lon="13.6102911"><ele>21.0</ele><time>2026-04-11T16:19:56.726Z</time></trkpt><trkpt lat="43.3808533" lon="13.6101582"><ele>21.166666666666668</ele><time>2026-04-11T16:19:57.727Z</time></trkpt><trkpt lat="43.3807993" lon="13.6100391"><ele>21.333333333333332</ele><time>2026-04-11T16:19:58.726Z</time></trkpt><trkpt lat="43.3807549" lon="13.6099354"><ele>21.5</ele><time>2026-04-11T16:19:59.726Z</time></trkpt><trkpt lat="43.380717" lon="13.609841"><ele>21.666666666666664</ele><time>2026-04-11T16:20:00.726Z</time></trkpt><trkpt lat="43.3806811" lon="13.6097475"><ele>21.833333333333332</ele><time>2026-04-11T16:20:01.726Z</time></trkpt><trkpt lat="43.3806502" lon="13.6096539"><ele>22.0</ele><time>2026-04-11T16:20:02.727Z</time></trkpt><trkpt lat="43.3806215" lon="13.609574"><ele>22.0</ele><time>2026-04-11T16:20:03.726Z</time></trkpt><trkpt lat="43.380569" lon="13.6094548"><ele>22.0</ele><time>2026-04-11T16:20:05.727Z</time></trkpt><trkpt lat="43.3805279" lon="13.609385"><ele>22.0</ele><time>2026-04-11T16:20:07.726Z</time></trkpt><trkpt lat="43.3804692" lon="13.6092831"><ele>22.0</ele><time>2026-04-11T16:20:09.726Z</time></trkpt><trkpt lat="43.3804364" lon="13.6091971"><ele>22.0</ele><time>2026-04-11T16:20:10.727Z</time></trkpt><trkpt lat="43.3804007" lon="13.609109"><ele>22.0</ele><time>2026-04-11T16:20:11.727Z</time></trkpt><trkpt lat="43.380363" lon="13.6090195"><ele>22.0</ele><time>2026-04-11T16:20:12.726Z</time></trkpt><trkpt lat="43.3803273" lon="13.6089434"><ele>22.0</ele><time>2026-04-11T16:20:13.727Z</time></trkpt><trkpt lat="43.3802755" lon="13.6088257"><ele>22.0</ele><time>2026-04-11T16:20:15.727Z</time></trkpt><trkpt lat="43.3802821" lon="13.6087079"><ele>22.0</ele><time>2026-04-11T16:20:19.726Z</time></trkpt><trkpt lat="43.3802362" lon="13.6085739"><ele>22.0</ele><time>2026-04-11T16:20:21.727Z</time></trkpt><trkpt lat="43.3802072" lon="13.6084486"><ele>22.200000000000003</ele><time>2026-04-11T16:20:23.726Z</time></trkpt><trkpt lat="43.3802456" lon="13.6083326"><ele>22.4</ele><time>2026-04-11T16:20:25.726Z</time></trkpt><trkpt lat="43.3803022" lon="13.6082828"><ele>22.6</ele><time>2026-04-11T16:20:26.726Z</time></trkpt><trkpt lat="43.380392" lon="13.6082317"><ele>22.799999999999997</ele><time>2026-04-11T16:20:27.727Z</time></trkpt><trkpt lat="43.3805015" lon="13.6081975"><ele>23.0</ele><time>2026-04-11T16:20:28.727Z</time></trkpt><trkpt lat="43.3806957" lon="13.6081278"><ele>23.0</ele><time>2026-04-11T16:20:29.726Z</time></trkpt><trkpt lat="43.3808991" lon="13.608069"><ele>23.0</ele><time>2026-04-11T16:20:30.727Z</time></trkpt><trkpt lat="43.3811366" lon="13.6079844"><ele>23.0</ele><time>2026-04-11T16:20:31.727Z</time></trkpt><trkpt lat="43.381397" lon="13.6078924"><ele>23.0</ele><time>2026-04-11T16:20:32.726Z</time></trkpt><trkpt lat="43.3816785" lon="13.6077958"><ele>23.0</ele><time>2026-04-11T16:20:33.727Z</time></trkpt><trkpt lat="43.3819668" lon="13.6076966"><ele>23.0</ele><time>2026-04-11T16:20:34.727Z</time></trkpt><trkpt lat="43.3822557" lon="13.6075951"><ele>23.0</ele><time>2026-04-11T16:20:35.726Z</time></trkpt><trkpt lat="43.382534" lon="13.6074956"><ele>23.0</ele><time>2026-04-11T16:20:36.727Z</time></trkpt><trkpt lat="43.382801" lon="13.6073984"><ele>23.5</ele><time>2026-04-11T16:20:37.727Z</time></trkpt><trkpt lat="43.3830599" lon="13.6073024"><ele>24.0</ele><time>2026-04-11T16:20:38.727Z</time></trkpt><trkpt lat="43.3833018" lon="13.6072127"><ele>24.0</ele><time>2026-04-11T16:20:39.727Z</time></trkpt><trkpt lat="43.3835326" lon="13.60713"><ele>24.0</ele><time>2026-04-11T16:20:40.727Z</time></trkpt><trkpt lat="43.3837629" lon="13.6070479"><ele>23.333333333333332</ele><time>2026-04-11T16:20:41.727Z</time></trkpt><trkpt lat="43.3839885" lon="13.6069731"><ele>22.666666666666664</ele><time>2026-04-11T16:20:42.727Z</time></trkpt><trkpt lat="43.3841926" lon="13.6069097"><ele>22.0</ele><time>2026-04-11T16:20:43.726Z</time></trkpt><trkpt lat="43.3843971" lon="13.6068424"><ele>22.0</ele><time>2026-04-11T16:20:44.726Z</time></trkpt><trkpt lat="43.3846149" lon="13.606771"><ele>22.0</ele><time>2026-04-11T16:20:45.726Z</time></trkpt><trkpt lat="43.3848307" lon="13.606702"><ele>22.0</ele><time>2026-04-11T16:20:46.727Z</time></trkpt><trkpt lat="43.3850409" lon="13.6066386"><ele>21.666666666666664</ele><time>2026-04-11T16:20:47.726Z</time></trkpt><trkpt lat="43.3852209" lon="13.6065968"><ele>21.333333333333332</ele><time>2026-04-11T16:20:48.726Z</time></trkpt><trkpt lat="43.3854083" lon="13.6065853"><ele>21.0</ele><time>2026-04-11T16:20:49.726Z</time></trkpt><trkpt lat="43.3856263" lon="13.6066198"><ele>20.0</ele><time>2026-04-11T16:20:50.726Z</time></trkpt><trkpt lat="43.3858601" lon="13.6067043"><ele>19.0</ele><time>2026-04-11T16:20:51.726Z</time></trkpt><trkpt lat="43.3861213" lon="13.6068093"><ele>19.0</ele><time>2026-04-11T16:20:52.727Z</time></trkpt><trkpt lat="43.3864052" lon="13.6069225"><ele>19.0</ele><time>2026-04-11T16:20:53.727Z</time></trkpt><trkpt lat="43.3866984" lon="13.6070421"><ele>19.0</ele><time>2026-04-11T16:20:54.726Z</time></trkpt><trkpt lat="43.3869764" lon="13.6071567"><ele>19.0</ele><time>2026-04-11T16:20:55.727Z</time></trkpt><trkpt lat="43.3872278" lon="13.6072671"><ele>19.0</ele><time>2026-04-11T16:20:56.727Z</time></trkpt><trkpt lat="43.3874582" lon="13.6073645"><ele>19.0</ele><time>2026-04-11T16:20:57.726Z</time></trkpt><trkpt lat="43.3876634" lon="13.6074532"><ele>19.0</ele><time>2026-04-11T16:20:58.726Z</time></trkpt><trkpt lat="43.3878652" lon="13.6075377"><ele>19.0</ele><time>2026-04-11T16:20:59.726Z</time></trkpt><trkpt lat="43.3880538" lon="13.6076103"><ele>19.0</ele><time>2026-04-11T16:21:00.726Z</time></trkpt><trkpt lat="43.3882328" lon="13.6076639"><ele>19.333333333333332</ele><time>2026-04-11T16:21:01.726Z</time></trkpt><trkpt lat="43.3884096" lon="13.607686"><ele>19.666666666666668</ele><time>2026-04-11T16:21:02.726Z</time></trkpt><trkpt lat="43.3885865" lon="13.6076573"><ele>20.0</ele><time>2026-04-11T16:21:03.727Z</time></trkpt><trkpt lat="43.3887849" lon="13.6075671"><ele>19.5</ele><time>2026-04-11T16:21:04.726Z</time></trkpt><trkpt lat="43.3890085" lon="13.6074256"><ele>19.0</ele><time>2026-04-11T16:21:05.727Z</time></trkpt><trkpt lat="43.3892543" lon="13.60726"><ele>19.0</ele><time>2026-04-11T16:21:06.727Z</time></trkpt><trkpt lat="43.3895171" lon="13.6070785"><ele>19.0</ele><time>2026-04-11T16:21:07.727Z</time></trkpt><trkpt lat="43.3897932" lon="13.6068906"><ele>20.0</ele><time>2026-04-11T16:21:08.727Z</time></trkpt><trkpt lat="43.3900522" lon="13.6067224"><ele>21.0</ele><time>2026-04-11T16:21:09.726Z</time></trkpt><trkpt lat="43.3902962" lon="13.6065602"><ele>20.0</ele><time>2026-04-11T16:21:10.727Z</time></trkpt><trkpt lat="43.3905243" lon="13.6064109"><ele>19.0</ele><time>2026-04-11T16:21:11.727Z</time></trkpt><trkpt lat="43.3907355" lon="13.606266"><ele>19.5</ele><time>2026-04-11T16:21:12.726Z</time></trkpt><trkpt lat="43.3909417" lon="13.6061288"><ele>20.0</ele><time>2026-04-11T16:21:13.727Z</time></trkpt><trkpt lat="43.3911436" lon="13.605996"><ele>20.0</ele><time>2026-04-11T16:21:14.727Z</time></trkpt><trkpt lat="43.3913474" lon="13.6058625"><ele>20.0</ele><time>2026-04-11T16:21:15.726Z</time></trkpt><trkpt lat="43.3915469" lon="13.6057317"><ele>20.0</ele><time>2026-04-11T16:21:16.726Z</time></trkpt><trkpt lat="43.3917384" lon="13.6056039"><ele>20.0</ele><time>2026-04-11T16:21:17.727Z</time></trkpt><trkpt lat="43.3919178" lon="13.6054866"><ele>20.0</ele><time>2026-04-11T16:21:18.727Z</time></trkpt><trkpt lat="43.3920878" lon="13.6053762"><ele>20.0</ele><time>2026-04-11T16:21:19.727Z</time></trkpt><trkpt lat="43.3922485" lon="13.6052717"><ele>19.666666666666668</ele><time>2026-04-11T16:21:20.726Z</time></trkpt><trkpt lat="43.3923973" lon="13.6051742"><ele>19.333333333333332</ele><time>2026-04-11T16:21:21.727Z</time></trkpt><trkpt lat="43.3925318" lon="13.6050849"><ele>19.0</ele><time>2026-04-11T16:21:22.726Z</time></trkpt><trkpt lat="43.3926547" lon="13.6050036"><ele>19.0</ele><time>2026-04-11T16:21:23.726Z</time></trkpt><trkpt lat="43.3927624" lon="13.6049295"><ele>19.0</ele><time>2026-04-11T16:21:24.727Z</time></trkpt><trkpt lat="43.3928549" lon="13.6048666"><ele>19.0</ele><time>2026-04-11T16:21:25.726Z</time></trkpt><trkpt lat="43.3929313" lon="13.6048215"><ele>19.0</ele><time>2026-04-11T16:21:26.727Z</time></trkpt><trkpt lat="43.3929911" lon="13.6047943"><ele>19.0</ele><time>2026-04-11T16:21:27.727Z</time></trkpt><trkpt lat="43.3930717" lon="13.604772"><ele>19.0</ele><time>2026-04-11T16:21:30.726Z</time></trkpt><trkpt lat="43.3931629" lon="13.6047863"><ele>19.0</ele><time>2026-04-11T16:21:32.727Z</time></trkpt><trkpt lat="43.3932172" lon="13.6048496"><ele>19.0</ele><time>2026-04-11T16:21:33.727Z</time></trkpt><trkpt lat="43.3932905" lon="13.604973"><ele>19.0</ele><time>2026-04-11T16:21:34.727Z</time></trkpt><trkpt lat="43.3933734" lon="13.6051672"><ele>19.0</ele><time>2026-04-11T16:21:35.727Z</time></trkpt><trkpt lat="43.3934676" lon="13.6054236"><ele>19.0</ele><time>2026-04-11T16:21:36.726Z</time></trkpt><trkpt lat="43.3935767" lon="13.6057131"><ele>19.0</ele><time>2026-04-11T16:21:37.726Z</time></trkpt><trkpt lat="43.3937017" lon="13.6060314"><ele>19.0</ele><time>2026-04-11T16:21:38.726Z</time></trkpt><trkpt lat="43.39382" lon="13.6063349"><ele>19.0</ele><time>2026-04-11T16:21:39.726Z</time></trkpt><trkpt lat="43.3939315" lon="13.6066137"><ele>19.0</ele><time>2026-04-11T16:21:40.727Z</time></trkpt><trkpt lat="43.3940356" lon="13.6068673"><ele>19.0</ele><time>2026-04-11T16:21:41.726Z</time></trkpt><trkpt lat="43.3941448" lon="13.607079"><ele>19.0</ele><time>2026-04-11T16:21:42.727Z</time></trkpt><trkpt lat="43.3942678" lon="13.6072556"><ele>19.0</ele><time>2026-04-11T16:21:43.727Z</time></trkpt><trkpt lat="43.3944181" lon="13.6073967"><ele>19.0</ele><time>2026-04-11T16:21:44.727Z</time></trkpt><trkpt lat="43.3946094" lon="13.6075086"><ele>19.0</ele><time>2026-04-11T16:21:45.726Z</time></trkpt><trkpt lat="43.3947863" lon="13.607589"><ele>19.666666666666664</ele><time>2026-04-11T16:21:46.726Z</time></trkpt><trkpt lat="43.3949479" lon="13.6076528"><ele>20.333333333333332</ele><time>2026-04-11T16:21:47.727Z</time></trkpt><trkpt lat="43.3951051" lon="13.6077147"><ele>21.0</ele><time>2026-04-11T16:21:48.726Z</time></trkpt><trkpt lat="43.3952673" lon="13.6077808"><ele>21.0</ele><time>2026-04-11T16:21:49.727Z</time></trkpt><trkpt lat="43.3954223" lon="13.6078445"><ele>21.0</ele><time>2026-04-11T16:21:50.726Z</time></trkpt><trkpt lat="43.3955463" lon="13.6078944"><ele>21.0</ele><time>2026-04-11T16:21:51.726Z</time></trkpt><trkpt lat="43.3956558" lon="13.6079351"><ele>21.0</ele><time>2026-04-11T16:21:52.726Z</time></trkpt><trkpt lat="43.3957555" lon="13.6079728"><ele>21.25</ele><time>2026-04-11T16:21:53.727Z</time></trkpt><trkpt lat="43.3958586" lon="13.6080085"><ele>21.5</ele><time>2026-04-11T16:21:54.727Z</time></trkpt><trkpt lat="43.3959831" lon="13.6080305"><ele>21.75</ele><time>2026-04-11T16:21:55.727Z</time></trkpt><trkpt lat="43.3961609" lon="13.6080642"><ele>22.0</ele><time>2026-04-11T16:21:56.726Z</time></trkpt><trkpt lat="43.3963748" lon="13.6081133"><ele>22.5</ele><time>2026-04-11T16:21:57.726Z</time></trkpt><trkpt lat="43.3966211" lon="13.6081714"><ele>23.0</ele><time>2026-04-11T16:21:58.726Z</time></trkpt><trkpt lat="43.3968971" lon="13.6082352"><ele>25.0</ele><time>2026-04-11T16:21:59.726Z</time></trkpt><trkpt lat="43.3971932" lon="13.6083038"><ele>27.0</ele><time>2026-04-11T16:22:00.727Z</time></trkpt><trkpt lat="43.3975047" lon="13.6083667"><ele>27.0</ele><time>2026-04-11T16:22:01.727Z</time></trkpt><trkpt lat="43.3978347" lon="13.6084397"><ele>27.0</ele><time>2026-04-11T16:22:02.726Z</time></trkpt><trkpt lat="43.3981751" lon="13.608522"><ele>27.5</ele><time>2026-04-11T16:22:03.727Z</time></trkpt><trkpt lat="43.3985205" lon="13.6086089"><ele>28.0</ele><time>2026-04-11T16:22:04.726Z</time></trkpt><trkpt lat="43.3988711" lon="13.6087003"><ele>34.5</ele><time>2026-04-11T16:22:05.727Z</time></trkpt><trkpt lat="43.3991992" lon="13.6087899"><ele>41.0</ele><time>2026-04-11T16:22:06.727Z</time></trkpt><trkpt lat="43.3994941" lon="13.608869"><ele>45.5</ele><time>2026-04-11T16:22:07.727Z</time></trkpt><trkpt lat="43.3997672" lon="13.6089463"><ele>50.0</ele><time>2026-04-11T16:22:08.727Z</time></trkpt><trkpt lat="43.4000266" lon="13.6090209"><ele>50.0</ele><time>2026-04-11T16:22:09.726Z</time></trkpt><trkpt lat="43.4002813" lon="13.6090902"><ele>50.0</ele><time>2026-04-11T16:22:10.726Z</time></trkpt><trkpt lat="43.4005217" lon="13.6091527"><ele>52.66666666666667</ele><time>2026-04-11T16:22:11.726Z</time></trkpt><trkpt lat="43.4007423" lon="13.6091998"><ele>55.33333333333333</ele><time>2026-04-11T16:22:12.727Z</time></trkpt><trkpt lat="43.4009536" lon="13.6092231"><ele>58.0</ele><time>2026-04-11T16:22:13.726Z</time></trkpt><trkpt lat="43.4011742" lon="13.6092176"><ele>61.0</ele><time>2026-04-11T16:22:14.726Z</time></trkpt><trkpt lat="43.4014063" lon="13.6091893"><ele>64.0</ele><time>2026-04-11T16:22:15.727Z</time></trkpt><trkpt lat="43.4016551" lon="13.6091503"><ele>64.0</ele><time>2026-04-11T16:22:16.726Z</time></trkpt><trkpt lat="43.4019286" lon="13.6091076"><ele>64.0</ele><time>2026-04-11T16:22:17.727Z</time></trkpt><trkpt lat="43.4022261" lon="13.6090796"><ele>64.0</ele><time>2026-04-11T16:22:18.727Z</time></trkpt><trkpt lat="43.4025261" lon="13.6090703"><ele>64.0</ele><time>2026-04-11T16:22:19.726Z</time></trkpt><trkpt lat="43.4028152" lon="13.6090689"><ele>64.5</ele><time>2026-04-11T16:22:20.727Z</time></trkpt><trkpt lat="43.4030924" lon="13.60907"><ele>65.0</ele><time>2026-04-11T16:22:21.726Z</time></trkpt><trkpt lat="43.4033652" lon="13.6090823"><ele>65.0</ele><time>2026-04-11T16:22:22.726Z</time></trkpt><trkpt lat="43.4036352" lon="13.609095"><ele>65.0</ele><time>2026-04-11T16:22:23.727Z</time></trkpt><trkpt lat="43.4038916" lon="13.6091062"><ele>66.5</ele><time>2026-04-11T16:22:24.726Z</time></trkpt><trkpt lat="43.4041281" lon="13.6091149"><ele>68.0</ele><time>2026-04-11T16:22:25.727Z</time></trkpt><trkpt lat="43.4043567" lon="13.6091189"><ele>68.0</ele><time>2026-04-11T16:22:26.727Z</time></trkpt><trkpt lat="43.4045919" lon="13.6091164"><ele>68.0</ele><time>2026-04-11T16:22:27.726Z</time></trkpt><trkpt lat="43.4048458" lon="13.6091119"><ele>68.0</ele><time>2026-04-11T16:22:28.727Z</time></trkpt><trkpt lat="43.4051149" lon="13.6091146"><ele>68.0</ele><time>2026-04-11T16:22:29.727Z</time></trkpt><trkpt lat="43.4053875" lon="13.609124"><ele>66.0</ele><time>2026-04-11T16:22:30.727Z</time></trkpt><trkpt lat="43.4056411" lon="13.6091342"><ele>64.0</ele><time>2026-04-11T16:22:31.726Z</time></trkpt><trkpt lat="43.4058836" lon="13.6091474"><ele>64.0</ele><time>2026-04-11T16:22:32.726Z</time></trkpt><trkpt lat="43.4061105" lon="13.60916"><ele>64.0</ele><time>2026-04-11T16:22:33.727Z</time></trkpt><trkpt lat="43.4063284" lon="13.6091806"><ele>64.0</ele><time>2026-04-11T16:22:34.727Z</time></trkpt><trkpt lat="43.4065325" lon="13.6091924"><ele>64.66666666666666</ele><time>2026-04-11T16:22:35.726Z</time></trkpt><trkpt lat="43.4067267" lon="13.6092055"><ele>65.33333333333333</ele><time>2026-04-11T16:22:36.726Z</time></trkpt><trkpt lat="43.4069116" lon="13.609219"><ele>66.0</ele><time>2026-04-11T16:22:37.726Z</time></trkpt><trkpt lat="43.4070936" lon="13.6092321"><ele>66.33333333333333</ele><time>2026-04-11T16:22:38.726Z</time></trkpt><trkpt lat="43.4072738" lon="13.6092416"><ele>66.66666666666666</ele><time>2026-04-11T16:22:39.727Z</time></trkpt><trkpt lat="43.4074548" lon="13.6092484"><ele>67.0</ele><time>2026-04-11T16:22:40.727Z</time></trkpt><trkpt lat="43.4076321" lon="13.6092538"><ele>67.0</ele><time>2026-04-11T16:22:41.727Z</time></trkpt><trkpt lat="43.4078037" lon="13.6092559"><ele>67.0</ele><time>2026-04-11T16:22:42.727Z</time></trkpt><trkpt lat="43.4079798" lon="13.6092562"><ele>67.0</ele><time>2026-04-11T16:22:43.727Z</time></trkpt><trkpt lat="43.4081604" lon="13.6092558"><ele>66.0</ele><time>2026-04-11T16:22:44.727Z</time></trkpt><trkpt lat="43.4083482" lon="13.609256"><ele>65.0</ele><time>2026-04-11T16:22:45.726Z</time></trkpt><trkpt lat="43.4085395" lon="13.6092612"><ele>64.0</ele><time>2026-04-11T16:22:46.726Z</time></trkpt><trkpt lat="43.4087289" lon="13.6092721"><ele>63.0</ele><time>2026-04-11T16:22:47.727Z</time></trkpt><trkpt lat="43.4089194" lon="13.6092985"><ele>62.0</ele><time>2026-04-11T16:22:48.726Z</time></trkpt><trkpt lat="43.4091113" lon="13.609345"><ele>61.0</ele><time>2026-04-11T16:22:49.727Z</time></trkpt><trkpt lat="43.4092964" lon="13.6094073"><ele>61.0</ele><time>2026-04-11T16:22:50.727Z</time></trkpt><trkpt lat="43.4094749" lon="13.6094794"><ele>61.0</ele><time>2026-04-11T16:22:51.727Z</time></trkpt><trkpt lat="43.409647" lon="13.6095769"><ele>61.0</ele><time>2026-04-11T16:22:52.726Z</time></trkpt><trkpt lat="43.4098143" lon="13.6096658"><ele>59.666666666666664</ele><time>2026-04-11T16:22:53.726Z</time></trkpt><trkpt lat="43.4099756" lon="13.6097576"><ele>58.33333333333333</ele><time>2026-04-11T16:22:54.727Z</time></trkpt><trkpt lat="43.4101309" lon="13.6098458"><ele>57.0</ele><time>2026-04-11T16:22:55.727Z</time></trkpt><trkpt lat="43.4102839" lon="13.6099379"><ele>57.0</ele><time>2026-04-11T16:22:56.727Z</time></trkpt><trkpt lat="43.4104365" lon="13.6100295"><ele>57.0</ele><time>2026-04-11T16:22:57.726Z</time></trkpt><trkpt lat="43.4105893" lon="13.6101184"><ele>57.0</ele><time>2026-04-11T16:22:58.727Z</time></trkpt><trkpt lat="43.4107431" lon="13.6102032"><ele>56.66666666666667</ele><time>2026-04-11T16:22:59.726Z</time></trkpt><trkpt lat="43.410899" lon="13.6102852"><ele>56.333333333333336</ele><time>2026-04-11T16:23:00.727Z</time></trkpt><trkpt lat="43.4110514" lon="13.6103642"><ele>56.0</ele><time>2026-04-11T16:23:01.727Z</time></trkpt><trkpt lat="43.4111915" lon="13.6104436"><ele>56.333333333333336</ele><time>2026-04-11T16:23:02.727Z</time></trkpt><trkpt lat="43.4113327" lon="13.610522"><ele>56.66666666666667</ele><time>2026-04-11T16:23:03.726Z</time></trkpt><trkpt lat="43.4114789" lon="13.6105974"><ele>57.0</ele><time>2026-04-11T16:23:04.727Z</time></trkpt><trkpt lat="43.4116377" lon="13.610665"><ele>57.0</ele><time>2026-04-11T16:23:05.726Z</time></trkpt><trkpt lat="43.4118205" lon="13.6107254"><ele>57.0</ele><time>2026-04-11T16:23:06.727Z</time></trkpt><trkpt lat="43.4120401" lon="13.6107837"><ele>57.0</ele><time>2026-04-11T16:23:07.726Z</time></trkpt><trkpt lat="43.4122864" lon="13.610839"><ele>54.0</ele><time>2026-04-11T16:23:08.727Z</time></trkpt><trkpt lat="43.4125689" lon="13.6109123"><ele>51.0</ele><time>2026-04-11T16:23:09.727Z</time></trkpt><trkpt lat="43.4128805" lon="13.6109944"><ele>46.0</ele><time>2026-04-11T16:23:10.727Z</time></trkpt><trkpt lat="43.4132091" lon="13.6110823"><ele>41.0</ele><time>2026-04-11T16:23:11.726Z</time></trkpt><trkpt lat="43.4135471" lon="13.6111711"><ele>37.5</ele><time>2026-04-11T16:23:12.727Z</time></trkpt><trkpt lat="43.4138653" lon="13.6112563"><ele>34.0</ele><time>2026-04-11T16:23:13.727Z</time></trkpt><trkpt lat="43.4141713" lon="13.6113299"><ele>34.0</ele><time>2026-04-11T16:23:14.726Z</time></trkpt><trkpt lat="43.414496" lon="13.6113688"><ele>34.0</ele><time>2026-04-11T16:23:15.727Z</time></trkpt><trkpt lat="43.4148317" lon="13.6113634"><ele>34.0</ele><time>2026-04-11T16:23:16.727Z</time></trkpt><trkpt lat="43.4151759" lon="13.6113357"><ele>34.0</ele><time>2026-04-11T16:23:17.727Z</time></trkpt><trkpt lat="43.4155344" lon="13.6112934"><ele>37.5</ele><time>2026-04-11T16:23:18.727Z</time></trkpt><trkpt lat="43.4158965" lon="13.6112514"><ele>41.0</ele><time>2026-04-11T16:23:19.726Z</time></trkpt><trkpt lat="43.416226" lon="13.611199"><ele>46.0</ele><time>2026-04-11T16:23:20.727Z</time></trkpt><trkpt lat="43.4165332" lon="13.6111611"><ele>51.0</ele><time>2026-04-11T16:23:21.726Z</time></trkpt><trkpt lat="43.4168021" lon="13.6111396"><ele>51.0</ele><time>2026-04-11T16:23:22.726Z</time></trkpt><trkpt lat="43.4170302" lon="13.611129"><ele>51.0</ele><time>2026-04-11T16:23:23.726Z</time></trkpt><trkpt lat="43.4172058" lon="13.6111176"><ele>51.0</ele><time>2026-04-11T16:23:24.727Z</time></trkpt><trkpt lat="43.4173532" lon="13.6111127"><ele>53.5</ele><time>2026-04-11T16:23:25.726Z</time></trkpt><trkpt lat="43.4174691" lon="13.611102"><ele>56.0</ele><time>2026-04-11T16:23:26.727Z</time></trkpt><trkpt lat="43.4175774" lon="13.6110913"><ele>58.5</ele><time>2026-04-11T16:23:27.726Z</time></trkpt><trkpt lat="43.4176928" lon="13.6110705"><ele>61.0</ele><time>2026-04-11T16:23:28.727Z</time></trkpt><trkpt lat="43.4178168" lon="13.6110582"><ele>61.0</ele><time>2026-04-11T16:23:29.727Z</time></trkpt><trkpt lat="43.4179087" lon="13.6110479"><ele>60.99999999999999</ele><time>2026-04-11T16:23:30.727Z</time></trkpt><trkpt lat="43.4179934" lon="13.6110348"><ele>60.99999999999999</ele><time>2026-04-11T16:23:31.727Z</time></trkpt><trkpt lat="43.4181111" lon="13.6110283"><ele>61.0</ele><time>2026-04-11T16:23:33.727Z</time></trkpt><trkpt lat="43.4182106" lon="13.6110767"><ele>61.0</ele><time>2026-04-11T16:23:35.727Z</time></trkpt><trkpt lat="43.4182766" lon="13.611221"><ele>60.75</ele><time>2026-04-11T16:23:37.727Z</time></trkpt><trkpt lat="43.4183093" lon="13.611351"><ele>60.5</ele><time>2026-04-11T16:23:38.726Z</time></trkpt><trkpt lat="43.4183621" lon="13.6115384"><ele>60.25</ele><time>2026-04-11T16:23:39.726Z</time></trkpt><trkpt lat="43.4184381" lon="13.6117832"><ele>60.0</ele><time>2026-04-11T16:23:40.727Z</time></trkpt><trkpt lat="43.4185361" lon="13.6120799"><ele>60.0</ele><time>2026-04-11T16:23:41.727Z</time></trkpt><trkpt lat="43.4186502" lon="13.6124127"><ele>60.0</ele><time>2026-04-11T16:23:42.726Z</time></trkpt><trkpt lat="43.4187718" lon="13.6127742"><ele>55.0</ele><time>2026-04-11T16:23:43.727Z</time></trkpt><trkpt lat="43.418908" lon="13.6131727"><ele>50.0</ele><time>2026-04-11T16:23:44.726Z</time></trkpt><trkpt lat="43.4190417" lon="13.6135599"><ele>51.0</ele><time>2026-04-11T16:23:45.727Z</time></trkpt><trkpt lat="43.41917" lon="13.6139431"><ele>52.0</ele><time>2026-04-11T16:23:46.727Z</time></trkpt><trkpt lat="43.4192947" lon="13.6142904"><ele>52.0</ele><time>2026-04-11T16:23:47.726Z</time></trkpt><trkpt lat="43.419411" lon="13.6146311"><ele>52.0</ele><time>2026-04-11T16:23:48.726Z</time></trkpt><trkpt lat="43.4195149" lon="13.6149512"><ele>52.0</ele><time>2026-04-11T16:23:49.727Z</time></trkpt><trkpt lat="43.4196178" lon="13.6152551"><ele>52.0</ele><time>2026-04-11T16:23:50.727Z</time></trkpt><trkpt lat="43.4197338" lon="13.6155376"><ele>47.5</ele><time>2026-04-11T16:23:51.726Z</time></trkpt><trkpt lat="43.4198529" lon="13.6158065"><ele>43.0</ele><time>2026-04-11T16:23:52.726Z</time></trkpt><trkpt lat="43.420016" lon="13.6160803"><ele>43.5</ele><time>2026-04-11T16:23:53.727Z</time></trkpt><trkpt lat="43.4201921" lon="13.6163576"><ele>44.0</ele><time>2026-04-11T16:23:54.727Z</time></trkpt><trkpt lat="43.4203942" lon="13.616624"><ele>40.0</ele><time>2026-04-11T16:23:55.727Z</time></trkpt><trkpt lat="43.4206089" lon="13.6168837"><ele>36.0</ele><time>2026-04-11T16:23:56.726Z</time></trkpt><trkpt lat="43.4208315" lon="13.6171469"><ele>36.0</ele><time>2026-04-11T16:23:57.727Z</time></trkpt><trkpt lat="43.4210554" lon="13.6174092"><ele>36.0</ele><time>2026-04-11T16:23:58.726Z</time></trkpt><trkpt lat="43.4212807" lon="13.61767"><ele>36.5</ele><time>2026-04-11T16:23:59.727Z</time></trkpt><trkpt lat="43.4215062" lon="13.6179344"><ele>37.0</ele><time>2026-04-11T16:24:00.727Z</time></trkpt><trkpt lat="43.4217203" lon="13.6181834"><ele>37.0</ele><time>2026-04-11T16:24:01.727Z</time></trkpt><trkpt lat="43.421923" lon="13.6184217"><ele>37.0</ele><time>2026-04-11T16:24:02.727Z</time></trkpt><trkpt lat="43.4221169" lon="13.6186477"><ele>34.5</ele><time>2026-04-11T16:24:03.727Z</time></trkpt><trkpt lat="43.4223021" lon="13.6188661"><ele>32.0</ele><time>2026-04-11T16:24:04.727Z</time></trkpt><trkpt lat="43.4224892" lon="13.6190809"><ele>32.0</ele><time>2026-04-11T16:24:05.727Z</time></trkpt><trkpt lat="43.4226811" lon="13.6192913"><ele>32.0</ele><time>2026-04-11T16:24:06.727Z</time></trkpt><trkpt lat="43.4228672" lon="13.6194989"><ele>32.5</ele><time>2026-04-11T16:24:07.727Z</time></trkpt><trkpt lat="43.4230542" lon="13.6197098"><ele>33.0</ele><time>2026-04-11T16:24:08.726Z</time></trkpt><trkpt lat="43.4232434" lon="13.6199202"><ele>33.0</ele><time>2026-04-11T16:24:09.726Z</time></trkpt><trkpt lat="43.423436" lon="13.6201377"><ele>33.0</ele><time>2026-04-11T16:24:10.727Z</time></trkpt><trkpt lat="43.4236285" lon="13.6203566"><ele>32.0</ele><time>2026-04-11T16:24:11.727Z</time></trkpt><trkpt lat="43.423824" lon="13.6205856"><ele>31.0</ele><time>2026-04-11T16:24:12.726Z</time></trkpt><trkpt lat="43.4240193" lon="13.6208107"><ele>31.0</ele><time>2026-04-11T16:24:13.727Z</time></trkpt><trkpt lat="43.4242281" lon="13.621035"><ele>31.0</ele><time>2026-04-11T16:24:14.727Z</time></trkpt><trkpt lat="43.424424" lon="13.6212626"><ele>31.5</ele><time>2026-04-11T16:24:15.726Z</time></trkpt><trkpt lat="43.4246202" lon="13.6214923"><ele>32.0</ele><time>2026-04-11T16:24:16.727Z</time></trkpt><trkpt lat="43.4248118" lon="13.6217148"><ele>29.0</ele><time>2026-04-11T16:24:17.727Z</time></trkpt><trkpt lat="43.4249935" lon="13.6219417"><ele>26.0</ele><time>2026-04-11T16:24:18.727Z</time></trkpt><trkpt lat="43.4251689" lon="13.6221683"><ele>26.5</ele><time>2026-04-11T16:24:19.727Z</time></trkpt><trkpt lat="43.4253376" lon="13.622406"><ele>27.0</ele><time>2026-04-11T16:24:20.726Z</time></trkpt><trkpt lat="43.4254943" lon="13.6226484"><ele>26.333333333333336</ele><time>2026-04-11T16:24:21.727Z</time></trkpt><trkpt lat="43.4256335" lon="13.6228845"><ele>25.666666666666668</ele><time>2026-04-11T16:24:22.726Z</time></trkpt><trkpt lat="43.4257602" lon="13.6231299"><ele>25.0</ele><time>2026-04-11T16:24:23.727Z</time></trkpt><trkpt lat="43.4258742" lon="13.6233699"><ele>25.0</ele><time>2026-04-11T16:24:24.726Z</time></trkpt><trkpt lat="43.4259792" lon="13.6235951"><ele>25.0</ele><time>2026-04-11T16:24:25.726Z</time></trkpt><trkpt lat="43.4260811" lon="13.623821"><ele>25.0</ele><time>2026-04-11T16:24:26.726Z</time></trkpt><trkpt lat="43.4261759" lon="13.6240366"><ele>24.666666666666668</ele><time>2026-04-11T16:24:27.727Z</time></trkpt><trkpt lat="43.4262711" lon="13.624239"><ele>24.333333333333336</ele><time>2026-04-11T16:24:28.726Z</time></trkpt><trkpt lat="43.4263546" lon="13.6244324"><ele>24.0</ele><time>2026-04-11T16:24:29.726Z</time></trkpt><trkpt lat="43.4264389" lon="13.6246162"><ele>24.0</ele><time>2026-04-11T16:24:30.727Z</time></trkpt><trkpt lat="43.4265218" lon="13.6248013"><ele>24.0</ele><time>2026-04-11T16:24:31.727Z</time></trkpt><trkpt lat="43.4265954" lon="13.6249799"><ele>24.0</ele><time>2026-04-11T16:24:32.727Z</time></trkpt><trkpt lat="43.4266694" lon="13.6251557"><ele>23.333333333333332</ele><time>2026-04-11T16:24:33.726Z</time></trkpt><trkpt lat="43.4267459" lon="13.6253341"><ele>22.666666666666664</ele><time>2026-04-11T16:24:34.726Z</time></trkpt><trkpt lat="43.426819" lon="13.6255146"><ele>22.0</ele><time>2026-04-11T16:24:35.727Z</time></trkpt><trkpt lat="43.4268972" lon="13.6256958"><ele>22.0</ele><time>2026-04-11T16:24:36.727Z</time></trkpt><trkpt lat="43.4269682" lon="13.6258817"><ele>22.0</ele><time>2026-04-11T16:24:37.727Z</time></trkpt><trkpt lat="43.4270341" lon="13.6260588"><ele>22.0</ele><time>2026-04-11T16:24:38.727Z</time></trkpt><trkpt lat="43.4271002" lon="13.626231"><ele>22.0</ele><time>2026-04-11T16:24:39.727Z</time></trkpt><trkpt lat="43.4271593" lon="13.6263944"><ele>22.0</ele><time>2026-04-11T16:24:40.726Z</time></trkpt><trkpt lat="43.4272165" lon="13.6265449"><ele>22.0</ele><time>2026-04-11T16:24:41.726Z</time></trkpt><trkpt lat="43.4272666" lon="13.6266855"><ele>22.0</ele><time>2026-04-11T16:24:42.726Z</time></trkpt><trkpt lat="43.4273092" lon="13.6268072"><ele>22.0</ele><time>2026-04-11T16:24:43.727Z</time></trkpt><trkpt lat="43.4273433" lon="13.6268957"><ele>22.0</ele><time>2026-04-11T16:24:44.727Z</time></trkpt><trkpt lat="43.4273797" lon="13.6270003"><ele>22.0</ele><time>2026-04-11T16:24:46.727Z</time></trkpt><trkpt lat="43.4274492" lon="13.6270828"><ele>22.0</ele><time>2026-04-11T16:24:50.727Z</time></trkpt><trkpt lat="43.4275612" lon="13.6270232"><ele>22.0</ele><time>2026-04-11T16:24:52.726Z</time></trkpt><trkpt lat="43.4276464" lon="13.6269686"><ele>22.0</ele><time>2026-04-11T16:24:53.727Z</time></trkpt><trkpt lat="43.427773" lon="13.6268941"><ele>22.0</ele><time>2026-04-11T16:24:54.726Z</time></trkpt><trkpt lat="43.4279314" lon="13.6268089"><ele>23.5</ele><time>2026-04-11T16:24:55.726Z</time></trkpt><trkpt lat="43.4281249" lon="13.6266956"><ele>25.0</ele><time>2026-04-11T16:24:56.727Z</time></trkpt><trkpt lat="43.4283471" lon="13.6265715"><ele>25.0</ele><time>2026-04-11T16:24:57.726Z</time></trkpt><trkpt lat="43.4285929" lon="13.6264269"><ele>25.0</ele><time>2026-04-11T16:24:58.726Z</time></trkpt><trkpt lat="43.4288593" lon="13.6262799"><ele>30.0</ele><time>2026-04-11T16:24:59.727Z</time></trkpt><trkpt lat="43.4291442" lon="13.6261116"><ele>35.0</ele><time>2026-04-11T16:25:00.727Z</time></trkpt><trkpt lat="43.4294394" lon="13.6259497"><ele>38.5</ele><time>2026-04-11T16:25:01.726Z</time></trkpt><trkpt lat="43.4297424" lon="13.6257794"><ele>42.0</ele><time>2026-04-11T16:25:02.726Z</time></trkpt><trkpt lat="43.4300221" lon="13.6256233"><ele>42.0</ele><time>2026-04-11T16:25:03.727Z</time></trkpt><trkpt lat="43.4302767" lon="13.6254741"><ele>42.0</ele><time>2026-04-11T16:25:04.726Z</time></trkpt><trkpt lat="43.4305111" lon="13.6253465"><ele>47.33333333333333</ele><time>2026-04-11T16:25:05.727Z</time></trkpt><trkpt lat="43.4307253" lon="13.6252277"><ele>52.666666666666664</ele><time>2026-04-11T16:25:06.727Z</time></trkpt><trkpt lat="43.430915" lon="13.6251274"><ele>58.0</ele><time>2026-04-11T16:25:07.726Z</time></trkpt><trkpt lat="43.4310786" lon="13.6250347"><ele>58.0</ele><time>2026-04-11T16:25:08.726Z</time></trkpt><trkpt lat="43.4312246" lon="13.6249557"><ele>58.0</ele><time>2026-04-11T16:25:09.727Z</time></trkpt><trkpt lat="43.4313637" lon="13.6248753"><ele>58.0</ele><time>2026-04-11T16:25:10.727Z</time></trkpt><trkpt lat="43.4315016" lon="13.624794"><ele>60.0</ele><time>2026-04-11T16:25:11.727Z</time></trkpt><trkpt lat="43.4316194" lon="13.624717"><ele>62.0</ele><time>2026-04-11T16:25:12.727Z</time></trkpt><trkpt lat="43.4317351" lon="13.6246559"><ele>64.0</ele><time>2026-04-11T16:25:13.727Z</time></trkpt><trkpt lat="43.4318201" lon="13.6246145"><ele>66.0</ele><time>2026-04-11T16:25:14.727Z</time></trkpt><trkpt lat="43.4318877" lon="13.624572"><ele>68.0</ele><time>2026-04-11T16:25:15.726Z</time></trkpt><trkpt lat="43.4319582" lon="13.6245207"><ele>68.0</ele><time>2026-04-11T16:25:16.727Z</time></trkpt><trkpt lat="43.4320554" lon="13.6244398"><ele>68.0</ele><time>2026-04-11T16:25:17.727Z</time></trkpt><trkpt lat="43.4321652" lon="13.6243376"><ele>68.0</ele><time>2026-04-11T16:25:18.726Z</time></trkpt><trkpt lat="43.4322937" lon="13.6242179"><ele>68.0</ele><time>2026-04-11T16:25:19.727Z</time></trkpt><trkpt lat="43.4324417" lon="13.6240885"><ele>68.0</ele><time>2026-04-11T16:25:20.727Z</time></trkpt><trkpt lat="43.4325903" lon="13.6239514"><ele>68.0</ele><time>2026-04-11T16:25:21.726Z</time></trkpt><trkpt lat="43.432747" lon="13.6238138"><ele>68.0</ele><time>2026-04-11T16:25:22.727Z</time></trkpt><trkpt lat="43.4329079" lon="13.6236705"><ele>65.33333333333334</ele><time>2026-04-11T16:25:23.726Z</time></trkpt><trkpt lat="43.4330766" lon="13.6235068"><ele>62.66666666666667</ele><time>2026-04-11T16:25:24.727Z</time></trkpt><trkpt lat="43.4332391" lon="13.623331"><ele>60.0</ele><time>2026-04-11T16:25:25.726Z</time></trkpt><trkpt lat="43.4333917" lon="13.6231483"><ele>60.0</ele><time>2026-04-11T16:25:26.726Z</time></trkpt><trkpt lat="43.4335416" lon="13.6229667"><ele>60.0</ele><time>2026-04-11T16:25:27.726Z</time></trkpt><trkpt lat="43.4336866" lon="13.6227934"><ele>60.0</ele><time>2026-04-11T16:25:28.726Z</time></trkpt><trkpt lat="43.4338272" lon="13.6226245"><ele>56.0</ele><time>2026-04-11T16:25:29.727Z</time></trkpt><trkpt lat="43.4339689" lon="13.6224543"><ele>52.0</ele><time>2026-04-11T16:25:30.727Z</time></trkpt><trkpt lat="43.4341069" lon="13.62229"><ele>48.0</ele><time>2026-04-11T16:25:31.726Z</time></trkpt><trkpt lat="43.4342479" lon="13.6221046"><ele>47.5</ele><time>2026-04-11T16:25:32.726Z</time></trkpt><trkpt lat="43.4343908" lon="13.6218708"><ele>47.0</ele><time>2026-04-11T16:25:33.727Z</time></trkpt><trkpt lat="43.434525" lon="13.6215987"><ele>43.0</ele><time>2026-04-11T16:25:34.727Z</time></trkpt><trkpt lat="43.4346402" lon="13.6213115"><ele>39.0</ele><time>2026-04-11T16:25:35.727Z</time></trkpt><trkpt lat="43.4347478" lon="13.6210357"><ele>39.0</ele><time>2026-04-11T16:25:36.727Z</time></trkpt><trkpt lat="43.4348482" lon="13.6207816"><ele>39.0</ele><time>2026-04-11T16:25:37.727Z</time></trkpt><trkpt lat="43.434947" lon="13.6205702"><ele>39.0</ele><time>2026-04-11T16:25:38.727Z</time></trkpt><trkpt lat="43.4350471" lon="13.6203868"><ele>39.666666666666664</ele><time>2026-04-11T16:25:39.727Z</time></trkpt><trkpt lat="43.4351611" lon="13.6202481"><ele>40.33333333333333</ele><time>2026-04-11T16:25:40.727Z</time></trkpt><trkpt lat="43.4353277" lon="13.6201281"><ele>41.0</ele><time>2026-04-11T16:25:41.727Z</time></trkpt><trkpt lat="43.4355361" lon="13.6200392"><ele>41.5</ele><time>2026-04-11T16:25:42.727Z</time></trkpt><trkpt lat="43.4357605" lon="13.6199289"><ele>42.0</ele><time>2026-04-11T16:25:43.726Z</time></trkpt><trkpt lat="43.4359761" lon="13.6198159"><ele>42.0</ele><time>2026-04-11T16:25:44.727Z</time></trkpt><trkpt lat="43.4361708" lon="13.6197165"><ele>42.0</ele><time>2026-04-11T16:25:45.726Z</time></trkpt><trkpt lat="43.4363433" lon="13.6196394"><ele>42.0</ele><time>2026-04-11T16:25:46.727Z</time></trkpt><trkpt lat="43.4364779" lon="13.6195813"><ele>43.6</ele><time>2026-04-11T16:25:47.726Z</time></trkpt><trkpt lat="43.436573" lon="13.6195402"><ele>45.2</ele><time>2026-04-11T16:25:48.727Z</time></trkpt><trkpt lat="43.4366426" lon="13.6195141"><ele>46.8</ele><time>2026-04-11T16:25:49.727Z</time></trkpt><trkpt lat="43.4367168" lon="13.6195042"><ele>48.4</ele><time>2026-04-11T16:25:51.726Z</time></trkpt><trkpt lat="43.4368184" lon="13.6195937"><ele>50.0</ele><time>2026-04-11T16:25:53.727Z</time></trkpt><trkpt lat="43.4368931" lon="13.6197337"><ele>50.0</ele><time>2026-04-11T16:25:54.726Z</time></trkpt><trkpt lat="43.4369707" lon="13.6199093"><ele>50.0</ele><time>2026-04-11T16:25:55.727Z</time></trkpt><trkpt lat="43.4370415" lon="13.6200599"><ele>50.0</ele><time>2026-04-11T16:25:56.727Z</time></trkpt><trkpt lat="43.4370997" lon="13.6201888"><ele>50.0</ele><time>2026-04-11T16:25:57.726Z</time></trkpt><trkpt lat="43.4371437" lon="13.6202796"><ele>50.333333333333336</ele><time>2026-04-11T16:25:58.726Z</time></trkpt><trkpt lat="43.4371909" lon="13.6203881"><ele>50.66666666666667</ele><time>2026-04-11T16:26:00.726Z</time></trkpt><trkpt lat="43.4372613" lon="13.6204498"><ele>51.0</ele><time>2026-04-11T16:26:02.726Z</time></trkpt><trkpt lat="43.4373878" lon="13.6204144"><ele>51.33333333333333</ele><time>2026-04-11T16:26:04.726Z</time></trkpt><trkpt lat="43.4374535" lon="13.6203961"><ele>51.666666666666664</ele><time>2026-04-11T16:26:05.726Z</time></trkpt><trkpt lat="43.4375299" lon="13.6203853"><ele>52.0</ele><time>2026-04-11T16:26:06.727Z</time></trkpt><trkpt lat="43.4376542" lon="13.6203647"><ele>53.0</ele><time>2026-04-11T16:26:08.726Z</time></trkpt><trkpt lat="43.4377397" lon="13.6202445"><ele>54.0</ele><time>2026-04-11T16:26:10.727Z</time></trkpt><trkpt lat="43.4377639" lon="13.6201363"><ele>55.0</ele><time>2026-04-11T16:26:11.726Z</time></trkpt><trkpt lat="43.4377721" lon="13.6199951"><ele>56.0</ele><time>2026-04-11T16:26:12.726Z</time></trkpt><trkpt lat="43.4377784" lon="13.6198432"><ele>57.0</ele><time>2026-04-11T16:26:13.727Z</time></trkpt><trkpt lat="43.4377951" lon="13.6196803"><ele>57.0</ele><time>2026-04-11T16:26:14.726Z</time></trkpt><trkpt lat="43.4378157" lon="13.6195098"><ele>57.0</ele><time>2026-04-11T16:26:15.726Z</time></trkpt><trkpt lat="43.4378408" lon="13.6193376"><ele>57.0</ele><time>2026-04-11T16:26:16.726Z</time></trkpt><trkpt lat="43.4378575" lon="13.6191594"><ele>57.0</ele><time>2026-04-11T16:26:17.726Z</time></trkpt><trkpt lat="43.437864" lon="13.6189748"><ele>57.5</ele><time>2026-04-11T16:26:18.726Z</time></trkpt><trkpt lat="43.4378689" lon="13.6187799"><ele>58.0</ele><time>2026-04-11T16:26:19.726Z</time></trkpt><trkpt lat="43.437873" lon="13.618588"><ele>58.5</ele><time>2026-04-11T16:26:20.726Z</time></trkpt><trkpt lat="43.4378793" lon="13.6184009"><ele>59.0</ele><time>2026-04-11T16:26:21.727Z</time></trkpt><trkpt lat="43.4378805" lon="13.6182216"><ele>59.5</ele><time>2026-04-11T16:26:22.727Z</time></trkpt><trkpt lat="43.4378919" lon="13.6180451"><ele>60.0</ele><time>2026-04-11T16:26:23.726Z</time></trkpt><trkpt lat="43.4379129" lon="13.6178779"><ele>60.5</ele><time>2026-04-11T16:26:24.726Z</time></trkpt><trkpt lat="43.4379499" lon="13.6177252"><ele>61.0</ele><time>2026-04-11T16:26:25.726Z</time></trkpt><trkpt lat="43.4380018" lon="13.6175915"><ele>59.199999999999996</ele><time>2026-04-11T16:26:26.727Z</time></trkpt><trkpt lat="43.4380739" lon="13.6174832"><ele>57.39999999999999</ele><time>2026-04-11T16:26:27.727Z</time></trkpt><trkpt lat="43.4381607" lon="13.6174076"><ele>55.6</ele><time>2026-04-11T16:26:28.727Z</time></trkpt><trkpt lat="43.4382553" lon="13.6173447"><ele>53.8</ele><time>2026-04-11T16:26:29.726Z</time></trkpt><trkpt lat="43.4383586" lon="13.617297"><ele>52.0</ele><time>2026-04-11T16:26:30.726Z</time></trkpt><trkpt lat="43.4384601" lon="13.617269"><ele>51.99999999999999</ele><time>2026-04-11T16:26:31.727Z</time></trkpt><trkpt lat="43.4385516" lon="13.6172363"><ele>52.0</ele><time>2026-04-11T16:26:32.727Z</time></trkpt><trkpt lat="43.4386267" lon="13.6171912"><ele>52.0</ele><time>2026-04-11T16:26:33.727Z</time></trkpt><trkpt lat="43.4386969" lon="13.6171467"><ele>52.0</ele><time>2026-04-11T16:26:35.727Z</time></trkpt><trkpt lat="43.4387373" lon="13.6170798"><ele>51.99999999999999</ele><time>2026-04-11T16:26:37.727Z</time></trkpt><trkpt lat="43.4387606" lon="13.6169811"><ele>52.0</ele><time>2026-04-11T16:26:41.726Z</time></trkpt><trkpt lat="43.4388347" lon="13.6169869"><ele>51.8</ele><time>2026-04-11T16:26:45.726Z</time></trkpt><trkpt lat="43.4388869" lon="13.6170911"><ele>51.6</ele><time>2026-04-11T16:26:47.727Z</time></trkpt><trkpt lat="43.4389425" lon="13.6172207"><ele>51.4</ele><time>2026-04-11T16:26:49.727Z</time></trkpt><trkpt lat="43.4389856" lon="13.6173289"><ele>51.199999999999996</ele><time>2026-04-11T16:26:50.726Z</time></trkpt><trkpt lat="43.4390369" lon="13.6174403"><ele>51.0</ele><time>2026-04-11T16:26:51.726Z</time></trkpt><trkpt lat="43.4390906" lon="13.6175657"><ele>51.0</ele><time>2026-04-11T16:26:52.727Z</time></trkpt><trkpt lat="43.4391543" lon="13.617709"><ele>51.0</ele><time>2026-04-11T16:26:53.727Z</time></trkpt><trkpt lat="43.4392276" lon="13.6178534"><ele>51.0</ele><time>2026-04-11T16:26:54.727Z</time></trkpt><trkpt lat="43.439302" lon="13.6180056"><ele>51.0</ele><time>2026-04-11T16:26:55.727Z</time></trkpt><trkpt lat="43.4393857" lon="13.6181674"><ele>49.75</ele><time>2026-04-11T16:26:56.726Z</time></trkpt><trkpt lat="43.439474" lon="13.6183335"><ele>48.5</ele><time>2026-04-11T16:26:57.727Z</time></trkpt><trkpt lat="43.439563" lon="13.6184971"><ele>47.25</ele><time>2026-04-11T16:26:58.727Z</time></trkpt><trkpt lat="43.4396519" lon="13.6186646"><ele>46.0</ele><time>2026-04-11T16:26:59.727Z</time></trkpt><trkpt lat="43.4397427" lon="13.6188395"><ele>45.333333333333336</ele><time>2026-04-11T16:27:00.727Z</time></trkpt><trkpt lat="43.4398453" lon="13.619028"><ele>44.666666666666664</ele><time>2026-04-11T16:27:01.727Z</time></trkpt><trkpt lat="43.4399405" lon="13.6192184"><ele>44.0</ele><time>2026-04-11T16:27:02.727Z</time></trkpt><trkpt lat="43.4400445" lon="13.6193984"><ele>42.75</ele><time>2026-04-11T16:27:03.726Z</time></trkpt><trkpt lat="43.4401366" lon="13.6195739"><ele>41.5</ele><time>2026-04-11T16:27:04.727Z</time></trkpt><trkpt lat="43.4402283" lon="13.6197384"><ele>40.25</ele><time>2026-04-11T16:27:05.727Z</time></trkpt><trkpt lat="43.4403121" lon="13.6198919"><ele>39.0</ele><time>2026-04-11T16:27:06.726Z</time></trkpt><trkpt lat="43.440392" lon="13.6200501"><ele>39.25</ele><time>2026-04-11T16:27:07.727Z</time></trkpt><trkpt lat="43.4404744" lon="13.620196"><ele>39.5</ele><time>2026-04-11T16:27:08.727Z</time></trkpt><trkpt lat="43.4405497" lon="13.6203375"><ele>39.75</ele><time>2026-04-11T16:27:09.727Z</time></trkpt><trkpt lat="43.4406251" lon="13.6204747"><ele>40.0</ele><time>2026-04-11T16:27:10.726Z</time></trkpt><trkpt lat="43.4406964" lon="13.6206034"><ele>40.0</ele><time>2026-04-11T16:27:11.726Z</time></trkpt><trkpt lat="43.4407683" lon="13.620721"><ele>40.0</ele><time>2026-04-11T16:27:12.727Z</time></trkpt><trkpt lat="43.4408302" lon="13.6208255"><ele>40.0</ele><time>2026-04-11T16:27:13.727Z</time></trkpt><trkpt lat="43.4408931" lon="13.6209256"><ele>40.0</ele><time>2026-04-11T16:27:14.727Z</time></trkpt><trkpt lat="43.4409551" lon="13.621017"><ele>40.0</ele><time>2026-04-11T16:27:15.727Z</time></trkpt><trkpt lat="43.441011" lon="13.6211104"><ele>39.42857142857143</ele><time>2026-04-11T16:27:16.726Z</time></trkpt><trkpt lat="43.4410551" lon="13.6212023"><ele>38.85714285714286</ele><time>2026-04-11T16:27:17.727Z</time></trkpt><trkpt lat="43.4410944" lon="13.6212815"><ele>38.28571428571429</ele><time>2026-04-11T16:27:18.726Z</time></trkpt><trkpt lat="43.4411294" lon="13.6213536"><ele>37.714285714285715</ele><time>2026-04-11T16:27:19.726Z</time></trkpt><trkpt lat="43.4411607" lon="13.6214375"><ele>37.142857142857146</ele><time>2026-04-11T16:27:20.727Z</time></trkpt><trkpt lat="43.4411891" lon="13.6215306"><ele>36.57142857142858</ele><time>2026-04-11T16:27:21.727Z</time></trkpt><trkpt lat="43.4412282" lon="13.6216375"><ele>36.0</ele><time>2026-04-11T16:27:22.726Z</time></trkpt><trkpt lat="43.4412481" lon="13.6217572"><ele>36.0</ele><time>2026-04-11T16:27:23.727Z</time></trkpt><trkpt lat="43.4412509" lon="13.6219051"><ele>36.0</ele><time>2026-04-11T16:27:24.727Z</time></trkpt><trkpt lat="43.4412351" lon="13.6220621"><ele>36.0</ele><time>2026-04-11T16:27:25.727Z</time></trkpt><trkpt lat="43.4412077" lon="13.6222286"><ele>36.0</ele><time>2026-04-11T16:27:26.727Z</time></trkpt><trkpt lat="43.4411773" lon="13.6223993"><ele>35.75</ele><time>2026-04-11T16:27:27.727Z</time></trkpt><trkpt lat="43.4411419" lon="13.6225684"><ele>35.5</ele><time>2026-04-11T16:27:28.727Z</time></trkpt><trkpt lat="43.4411094" lon="13.622743"><ele>35.25</ele><time>2026-04-11T16:27:29.727Z</time></trkpt><trkpt lat="43.4410698" lon="13.6229311"><ele>35.0</ele><time>2026-04-11T16:27:30.727Z</time></trkpt><trkpt lat="43.4410343" lon="13.6231171"><ele>35.0</ele><time>2026-04-11T16:27:31.727Z</time></trkpt><trkpt lat="43.4410007" lon="13.6233131"><ele>35.0</ele><time>2026-04-11T16:27:32.727Z</time></trkpt><trkpt lat="43.4409603" lon="13.62351"><ele>35.0</ele><time>2026-04-11T16:27:33.727Z</time></trkpt><trkpt lat="43.4409169" lon="13.6237032"><ele>35.0</ele><time>2026-04-11T16:27:34.727Z</time></trkpt><trkpt lat="43.4408749" lon="13.6239084"><ele>34.0</ele><time>2026-04-11T16:27:35.727Z</time></trkpt><trkpt lat="43.440842" lon="13.6241097"><ele>33.0</ele><time>2026-04-11T16:27:36.726Z</time></trkpt><trkpt lat="43.440804" lon="13.6243085"><ele>32.0</ele><time>2026-04-11T16:27:37.727Z</time></trkpt><trkpt lat="43.4407705" lon="13.6245161"><ele>31.666666666666664</ele><time>2026-04-11T16:27:38.727Z</time></trkpt><trkpt lat="43.4407405" lon="13.6247306"><ele>31.333333333333336</ele><time>2026-04-11T16:27:39.727Z</time></trkpt><trkpt lat="43.4407145" lon="13.6249653"><ele>31.0</ele><time>2026-04-11T16:27:40.726Z</time></trkpt><trkpt lat="43.4406923" lon="13.6251991"><ele>31.0</ele><time>2026-04-11T16:27:41.726Z</time></trkpt><trkpt lat="43.440672" lon="13.6254458"><ele>31.0</ele><time>2026-04-11T16:27:42.726Z</time></trkpt><trkpt lat="43.4406587" lon="13.6256956"><ele>31.0</ele><time>2026-04-11T16:27:43.727Z</time></trkpt><trkpt lat="43.4406529" lon="13.625955"><ele>30.666666666666668</ele><time>2026-04-11T16:27:44.726Z</time></trkpt><trkpt lat="43.4406415" lon="13.6262095"><ele>30.333333333333336</ele><time>2026-04-11T16:27:45.726Z</time></trkpt><trkpt lat="43.4406358" lon="13.6264662"><ele>30.0</ele><time>2026-04-11T16:27:46.727Z</time></trkpt><trkpt lat="43.440626" lon="13.6267168"><ele>30.0</ele><time>2026-04-11T16:27:47.727Z</time></trkpt><trkpt lat="43.4406231" lon="13.626966"><ele>30.0</ele><time>2026-04-11T16:27:48.727Z</time></trkpt><trkpt lat="43.4406259" lon="13.6272085"><ele>30.0</ele><time>2026-04-11T16:27:49.726Z</time></trkpt><trkpt lat="43.4406238" lon="13.6274385"><ele>30.0</ele><time>2026-04-11T16:27:50.727Z</time></trkpt><trkpt lat="43.4406179" lon="13.6276469"><ele>30.0</ele><time>2026-04-11T16:27:51.727Z</time></trkpt><trkpt lat="43.4406212" lon="13.6278589"><ele>30.0</ele><time>2026-04-11T16:27:52.727Z</time></trkpt><trkpt lat="43.4406201" lon="13.6280602"><ele>29.666666666666664</ele><time>2026-04-11T16:27:53.727Z</time></trkpt><trkpt lat="43.4406255" lon="13.6282691"><ele>29.333333333333332</ele><time>2026-04-11T16:27:54.727Z</time></trkpt><trkpt lat="43.440627" lon="13.6284845"><ele>29.0</ele><time>2026-04-11T16:27:55.727Z</time></trkpt><trkpt lat="43.4406193" lon="13.6287009"><ele>28.666666666666664</ele><time>2026-04-11T16:27:56.726Z</time></trkpt><trkpt lat="43.4406127" lon="13.6289203"><ele>28.333333333333336</ele><time>2026-04-11T16:27:57.727Z</time></trkpt><trkpt lat="43.4406034" lon="13.6291478"><ele>28.0</ele><time>2026-04-11T16:27:58.726Z</time></trkpt><trkpt lat="43.4405966" lon="13.6293875"><ele>27.666666666666668</ele><time>2026-04-11T16:27:59.727Z</time></trkpt><trkpt lat="43.4406094" lon="13.6296345"><ele>27.333333333333336</ele><time>2026-04-11T16:28:00.726Z</time></trkpt><trkpt lat="43.4406118" lon="13.6298807"><ele>27.0</ele><time>2026-04-11T16:28:01.726Z</time></trkpt><trkpt lat="43.4406204" lon="13.6301279"><ele>25.666666666666668</ele><time>2026-04-11T16:28:02.726Z</time></trkpt><trkpt lat="43.4406327" lon="13.6303757"><ele>24.333333333333336</ele><time>2026-04-11T16:28:03.727Z</time></trkpt><trkpt lat="43.4406527" lon="13.6306307"><ele>23.0</ele><time>2026-04-11T16:28:04.727Z</time></trkpt><trkpt lat="43.4406769" lon="13.6308908"><ele>22.0</ele><time>2026-04-11T16:28:05.727Z</time></trkpt><trkpt lat="43.4406948" lon="13.6311453"><ele>21.0</ele><time>2026-04-11T16:28:06.727Z</time></trkpt><trkpt lat="43.4407192" lon="13.6314026"><ele>20.0</ele><time>2026-04-11T16:28:07.727Z</time></trkpt><trkpt lat="43.4407398" lon="13.6316625"><ele>20.0</ele><time>2026-04-11T16:28:08.727Z</time></trkpt><trkpt lat="43.4407616" lon="13.6319103"><ele>20.0</ele><time>2026-04-11T16:28:09.727Z</time></trkpt><trkpt lat="43.4407876" lon="13.632157"><ele>20.0</ele><time>2026-04-11T16:28:10.727Z</time></trkpt><trkpt lat="43.4408311" lon="13.6323916"><ele>19.0</ele><time>2026-04-11T16:28:11.726Z</time></trkpt><trkpt lat="43.4408972" lon="13.6326199"><ele>18.0</ele><time>2026-04-11T16:28:12.727Z</time></trkpt><trkpt lat="43.4409741" lon="13.6328338"><ele>17.0</ele><time>2026-04-11T16:28:13.726Z</time></trkpt><trkpt lat="43.4410701" lon="13.6330369"><ele>16.666666666666668</ele><time>2026-04-11T16:28:14.727Z</time></trkpt><trkpt lat="43.4411769" lon="13.6332297"><ele>16.333333333333332</ele><time>2026-04-11T16:28:15.727Z</time></trkpt><trkpt lat="43.4412984" lon="13.6334081"><ele>16.0</ele><time>2026-04-11T16:28:16.726Z</time></trkpt><trkpt lat="43.4414299" lon="13.6335693"><ele>16.0</ele><time>2026-04-11T16:28:17.727Z</time></trkpt><trkpt lat="43.4415702" lon="13.6337085"><ele>16.0</ele><time>2026-04-11T16:28:18.727Z</time></trkpt><trkpt lat="43.4417126" lon="13.6338481"><ele>16.0</ele><time>2026-04-11T16:28:19.726Z</time></trkpt><trkpt lat="43.4418577" lon="13.6339848"><ele>16.0</ele><time>2026-04-11T16:28:20.726Z</time></trkpt><trkpt lat="43.4419929" lon="13.6341188"><ele>16.0</ele><time>2026-04-11T16:28:21.726Z</time></trkpt><trkpt lat="43.4421193" lon="13.6342489"><ele>16.0</ele><time>2026-04-11T16:28:22.727Z</time></trkpt><trkpt lat="43.4422427" lon="13.6343812"><ele>18.0</ele><time>2026-04-11T16:28:23.726Z</time></trkpt><trkpt lat="43.4423625" lon="13.6345194"><ele>20.0</ele><time>2026-04-11T16:28:24.727Z</time></trkpt><trkpt lat="43.4424733" lon="13.6346841"><ele>22.0</ele><time>2026-04-11T16:28:25.727Z</time></trkpt><trkpt lat="43.4425648" lon="13.6348616"><ele>22.0</ele><time>2026-04-11T16:28:26.727Z</time></trkpt><trkpt lat="43.4426442" lon="13.6350521"><ele>22.0</ele><time>2026-04-11T16:28:27.727Z</time></trkpt><trkpt lat="43.4427093" lon="13.6352538"><ele>22.0</ele><time>2026-04-11T16:28:28.726Z</time></trkpt><trkpt lat="43.4427547" lon="13.6354505"><ele>23.0</ele><time>2026-04-11T16:28:29.726Z</time></trkpt><trkpt lat="43.44279" lon="13.6356302"><ele>24.0</ele><time>2026-04-11T16:28:30.726Z</time></trkpt><trkpt lat="43.4428133" lon="13.6358243"><ele>25.0</ele><time>2026-04-11T16:28:31.726Z</time></trkpt><trkpt lat="43.4427906" lon="13.6360064"><ele>26.0</ele><time>2026-04-11T16:28:32.727Z</time></trkpt><trkpt lat="43.4427637" lon="13.6361821"><ele>27.5</ele><time>2026-04-11T16:28:33.726Z</time></trkpt><trkpt lat="43.4427115" lon="13.6363379"><ele>29.0</ele><time>2026-04-11T16:28:34.726Z</time></trkpt><trkpt lat="43.4426396" lon="13.6364824"><ele>30.5</ele><time>2026-04-11T16:28:35.726Z</time></trkpt><trkpt lat="43.4425514" lon="13.6366115"><ele>32.0</ele><time>2026-04-11T16:28:36.727Z</time></trkpt><trkpt lat="43.4424552" lon="13.6367163"><ele>32.0</ele><time>2026-04-11T16:28:37.726Z</time></trkpt><trkpt lat="43.4423452" lon="13.6368202"><ele>32.0</ele><time>2026-04-11T16:28:38.726Z</time></trkpt><trkpt lat="43.4422367" lon="13.6369092"><ele>32.0</ele><time>2026-04-11T16:28:39.727Z</time></trkpt><trkpt lat="43.442125" lon="13.6370137"><ele>32.0</ele><time>2026-04-11T16:28:40.727Z</time></trkpt><trkpt lat="43.4420126" lon="13.6371286"><ele>32.5</ele><time>2026-04-11T16:28:41.726Z</time></trkpt><trkpt lat="43.4419011" lon="13.6372407"><ele>33.0</ele><time>2026-04-11T16:28:42.727Z</time></trkpt><trkpt lat="43.441788" lon="13.6373602"><ele>33.5</ele><time>2026-04-11T16:28:43.727Z</time></trkpt><trkpt lat="43.441674" lon="13.6374916"><ele>34.0</ele><time>2026-04-11T16:28:44.727Z</time></trkpt><trkpt lat="43.4415655" lon="13.6376303"><ele>34.0</ele><time>2026-04-11T16:28:45.727Z</time></trkpt><trkpt lat="43.4414577" lon="13.6377783"><ele>34.0</ele><time>2026-04-11T16:28:46.727Z</time></trkpt><trkpt lat="43.4413476" lon="13.6379428"><ele>34.0</ele><time>2026-04-11T16:28:47.727Z</time></trkpt><trkpt lat="43.4412411" lon="13.63811"><ele>32.75</ele><time>2026-04-11T16:28:48.726Z</time></trkpt><trkpt lat="43.4411437" lon="13.6382668"><ele>31.5</ele><time>2026-04-11T16:28:49.726Z</time></trkpt><trkpt lat="43.4410525" lon="13.6384247"><ele>30.25</ele><time>2026-04-11T16:28:50.726Z</time></trkpt><trkpt lat="43.4409597" lon="13.6385779"><ele>29.0</ele><time>2026-04-11T16:28:51.726Z</time></trkpt><trkpt lat="43.4408762" lon="13.6387259"><ele>29.0</ele><time>2026-04-11T16:28:52.727Z</time></trkpt><trkpt lat="43.4408007" lon="13.6388456"><ele>29.0</ele><time>2026-04-11T16:28:53.726Z</time></trkpt><trkpt lat="43.4407531" lon="13.6389674"><ele>29.0</ele><time>2026-04-11T16:28:54.727Z</time></trkpt><trkpt lat="43.4407386" lon="13.6390875"><ele>29.0</ele><time>2026-04-11T16:28:55.727Z</time></trkpt><trkpt lat="43.4407585" lon="13.6392027"><ele>29.0</ele><time>2026-04-11T16:28:56.727Z</time></trkpt><trkpt lat="43.4408148" lon="13.6393046"><ele>29.0</ele><time>2026-04-11T16:28:57.726Z</time></trkpt><trkpt lat="43.4409053" lon="13.6394026"><ele>29.0</ele><time>2026-04-11T16:28:58.727Z</time></trkpt><trkpt lat="43.4410133" lon="13.6395017"><ele>29.0</ele><time>2026-04-11T16:28:59.727Z</time></trkpt><trkpt lat="43.4411299" lon="13.6395974"><ele>29.0</ele><time>2026-04-11T16:29:00.726Z</time></trkpt><trkpt lat="43.4412459" lon="13.639694"><ele>33.75</ele><time>2026-04-11T16:29:01.726Z</time></trkpt><trkpt lat="43.4413649" lon="13.6397844"><ele>38.5</ele><time>2026-04-11T16:29:02.726Z</time></trkpt><trkpt lat="43.4414916" lon="13.6398788"><ele>43.25</ele><time>2026-04-11T16:29:03.726Z</time></trkpt><trkpt lat="43.4416076" lon="13.6399722"><ele>48.0</ele><time>2026-04-11T16:29:04.726Z</time></trkpt><trkpt lat="43.4417133" lon="13.64005"><ele>48.0</ele><time>2026-04-11T16:29:05.727Z</time></trkpt><trkpt lat="43.4418215" lon="13.6401293"><ele>48.0</ele><time>2026-04-11T16:29:06.727Z</time></trkpt><trkpt lat="43.4419175" lon="13.6402112"><ele>48.0</ele><time>2026-04-11T16:29:07.727Z</time></trkpt><trkpt lat="43.4420028" lon="13.640286"><ele>48.0</ele><time>2026-04-11T16:29:08.727Z</time></trkpt><trkpt lat="43.4420799" lon="13.640341"><ele>48.0</ele><time>2026-04-11T16:29:09.726Z</time></trkpt><trkpt lat="43.4421565" lon="13.6403889"><ele>47.833333333333336</ele><time>2026-04-11T16:29:10.727Z</time></trkpt><trkpt lat="43.4422262" lon="13.6404432"><ele>47.666666666666664</ele><time>2026-04-11T16:29:11.726Z</time></trkpt><trkpt lat="43.4422881" lon="13.6404912"><ele>47.5</ele><time>2026-04-11T16:29:12.726Z</time></trkpt><trkpt lat="43.4423425" lon="13.6405354"><ele>47.33333333333333</ele><time>2026-04-11T16:29:13.727Z</time></trkpt><trkpt lat="43.4424036" lon="13.6406331"><ele>47.166666666666664</ele><time>2026-04-11T16:29:15.726Z</time></trkpt><trkpt lat="43.4423961" lon="13.6407499"><ele>47.0</ele><time>2026-04-11T16:29:17.726Z</time></trkpt><trkpt lat="43.4423678" lon="13.6408291"><ele>47.0</ele><time>2026-04-11T16:29:18.727Z</time></trkpt><trkpt lat="43.4423204" lon="13.6409315"><ele>47.0</ele><time>2026-04-11T16:29:19.727Z</time></trkpt><trkpt lat="43.4422578" lon="13.6410564"><ele>47.0</ele><time>2026-04-11T16:29:20.727Z</time></trkpt><trkpt lat="43.4421692" lon="13.6412225"><ele>47.0</ele><time>2026-04-11T16:29:21.727Z</time></trkpt><trkpt lat="43.4420464" lon="13.6414197"><ele>48.0</ele><time>2026-04-11T16:29:22.727Z</time></trkpt><trkpt lat="43.4419107" lon="13.6416356"><ele>49.0</ele><time>2026-04-11T16:29:23.727Z</time></trkpt><trkpt lat="43.4417741" lon="13.6418578"><ele>50.0</ele><time>2026-04-11T16:29:24.727Z</time></trkpt><trkpt lat="43.4416365" lon="13.6420882"><ele>49.66666666666667</ele><time>2026-04-11T16:29:25.726Z</time></trkpt><trkpt lat="43.4414987" lon="13.6423086"><ele>49.33333333333333</ele><time>2026-04-11T16:29:26.726Z</time></trkpt><trkpt lat="43.4413539" lon="13.6425321"><ele>49.0</ele><time>2026-04-11T16:29:27.727Z</time></trkpt><trkpt lat="43.4412026" lon="13.6427491"><ele>46.666666666666664</ele><time>2026-04-11T16:29:28.726Z</time></trkpt><trkpt lat="43.4410406" lon="13.6429567"><ele>44.33333333333333</ele><time>2026-04-11T16:29:29.727Z</time></trkpt><trkpt lat="43.4408771" lon="13.6431623"><ele>42.0</ele><time>2026-04-11T16:29:30.727Z</time></trkpt><trkpt lat="43.4407226" lon="13.6433771"><ele>42.0</ele><time>2026-04-11T16:29:31.727Z</time></trkpt><trkpt lat="43.4405838" lon="13.6436046"><ele>42.0</ele><time>2026-04-11T16:29:32.726Z</time></trkpt><trkpt lat="43.4404597" lon="13.6438679"><ele>42.0</ele><time>2026-04-11T16:29:33.726Z</time></trkpt><trkpt lat="43.4403503" lon="13.6441352"><ele>43.0</ele><time>2026-04-11T16:29:34.726Z</time></trkpt><trkpt lat="43.4402605" lon="13.6444071"><ele>44.0</ele><time>2026-04-11T16:29:35.727Z</time></trkpt><trkpt lat="43.4401875" lon="13.6446591"><ele>45.0</ele><time>2026-04-11T16:29:36.727Z</time></trkpt><trkpt lat="43.4401276" lon="13.6449029"><ele>45.0</ele><time>2026-04-11T16:29:37.726Z</time></trkpt><trkpt lat="43.4400732" lon="13.6451289"><ele>45.0</ele><time>2026-04-11T16:29:38.727Z</time></trkpt><trkpt lat="43.4400171" lon="13.6453463"><ele>45.0</ele><time>2026-04-11T16:29:39.726Z</time></trkpt><trkpt lat="43.43997" lon="13.6455583"><ele>44.25</ele><time>2026-04-11T16:29:40.726Z</time></trkpt><trkpt lat="43.4399287" lon="13.6457568"><ele>43.5</ele><time>2026-04-11T16:29:41.727Z</time></trkpt><trkpt lat="43.4398859" lon="13.645943"><ele>42.75</ele><time>2026-04-11T16:29:42.726Z</time></trkpt><trkpt lat="43.4398454" lon="13.6460993"><ele>42.0</ele><time>2026-04-11T16:29:43.727Z</time></trkpt><trkpt lat="43.4397979" lon="13.646206"><ele>41.666666666666664</ele><time>2026-04-11T16:29:44.726Z</time></trkpt><trkpt lat="43.4397356" lon="13.6462716"><ele>41.333333333333336</ele><time>2026-04-11T16:29:45.727Z</time></trkpt><trkpt lat="43.4396665" lon="13.6463398"><ele>41.0</ele><time>2026-04-11T16:29:46.726Z</time></trkpt><trkpt lat="43.439641" lon="13.6464281"><ele>40.66666666666667</ele><time>2026-04-11T16:29:47.726Z</time></trkpt><trkpt lat="43.4396548" lon="13.6465366"><ele>40.333333333333336</ele><time>2026-04-11T16:29:48.727Z</time></trkpt><trkpt lat="43.4397143" lon="13.6466903"><ele>40.0</ele><time>2026-04-11T16:29:49.727Z</time></trkpt><trkpt lat="43.4397976" lon="13.6468735"><ele>39.0</ele><time>2026-04-11T16:29:50.726Z</time></trkpt><trkpt lat="43.439884" lon="13.6470753"><ele>38.0</ele><time>2026-04-11T16:29:51.726Z</time></trkpt><trkpt lat="43.4399693" lon="13.6472707"><ele>37.0</ele><time>2026-04-11T16:29:52.727Z</time></trkpt><trkpt lat="43.4400687" lon="13.6474894"><ele>37.0</ele><time>2026-04-11T16:29:53.727Z</time></trkpt><trkpt lat="43.4401686" lon="13.6477045"><ele>37.0</ele><time>2026-04-11T16:29:54.727Z</time></trkpt><trkpt lat="43.4402583" lon="13.6479125"><ele>37.0</ele><time>2026-04-11T16:29:55.726Z</time></trkpt><trkpt lat="43.4403459" lon="13.6481153"><ele>36.25</ele><time>2026-04-11T16:29:56.726Z</time></trkpt><trkpt lat="43.4404272" lon="13.6483042"><ele>35.5</ele><time>2026-04-11T16:29:57.727Z</time></trkpt><trkpt lat="43.4405039" lon="13.6484771"><ele>34.75</ele><time>2026-04-11T16:29:58.726Z</time></trkpt><trkpt lat="43.440585" lon="13.6486347"><ele>34.0</ele><time>2026-04-11T16:29:59.726Z</time></trkpt><trkpt lat="43.4406523" lon="13.6487853"><ele>33.75</ele><time>2026-04-11T16:30:00.726Z</time></trkpt><trkpt lat="43.4407175" lon="13.6489286"><ele>33.5</ele><time>2026-04-11T16:30:01.727Z</time></trkpt><trkpt lat="43.4407836" lon="13.6490704"><ele>33.25</ele><time>2026-04-11T16:30:02.727Z</time></trkpt><trkpt lat="43.4408483" lon="13.6492132"><ele>33.0</ele><time>2026-04-11T16:30:03.727Z</time></trkpt><trkpt lat="43.4409183" lon="13.6493584"><ele>32.6</ele><time>2026-04-11T16:30:04.727Z</time></trkpt><trkpt lat="43.44094" lon="13.6495142"><ele>32.199999999999996</ele><time>2026-04-11T16:30:05.726Z</time></trkpt><trkpt lat="43.4409293" lon="13.6496555"><ele>31.8</ele><time>2026-04-11T16:30:06.727Z</time></trkpt><trkpt lat="43.4409057" lon="13.6497994"><ele>31.4</ele><time>2026-04-11T16:30:07.726Z</time></trkpt><trkpt lat="43.4408808" lon="13.6499406"><ele>31.0</ele><time>2026-04-11T16:30:08.727Z</time></trkpt><trkpt lat="43.4408559" lon="13.6500922"><ele>31.0</ele><time>2026-04-11T16:30:09.727Z</time></trkpt><trkpt lat="43.4408312" lon="13.6502475"><ele>31.0</ele><time>2026-04-11T16:30:10.727Z</time></trkpt><trkpt lat="43.4407982" lon="13.6504018"><ele>31.0</ele><time>2026-04-11T16:30:11.727Z</time></trkpt><trkpt lat="43.4407621" lon="13.6505537"><ele>31.0</ele><time>2026-04-11T16:30:12.727Z</time></trkpt><trkpt lat="43.4407379" lon="13.6507048"><ele>30.0</ele><time>2026-04-11T16:30:13.727Z</time></trkpt><trkpt lat="43.4407136" lon="13.6508565"><ele>29.0</ele><time>2026-04-11T16:30:14.727Z</time></trkpt><trkpt lat="43.4406946" lon="13.6510049"><ele>28.0</ele><time>2026-04-11T16:30:15.727Z</time></trkpt><trkpt lat="43.4406771" lon="13.6511674"><ele>27.0</ele><time>2026-04-11T16:30:16.727Z</time></trkpt><trkpt lat="43.4406449" lon="13.6513428"><ele>25.333333333333332</ele><time>2026-04-11T16:30:17.727Z</time></trkpt><trkpt lat="43.4406075" lon="13.651536"><ele>23.666666666666664</ele><time>2026-04-11T16:30:18.727Z</time></trkpt><trkpt lat="43.4405595" lon="13.651736"><ele>22.0</ele><time>2026-04-11T16:30:19.727Z</time></trkpt><trkpt lat="43.4405187" lon="13.6519514"><ele>18.666666666666664</ele><time>2026-04-11T16:30:20.727Z</time></trkpt><trkpt lat="43.4404494" lon="13.6521845"><ele>15.333333333333332</ele><time>2026-04-11T16:30:21.726Z</time></trkpt><trkpt lat="43.4403631" lon="13.6524382"><ele>12.0</ele><time>2026-04-11T16:30:22.727Z</time></trkpt><trkpt lat="43.4402832" lon="13.6526772"><ele>11.0</ele><time>2026-04-11T16:30:23.726Z</time></trkpt><trkpt lat="43.4402228" lon="13.6529255"><ele>10.0</ele><time>2026-04-11T16:30:24.726Z</time></trkpt><trkpt lat="43.4401808" lon="13.6531923"><ele>9.0</ele><time>2026-04-11T16:30:25.726Z</time></trkpt><trkpt lat="43.4401506" lon="13.653454"><ele>7.333333333333333</ele><time>2026-04-11T16:30:26.726Z</time></trkpt><trkpt lat="43.4401288" lon="13.6537071"><ele>5.666666666666666</ele><time>2026-04-11T16:30:27.726Z</time></trkpt><trkpt lat="43.4401141" lon="13.6539341"><ele>4.0</ele><time>2026-04-11T16:30:28.726Z</time></trkpt><trkpt lat="43.4400977" lon="13.654144"><ele>4.0</ele><time>2026-04-11T16:30:29.726Z</time></trkpt><trkpt lat="43.4400716" lon="13.6543241"><ele>4.0</ele><time>2026-04-11T16:30:30.726Z</time></trkpt><trkpt lat="43.4400383" lon="13.6544752"><ele>4.0</ele><time>2026-04-11T16:30:31.726Z</time></trkpt><trkpt lat="43.4399931" lon="13.6545978"><ele>4.0</ele><time>2026-04-11T16:30:32.727Z</time></trkpt><trkpt lat="43.4399256" lon="13.6546679"><ele>4.0</ele><time>2026-04-11T16:30:33.727Z</time></trkpt><trkpt lat="43.4398295" lon="13.6547182"><ele>2.6666666666666665</ele><time>2026-04-11T16:30:34.727Z</time></trkpt><trkpt lat="43.4396898" lon="13.6547323"><ele>1.3333333333333333</ele><time>2026-04-11T16:30:35.727Z</time></trkpt><trkpt lat="43.4395181" lon="13.654748"><ele>0.0</ele><time>2026-04-11T16:30:36.727Z</time></trkpt><trkpt lat="43.4393221" lon="13.6547678"><ele>0.0</ele><time>2026-04-11T16:30:37.727Z</time></trkpt><trkpt lat="43.4390872" lon="13.6548013"><ele>0.0</ele><time>2026-04-11T16:30:38.727Z</time></trkpt><trkpt lat="43.4388435" lon="13.654815"><ele>0.3333333333333333</ele><time>2026-04-11T16:30:39.727Z</time></trkpt><trkpt lat="43.4386315" lon="13.6548228"><ele>0.6666666666666666</ele><time>2026-04-11T16:30:40.727Z</time></trkpt><trkpt lat="43.4384468" lon="13.6548284"><ele>1.0</ele><time>2026-04-11T16:30:41.727Z</time></trkpt><trkpt lat="43.4383084" lon="13.654844"><ele>1.0</ele><time>2026-04-11T16:30:42.726Z</time></trkpt><trkpt lat="43.4382005" lon="13.6548454"><ele>1.0</ele><time>2026-04-11T16:30:43.726Z</time></trkpt><trkpt lat="43.4381203" lon="13.6548493"><ele>1.0</ele><time>2026-04-11T16:30:44.727Z</time></trkpt><trkpt lat="43.4380303" lon="13.6548448"><ele>1.0</ele><time>2026-04-11T16:30:45.727Z</time></trkpt><trkpt lat="43.4379365" lon="13.6548298"><ele>1.0</ele><time>2026-04-11T16:30:46.727Z</time></trkpt><trkpt lat="43.4378299" lon="13.654809"><ele>0.8</ele><time>2026-04-11T16:30:47.727Z</time></trkpt><trkpt lat="43.4377441" lon="13.6547677"><ele>0.6000000000000001</ele><time>2026-04-11T16:30:48.727Z</time></trkpt><trkpt lat="43.4376739" lon="13.6547373"><ele>0.4</ele><time>2026-04-11T16:30:49.726Z</time></trkpt><trkpt lat="43.4375729" lon="13.6547926"><ele>0.2</ele><time>2026-04-11T16:30:51.726Z</time></trkpt><trkpt lat="43.4375579" lon="13.6548857"><ele>0.0</ele><time>2026-04-11T16:30:52.727Z</time></trkpt><trkpt lat="43.4375648" lon="13.655059"><ele>0.0</ele><time>2026-04-11T16:30:53.727Z</time></trkpt><trkpt lat="43.4375691" lon="13.655286"><ele>0.0</ele><time>2026-04-11T16:30:54.727Z</time></trkpt><trkpt lat="43.437568" lon="13.655532"><ele>0.0</ele><time>2026-04-11T16:30:55.726Z</time></trkpt><trkpt lat="43.4375701" lon="13.6557821"><ele>0.0</ele><time>2026-04-11T16:30:56.726Z</time></trkpt><trkpt lat="43.4375685" lon="13.6560345"><ele>0.0</ele><time>2026-04-11T16:30:57.727Z</time></trkpt><trkpt lat="43.4375645" lon="13.6562528"><ele>0.0</ele><time>2026-04-11T16:30:58.726Z</time></trkpt><trkpt lat="43.4375657" lon="13.6564651"><ele>0.25</ele><time>2026-04-11T16:30:59.726Z</time></trkpt><trkpt lat="43.4375642" lon="13.656668"><ele>0.5</ele><time>2026-04-11T16:31:00.726Z</time></trkpt><trkpt lat="43.4375733" lon="13.6568607"><ele>0.75</ele><time>2026-04-11T16:31:01.726Z</time></trkpt><trkpt lat="43.4375711" lon="13.6570438"><ele>1.0</ele><time>2026-04-11T16:31:02.727Z</time></trkpt><trkpt lat="43.4375756" lon="13.6572339"><ele>1.1666666666666665</ele><time>2026-04-11T16:31:03.727Z</time></trkpt><trkpt lat="43.437568" lon="13.6573918"><ele>1.3333333333333333</ele><time>2026-04-11T16:31:04.727Z</time></trkpt><trkpt lat="43.4375616" lon="13.657526"><ele>1.5</ele><time>2026-04-11T16:31:05.727Z</time></trkpt><trkpt lat="43.437552" lon="13.6576228"><ele>1.6666666666666665</ele><time>2026-04-11T16:31:06.726Z</time></trkpt><trkpt lat="43.4375402" lon="13.6577189"><ele>1.8333333333333333</ele><time>2026-04-11T16:31:07.727Z</time></trkpt><trkpt lat="43.4375045" lon="13.6578005"><ele>2.0</ele><time>2026-04-11T16:31:08.727Z</time></trkpt><trkpt lat="43.4374988" lon="13.6579643"><ele>1.9999999999999998</ele><time>2026-04-11T16:31:10.726Z</time></trkpt><trkpt lat="43.4375724" lon="13.6580296"><ele>2.0</ele><time>2026-04-11T16:31:12.727Z</time></trkpt><trkpt lat="43.4376885" lon="13.6579712"><ele>2.0</ele><time>2026-04-11T16:31:14.726Z</time></trkpt><trkpt lat="43.4377504" lon="13.6579253"><ele>2.0</ele><time>2026-04-11T16:31:15.726Z</time></trkpt><trkpt lat="43.4378214" lon="13.6578925"><ele>1.9999999999999998</ele><time>2026-04-11T16:31:16.726Z</time></trkpt><trkpt lat="43.4378941" lon="13.6578699"><ele>2.0</ele><time>2026-04-11T16:31:17.727Z</time></trkpt><trkpt lat="43.4379744" lon="13.6578458"><ele>2.0</ele><time>2026-04-11T16:31:18.726Z</time></trkpt><trkpt lat="43.4380539" lon="13.6578261"><ele>2.0</ele><time>2026-04-11T16:31:19.727Z</time></trkpt><trkpt lat="43.4381444" lon="13.6578099"><ele>2.0</ele><time>2026-04-11T16:31:20.727Z</time></trkpt><trkpt lat="43.4382365" lon="13.6577884"><ele>2.0</ele><time>2026-04-11T16:31:21.727Z</time></trkpt><trkpt lat="43.4383313" lon="13.657773"><ele>2.0</ele><time>2026-04-11T16:31:22.727Z</time></trkpt><trkpt lat="43.438419" lon="13.6577463"><ele>1.9999999999999998</ele><time>2026-04-11T16:31:23.727Z</time></trkpt><trkpt lat="43.4384945" lon="13.6577418"><ele>2.0</ele><time>2026-04-11T16:31:24.726Z</time></trkpt><trkpt lat="43.4385785" lon="13.6577859"><ele>2.0</ele><time>2026-04-11T16:31:26.727Z</time></trkpt><trkpt lat="43.4386176" lon="13.6579023"><ele>2.0</ele><time>2026-04-11T16:31:29.726Z</time></trkpt><trkpt lat="43.4386685" lon="13.6579541"><ele>1.9999999999999998</ele><time>2026-04-11T16:31:32.726Z</time></trkpt><trkpt lat="43.4387417" lon="13.6579213"><ele>2.0</ele><time>2026-04-11T16:35:23.727Z</time></trkpt><trkpt lat="43.4387556" lon="13.6578145"><ele>1.8333333333333333</ele><time>2026-04-11T16:35:25.727Z</time></trkpt><trkpt lat="43.4387907" lon="13.6577244"><ele>1.6666666666666665</ele><time>2026-04-11T16:35:27.727Z</time></trkpt><trkpt lat="43.4388501" lon="13.6576927"><ele>1.5</ele><time>2026-04-11T16:35:28.727Z</time></trkpt><trkpt lat="43.4389806" lon="13.6576638"><ele>1.3333333333333333</ele><time>2026-04-11T16:35:30.726Z</time></trkpt><trkpt lat="43.4390552" lon="13.6576403"><ele>1.1666666666666665</ele><time>2026-04-11T16:35:31.726Z</time></trkpt><trkpt lat="43.4391453" lon="13.6576232"><ele>1.0</ele><time>2026-04-11T16:35:32.727Z</time></trkpt><trkpt lat="43.4392415" lon="13.6576023"><ele>1.0</ele><time>2026-04-11T16:35:33.726Z</time></trkpt><trkpt lat="43.4393471" lon="13.6575804"><ele>1.0</ele><time>2026-04-11T16:35:34.726Z</time></trkpt><trkpt lat="43.4394536" lon="13.6575535"><ele>1.0</ele><time>2026-04-11T16:35:35.726Z</time></trkpt><trkpt lat="43.4395706" lon="13.6575281"><ele>1.0</ele><time>2026-04-11T16:35:36.727Z</time></trkpt><trkpt lat="43.4396941" lon="13.6574984"><ele>1.0</ele><time>2026-04-11T16:35:37.726Z</time></trkpt><trkpt lat="43.4398149" lon="13.6574732"><ele>1.0</ele><time>2026-04-11T16:35:38.727Z</time></trkpt><trkpt lat="43.4399377" lon="13.6574463"><ele>1.0</ele><time>2026-04-11T16:35:39.726Z</time></trkpt><trkpt lat="43.440059" lon="13.6574206"><ele>1.0</ele><time>2026-04-11T16:35:40.727Z</time></trkpt><trkpt lat="43.4401742" lon="13.6573904"><ele>1.0</ele><time>2026-04-11T16:35:41.726Z</time></trkpt><trkpt lat="43.4402882" lon="13.6573662"><ele>1.0</ele><time>2026-04-11T16:35:42.727Z</time></trkpt><trkpt lat="43.4403979" lon="13.657339"><ele>1.0</ele><time>2026-04-11T16:35:43.727Z</time></trkpt><trkpt lat="43.4405053" lon="13.6573088"><ele>1.0</ele><time>2026-04-11T16:35:44.727Z</time></trkpt><trkpt lat="43.4406156" lon="13.6572815"><ele>1.0</ele><time>2026-04-11T16:35:45.727Z</time></trkpt><trkpt lat="43.4407252" lon="13.6572466"><ele>0.8</ele><time>2026-04-11T16:35:46.727Z</time></trkpt><trkpt lat="43.4408248" lon="13.6572089"><ele>0.6000000000000001</ele><time>2026-04-11T16:35:47.727Z</time></trkpt><trkpt lat="43.4409195" lon="13.6571739"><ele>0.4</ele><time>2026-04-11T16:35:48.727Z</time></trkpt><trkpt lat="43.4410105" lon="13.657142"><ele>0.2</ele><time>2026-04-11T16:35:49.727Z</time></trkpt><trkpt lat="43.4411016" lon="13.6571218"><ele>0.0</ele><time>2026-04-11T16:35:50.726Z</time></trkpt><trkpt lat="43.4411895" lon="13.6571183"><ele>0.0</ele><time>2026-04-11T16:35:51.726Z</time></trkpt><trkpt lat="43.4412749" lon="13.6571285"><ele>0.0</ele><time>2026-04-11T16:35:52.726Z</time></trkpt><trkpt lat="43.4413579" lon="13.6571135"><ele>0.0</ele><time>2026-04-11T16:35:53.727Z</time></trkpt><trkpt lat="43.4414438" lon="13.6570677"><ele>0.0</ele><time>2026-04-11T16:35:54.727Z</time></trkpt><trkpt lat="43.4415239" lon="13.6569953"><ele>0.0</ele><time>2026-04-11T16:35:55.726Z</time></trkpt><trkpt lat="43.4416074" lon="13.6569143"><ele>0.2</ele><time>2026-04-11T16:35:56.727Z</time></trkpt><trkpt lat="43.4417005" lon="13.6568393"><ele>0.4</ele><time>2026-04-11T16:35:57.727Z</time></trkpt><trkpt lat="43.4417999" lon="13.6567725"><ele>0.6000000000000001</ele><time>2026-04-11T16:35:58.727Z</time></trkpt><trkpt lat="43.4419046" lon="13.6567103"><ele>0.8</ele><time>2026-04-11T16:35:59.727Z</time></trkpt><trkpt lat="43.4420124" lon="13.6566547"><ele>1.0</ele><time>2026-04-11T16:36:00.727Z</time></trkpt><trkpt lat="43.4421222" lon="13.6565993"><ele>1.0</ele><time>2026-04-11T16:36:01.727Z</time></trkpt><trkpt lat="43.4422358" lon="13.6565456"><ele>1.0</ele><time>2026-04-11T16:36:02.727Z</time></trkpt><trkpt lat="43.442351" lon="13.6564942"><ele>1.0</ele><time>2026-04-11T16:36:03.727Z</time></trkpt><trkpt lat="43.4424675" lon="13.65644"><ele>1.0</ele><time>2026-04-11T16:36:04.727Z</time></trkpt><trkpt lat="43.4425852" lon="13.6563861"><ele>1.0</ele><time>2026-04-11T16:36:05.726Z</time></trkpt><trkpt lat="43.442704" lon="13.6563325"><ele>1.0</ele><time>2026-04-11T16:36:06.727Z</time></trkpt><trkpt lat="43.4428248" lon="13.65628"><ele>1.0</ele><time>2026-04-11T16:36:07.727Z</time></trkpt><trkpt lat="43.4429451" lon="13.656232"><ele>1.0</ele><time>2026-04-11T16:36:08.726Z</time></trkpt><trkpt lat="43.4430676" lon="13.6561924"><ele>1.25</ele><time>2026-04-11T16:36:09.726Z</time></trkpt><trkpt lat="43.4431926" lon="13.6561642"><ele>1.5</ele><time>2026-04-11T16:36:10.726Z</time></trkpt><trkpt lat="43.4433175" lon="13.6561489"><ele>1.75</ele><time>2026-04-11T16:36:11.727Z</time></trkpt><trkpt lat="43.4434429" lon="13.6561547"><ele>2.0</ele><time>2026-04-11T16:36:12.726Z</time></trkpt><trkpt lat="43.4435668" lon="13.6561783"><ele>2.0</ele><time>2026-04-11T16:36:13.726Z</time></trkpt><trkpt lat="43.4436835" lon="13.6562131"><ele>2.0</ele><time>2026-04-11T16:36:14.726Z</time></trkpt><trkpt lat="43.443793" lon="13.6562556"><ele>2.0</ele><time>2026-04-11T16:36:15.726Z</time></trkpt><trkpt lat="43.4439005" lon="13.656305"><ele>2.0</ele><time>2026-04-11T16:36:16.727Z</time></trkpt><trkpt lat="43.4440087" lon="13.6563538"><ele>2.0</ele><time>2026-04-11T16:36:17.726Z</time></trkpt><trkpt lat="43.4441182" lon="13.6564024"><ele>2.0</ele><time>2026-04-11T16:36:18.727Z</time></trkpt><trkpt lat="43.4442293" lon="13.6564499"><ele>2.0</ele><time>2026-04-11T16:36:19.727Z</time></trkpt><trkpt lat="43.4443419" lon="13.656498"><ele>2.0</ele><time>2026-04-11T16:36:20.726Z</time></trkpt><trkpt lat="43.4444516" lon="13.6565477"><ele>2.0</ele><time>2026-04-11T16:36:21.726Z</time></trkpt><trkpt lat="43.4445605" lon="13.6565954"><ele>2.0</ele><time>2026-04-11T16:36:22.726Z</time></trkpt><trkpt lat="43.4446675" lon="13.6566454"><ele>2.0</ele><time>2026-04-11T16:36:23.726Z</time></trkpt><trkpt lat="43.444772" lon="13.656695"><ele>2.0</ele><time>2026-04-11T16:36:24.727Z</time></trkpt><trkpt lat="43.444876" lon="13.6567464"><ele>2.0</ele><time>2026-04-11T16:36:25.727Z</time></trkpt><trkpt lat="43.4449801" lon="13.6567974"><ele>1.75</ele><time>2026-04-11T16:36:26.726Z</time></trkpt><trkpt lat="43.4450858" lon="13.6568483"><ele>1.5</ele><time>2026-04-11T16:36:27.727Z</time></trkpt><trkpt lat="43.4451952" lon="13.6568994"><ele>1.25</ele><time>2026-04-11T16:36:28.726Z</time></trkpt><trkpt lat="43.4453072" lon="13.6569466"><ele>1.0</ele><time>2026-04-11T16:36:29.727Z</time></trkpt><trkpt lat="43.4454225" lon="13.6569933"><ele>1.0</ele><time>2026-04-11T16:36:30.727Z</time></trkpt><trkpt lat="43.4455403" lon="13.6570367"><ele>1.0</ele><time>2026-04-11T16:36:31.726Z</time></trkpt><trkpt lat="43.4456574" lon="13.6570686"><ele>1.0</ele><time>2026-04-11T16:36:32.727Z</time></trkpt><trkpt lat="43.4457729" lon="13.6570852"><ele>1.0</ele><time>2026-04-11T16:36:33.727Z</time></trkpt><trkpt lat="43.4458859" lon="13.6570898"><ele>1.0</ele><time>2026-04-11T16:36:34.726Z</time></trkpt><trkpt lat="43.4459971" lon="13.6570836"><ele>1.0</ele><time>2026-04-11T16:36:35.727Z</time></trkpt><trkpt lat="43.4461037" lon="13.6570678"><ele>1.0</ele><time>2026-04-11T16:36:36.727Z</time></trkpt><trkpt lat="43.4462073" lon="13.6570445"><ele>1.0</ele><time>2026-04-11T16:36:37.727Z</time></trkpt><trkpt lat="43.4463071" lon="13.6570153"><ele>1.0</ele><time>2026-04-11T16:36:38.726Z</time></trkpt><trkpt lat="43.4464027" lon="13.6569805"><ele>0.9999999999999999</ele><time>2026-04-11T16:36:39.726Z</time></trkpt><trkpt lat="43.4464931" lon="13.6569441"><ele>1.0</ele><time>2026-04-11T16:36:40.727Z</time></trkpt><trkpt lat="43.4465773" lon="13.6569094"><ele>1.0</ele><time>2026-04-11T16:36:41.727Z</time></trkpt><trkpt lat="43.4466523" lon="13.6568768"><ele>1.0</ele><time>2026-04-11T16:36:42.726Z</time></trkpt><trkpt lat="43.4467233" lon="13.6568449"><ele>0.9999999999999999</ele><time>2026-04-11T16:36:43.727Z</time></trkpt><trkpt lat="43.4467902" lon="13.6568132"><ele>1.0</ele><time>2026-04-11T16:36:44.726Z</time></trkpt><trkpt lat="43.4468565" lon="13.6567821"><ele>1.0</ele><time>2026-04-11T16:36:45.726Z</time></trkpt><trkpt lat="43.4469236" lon="13.6567498"><ele>0.9999999999999999</ele><time>2026-04-11T16:36:46.727Z</time></trkpt><trkpt lat="43.4469909" lon="13.6567163"><ele>1.0</ele><time>2026-04-11T16:36:47.727Z</time></trkpt><trkpt lat="43.4470573" lon="13.6566821"><ele>1.0</ele><time>2026-04-11T16:36:48.727Z</time></trkpt><trkpt lat="43.4471242" lon="13.6566499"><ele>0.9999999999999999</ele><time>2026-04-11T16:36:49.726Z</time></trkpt><trkpt lat="43.4471924" lon="13.6566183"><ele>1.0</ele><time>2026-04-11T16:36:50.727Z</time></trkpt><trkpt lat="43.447263" lon="13.6565872"><ele>1.0</ele><time>2026-04-11T16:36:51.726Z</time></trkpt><trkpt lat="43.447336" lon="13.6565545"><ele>1.3333333333333333</ele><time>2026-04-11T16:36:52.726Z</time></trkpt><trkpt lat="43.4474129" lon="13.6565172"><ele>1.6666666666666665</ele><time>2026-04-11T16:36:53.726Z</time></trkpt><trkpt lat="43.447491" lon="13.6564806"><ele>2.0</ele><time>2026-04-11T16:36:54.726Z</time></trkpt><trkpt lat="43.4475656" lon="13.6564456"><ele>2.3333333333333335</ele><time>2026-04-11T16:36:55.726Z</time></trkpt><trkpt lat="43.4476273" lon="13.6564154"><ele>2.6666666666666665</ele><time>2026-04-11T16:36:56.726Z</time></trkpt><trkpt lat="43.4477263" lon="13.6563622"><ele>3.0</ele><time>2026-04-11T16:36:58.727Z</time></trkpt><trkpt lat="43.4477903" lon="13.6563264"><ele>3.0</ele><time>2026-04-11T16:36:59.727Z</time></trkpt><trkpt lat="43.4478647" lon="13.6562814"><ele>3.0</ele><time>2026-04-11T16:37:00.726Z</time></trkpt><trkpt lat="43.4479502" lon="13.6562295"><ele>3.0</ele><time>2026-04-11T16:37:01.727Z</time></trkpt><trkpt lat="43.4480405" lon="13.6561749"><ele>3.0</ele><time>2026-04-11T16:37:02.726Z</time></trkpt><trkpt lat="43.448131" lon="13.6561209"><ele>3.0</ele><time>2026-04-11T16:37:03.726Z</time></trkpt><trkpt lat="43.4482266" lon="13.6560621"><ele>3.0</ele><time>2026-04-11T16:37:04.727Z</time></trkpt><trkpt lat="43.4483259" lon="13.656"><ele>3.0</ele><time>2026-04-11T16:37:05.726Z</time></trkpt><trkpt lat="43.4484306" lon="13.6559389"><ele>3.0</ele><time>2026-04-11T16:37:06.727Z</time></trkpt><trkpt lat="43.4485389" lon="13.6558771"><ele>3.0</ele><time>2026-04-11T16:37:07.726Z</time></trkpt><trkpt lat="43.4486511" lon="13.6558163"><ele>3.0</ele><time>2026-04-11T16:37:08.727Z</time></trkpt><trkpt lat="43.4487629" lon="13.6557541"><ele>3.0</ele><time>2026-04-11T16:37:09.727Z</time></trkpt><trkpt lat="43.4488725" lon="13.6556916"><ele>3.0</ele><time>2026-04-11T16:37:10.726Z</time></trkpt><trkpt lat="43.4489853" lon="13.6556262"><ele>3.0</ele><time>2026-04-11T16:37:11.727Z</time></trkpt><trkpt lat="43.4490977" lon="13.6555587"><ele>3.0</ele><time>2026-04-11T16:37:12.726Z</time></trkpt><trkpt lat="43.4492092" lon="13.655489"><ele>3.0</ele><time>2026-04-11T16:37:13.726Z</time></trkpt><trkpt lat="43.4493211" lon="13.6554189"><ele>3.0</ele><time>2026-04-11T16:37:14.727Z</time></trkpt><trkpt lat="43.4494317" lon="13.6553509"><ele>3.0</ele><time>2026-04-11T16:37:15.726Z</time></trkpt><trkpt lat="43.4495419" lon="13.6552838"><ele>2.75</ele><time>2026-04-11T16:37:16.726Z</time></trkpt><trkpt lat="43.4496524" lon="13.6552165"><ele>2.5</ele><time>2026-04-11T16:37:17.726Z</time></trkpt><trkpt lat="43.4497624" lon="13.655148"><ele>2.25</ele><time>2026-04-11T16:37:18.727Z</time></trkpt><trkpt lat="43.4498715" lon="13.6550782"><ele>2.0</ele><time>2026-04-11T16:37:19.727Z</time></trkpt><trkpt lat="43.4499827" lon="13.6550062"><ele>2.0</ele><time>2026-04-11T16:37:20.726Z</time></trkpt><trkpt lat="43.450097" lon="13.6549345"><ele>2.0</ele><time>2026-04-11T16:37:21.727Z</time></trkpt><trkpt lat="43.4502141" lon="13.6548621"><ele>2.0</ele><time>2026-04-11T16:37:22.726Z</time></trkpt><trkpt lat="43.4503333" lon="13.6547867"><ele>2.0</ele><time>2026-04-11T16:37:23.727Z</time></trkpt><trkpt lat="43.4504537" lon="13.6547076"><ele>2.25</ele><time>2026-04-11T16:37:24.726Z</time></trkpt><trkpt lat="43.4505769" lon="13.6546269"><ele>2.5</ele><time>2026-04-11T16:37:25.727Z</time></trkpt><trkpt lat="43.4507005" lon="13.6545481"><ele>2.75</ele><time>2026-04-11T16:37:26.727Z</time></trkpt><trkpt lat="43.4508281" lon="13.654469"><ele>3.0</ele><time>2026-04-11T16:37:27.726Z</time></trkpt><trkpt lat="43.4509574" lon="13.6543885"><ele>3.0</ele><time>2026-04-11T16:37:28.727Z</time></trkpt><trkpt lat="43.4510887" lon="13.6543058"><ele>3.0</ele><time>2026-04-11T16:37:29.726Z</time></trkpt><trkpt lat="43.4512197" lon="13.6542234"><ele>3.0</ele><time>2026-04-11T16:37:30.727Z</time></trkpt><trkpt lat="43.4513451" lon="13.6541432"><ele>3.0</ele><time>2026-04-11T16:37:31.726Z</time></trkpt><trkpt lat="43.4514648" lon="13.6540689"><ele>3.0</ele><time>2026-04-11T16:37:32.727Z</time></trkpt><trkpt lat="43.4515785" lon="13.6539989"><ele>3.0</ele><time>2026-04-11T16:37:33.727Z</time></trkpt><trkpt lat="43.4516873" lon="13.653933"><ele>3.0</ele><time>2026-04-11T16:37:34.726Z</time></trkpt><trkpt lat="43.4517933" lon="13.6538734"><ele>3.0</ele><time>2026-04-11T16:37:35.727Z</time></trkpt><trkpt lat="43.4518941" lon="13.6538215"><ele>3.0</ele><time>2026-04-11T16:37:36.727Z</time></trkpt><trkpt lat="43.4519918" lon="13.6537714"><ele>3.0</ele><time>2026-04-11T16:37:37.726Z</time></trkpt><trkpt lat="43.4520866" lon="13.6537196"><ele>3.0</ele><time>2026-04-11T16:37:38.727Z</time></trkpt><trkpt lat="43.4521851" lon="13.6536675"><ele>3.0</ele><time>2026-04-11T16:37:39.727Z</time></trkpt><trkpt lat="43.4522855" lon="13.6536167"><ele>3.0</ele><time>2026-04-11T16:37:40.727Z</time></trkpt><trkpt lat="43.4523881" lon="13.6535622"><ele>3.0</ele><time>2026-04-11T16:37:41.726Z</time></trkpt><trkpt lat="43.4524934" lon="13.6535077"><ele>3.0</ele><time>2026-04-11T16:37:42.726Z</time></trkpt><trkpt lat="43.4525983" lon="13.6534515"><ele>3.0</ele><time>2026-04-11T16:37:43.727Z</time></trkpt><trkpt lat="43.4527088" lon="13.6533928"><ele>3.0</ele><time>2026-04-11T16:37:44.726Z</time></trkpt><trkpt lat="43.4528246" lon="13.6533311"><ele>3.0</ele><time>2026-04-11T16:37:45.727Z</time></trkpt><trkpt lat="43.4529405" lon="13.6532679"><ele>3.0</ele><time>2026-04-11T16:37:46.727Z</time></trkpt><trkpt lat="43.4530575" lon="13.6532032"><ele>3.0</ele><time>2026-04-11T16:37:47.726Z</time></trkpt><trkpt lat="43.4531634" lon="13.6531456"><ele>3.0</ele><time>2026-04-11T16:37:48.727Z</time></trkpt><trkpt lat="43.4532514" lon="13.653096"><ele>2.8</ele><time>2026-04-11T16:37:49.727Z</time></trkpt><trkpt lat="43.4533251" lon="13.6530559"><ele>2.5999999999999996</ele><time>2026-04-11T16:37:50.727Z</time></trkpt><trkpt lat="43.4533942" lon="13.6530199"><ele>2.4000000000000004</ele><time>2026-04-11T16:37:51.726Z</time></trkpt><trkpt lat="43.4534527" lon="13.6529876"><ele>2.2</ele><time>2026-04-11T16:37:52.726Z</time></trkpt><trkpt lat="43.4535625" lon="13.6529257"><ele>2.0</ele><time>2026-04-11T16:37:54.727Z</time></trkpt><trkpt lat="43.4536757" lon="13.6528617"><ele>1.9999999999999998</ele><time>2026-04-11T16:37:56.727Z</time></trkpt><trkpt lat="43.4537417" lon="13.6528269"><ele>2.0</ele><time>2026-04-11T16:37:57.726Z</time></trkpt><trkpt lat="43.4538127" lon="13.6527879"><ele>2.0</ele><time>2026-04-11T16:37:58.727Z</time></trkpt><trkpt lat="43.4538908" lon="13.6527437"><ele>2.0</ele><time>2026-04-11T16:37:59.727Z</time></trkpt><trkpt lat="43.453979" lon="13.6526941"><ele>1.9999999999999998</ele><time>2026-04-11T16:38:00.726Z</time></trkpt><trkpt lat="43.4540743" lon="13.6526401"><ele>2.0</ele><time>2026-04-11T16:38:01.727Z</time></trkpt><trkpt lat="43.4541725" lon="13.6525849"><ele>1.75</ele><time>2026-04-11T16:38:02.727Z</time></trkpt><trkpt lat="43.4542746" lon="13.6525311"><ele>1.5</ele><time>2026-04-11T16:38:03.726Z</time></trkpt><trkpt lat="43.4543792" lon="13.6524743"><ele>1.25</ele><time>2026-04-11T16:38:04.727Z</time></trkpt><trkpt lat="43.4544857" lon="13.6524168"><ele>1.0</ele><time>2026-04-11T16:38:05.727Z</time></trkpt><trkpt lat="43.4545936" lon="13.6523602"><ele>1.0</ele><time>2026-04-11T16:38:06.727Z</time></trkpt><trkpt lat="43.4547046" lon="13.6523022"><ele>1.0</ele><time>2026-04-11T16:38:07.726Z</time></trkpt><trkpt lat="43.4548184" lon="13.6522413"><ele>1.0</ele><time>2026-04-11T16:38:08.727Z</time></trkpt><trkpt lat="43.4549336" lon="13.6521778"><ele>1.0</ele><time>2026-04-11T16:38:09.727Z</time></trkpt><trkpt lat="43.4550496" lon="13.6521135"><ele>1.0</ele><time>2026-04-11T16:38:10.726Z</time></trkpt><trkpt lat="43.4551692" lon="13.6520495"><ele>1.0</ele><time>2026-04-11T16:38:11.726Z</time></trkpt><trkpt lat="43.4552906" lon="13.6519856"><ele>1.0</ele><time>2026-04-11T16:38:12.727Z</time></trkpt><trkpt lat="43.455412" lon="13.6519213"><ele>1.0</ele><time>2026-04-11T16:38:13.726Z</time></trkpt><trkpt lat="43.4555325" lon="13.6518545"><ele>0.75</ele><time>2026-04-11T16:38:14.727Z</time></trkpt><trkpt lat="43.4556523" lon="13.6517892"><ele>0.5</ele><time>2026-04-11T16:38:15.726Z</time></trkpt><trkpt lat="43.4557683" lon="13.6517248"><ele>0.25</ele><time>2026-04-11T16:38:16.727Z</time></trkpt><trkpt lat="43.4558812" lon="13.6516638"><ele>0.0</ele><time>2026-04-11T16:38:17.726Z</time></trkpt><trkpt lat="43.4559899" lon="13.6516038"><ele>0.0</ele><time>2026-04-11T16:38:18.727Z</time></trkpt><trkpt lat="43.4560955" lon="13.6515461"><ele>0.0</ele><time>2026-04-11T16:38:19.727Z</time></trkpt><trkpt lat="43.456198" lon="13.6514899"><ele>0.0</ele><time>2026-04-11T16:38:20.727Z</time></trkpt><trkpt lat="43.4562997" lon="13.6514356"><ele>0.0</ele><time>2026-04-11T16:38:21.727Z</time></trkpt><trkpt lat="43.4564021" lon="13.6513816"><ele>0.0</ele><time>2026-04-11T16:38:22.727Z</time></trkpt><trkpt lat="43.4565045" lon="13.6513272"><ele>0.5</ele><time>2026-04-11T16:38:23.726Z</time></trkpt><trkpt lat="43.4566069" lon="13.6512709"><ele>1.0</ele><time>2026-04-11T16:38:24.727Z</time></trkpt><trkpt lat="43.4567122" lon="13.651215"><ele>1.5</ele><time>2026-04-11T16:38:25.726Z</time></trkpt><trkpt lat="43.45682" lon="13.6511566"><ele>2.0</ele><time>2026-04-11T16:38:26.726Z</time></trkpt><trkpt lat="43.4569301" lon="13.6510976"><ele>2.0</ele><time>2026-04-11T16:38:27.727Z</time></trkpt><trkpt lat="43.4570424" lon="13.6510361"><ele>2.0</ele><time>2026-04-11T16:38:28.727Z</time></trkpt><trkpt lat="43.457155" lon="13.6509736"><ele>2.0</ele><time>2026-04-11T16:38:29.726Z</time></trkpt><trkpt lat="43.4572675" lon="13.6509115"><ele>2.0</ele><time>2026-04-11T16:38:30.727Z</time></trkpt><trkpt lat="43.4573808" lon="13.6508485"><ele>1.75</ele><time>2026-04-11T16:38:31.726Z</time></trkpt><trkpt lat="43.4574946" lon="13.6507846"><ele>1.5</ele><time>2026-04-11T16:38:32.727Z</time></trkpt><trkpt lat="43.4576067" lon="13.6507231"><ele>1.25</ele><time>2026-04-11T16:38:33.726Z</time></trkpt><trkpt lat="43.4577183" lon="13.6506619"><ele>1.0</ele><time>2026-04-11T16:38:34.727Z</time></trkpt><trkpt lat="43.4578313" lon="13.650602"><ele>1.0</ele><time>2026-04-11T16:38:35.727Z</time></trkpt><trkpt lat="43.4579458" lon="13.6505414"><ele>1.0</ele><time>2026-04-11T16:38:36.726Z</time></trkpt><trkpt lat="43.4580626" lon="13.6504806"><ele>1.0</ele><time>2026-04-11T16:38:37.727Z</time></trkpt><trkpt lat="43.4581809" lon="13.6504191"><ele>1.0</ele><time>2026-04-11T16:38:38.727Z</time></trkpt><trkpt lat="43.4582989" lon="13.6503557"><ele>1.0</ele><time>2026-04-11T16:38:39.727Z</time></trkpt><trkpt lat="43.4584176" lon="13.6502918"><ele>1.0</ele><time>2026-04-11T16:38:40.727Z</time></trkpt><trkpt lat="43.4585363" lon="13.6502289"><ele>1.0</ele><time>2026-04-11T16:38:41.727Z</time></trkpt><trkpt lat="43.4586559" lon="13.6501657"><ele>1.0</ele><time>2026-04-11T16:38:42.726Z</time></trkpt><trkpt lat="43.458775" lon="13.650101"><ele>0.75</ele><time>2026-04-11T16:38:43.727Z</time></trkpt><trkpt lat="43.4588938" lon="13.650034"><ele>0.5</ele><time>2026-04-11T16:38:44.727Z</time></trkpt><trkpt lat="43.4590156" lon="13.6499657"><ele>0.25</ele><time>2026-04-11T16:38:45.727Z</time></trkpt><trkpt lat="43.4591363" lon="13.6498983"><ele>0.0</ele><time>2026-04-11T16:38:46.727Z</time></trkpt><trkpt lat="43.4592565" lon="13.6498322"><ele>0.0</ele><time>2026-04-11T16:38:47.727Z</time></trkpt><trkpt lat="43.4593772" lon="13.6497661"><ele>0.0</ele><time>2026-04-11T16:38:48.727Z</time></trkpt><trkpt lat="43.4594991" lon="13.6497007"><ele>0.0</ele><time>2026-04-11T16:38:49.726Z</time></trkpt><trkpt lat="43.4596176" lon="13.6496345"><ele>0.0</ele><time>2026-04-11T16:38:50.726Z</time></trkpt><trkpt lat="43.4597408" lon="13.6495702"><ele>-0.25</ele><time>2026-04-11T16:38:51.726Z</time></trkpt><trkpt lat="43.4598633" lon="13.6495048"><ele>-0.5</ele><time>2026-04-11T16:38:52.726Z</time></trkpt><trkpt lat="43.4599793" lon="13.649443"><ele>-0.75</ele><time>2026-04-11T16:38:53.727Z</time></trkpt><trkpt lat="43.460092" lon="13.6493775"><ele>-1.0</ele><time>2026-04-11T16:38:54.726Z</time></trkpt><trkpt lat="43.4602049" lon="13.6493211"><ele>-0.8</ele><time>2026-04-11T16:38:55.727Z</time></trkpt><trkpt lat="43.460313" lon="13.6492673"><ele>-0.6000000000000001</ele><time>2026-04-11T16:38:56.727Z</time></trkpt><trkpt lat="43.4604169" lon="13.6492109"><ele>-0.4</ele><time>2026-04-11T16:38:57.727Z</time></trkpt><trkpt lat="43.4605175" lon="13.6491585"><ele>-0.2</ele><time>2026-04-11T16:38:58.727Z</time></trkpt><trkpt lat="43.4606161" lon="13.6491021"><ele>0.0</ele><time>2026-04-11T16:38:59.726Z</time></trkpt><trkpt lat="43.4607113" lon="13.6490467"><ele>0.0</ele><time>2026-04-11T16:39:00.726Z</time></trkpt><trkpt lat="43.4608016" lon="13.6489945"><ele>0.0</ele><time>2026-04-11T16:39:01.726Z</time></trkpt><trkpt lat="43.4609007" lon="13.6489405"><ele>0.0</ele><time>2026-04-11T16:39:02.726Z</time></trkpt><trkpt lat="43.4610019" lon="13.6488899"><ele>0.0</ele><time>2026-04-11T16:39:03.726Z</time></trkpt><trkpt lat="43.4610997" lon="13.648831"><ele>0.0</ele><time>2026-04-11T16:39:04.727Z</time></trkpt><trkpt lat="43.4612022" lon="13.6487827"><ele>0.2</ele><time>2026-04-11T16:39:05.727Z</time></trkpt><trkpt lat="43.4613036" lon="13.6487369"><ele>0.4</ele><time>2026-04-11T16:39:06.727Z</time></trkpt><trkpt lat="43.4614004" lon="13.6486788"><ele>0.6000000000000001</ele><time>2026-04-11T16:39:07.727Z</time></trkpt><trkpt lat="43.4614964" lon="13.6486313"><ele>0.8</ele><time>2026-04-11T16:39:08.726Z</time></trkpt><trkpt lat="43.461585" lon="13.6485772"><ele>1.0</ele><time>2026-04-11T16:39:09.726Z</time></trkpt><trkpt lat="43.4616774" lon="13.6485228"><ele>1.0</ele><time>2026-04-11T16:39:10.727Z</time></trkpt><trkpt lat="43.4617624" lon="13.6484755"><ele>0.9999999999999999</ele><time>2026-04-11T16:39:11.727Z</time></trkpt><trkpt lat="43.4618473" lon="13.6484362"><ele>1.0</ele><time>2026-04-11T16:39:12.726Z</time></trkpt><trkpt lat="43.461907" lon="13.6484045"><ele>1.0</ele><time>2026-04-11T16:39:13.726Z</time></trkpt><trkpt lat="43.4619671" lon="13.648371"><ele>0.9999999999999999</ele><time>2026-04-11T16:39:15.727Z</time></trkpt><trkpt lat="43.4620362" lon="13.6483474"><ele>1.0</ele><time>2026-04-11T16:39:19.726Z</time></trkpt><trkpt lat="43.4620968" lon="13.6483042"><ele>1.0</ele><time>2026-04-11T16:39:21.727Z</time></trkpt><trkpt lat="43.4621994" lon="13.6482376"><ele>1.0</ele><time>2026-04-11T16:39:23.726Z</time></trkpt><trkpt lat="43.4622603" lon="13.6482118"><ele>0.9999999999999999</ele><time>2026-04-11T16:39:24.726Z</time></trkpt><trkpt lat="43.4623249" lon="13.6481742"><ele>1.0</ele><time>2026-04-11T16:39:25.727Z</time></trkpt><trkpt lat="43.4623918" lon="13.6481385"><ele>1.0</ele><time>2026-04-11T16:39:26.727Z</time></trkpt><trkpt lat="43.462462" lon="13.6480983"><ele>0.9999999999999999</ele><time>2026-04-11T16:39:27.727Z</time></trkpt><trkpt lat="43.462539" lon="13.6480554"><ele>1.0</ele><time>2026-04-11T16:39:28.726Z</time></trkpt><trkpt lat="43.462617" lon="13.6480141"><ele>1.0</ele><time>2026-04-11T16:39:29.727Z</time></trkpt><trkpt lat="43.4627021" lon="13.6479693"><ele>0.9999999999999999</ele><time>2026-04-11T16:39:30.727Z</time></trkpt><trkpt lat="43.4627859" lon="13.6479249"><ele>1.0</ele><time>2026-04-11T16:39:31.727Z</time></trkpt><trkpt lat="43.4628702" lon="13.647873"><ele>1.0</ele><time>2026-04-11T16:39:32.727Z</time></trkpt><trkpt lat="43.4629579" lon="13.6478292"><ele>1.0</ele><time>2026-04-11T16:39:33.727Z</time></trkpt><trkpt lat="43.4630431" lon="13.6477874"><ele>0.9999999999999999</ele><time>2026-04-11T16:39:34.726Z</time></trkpt><trkpt lat="43.4631193" lon="13.6477484"><ele>1.0</ele><time>2026-04-11T16:39:35.727Z</time></trkpt><trkpt lat="43.4631979" lon="13.6477079"><ele>0.9999999999999999</ele><time>2026-04-11T16:39:36.727Z</time></trkpt><trkpt lat="43.4632724" lon="13.6476668"><ele>1.0</ele><time>2026-04-11T16:39:37.726Z</time></trkpt><trkpt lat="43.4633446" lon="13.6476277"><ele>1.0</ele><time>2026-04-11T16:39:38.726Z</time></trkpt><trkpt lat="43.4634216" lon="13.6475879"><ele>1.0</ele><time>2026-04-11T16:39:39.726Z</time></trkpt><trkpt lat="43.4634966" lon="13.6475526"><ele>0.9999999999999999</ele><time>2026-04-11T16:39:40.727Z</time></trkpt><trkpt lat="43.4635631" lon="13.6475167"><ele>1.0</ele><time>2026-04-11T16:39:41.727Z</time></trkpt><trkpt lat="43.4636587" lon="13.6474643"><ele>0.9999999999999999</ele><time>2026-04-11T16:39:43.726Z</time></trkpt><trkpt lat="43.463736" lon="13.6474227"><ele>1.0</ele><time>2026-04-11T16:39:45.726Z</time></trkpt><trkpt lat="43.4638081" lon="13.6473752"><ele>1.0</ele><time>2026-04-11T16:39:47.726Z</time></trkpt><trkpt lat="43.463892" lon="13.6473263"><ele>1.0</ele><time>2026-04-11T16:39:49.727Z</time></trkpt><trkpt lat="43.4639672" lon="13.6472621"><ele>0.9999999999999999</ele><time>2026-04-11T16:39:51.727Z</time></trkpt><trkpt lat="43.4640376" lon="13.6472075"><ele>1.0</ele><time>2026-04-11T16:39:53.727Z</time></trkpt><trkpt lat="43.4641274" lon="13.6471432"><ele>1.0</ele><time>2026-04-11T16:39:55.727Z</time></trkpt><trkpt lat="43.4642109" lon="13.6470546"><ele>1.0</ele><time>2026-04-11T16:39:57.727Z</time></trkpt><trkpt lat="43.4642229" lon="13.6469152"><ele>1.0</ele><time>2026-04-11T16:39:59.727Z</time></trkpt><trkpt lat="43.4641671" lon="13.6467534"><ele>1.0</ele><time>2026-04-11T16:40:01.726Z</time></trkpt><trkpt lat="43.4641301" lon="13.6466438"><ele>1.0</ele><time>2026-04-11T16:40:02.726Z</time></trkpt><trkpt lat="43.4641013" lon="13.6465415"><ele>1.0</ele><time>2026-04-11T16:40:03.727Z</time></trkpt><trkpt lat="43.4640675" lon="13.646427"><ele>1.0</ele><time>2026-04-11T16:40:04.727Z</time></trkpt><trkpt lat="43.464035" lon="13.6463046"><ele>1.0</ele><time>2026-04-11T16:40:05.726Z</time></trkpt><trkpt lat="43.4639959" lon="13.6461724"><ele>1.0</ele><time>2026-04-11T16:40:06.726Z</time></trkpt><trkpt lat="43.4639536" lon="13.6460336"><ele>1.0</ele><time>2026-04-11T16:40:07.727Z</time></trkpt><trkpt lat="43.4639039" lon="13.6458894"><ele>1.0</ele><time>2026-04-11T16:40:08.727Z</time></trkpt><trkpt lat="43.4638417" lon="13.6457365"><ele>1.0</ele><time>2026-04-11T16:40:09.726Z</time></trkpt><trkpt lat="43.4637813" lon="13.6455861"><ele>1.0</ele><time>2026-04-11T16:40:10.726Z</time></trkpt><trkpt lat="43.4637081" lon="13.645428"><ele>1.0</ele><time>2026-04-11T16:40:11.727Z</time></trkpt><trkpt lat="43.4636379" lon="13.6452687"><ele>0.75</ele><time>2026-04-11T16:40:12.726Z</time></trkpt><trkpt lat="43.4635646" lon="13.6451032"><ele>0.5</ele><time>2026-04-11T16:40:13.727Z</time></trkpt><trkpt lat="43.4634871" lon="13.6449348"><ele>0.25</ele><time>2026-04-11T16:40:14.727Z</time></trkpt><trkpt lat="43.4634148" lon="13.644767"><ele>0.0</ele><time>2026-04-11T16:40:15.726Z</time></trkpt><trkpt lat="43.4633373" lon="13.6445956"><ele>0.0</ele><time>2026-04-11T16:40:16.727Z</time></trkpt><trkpt lat="43.4632625" lon="13.644422"><ele>0.0</ele><time>2026-04-11T16:40:17.726Z</time></trkpt><trkpt lat="43.463191" lon="13.644252"><ele>0.0</ele><time>2026-04-11T16:40:18.727Z</time></trkpt><trkpt lat="43.4631122" lon="13.6440757"><ele>0.0</ele><time>2026-04-11T16:40:19.726Z</time></trkpt><trkpt lat="43.4630338" lon="13.6438953"><ele>0.0</ele><time>2026-04-11T16:40:20.726Z</time></trkpt><trkpt lat="43.4629561" lon="13.6437185"><ele>0.0</ele><time>2026-04-11T16:40:21.727Z</time></trkpt><trkpt lat="43.4628786" lon="13.64354"><ele>0.0</ele><time>2026-04-11T16:40:22.727Z</time></trkpt><trkpt lat="43.4628014" lon="13.6433642"><ele>0.3333333333333333</ele><time>2026-04-11T16:40:23.726Z</time></trkpt><trkpt lat="43.4627218" lon="13.6431841"><ele>0.6666666666666666</ele><time>2026-04-11T16:40:24.726Z</time></trkpt><trkpt lat="43.4626453" lon="13.6430008"><ele>1.0</ele><time>2026-04-11T16:40:25.727Z</time></trkpt><trkpt lat="43.4625684" lon="13.6428158"><ele>0.6666666666666666</ele><time>2026-04-11T16:40:26.727Z</time></trkpt><trkpt lat="43.4624852" lon="13.6426349"><ele>0.3333333333333333</ele><time>2026-04-11T16:40:27.727Z</time></trkpt><trkpt lat="43.4624057" lon="13.6424556"><ele>0.0</ele><time>2026-04-11T16:40:28.726Z</time></trkpt><trkpt lat="43.46233" lon="13.642284"><ele>0.0</ele><time>2026-04-11T16:40:29.727Z</time></trkpt><trkpt lat="43.4622508" lon="13.642102"><ele>0.0</ele><time>2026-04-11T16:40:30.727Z</time></trkpt><trkpt lat="43.4621708" lon="13.6419195"><ele>0.0</ele><time>2026-04-11T16:40:31.727Z</time></trkpt><trkpt lat="43.462086" lon="13.6417325"><ele>0.0</ele><time>2026-04-11T16:40:32.726Z</time></trkpt><trkpt lat="43.4619977" lon="13.6415417"><ele>0.0</ele><time>2026-04-11T16:40:33.727Z</time></trkpt><trkpt lat="43.4619085" lon="13.6413464"><ele>0.0</ele><time>2026-04-11T16:40:34.727Z</time></trkpt><trkpt lat="43.4618262" lon="13.6411551"><ele>0.0</ele><time>2026-04-11T16:40:35.727Z</time></trkpt><trkpt lat="43.4617439" lon="13.6409632"><ele>0.0</ele><time>2026-04-11T16:40:36.727Z</time></trkpt><trkpt lat="43.4616526" lon="13.6407611"><ele>0.0</ele><time>2026-04-11T16:40:37.727Z</time></trkpt><trkpt lat="43.4615678" lon="13.6405573"><ele>0.0</ele><time>2026-04-11T16:40:38.726Z</time></trkpt><trkpt lat="43.46148" lon="13.6403546"><ele>0.0</ele><time>2026-04-11T16:40:39.727Z</time></trkpt><trkpt lat="43.4613931" lon="13.6401473"><ele>0.0</ele><time>2026-04-11T16:40:40.726Z</time></trkpt><trkpt lat="43.4613036" lon="13.6399426"><ele>0.0</ele><time>2026-04-11T16:40:41.726Z</time></trkpt><trkpt lat="43.4612156" lon="13.6397323"><ele>0.0</ele><time>2026-04-11T16:40:42.727Z</time></trkpt><trkpt lat="43.4611225" lon="13.6395382"><ele>0.0</ele><time>2026-04-11T16:40:43.726Z</time></trkpt><trkpt lat="43.4610367" lon="13.6393313"><ele>0.0</ele><time>2026-04-11T16:40:44.727Z</time></trkpt><trkpt lat="43.4609524" lon="13.6391275"><ele>0.0</ele><time>2026-04-11T16:40:45.726Z</time></trkpt><trkpt lat="43.4608629" lon="13.6389228"><ele>0.0</ele><time>2026-04-11T16:40:46.727Z</time></trkpt><trkpt lat="43.4607785" lon="13.63872"><ele>0.6666666666666666</ele><time>2026-04-11T16:40:47.726Z</time></trkpt><trkpt lat="43.4606859" lon="13.6385183"><ele>1.3333333333333333</ele><time>2026-04-11T16:40:48.726Z</time></trkpt><trkpt lat="43.4605899" lon="13.638309"><ele>2.0</ele><time>2026-04-11T16:40:49.726Z</time></trkpt><trkpt lat="43.460498" lon="13.6381015"><ele>1.3333333333333333</ele><time>2026-04-11T16:40:50.727Z</time></trkpt><trkpt lat="43.4604077" lon="13.6378877"><ele>0.6666666666666666</ele><time>2026-04-11T16:40:51.726Z</time></trkpt><trkpt lat="43.4603161" lon="13.6376793"><ele>0.0</ele><time>2026-04-11T16:40:52.727Z</time></trkpt><trkpt lat="43.4602224" lon="13.6374677"><ele>0.0</ele><time>2026-04-11T16:40:53.726Z</time></trkpt><trkpt lat="43.4601301" lon="13.6372525"><ele>0.0</ele><time>2026-04-11T16:40:54.726Z</time></trkpt><trkpt lat="43.4600366" lon="13.637036"><ele>0.0</ele><time>2026-04-11T16:40:55.727Z</time></trkpt><trkpt lat="43.459943" lon="13.6368218"><ele>0.3333333333333333</ele><time>2026-04-11T16:40:56.727Z</time></trkpt><trkpt lat="43.459849" lon="13.6366044"><ele>0.6666666666666666</ele><time>2026-04-11T16:40:57.727Z</time></trkpt><trkpt lat="43.4597511" lon="13.6363854"><ele>1.0</ele><time>2026-04-11T16:40:58.727Z</time></trkpt><trkpt lat="43.459653" lon="13.6361679"><ele>1.0</ele><time>2026-04-11T16:40:59.727Z</time></trkpt><trkpt lat="43.4595554" lon="13.6359476"><ele>1.0</ele><time>2026-04-11T16:41:00.726Z</time></trkpt><trkpt lat="43.459458" lon="13.6357294"><ele>1.0</ele><time>2026-04-11T16:41:01.726Z</time></trkpt><trkpt lat="43.4593585" lon="13.6355036"><ele>1.0</ele><time>2026-04-11T16:41:02.727Z</time></trkpt><trkpt lat="43.4592645" lon="13.6352767"><ele>1.0</ele><time>2026-04-11T16:41:03.727Z</time></trkpt><trkpt lat="43.4591699" lon="13.6350543"><ele>1.0</ele><time>2026-04-11T16:41:04.726Z</time></trkpt><trkpt lat="43.4590728" lon="13.6348328"><ele>1.0</ele><time>2026-04-11T16:41:05.726Z</time></trkpt><trkpt lat="43.4589762" lon="13.6346113"><ele>1.0</ele><time>2026-04-11T16:41:06.727Z</time></trkpt><trkpt lat="43.4588817" lon="13.6343829"><ele>1.0</ele><time>2026-04-11T16:41:07.727Z</time></trkpt><trkpt lat="43.4587851" lon="13.6341551"><ele>1.0</ele><time>2026-04-11T16:41:08.726Z</time></trkpt><trkpt lat="43.4586857" lon="13.633929"><ele>1.0</ele><time>2026-04-11T16:41:09.726Z</time></trkpt><trkpt lat="43.4585871" lon="13.6337086"><ele>1.0</ele><time>2026-04-11T16:41:10.726Z</time></trkpt><trkpt lat="43.4584921" lon="13.6334868"><ele>1.0</ele><time>2026-04-11T16:41:11.726Z</time></trkpt><trkpt lat="43.458397" lon="13.6332637"><ele>1.0</ele><time>2026-04-11T16:41:12.727Z</time></trkpt><trkpt lat="43.4582941" lon="13.6330428"><ele>1.0</ele><time>2026-04-11T16:41:13.727Z</time></trkpt><trkpt lat="43.458199" lon="13.632821"><ele>1.0</ele><time>2026-04-11T16:41:14.726Z</time></trkpt><trkpt lat="43.4581016" lon="13.6325961"><ele>1.0</ele><time>2026-04-11T16:41:15.727Z</time></trkpt><trkpt lat="43.4580037" lon="13.6323724"><ele>1.0</ele><time>2026-04-11T16:41:16.726Z</time></trkpt><trkpt lat="43.4579039" lon="13.6321534"><ele>1.6666666666666665</ele><time>2026-04-11T16:41:17.726Z</time></trkpt><trkpt lat="43.4578079" lon="13.6319317"><ele>2.3333333333333335</ele><time>2026-04-11T16:41:18.726Z</time></trkpt><trkpt lat="43.4577125" lon="13.6317067"><ele>3.0</ele><time>2026-04-11T16:41:19.727Z</time></trkpt><trkpt lat="43.4576197" lon="13.6314824"><ele>3.0</ele><time>2026-04-11T16:41:20.727Z</time></trkpt><trkpt lat="43.4575243" lon="13.6312589"><ele>3.0</ele><time>2026-04-11T16:41:21.727Z</time></trkpt><trkpt lat="43.4574274" lon="13.6310385"><ele>3.0</ele><time>2026-04-11T16:41:22.727Z</time></trkpt><trkpt lat="43.4573259" lon="13.6308156"><ele>3.0</ele><time>2026-04-11T16:41:23.727Z</time></trkpt><trkpt lat="43.4572197" lon="13.6305933"><ele>3.0</ele><time>2026-04-11T16:41:24.727Z</time></trkpt><trkpt lat="43.4571203" lon="13.6303763"><ele>3.0</ele><time>2026-04-11T16:41:25.726Z</time></trkpt><trkpt lat="43.4570172" lon="13.6301636"><ele>3.0</ele><time>2026-04-11T16:41:26.727Z</time></trkpt><trkpt lat="43.4569198" lon="13.6299428"><ele>3.0</ele><time>2026-04-11T16:41:27.727Z</time></trkpt><trkpt lat="43.456826" lon="13.6297262"><ele>3.0</ele><time>2026-04-11T16:41:28.727Z</time></trkpt><trkpt lat="43.4567307" lon="13.6295021"><ele>3.0</ele><time>2026-04-11T16:41:29.726Z</time></trkpt><trkpt lat="43.4566309" lon="13.6292818"><ele>3.0</ele><time>2026-04-11T16:41:30.727Z</time></trkpt><trkpt lat="43.45654" lon="13.629052"><ele>3.0</ele><time>2026-04-11T16:41:31.726Z</time></trkpt><trkpt lat="43.456442" lon="13.6288283"><ele>3.666666666666667</ele><time>2026-04-11T16:41:32.727Z</time></trkpt><trkpt lat="43.4563453" lon="13.6285988"><ele>4.333333333333334</ele><time>2026-04-11T16:41:33.726Z</time></trkpt><trkpt lat="43.4562458" lon="13.6283723"><ele>5.0</ele><time>2026-04-11T16:41:34.726Z</time></trkpt><trkpt lat="43.4561509" lon="13.6281479"><ele>5.0</ele><time>2026-04-11T16:41:35.726Z</time></trkpt><trkpt lat="43.4560571" lon="13.6279181"><ele>5.0</ele><time>2026-04-11T16:41:36.727Z</time></trkpt><trkpt lat="43.455961" lon="13.6276882"><ele>5.0</ele><time>2026-04-11T16:41:37.727Z</time></trkpt><trkpt lat="43.4558629" lon="13.6274539"><ele>5.0</ele><time>2026-04-11T16:41:38.727Z</time></trkpt><trkpt lat="43.4557682" lon="13.627222"><ele>5.0</ele><time>2026-04-11T16:41:39.727Z</time></trkpt><trkpt lat="43.4556663" lon="13.6269857"><ele>5.0</ele><time>2026-04-11T16:41:40.727Z</time></trkpt><trkpt lat="43.4555666" lon="13.6267604"><ele>5.0</ele><time>2026-04-11T16:41:41.727Z</time></trkpt><trkpt lat="43.4554657" lon="13.6265269"><ele>5.0</ele><time>2026-04-11T16:41:42.727Z</time></trkpt><trkpt lat="43.4553631" lon="13.6262973"><ele>5.0</ele><time>2026-04-11T16:41:43.727Z</time></trkpt><trkpt lat="43.4552634" lon="13.6260705"><ele>5.0</ele><time>2026-04-11T16:41:44.726Z</time></trkpt><trkpt lat="43.4551575" lon="13.625844"><ele>5.0</ele><time>2026-04-11T16:41:45.727Z</time></trkpt><trkpt lat="43.4550517" lon="13.625616"><ele>5.0</ele><time>2026-04-11T16:41:46.727Z</time></trkpt><trkpt lat="43.4549487" lon="13.6253912"><ele>4.666666666666667</ele><time>2026-04-11T16:41:47.727Z</time></trkpt><trkpt lat="43.4548454" lon="13.625165"><ele>4.333333333333333</ele><time>2026-04-11T16:41:48.727Z</time></trkpt><trkpt lat="43.4547435" lon="13.6249409"><ele>4.0</ele><time>2026-04-11T16:41:49.727Z</time></trkpt><trkpt lat="43.454646" lon="13.6247196"><ele>4.333333333333333</ele><time>2026-04-11T16:41:50.727Z</time></trkpt><trkpt lat="43.4545517" lon="13.6245003"><ele>4.666666666666667</ele><time>2026-04-11T16:41:51.727Z</time></trkpt><trkpt lat="43.4544527" lon="13.6242778"><ele>5.0</ele><time>2026-04-11T16:41:52.726Z</time></trkpt><trkpt lat="43.4543544" lon="13.6240581"><ele>5.666666666666667</ele><time>2026-04-11T16:41:53.727Z</time></trkpt><trkpt lat="43.45426" lon="13.6238393"><ele>6.333333333333334</ele><time>2026-04-11T16:41:54.726Z</time></trkpt><trkpt lat="43.4541692" lon="13.6236226"><ele>7.0</ele><time>2026-04-11T16:41:55.726Z</time></trkpt><trkpt lat="43.4540781" lon="13.6234094"><ele>7.0</ele><time>2026-04-11T16:41:56.726Z</time></trkpt><trkpt lat="43.4539881" lon="13.623197"><ele>7.0</ele><time>2026-04-11T16:41:57.726Z</time></trkpt><trkpt lat="43.4539019" lon="13.6229824"><ele>7.0</ele><time>2026-04-11T16:41:58.726Z</time></trkpt><trkpt lat="43.4538193" lon="13.6227714"><ele>6.666666666666667</ele><time>2026-04-11T16:41:59.727Z</time></trkpt><trkpt lat="43.4537288" lon="13.6225711"><ele>6.333333333333334</ele><time>2026-04-11T16:42:00.726Z</time></trkpt><trkpt lat="43.45364" lon="13.6223612"><ele>6.0</ele><time>2026-04-11T16:42:01.727Z</time></trkpt><trkpt lat="43.4535571" lon="13.6221472"><ele>6.0</ele><time>2026-04-11T16:42:02.726Z</time></trkpt><trkpt lat="43.4534757" lon="13.6219373"><ele>6.0</ele><time>2026-04-11T16:42:03.726Z</time></trkpt><trkpt lat="43.4533974" lon="13.6217276"><ele>6.0</ele><time>2026-04-11T16:42:04.726Z</time></trkpt><trkpt lat="43.4533116" lon="13.6215185"><ele>6.0</ele><time>2026-04-11T16:42:05.726Z</time></trkpt><trkpt lat="43.4532278" lon="13.6213134"><ele>6.0</ele><time>2026-04-11T16:42:06.726Z</time></trkpt><trkpt lat="43.4531446" lon="13.6210982"><ele>6.0</ele><time>2026-04-11T16:42:07.726Z</time></trkpt><trkpt lat="43.4530547" lon="13.620875"><ele>5.666666666666667</ele><time>2026-04-11T16:42:08.727Z</time></trkpt><trkpt lat="43.4529663" lon="13.6206518"><ele>5.333333333333334</ele><time>2026-04-11T16:42:09.726Z</time></trkpt><trkpt lat="43.4528785" lon="13.6204418"><ele>5.0</ele><time>2026-04-11T16:42:10.727Z</time></trkpt><trkpt lat="43.452784" lon="13.6202255"><ele>6.0</ele><time>2026-04-11T16:42:11.727Z</time></trkpt><trkpt lat="43.4526842" lon="13.6200256"><ele>7.0</ele><time>2026-04-11T16:42:12.727Z</time></trkpt><trkpt lat="43.4525881" lon="13.6198189"><ele>8.0</ele><time>2026-04-11T16:42:13.727Z</time></trkpt><trkpt lat="43.4525065" lon="13.6195992"><ele>7.666666666666666</ele><time>2026-04-11T16:42:14.726Z</time></trkpt><trkpt lat="43.4524434" lon="13.6193708"><ele>7.333333333333334</ele><time>2026-04-11T16:42:15.727Z</time></trkpt><trkpt lat="43.4523944" lon="13.6191435"><ele>7.0</ele><time>2026-04-11T16:42:16.726Z</time></trkpt><trkpt lat="43.4523504" lon="13.6189122"><ele>7.0</ele><time>2026-04-11T16:42:17.727Z</time></trkpt><trkpt lat="43.4523294" lon="13.6186846"><ele>7.0</ele><time>2026-04-11T16:42:18.727Z</time></trkpt><trkpt lat="43.4523185" lon="13.6184488"><ele>7.0</ele><time>2026-04-11T16:42:19.726Z</time></trkpt><trkpt lat="43.4523151" lon="13.618224"><ele>7.0</ele><time>2026-04-11T16:42:20.726Z</time></trkpt><trkpt lat="43.4523113" lon="13.6180039"><ele>7.0</ele><time>2026-04-11T16:42:21.726Z</time></trkpt><trkpt lat="43.4523076" lon="13.6177926"><ele>7.0</ele><time>2026-04-11T16:42:22.727Z</time></trkpt><trkpt lat="43.4523079" lon="13.6175843"><ele>7.0</ele><time>2026-04-11T16:42:23.727Z</time></trkpt><trkpt lat="43.4522933" lon="13.6173715"><ele>7.0</ele><time>2026-04-11T16:42:24.726Z</time></trkpt><trkpt lat="43.4523067" lon="13.6171881"><ele>7.0</ele><time>2026-04-11T16:42:25.727Z</time></trkpt><trkpt lat="43.452325" lon="13.6170122"><ele>7.0</ele><time>2026-04-11T16:42:26.726Z</time></trkpt><trkpt lat="43.4523808" lon="13.6168523"><ele>7.0</ele><time>2026-04-11T16:42:27.727Z</time></trkpt><trkpt lat="43.452456" lon="13.6167253"><ele>7.0</ele><time>2026-04-11T16:42:28.727Z</time></trkpt><trkpt lat="43.4525465" lon="13.6166129"><ele>7.0</ele><time>2026-04-11T16:42:29.726Z</time></trkpt><trkpt lat="43.4526275" lon="13.6164951"><ele>7.0</ele><time>2026-04-11T16:42:30.727Z</time></trkpt><trkpt lat="43.4526811" lon="13.616383"><ele>7.0</ele><time>2026-04-11T16:42:31.727Z</time></trkpt><trkpt lat="43.4527081" lon="13.6162554"><ele>6.999999999999999</ele><time>2026-04-11T16:42:32.727Z</time></trkpt><trkpt lat="43.4527271" lon="13.6161145"><ele>6.999999999999999</ele><time>2026-04-11T16:42:33.727Z</time></trkpt><trkpt lat="43.4526874" lon="13.6159638"><ele>7.0</ele><time>2026-04-11T16:42:34.727Z</time></trkpt><trkpt lat="43.4526588" lon="13.6158056"><ele>7.0</ele><time>2026-04-11T16:42:35.727Z</time></trkpt><trkpt lat="43.4526029" lon="13.6156284"><ele>7.0</ele><time>2026-04-11T16:42:36.726Z</time></trkpt><trkpt lat="43.4525569" lon="13.6154568"><ele>7.0</ele><time>2026-04-11T16:42:37.727Z</time></trkpt><trkpt lat="43.4525207" lon="13.615267"><ele>7.0</ele><time>2026-04-11T16:42:38.726Z</time></trkpt><trkpt lat="43.4524814" lon="13.6150926"><ele>7.0</ele><time>2026-04-11T16:42:39.726Z</time></trkpt><trkpt lat="43.4524428" lon="13.6149073"><ele>7.0</ele><time>2026-04-11T16:42:40.726Z</time></trkpt><trkpt lat="43.4524058" lon="13.6147466"><ele>6.999999999999999</ele><time>2026-04-11T16:42:41.727Z</time></trkpt><trkpt lat="43.4523757" lon="13.6146004"><ele>6.999999999999999</ele><time>2026-04-11T16:42:42.726Z</time></trkpt><trkpt lat="43.4523528" lon="13.6144774"><ele>7.0</ele><time>2026-04-11T16:42:43.726Z</time></trkpt><trkpt lat="43.4523399" lon="13.614372"><ele>7.0</ele><time>2026-04-11T16:42:44.727Z</time></trkpt><trkpt lat="43.4523396" lon="13.6142678"><ele>6.8</ele><time>2026-04-11T16:42:45.727Z</time></trkpt><trkpt lat="43.4523453" lon="13.6141617"><ele>6.6</ele><time>2026-04-11T16:42:46.727Z</time></trkpt><trkpt lat="43.4523604" lon="13.6140442"><ele>6.3999999999999995</ele><time>2026-04-11T16:42:47.727Z</time></trkpt><trkpt lat="43.4523776" lon="13.6139127"><ele>6.199999999999999</ele><time>2026-04-11T16:42:48.727Z</time></trkpt><trkpt lat="43.4523953" lon="13.6137676"><ele>6.0</ele><time>2026-04-11T16:42:49.727Z</time></trkpt><trkpt lat="43.452411" lon="13.6136154"><ele>6.75</ele><time>2026-04-11T16:42:50.726Z</time></trkpt><trkpt lat="43.4524202" lon="13.613463"><ele>7.5</ele><time>2026-04-11T16:42:51.727Z</time></trkpt><trkpt lat="43.4523972" lon="13.6132998"><ele>8.25</ele><time>2026-04-11T16:42:52.726Z</time></trkpt><trkpt lat="43.4523693" lon="13.613143"><ele>9.0</ele><time>2026-04-11T16:42:53.727Z</time></trkpt><trkpt lat="43.4523318" lon="13.6129783"><ele>9.0</ele><time>2026-04-11T16:42:54.727Z</time></trkpt><trkpt lat="43.4522605" lon="13.6128132"><ele>9.0</ele><time>2026-04-11T16:42:55.727Z</time></trkpt><trkpt lat="43.4521762" lon="13.612667"><ele>9.0</ele><time>2026-04-11T16:42:56.726Z</time></trkpt><trkpt lat="43.452076" lon="13.6125386"><ele>9.0</ele><time>2026-04-11T16:42:57.726Z</time></trkpt><trkpt lat="43.4519841" lon="13.6124108"><ele>9.0</ele><time>2026-04-11T16:42:58.727Z</time></trkpt><trkpt lat="43.4518845" lon="13.6122756"><ele>9.0</ele><time>2026-04-11T16:42:59.727Z</time></trkpt><trkpt lat="43.4518053" lon="13.6121299"><ele>9.0</ele><time>2026-04-11T16:43:00.727Z</time></trkpt><trkpt lat="43.4517259" lon="13.6119998"><ele>9.0</ele><time>2026-04-11T16:43:01.727Z</time></trkpt><trkpt lat="43.4516224" lon="13.6118917"><ele>9.0</ele><time>2026-04-11T16:43:02.727Z</time></trkpt><trkpt lat="43.4515036" lon="13.6118216"><ele>9.0</ele><time>2026-04-11T16:43:03.726Z</time></trkpt><trkpt lat="43.451367" lon="13.611798"><ele>9.0</ele><time>2026-04-11T16:43:04.726Z</time></trkpt><trkpt lat="43.4512266" lon="13.6118096"><ele>9.0</ele><time>2026-04-11T16:43:05.726Z</time></trkpt><trkpt lat="43.4510845" lon="13.6118146"><ele>9.0</ele><time>2026-04-11T16:43:06.726Z</time></trkpt><trkpt lat="43.4509403" lon="13.6118362"><ele>9.0</ele><time>2026-04-11T16:43:07.727Z</time></trkpt><trkpt lat="43.4507996" lon="13.6118639"><ele>9.0</ele><time>2026-04-11T16:43:08.726Z</time></trkpt><trkpt lat="43.4506591" lon="13.6119019"><ele>9.0</ele><time>2026-04-11T16:43:09.727Z</time></trkpt><trkpt lat="43.4505256" lon="13.6119534"><ele>9.5</ele><time>2026-04-11T16:43:10.726Z</time></trkpt><trkpt lat="43.4504028" lon="13.6120116"><ele>10.0</ele><time>2026-04-11T16:43:11.726Z</time></trkpt><trkpt lat="43.4502843" lon="13.6120689"><ele>10.5</ele><time>2026-04-11T16:43:12.726Z</time></trkpt><trkpt lat="43.4501697" lon="13.6121242"><ele>11.0</ele><time>2026-04-11T16:43:13.726Z</time></trkpt><trkpt lat="43.4500634" lon="13.6121559"><ele>11.0</ele><time>2026-04-11T16:43:14.726Z</time></trkpt><trkpt lat="43.4499571" lon="13.6121528"><ele>11.0</ele><time>2026-04-11T16:43:15.726Z</time></trkpt><trkpt lat="43.4498667" lon="13.6121025"><ele>11.0</ele><time>2026-04-11T16:43:16.727Z</time></trkpt><trkpt lat="43.4497875" lon="13.6120141"><ele>11.0</ele><time>2026-04-11T16:43:17.727Z</time></trkpt><trkpt lat="43.449716" lon="13.6118978"><ele>11.0</ele><time>2026-04-11T16:43:18.726Z</time></trkpt><trkpt lat="43.4496435" lon="13.6117617"><ele>11.0</ele><time>2026-04-11T16:43:19.726Z</time></trkpt><trkpt lat="43.4495783" lon="13.6116372"><ele>11.0</ele><time>2026-04-11T16:43:20.726Z</time></trkpt><trkpt lat="43.4495099" lon="13.6114994"><ele>11.0</ele><time>2026-04-11T16:43:21.726Z</time></trkpt><trkpt lat="43.4494499" lon="13.6113742"><ele>11.0</ele><time>2026-04-11T16:43:22.726Z</time></trkpt><trkpt lat="43.4493941" lon="13.6112623"><ele>11.0</ele><time>2026-04-11T16:43:23.727Z</time></trkpt><trkpt lat="43.4493378" lon="13.6111561"><ele>11.333333333333332</ele><time>2026-04-11T16:43:24.726Z</time></trkpt><trkpt lat="43.4492857" lon="13.6110579"><ele>11.666666666666666</ele><time>2026-04-11T16:43:25.727Z</time></trkpt><trkpt lat="43.4492383" lon="13.6109716"><ele>12.0</ele><time>2026-04-11T16:43:26.727Z</time></trkpt><trkpt lat="43.4491889" lon="13.6108876"><ele>12.333333333333332</ele><time>2026-04-11T16:43:27.727Z</time></trkpt><trkpt lat="43.4491351" lon="13.6108025"><ele>12.666666666666666</ele><time>2026-04-11T16:43:28.727Z</time></trkpt><trkpt lat="43.4490788" lon="13.6107133"><ele>13.0</ele><time>2026-04-11T16:43:29.727Z</time></trkpt><trkpt lat="43.4490195" lon="13.6106296"><ele>13.0</ele><time>2026-04-11T16:43:30.727Z</time></trkpt><trkpt lat="43.448955" lon="13.6105425"><ele>13.0</ele><time>2026-04-11T16:43:31.727Z</time></trkpt><trkpt lat="43.4488857" lon="13.6104596"><ele>13.0</ele><time>2026-04-11T16:43:32.726Z</time></trkpt><trkpt lat="43.4488194" lon="13.6103771"><ele>13.0</ele><time>2026-04-11T16:43:33.727Z</time></trkpt><trkpt lat="43.4487484" lon="13.6102895"><ele>13.0</ele><time>2026-04-11T16:43:34.727Z</time></trkpt><trkpt lat="43.4486783" lon="13.6102025"><ele>12.8</ele><time>2026-04-11T16:43:35.727Z</time></trkpt><trkpt lat="43.4486129" lon="13.6101106"><ele>12.600000000000001</ele><time>2026-04-11T16:43:36.726Z</time></trkpt><trkpt lat="43.448545" lon="13.6100262"><ele>12.399999999999999</ele><time>2026-04-11T16:43:37.726Z</time></trkpt><trkpt lat="43.4484721" lon="13.6099433"><ele>12.2</ele><time>2026-04-11T16:43:38.727Z</time></trkpt><trkpt lat="43.448397" lon="13.60988"><ele>12.0</ele><time>2026-04-11T16:43:39.727Z</time></trkpt><trkpt lat="43.4483213" lon="13.6098237"><ele>12.0</ele><time>2026-04-11T16:43:40.726Z</time></trkpt><trkpt lat="43.4482439" lon="13.6097824"><ele>12.0</ele><time>2026-04-11T16:43:41.726Z</time></trkpt><trkpt lat="43.4481684" lon="13.6097328"><ele>12.0</ele><time>2026-04-11T16:43:42.726Z</time></trkpt><trkpt lat="43.4480977" lon="13.6096902"><ele>12.0</ele><time>2026-04-11T16:43:43.727Z</time></trkpt><trkpt lat="43.4480299" lon="13.6096365"><ele>12.0</ele><time>2026-04-11T16:43:44.726Z</time></trkpt><trkpt lat="43.44797" lon="13.6095675"><ele>12.0</ele><time>2026-04-11T16:43:45.727Z</time></trkpt><trkpt lat="43.4479167" lon="13.6094805"><ele>12.166666666666666</ele><time>2026-04-11T16:43:46.726Z</time></trkpt><trkpt lat="43.4478829" lon="13.6093898"><ele>12.333333333333332</ele><time>2026-04-11T16:43:47.727Z</time></trkpt><trkpt lat="43.4478667" lon="13.609289"><ele>12.5</ele><time>2026-04-11T16:43:48.727Z</time></trkpt><trkpt lat="43.4478574" lon="13.6091777"><ele>12.666666666666666</ele><time>2026-04-11T16:43:49.726Z</time></trkpt><trkpt lat="43.4478515" lon="13.6090675"><ele>12.833333333333332</ele><time>2026-04-11T16:43:50.726Z</time></trkpt><trkpt lat="43.4478488" lon="13.6089583"><ele>13.0</ele><time>2026-04-11T16:43:51.727Z</time></trkpt><trkpt lat="43.4478423" lon="13.6088486"><ele>12.999999999999998</ele><time>2026-04-11T16:43:52.727Z</time></trkpt><trkpt lat="43.447828" lon="13.6087342"><ele>13.0</ele><time>2026-04-11T16:43:53.726Z</time></trkpt><trkpt lat="43.4478098" lon="13.6086159"><ele>13.0</ele><time>2026-04-11T16:43:54.727Z</time></trkpt><trkpt lat="43.447789" lon="13.6085106"><ele>13.0</ele><time>2026-04-11T16:43:55.727Z</time></trkpt><trkpt lat="43.4477477" lon="13.6084025"><ele>12.999999999999998</ele><time>2026-04-11T16:43:56.726Z</time></trkpt><trkpt lat="43.4477113" lon="13.6083086"><ele>13.0</ele><time>2026-04-11T16:43:57.726Z</time></trkpt><trkpt lat="43.4476686" lon="13.6082179"><ele>13.0</ele><time>2026-04-11T16:43:58.726Z</time></trkpt><trkpt lat="43.4476317" lon="13.60813"><ele>13.0</ele><time>2026-04-11T16:43:59.726Z</time></trkpt><trkpt lat="43.4475735" lon="13.6079806"><ele>13.0</ele><time>2026-04-11T16:44:01.727Z</time></trkpt><trkpt lat="43.447548" lon="13.6078263"><ele>13.0</ele><time>2026-04-11T16:44:03.727Z</time></trkpt><trkpt lat="43.4475481" lon="13.6077387"><ele>13.0</ele><time>2026-04-11T16:44:04.727Z</time></trkpt><trkpt lat="43.4475099" lon="13.6075653"><ele>12.999999999999998</ele><time>2026-04-11T16:44:06.727Z</time></trkpt><trkpt lat="43.4474516" lon="13.6075252"><ele>13.0</ele><time>2026-04-11T16:44:07.726Z</time></trkpt><trkpt lat="43.4473764" lon="13.607497"><ele>13.0</ele><time>2026-04-11T16:44:08.727Z</time></trkpt><trkpt lat="43.4472921" lon="13.6074781"><ele>13.0</ele><time>2026-04-11T16:44:09.727Z</time></trkpt><trkpt lat="43.4472064" lon="13.6074259"><ele>12.999999999999998</ele><time>2026-04-11T16:44:10.727Z</time></trkpt><trkpt lat="43.4471306" lon="13.6073556"><ele>13.0</ele><time>2026-04-11T16:44:11.727Z</time></trkpt><trkpt lat="43.4470477" lon="13.6072693"><ele>13.4</ele><time>2026-04-11T16:44:12.727Z</time></trkpt><trkpt lat="43.4469765" lon="13.6071714"><ele>13.8</ele><time>2026-04-11T16:44:13.726Z</time></trkpt><trkpt lat="43.4469087" lon="13.6070635"><ele>14.2</ele><time>2026-04-11T16:44:14.726Z</time></trkpt><trkpt lat="43.4468393" lon="13.6069385"><ele>14.6</ele><time>2026-04-11T16:44:15.726Z</time></trkpt><trkpt lat="43.4467875" lon="13.606811"><ele>15.0</ele><time>2026-04-11T16:44:16.726Z</time></trkpt><trkpt lat="43.4467331" lon="13.6066696"><ele>15.0</ele><time>2026-04-11T16:44:17.726Z</time></trkpt><trkpt lat="43.4466864" lon="13.6065219"><ele>15.0</ele><time>2026-04-11T16:44:18.727Z</time></trkpt><trkpt lat="43.4466297" lon="13.6063778"><ele>15.0</ele><time>2026-04-11T16:44:19.727Z</time></trkpt><trkpt lat="43.4465627" lon="13.6062357"><ele>15.0</ele><time>2026-04-11T16:44:20.726Z</time></trkpt><trkpt lat="43.446488" lon="13.6060777"><ele>15.0</ele><time>2026-04-11T16:44:21.727Z</time></trkpt><trkpt lat="43.4464145" lon="13.6059247"><ele>15.0</ele><time>2026-04-11T16:44:22.727Z</time></trkpt><trkpt lat="43.446348" lon="13.6057779"><ele>15.0</ele><time>2026-04-11T16:44:23.726Z</time></trkpt><trkpt lat="43.4462902" lon="13.6056202"><ele>15.0</ele><time>2026-04-11T16:44:24.726Z</time></trkpt><trkpt lat="43.4462411" lon="13.6054598"><ele>15.25</ele><time>2026-04-11T16:44:25.727Z</time></trkpt><trkpt lat="43.4461933" lon="13.6052914"><ele>15.5</ele><time>2026-04-11T16:44:26.727Z</time></trkpt><trkpt lat="43.4461341" lon="13.6051325"><ele>15.75</ele><time>2026-04-11T16:44:27.726Z</time></trkpt><trkpt lat="43.4460738" lon="13.6049634"><ele>16.0</ele><time>2026-04-11T16:44:28.727Z</time></trkpt><trkpt lat="43.4460128" lon="13.6048059"><ele>16.0</ele><time>2026-04-11T16:44:29.727Z</time></trkpt><trkpt lat="43.4459457" lon="13.6046325"><ele>16.0</ele><time>2026-04-11T16:44:30.727Z</time></trkpt><trkpt lat="43.4458804" lon="13.6044954"><ele>16.0</ele><time>2026-04-11T16:44:31.726Z</time></trkpt><trkpt lat="43.4458293" lon="13.6043577"><ele>16.0</ele><time>2026-04-11T16:44:32.726Z</time></trkpt><trkpt lat="43.4457837" lon="13.6042349"><ele>15.600000000000001</ele><time>2026-04-11T16:44:33.727Z</time></trkpt><trkpt lat="43.4457344" lon="13.6041169"><ele>15.200000000000001</ele><time>2026-04-11T16:44:34.727Z</time></trkpt><trkpt lat="43.4456767" lon="13.6039961"><ele>14.799999999999999</ele><time>2026-04-11T16:44:35.726Z</time></trkpt><trkpt lat="43.4456186" lon="13.603875"><ele>14.399999999999999</ele><time>2026-04-11T16:44:36.727Z</time></trkpt><trkpt lat="43.4455552" lon="13.6037413"><ele>14.0</ele><time>2026-04-11T16:44:37.727Z</time></trkpt><trkpt lat="43.4454989" lon="13.6036104"><ele>14.0</ele><time>2026-04-11T16:44:38.726Z</time></trkpt><trkpt lat="43.4454349" lon="13.6034763"><ele>14.0</ele><time>2026-04-11T16:44:39.726Z</time></trkpt><trkpt lat="43.4453745" lon="13.6033303"><ele>14.0</ele><time>2026-04-11T16:44:40.726Z</time></trkpt><trkpt lat="43.4453061" lon="13.6031843"><ele>14.0</ele><time>2026-04-11T16:44:41.726Z</time></trkpt><trkpt lat="43.4452439" lon="13.6030289"><ele>14.0</ele><time>2026-04-11T16:44:42.727Z</time></trkpt><trkpt lat="43.4451787" lon="13.6028872"><ele>14.0</ele><time>2026-04-11T16:44:43.726Z</time></trkpt><trkpt lat="43.4451195" lon="13.6027387"><ele>14.0</ele><time>2026-04-11T16:44:44.726Z</time></trkpt><trkpt lat="43.4450502" lon="13.6026107"><ele>14.0</ele><time>2026-04-11T16:44:45.727Z</time></trkpt><trkpt lat="43.4449999" lon="13.6024846"><ele>13.799999999999999</ele><time>2026-04-11T16:44:46.726Z</time></trkpt><trkpt lat="43.4449367" lon="13.6023562"><ele>13.599999999999998</ele><time>2026-04-11T16:44:47.726Z</time></trkpt><trkpt lat="43.4448856" lon="13.6022426"><ele>13.4</ele><time>2026-04-11T16:44:48.726Z</time></trkpt><trkpt lat="43.4448222" lon="13.6021226"><ele>13.2</ele><time>2026-04-11T16:44:49.727Z</time></trkpt><trkpt lat="43.4447613" lon="13.6019951"><ele>13.0</ele><time>2026-04-11T16:44:50.727Z</time></trkpt><trkpt lat="43.444694" lon="13.6018634"><ele>12.8</ele><time>2026-04-11T16:44:51.727Z</time></trkpt><trkpt lat="43.4446402" lon="13.6017434"><ele>12.600000000000001</ele><time>2026-04-11T16:44:52.727Z</time></trkpt><trkpt lat="43.444582" lon="13.6016392"><ele>12.399999999999999</ele><time>2026-04-11T16:44:53.727Z</time></trkpt><trkpt lat="43.4445277" lon="13.6015292"><ele>12.2</ele><time>2026-04-11T16:44:54.727Z</time></trkpt><trkpt lat="43.4444761" lon="13.6014266"><ele>12.0</ele><time>2026-04-11T16:44:55.727Z</time></trkpt><trkpt lat="43.4444229" lon="13.6013284"><ele>12.333333333333334</ele><time>2026-04-11T16:44:56.727Z</time></trkpt><trkpt lat="43.4443733" lon="13.6012387"><ele>12.666666666666668</ele><time>2026-04-11T16:44:57.726Z</time></trkpt><trkpt lat="43.4443219" lon="13.6011567"><ele>13.0</ele><time>2026-04-11T16:44:58.727Z</time></trkpt><trkpt lat="43.4442701" lon="13.6010813"><ele>13.333333333333334</ele><time>2026-04-11T16:44:59.727Z</time></trkpt><trkpt lat="43.4442126" lon="13.601019"><ele>13.666666666666668</ele><time>2026-04-11T16:45:00.726Z</time></trkpt><trkpt lat="43.4441492" lon="13.6009552"><ele>14.0</ele><time>2026-04-11T16:45:01.727Z</time></trkpt><trkpt lat="43.444088" lon="13.6009025"><ele>14.2</ele><time>2026-04-11T16:45:02.727Z</time></trkpt><trkpt lat="43.4440297" lon="13.6008542"><ele>14.399999999999999</ele><time>2026-04-11T16:45:03.726Z</time></trkpt><trkpt lat="43.4439763" lon="13.6007216"><ele>14.6</ele><time>2026-04-11T16:45:05.727Z</time></trkpt><trkpt lat="43.4440012" lon="13.6005369"><ele>14.8</ele><time>2026-04-11T16:45:07.727Z</time></trkpt><trkpt lat="43.4440188" lon="13.6004356"><ele>15.0</ele><time>2026-04-11T16:45:08.726Z</time></trkpt><trkpt lat="43.4440453" lon="13.6003285"><ele>15.142857142857142</ele><time>2026-04-11T16:45:09.726Z</time></trkpt><trkpt lat="43.4440685" lon="13.6002196"><ele>15.285714285714285</ele><time>2026-04-11T16:45:10.727Z</time></trkpt><trkpt lat="43.4440866" lon="13.6001181"><ele>15.428571428571427</ele><time>2026-04-11T16:45:11.727Z</time></trkpt><trkpt lat="43.4441027" lon="13.600029"><ele>15.571428571428571</ele><time>2026-04-11T16:45:12.726Z</time></trkpt><trkpt lat="43.4441244" lon="13.5999424"><ele>15.714285714285712</ele><time>2026-04-11T16:45:13.727Z</time></trkpt><trkpt lat="43.4441388" lon="13.5998531"><ele>15.857142857142856</ele><time>2026-04-11T16:45:14.727Z</time></trkpt><trkpt lat="43.4441656" lon="13.599763"><ele>16.0</ele><time>2026-04-11T16:45:15.727Z</time></trkpt><trkpt lat="43.4441835" lon="13.5996722"><ele>15.999999999999998</ele><time>2026-04-11T16:45:16.726Z</time></trkpt><trkpt lat="43.4442008" lon="13.5995769"><ele>16.0</ele><time>2026-04-11T16:45:17.727Z</time></trkpt><trkpt lat="43.4442203" lon="13.5994841"><ele>16.0</ele><time>2026-04-11T16:45:18.727Z</time></trkpt><trkpt lat="43.4442359" lon="13.5993904"><ele>16.0</ele><time>2026-04-11T16:45:19.727Z</time></trkpt><trkpt lat="43.4442346" lon="13.5992963"><ele>15.999999999999998</ele><time>2026-04-11T16:45:20.727Z</time></trkpt><trkpt lat="43.4441589" lon="13.599168"><ele>16.0</ele><time>2026-04-11T16:45:22.726Z</time></trkpt><trkpt lat="43.4440502" lon="13.5991325"><ele>15.999999999999998</ele><time>2026-04-11T16:45:24.726Z</time></trkpt><trkpt lat="43.443936" lon="13.5991099"><ele>16.0</ele><time>2026-04-11T16:45:26.727Z</time></trkpt><trkpt lat="43.4438553" lon="13.5990873"><ele>16.0</ele><time>2026-04-11T16:45:28.727Z</time></trkpt><trkpt lat="43.4437635" lon="13.5990476"><ele>16.0</ele><time>2026-04-11T16:45:30.726Z</time></trkpt><trkpt lat="43.4436984" lon="13.5990094"><ele>15.999999999999998</ele><time>2026-04-11T16:45:32.726Z</time></trkpt><trkpt lat="43.4436191" lon="13.5989877"><ele>16.0</ele><time>2026-04-11T16:45:34.726Z</time></trkpt><trkpt lat="43.4435331" lon="13.5989611"><ele>15.999999999999998</ele><time>2026-04-11T16:45:36.726Z</time></trkpt><trkpt lat="43.4434647" lon="13.5989448"><ele>16.0</ele><time>2026-04-11T16:45:38.727Z</time></trkpt><trkpt lat="43.4433835" lon="13.5988829"><ele>16.0</ele><time>2026-04-11T16:45:41.726Z</time></trkpt><trkpt lat="43.4433758" lon="13.5987842"><ele>16.0</ele><time>2026-04-11T16:45:43.726Z</time></trkpt><trkpt lat="43.4433796" lon="13.5986399"><ele>15.999999999999998</ele><time>2026-04-11T16:45:45.726Z</time></trkpt><trkpt lat="43.4433531" lon="13.598561"><ele>16.0</ele><time>2026-04-11T16:45:46.726Z</time></trkpt><trkpt lat="43.4433093" lon="13.598496"><ele>15.999999999999998</ele><time>2026-04-11T16:45:47.726Z</time></trkpt><trkpt lat="43.4432466" lon="13.5984302"><ele>16.0</ele><time>2026-04-11T16:45:48.727Z</time></trkpt><trkpt lat="43.4431851" lon="13.5983589"><ele>16.0</ele><time>2026-04-11T16:45:49.726Z</time></trkpt><trkpt lat="43.4431202" lon="13.5982826"><ele>16.0</ele><time>2026-04-11T16:45:50.727Z</time></trkpt><trkpt lat="43.4430517" lon="13.5982088"><ele>15.999999999999998</ele><time>2026-04-11T16:45:51.726Z</time></trkpt><trkpt lat="43.4429877" lon="13.5981162"><ele>16.0</ele><time>2026-04-11T16:45:52.726Z</time></trkpt><trkpt lat="43.4429175" lon="13.5980298"><ele>16.0</ele><time>2026-04-11T16:45:53.727Z</time></trkpt><trkpt lat="43.442845" lon="13.597934"><ele>16.0</ele><time>2026-04-11T16:45:54.726Z</time></trkpt><trkpt lat="43.4427687" lon="13.5978507"><ele>16.0</ele><time>2026-04-11T16:45:55.727Z</time></trkpt><trkpt lat="43.4426834" lon="13.5977595"><ele>16.0</ele><time>2026-04-11T16:45:56.727Z</time></trkpt><trkpt lat="43.4426046" lon="13.5976768"><ele>16.0</ele><time>2026-04-11T16:45:57.727Z</time></trkpt><trkpt lat="43.4425351" lon="13.5976048"><ele>16.0</ele><time>2026-04-11T16:45:58.726Z</time></trkpt><trkpt lat="43.4424785" lon="13.5975323"><ele>16.0</ele><time>2026-04-11T16:45:59.727Z</time></trkpt><trkpt lat="43.4424031" lon="13.5974535"><ele>16.0</ele><time>2026-04-11T16:46:00.727Z</time></trkpt><trkpt lat="43.4423345" lon="13.5973806"><ele>16.0</ele><time>2026-04-11T16:46:01.726Z</time></trkpt><trkpt lat="43.4422592" lon="13.5972997"><ele>16.0</ele><time>2026-04-11T16:46:02.726Z</time></trkpt><trkpt lat="43.4421849" lon="13.5972157"><ele>15.999999999999998</ele><time>2026-04-11T16:46:03.727Z</time></trkpt><trkpt lat="43.4421131" lon="13.5971276"><ele>16.0</ele><time>2026-04-11T16:46:04.727Z</time></trkpt><trkpt lat="43.442038" lon="13.597061"><ele>16.0</ele><time>2026-04-11T16:46:05.727Z</time></trkpt><trkpt lat="43.4419565" lon="13.5970218"><ele>16.0</ele><time>2026-04-11T16:46:06.726Z</time></trkpt><trkpt lat="43.4418747" lon="13.5970203"><ele>15.999999999999998</ele><time>2026-04-11T16:46:07.727Z</time></trkpt><trkpt lat="43.4418" lon="13.5970571"><ele>16.0</ele><time>2026-04-11T16:46:08.727Z</time></trkpt><trkpt lat="43.4417335" lon="13.5971214"><ele>15.999999999999998</ele><time>2026-04-11T16:46:09.726Z</time></trkpt><trkpt lat="43.4416733" lon="13.5971966"><ele>16.0</ele><time>2026-04-11T16:46:10.726Z</time></trkpt><trkpt lat="43.4416182" lon="13.5972708"><ele>16.0</ele><time>2026-04-11T16:46:11.726Z</time></trkpt><trkpt lat="43.4415667" lon="13.5973491"><ele>16.0</ele><time>2026-04-11T16:46:12.726Z</time></trkpt><trkpt lat="43.4415121" lon="13.5974246"><ele>15.999999999999998</ele><time>2026-04-11T16:46:13.727Z</time></trkpt><trkpt lat="43.441461" lon="13.5974992"><ele>16.0</ele><time>2026-04-11T16:46:14.727Z</time></trkpt><trkpt lat="43.44141" lon="13.5975701"><ele>15.999999999999998</ele><time>2026-04-11T16:46:15.726Z</time></trkpt><trkpt lat="43.4413153" lon="13.5976764"><ele>16.0</ele><time>2026-04-11T16:46:17.727Z</time></trkpt><trkpt lat="43.4412532" lon="13.5977043"><ele>16.0</ele><time>2026-04-11T16:46:18.727Z</time></trkpt><trkpt lat="43.4411882" lon="13.5977068"><ele>16.0</ele><time>2026-04-11T16:46:19.726Z</time></trkpt><trkpt lat="43.4411253" lon="13.5976823"><ele>15.999999999999998</ele><time>2026-04-11T16:46:20.726Z</time></trkpt><trkpt lat="43.4410704" lon="13.5976152"><ele>16.0</ele><time>2026-04-11T16:46:21.726Z</time></trkpt><trkpt lat="43.4410018" lon="13.5975513"><ele>16.2</ele><time>2026-04-11T16:46:22.726Z</time></trkpt><trkpt lat="43.4409254" lon="13.5974759"><ele>16.400000000000002</ele><time>2026-04-11T16:46:23.727Z</time></trkpt><trkpt lat="43.4408441" lon="13.5973788"><ele>16.6</ele><time>2026-04-11T16:46:24.727Z</time></trkpt><trkpt lat="43.4407546" lon="13.5972793"><ele>16.8</ele><time>2026-04-11T16:46:25.726Z</time></trkpt><trkpt lat="43.4406648" lon="13.5971744"><ele>17.0</ele><time>2026-04-11T16:46:26.726Z</time></trkpt><trkpt lat="43.4405723" lon="13.5970638"><ele>16.75</ele><time>2026-04-11T16:46:27.726Z</time></trkpt><trkpt lat="43.4404726" lon="13.5969463"><ele>16.5</ele><time>2026-04-11T16:46:28.726Z</time></trkpt><trkpt lat="43.4403775" lon="13.5968263"><ele>16.25</ele><time>2026-04-11T16:46:29.727Z</time></trkpt><trkpt lat="43.4402774" lon="13.5967079"><ele>16.0</ele><time>2026-04-11T16:46:30.726Z</time></trkpt><trkpt lat="43.4401744" lon="13.5965902"><ele>15.75</ele><time>2026-04-11T16:46:31.727Z</time></trkpt><trkpt lat="43.440065" lon="13.5964711"><ele>15.5</ele><time>2026-04-11T16:46:32.726Z</time></trkpt><trkpt lat="43.4399614" lon="13.5963524"><ele>15.25</ele><time>2026-04-11T16:46:33.726Z</time></trkpt><trkpt lat="43.439853" lon="13.596232"><ele>15.0</ele><time>2026-04-11T16:46:34.727Z</time></trkpt><trkpt lat="43.439745" lon="13.5961057"><ele>16.0</ele><time>2026-04-11T16:46:35.727Z</time></trkpt><trkpt lat="43.4396322" lon="13.5959771"><ele>17.0</ele><time>2026-04-11T16:46:36.727Z</time></trkpt><trkpt lat="43.4395126" lon="13.5958548"><ele>18.0</ele><time>2026-04-11T16:46:37.726Z</time></trkpt><trkpt lat="43.4393974" lon="13.5957217"><ele>19.0</ele><time>2026-04-11T16:46:38.727Z</time></trkpt><trkpt lat="43.4392798" lon="13.5955838"><ele>19.0</ele><time>2026-04-11T16:46:39.726Z</time></trkpt><trkpt lat="43.4391591" lon="13.5954383"><ele>19.0</ele><time>2026-04-11T16:46:40.727Z</time></trkpt><trkpt lat="43.4390357" lon="13.5952955"><ele>19.0</ele><time>2026-04-11T16:46:41.726Z</time></trkpt><trkpt lat="43.4389109" lon="13.5951591"><ele>18.666666666666664</ele><time>2026-04-11T16:46:42.727Z</time></trkpt><trkpt lat="43.4387871" lon="13.5950283"><ele>18.333333333333332</ele><time>2026-04-11T16:46:43.727Z</time></trkpt><trkpt lat="43.4386628" lon="13.5948842"><ele>18.0</ele><time>2026-04-11T16:46:44.726Z</time></trkpt><trkpt lat="43.4385361" lon="13.5947374"><ele>18.0</ele><time>2026-04-11T16:46:45.727Z</time></trkpt><trkpt lat="43.4384064" lon="13.5945857"><ele>18.0</ele><time>2026-04-11T16:46:46.726Z</time></trkpt><trkpt lat="43.438276" lon="13.5944446"><ele>18.0</ele><time>2026-04-11T16:46:47.726Z</time></trkpt><trkpt lat="43.4381504" lon="13.5943"><ele>17.666666666666668</ele><time>2026-04-11T16:46:48.727Z</time></trkpt><trkpt lat="43.4380282" lon="13.5941677"><ele>17.333333333333336</ele><time>2026-04-11T16:46:49.726Z</time></trkpt><trkpt lat="43.437912" lon="13.5940348"><ele>17.0</ele><time>2026-04-11T16:46:50.727Z</time></trkpt><trkpt lat="43.4377947" lon="13.5939148"><ele>17.5</ele><time>2026-04-11T16:46:51.726Z</time></trkpt><trkpt lat="43.4376784" lon="13.5938106"><ele>18.0</ele><time>2026-04-11T16:46:52.727Z</time></trkpt><trkpt lat="43.4375511" lon="13.5937368"><ele>18.5</ele><time>2026-04-11T16:46:53.727Z</time></trkpt><trkpt lat="43.437419" lon="13.5936849"><ele>19.0</ele><time>2026-04-11T16:46:54.727Z</time></trkpt><trkpt lat="43.4372939" lon="13.5936873"><ele>19.0</ele><time>2026-04-11T16:46:55.726Z</time></trkpt><trkpt lat="43.4371557" lon="13.5936995"><ele>19.0</ele><time>2026-04-11T16:46:56.726Z</time></trkpt><trkpt lat="43.4370223" lon="13.5937206"><ele>19.0</ele><time>2026-04-11T16:46:57.727Z</time></trkpt><trkpt lat="43.4368921" lon="13.5937573"><ele>19.0</ele><time>2026-04-11T16:46:58.727Z</time></trkpt><trkpt lat="43.4367624" lon="13.5937913"><ele>19.4</ele><time>2026-04-11T16:46:59.727Z</time></trkpt><trkpt lat="43.4366406" lon="13.5938301"><ele>19.799999999999997</ele><time>2026-04-11T16:47:00.726Z</time></trkpt><trkpt lat="43.436541" lon="13.5938594"><ele>20.200000000000003</ele><time>2026-04-11T16:47:01.727Z</time></trkpt><trkpt lat="43.4364628" lon="13.5938791"><ele>20.6</ele><time>2026-04-11T16:47:02.726Z</time></trkpt><trkpt lat="43.4363664" lon="13.593888"><ele>21.0</ele><time>2026-04-11T16:47:04.727Z</time></trkpt><trkpt lat="43.4363025" lon="13.5939565"><ele>21.0</ele><time>2026-04-11T16:47:06.727Z</time></trkpt><trkpt lat="43.436283" lon="13.5941316"><ele>21.0</ele><time>2026-04-11T16:47:08.726Z</time></trkpt><trkpt lat="43.4362925" lon="13.5942368"><ele>21.0</ele><time>2026-04-11T16:47:09.727Z</time></trkpt><trkpt lat="43.4363204" lon="13.5943649"><ele>21.0</ele><time>2026-04-11T16:47:10.727Z</time></trkpt><trkpt lat="43.436367" lon="13.5944954"><ele>21.0</ele><time>2026-04-11T16:47:11.727Z</time></trkpt><trkpt lat="43.4364203" lon="13.594656"><ele>23.0</ele><time>2026-04-11T16:47:12.727Z</time></trkpt><trkpt lat="43.4364823" lon="13.5948417"><ele>25.0</ele><time>2026-04-11T16:47:13.727Z</time></trkpt><trkpt lat="43.4365496" lon="13.5950471"><ele>27.0</ele><time>2026-04-11T16:47:14.726Z</time></trkpt><trkpt lat="43.4365997" lon="13.5952864"><ele>30.666666666666664</ele><time>2026-04-11T16:47:15.727Z</time></trkpt><trkpt lat="43.4366582" lon="13.5955344"><ele>34.33333333333333</ele><time>2026-04-11T16:47:16.726Z</time></trkpt><trkpt lat="43.4367068" lon="13.5957747"><ele>38.0</ele><time>2026-04-11T16:47:17.726Z</time></trkpt><trkpt lat="43.4367585" lon="13.5960207"><ele>42.25</ele><time>2026-04-11T16:47:18.726Z</time></trkpt><trkpt lat="43.4367913" lon="13.5962429"><ele>46.5</ele><time>2026-04-11T16:47:19.727Z</time></trkpt><trkpt lat="43.4368156" lon="13.5964414"><ele>50.75</ele><time>2026-04-11T16:47:20.727Z</time></trkpt><trkpt lat="43.4368082" lon="13.5966032"><ele>55.0</ele><time>2026-04-11T16:47:21.727Z</time></trkpt><trkpt lat="43.4367852" lon="13.5967863"><ele>55.0</ele><time>2026-04-11T16:47:22.727Z</time></trkpt><trkpt lat="43.4367625" lon="13.5969945"><ele>55.0</ele><time>2026-04-11T16:47:23.727Z</time></trkpt><trkpt lat="43.4367463" lon="13.5972324"><ele>55.0</ele><time>2026-04-11T16:47:24.727Z</time></trkpt><trkpt lat="43.4367224" lon="13.597467"><ele>59.0</ele><time>2026-04-11T16:47:25.726Z</time></trkpt><trkpt lat="43.4366718" lon="13.5977162"><ele>63.0</ele><time>2026-04-11T16:47:26.726Z</time></trkpt><trkpt lat="43.4366309" lon="13.5979421"><ele>67.0</ele><time>2026-04-11T16:47:27.726Z</time></trkpt><trkpt lat="43.4365813" lon="13.5981164"><ele>69.6</ele><time>2026-04-11T16:47:28.726Z</time></trkpt><trkpt lat="43.4365359" lon="13.5982547"><ele>72.2</ele><time>2026-04-11T16:47:29.726Z</time></trkpt><trkpt lat="43.4365211" lon="13.5983586"><ele>74.8</ele><time>2026-04-11T16:47:30.726Z</time></trkpt><trkpt lat="43.4365267" lon="13.5984881"><ele>77.4</ele><time>2026-04-11T16:47:31.726Z</time></trkpt><trkpt lat="43.4365442" lon="13.5986257"><ele>80.0</ele><time>2026-04-11T16:47:32.727Z</time></trkpt><trkpt lat="43.4365996" lon="13.5988316"><ele>83.33333333333334</ele><time>2026-04-11T16:47:33.727Z</time></trkpt><trkpt lat="43.4366607" lon="13.599021"><ele>86.66666666666667</ele><time>2026-04-11T16:47:34.727Z</time></trkpt><trkpt lat="43.4367298" lon="13.5992143"><ele>90.0</ele><time>2026-04-11T16:47:35.727Z</time></trkpt><trkpt lat="43.4368011" lon="13.5994137"><ele>92.33333333333334</ele><time>2026-04-11T16:47:36.726Z</time></trkpt><trkpt lat="43.4368614" lon="13.5996084"><ele>94.66666666666667</ele><time>2026-04-11T16:47:37.726Z</time></trkpt><trkpt lat="43.4369201" lon="13.5998012"><ele>97.0</ele><time>2026-04-11T16:47:38.727Z</time></trkpt><trkpt lat="43.4369967" lon="13.5999707"><ele>97.0</ele><time>2026-04-11T16:47:39.726Z</time></trkpt><trkpt lat="43.4370964" lon="13.6001429"><ele>97.0</ele><time>2026-04-11T16:47:40.727Z</time></trkpt><trkpt lat="43.4372063" lon="13.6003125"><ele>97.0</ele><time>2026-04-11T16:47:41.727Z</time></trkpt><trkpt lat="43.4373186" lon="13.6004914"><ele>95.33333333333334</ele><time>2026-04-11T16:47:42.727Z</time></trkpt><trkpt lat="43.4374127" lon="13.6006776"><ele>93.66666666666667</ele><time>2026-04-11T16:47:43.727Z</time></trkpt><trkpt lat="43.4375014" lon="13.6008527"><ele>92.0</ele><time>2026-04-11T16:47:44.726Z</time></trkpt><trkpt lat="43.4375886" lon="13.6010077"><ele>92.0</ele><time>2026-04-11T16:47:45.727Z</time></trkpt><trkpt lat="43.4376855" lon="13.6011479"><ele>92.0</ele><time>2026-04-11T16:47:46.726Z</time></trkpt><trkpt lat="43.4378046" lon="13.6012813"><ele>92.0</ele><time>2026-04-11T16:47:47.726Z</time></trkpt><trkpt lat="43.4379106" lon="13.6014052"><ele>92.0</ele><time>2026-04-11T16:47:48.727Z</time></trkpt><trkpt lat="43.4380055" lon="13.601515"><ele>92.25</ele><time>2026-04-11T16:47:49.726Z</time></trkpt><trkpt lat="43.4381003" lon="13.6016235"><ele>92.5</ele><time>2026-04-11T16:47:50.727Z</time></trkpt><trkpt lat="43.4381908" lon="13.6017104"><ele>92.75</ele><time>2026-04-11T16:47:51.726Z</time></trkpt><trkpt lat="43.4382904" lon="13.601777"><ele>93.0</ele><time>2026-04-11T16:47:52.726Z</time></trkpt><trkpt lat="43.4383911" lon="13.6018257"><ele>93.0</ele><time>2026-04-11T16:47:53.727Z</time></trkpt><trkpt lat="43.4384909" lon="13.6018617"><ele>93.0</ele><time>2026-04-11T16:47:54.726Z</time></trkpt><trkpt lat="43.4386044" lon="13.6018922"><ele>93.0</ele><time>2026-04-11T16:47:55.726Z</time></trkpt><trkpt lat="43.4387161" lon="13.6019212"><ele>93.0</ele><time>2026-04-11T16:47:56.727Z</time></trkpt><trkpt lat="43.438816" lon="13.6019958"><ele>93.0</ele><time>2026-04-11T16:47:57.726Z</time></trkpt><trkpt lat="43.4389279" lon="13.6020733"><ele>92.25</ele><time>2026-04-11T16:47:58.727Z</time></trkpt><trkpt lat="43.4389884" lon="13.6022397"><ele>91.5</ele><time>2026-04-11T16:47:59.727Z</time></trkpt><trkpt lat="43.4390323" lon="13.602405"><ele>90.75</ele><time>2026-04-11T16:48:00.727Z</time></trkpt><trkpt lat="43.4390507" lon="13.6025986"><ele>90.0</ele><time>2026-04-11T16:48:01.727Z</time></trkpt><trkpt lat="43.4390485" lon="13.6027749"><ele>92.0</ele><time>2026-04-11T16:48:02.726Z</time></trkpt><trkpt lat="43.4390457" lon="13.6029563"><ele>94.0</ele><time>2026-04-11T16:48:03.726Z</time></trkpt><trkpt lat="43.4390313" lon="13.6031509"><ele>96.0</ele><time>2026-04-11T16:48:04.727Z</time></trkpt><trkpt lat="43.4390247" lon="13.603331"><ele>98.0</ele><time>2026-04-11T16:48:05.726Z</time></trkpt><trkpt lat="43.4390244" lon="13.6035096"><ele>99.0</ele><time>2026-04-11T16:48:06.726Z</time></trkpt><trkpt lat="43.4390439" lon="13.6036805"><ele>100.0</ele><time>2026-04-11T16:48:07.727Z</time></trkpt><trkpt lat="43.4390714" lon="13.6038519"><ele>101.0</ele><time>2026-04-11T16:48:08.726Z</time></trkpt><trkpt lat="43.4391109" lon="13.6040109"><ele>102.0</ele><time>2026-04-11T16:48:09.726Z</time></trkpt><trkpt lat="43.4391396" lon="13.6041554"><ele>102.0</ele><time>2026-04-11T16:48:10.727Z</time></trkpt><trkpt lat="43.4391875" lon="13.6042916"><ele>102.0</ele><time>2026-04-11T16:48:11.726Z</time></trkpt><trkpt lat="43.4392518" lon="13.6044092"><ele>102.0</ele><time>2026-04-11T16:48:12.727Z</time></trkpt><trkpt lat="43.4393051" lon="13.6045269"><ele>102.0</ele><time>2026-04-11T16:48:13.726Z</time></trkpt><trkpt lat="43.4393597" lon="13.6046452"><ele>102.0</ele><time>2026-04-11T16:48:14.727Z</time></trkpt><trkpt lat="43.4394238" lon="13.60478"><ele>103.33333333333333</ele><time>2026-04-11T16:48:15.726Z</time></trkpt><trkpt lat="43.4394684" lon="13.6048661"><ele>104.66666666666666</ele><time>2026-04-11T16:48:16.727Z</time></trkpt><trkpt lat="43.4395085" lon="13.6049764"><ele>106.0</ele><time>2026-04-11T16:48:18.727Z</time></trkpt><trkpt lat="43.4395173" lon="13.6050748"><ele>107.33333333333333</ele><time>2026-04-11T16:48:21.726Z</time></trkpt><trkpt lat="43.4394663" lon="13.6051341"><ele>108.66666666666666</ele><time>2026-04-11T16:48:22.726Z</time></trkpt><trkpt lat="43.4393899" lon="13.6051949"><ele>110.0</ele><time>2026-04-11T16:48:23.727Z</time></trkpt><trkpt lat="43.439312" lon="13.6052478"><ele>109.99999999999999</ele><time>2026-04-11T16:48:24.727Z</time></trkpt><trkpt lat="43.4392568" lon="13.6053031"><ele>110.0</ele><time>2026-04-11T16:48:25.726Z</time></trkpt><trkpt lat="43.4392356" lon="13.6054157"><ele>110.0</ele><time>2026-04-11T16:48:27.726Z</time></trkpt><trkpt lat="43.4392876" lon="13.605563"><ele>110.0</ele><time>2026-04-11T16:48:29.727Z</time></trkpt><trkpt lat="43.4392304" lon="13.6056638"><ele>109.99999999999999</ele><time>2026-04-11T16:48:30.727Z</time></trkpt><trkpt lat="43.4391865" lon="13.6057489"><ele>110.0</ele><time>2026-04-11T16:48:31.727Z</time></trkpt><trkpt lat="43.4391145" lon="13.6058031"><ele>111.49999999999999</ele><time>2026-04-11T16:48:33.726Z</time></trkpt><trkpt lat="43.43904" lon="13.6057654"><ele>113.0</ele><time>2026-04-11T16:48:35.726Z</time></trkpt><trkpt lat="43.4389357" lon="13.6058025"><ele>114.5</ele><time>2026-04-11T16:48:37.727Z</time></trkpt><trkpt lat="43.4388777" lon="13.6058967"><ele>116.0</ele><time>2026-04-11T16:48:38.726Z</time></trkpt><trkpt lat="43.4388404" lon="13.605976"><ele>117.49999999999999</ele><time>2026-04-11T16:48:39.727Z</time></trkpt><trkpt lat="43.4387985" lon="13.606051"><ele>119.0</ele><time>2026-04-11T16:48:41.727Z</time></trkpt><trkpt lat="43.4387392" lon="13.6060881"><ele>120.2</ele><time>2026-04-11T16:48:44.727Z</time></trkpt><trkpt lat="43.4386379" lon="13.6059859"><ele>121.4</ele><time>2026-04-11T16:48:46.726Z</time></trkpt><trkpt lat="43.4385677" lon="13.6059081"><ele>122.6</ele><time>2026-04-11T16:48:47.727Z</time></trkpt><trkpt lat="43.4385025" lon="13.6058274"><ele>123.8</ele><time>2026-04-11T16:48:48.727Z</time></trkpt><trkpt lat="43.4384241" lon="13.605746"><ele>125.0</ele><time>2026-04-11T16:48:49.727Z</time></trkpt><trkpt lat="43.438341" lon="13.605675"><ele>125.0</ele><time>2026-04-11T16:48:50.726Z</time></trkpt><trkpt lat="43.438252" lon="13.6055916"><ele>125.0</ele><time>2026-04-11T16:48:51.727Z</time></trkpt><trkpt lat="43.4381598" lon="13.605501"><ele>125.0</ele><time>2026-04-11T16:48:52.727Z</time></trkpt><trkpt lat="43.4380655" lon="13.6054048"><ele>125.0</ele><time>2026-04-11T16:48:53.726Z</time></trkpt><trkpt lat="43.4379652" lon="13.6053035"><ele>128.0</ele><time>2026-04-11T16:48:54.727Z</time></trkpt><trkpt lat="43.4378658" lon="13.6051997"><ele>131.0</ele><time>2026-04-11T16:48:55.727Z</time></trkpt><trkpt lat="43.4377598" lon="13.6050987"><ele>134.0</ele><time>2026-04-11T16:48:56.727Z</time></trkpt><trkpt lat="43.4376582" lon="13.6049982"><ele>137.0</ele><time>2026-04-11T16:48:57.727Z</time></trkpt><trkpt lat="43.4375523" lon="13.6048983"><ele>137.0</ele><time>2026-04-11T16:48:58.726Z</time></trkpt><trkpt lat="43.4374497" lon="13.6048126"><ele>137.0</ele><time>2026-04-11T16:48:59.727Z</time></trkpt><trkpt lat="43.4373465" lon="13.6047055"><ele>137.0</ele><time>2026-04-11T16:49:00.727Z</time></trkpt><trkpt lat="43.4372449" lon="13.6046003"><ele>137.0</ele><time>2026-04-11T16:49:01.727Z</time></trkpt><trkpt lat="43.4371387" lon="13.6044888"><ele>141.0</ele><time>2026-04-11T16:49:02.727Z</time></trkpt><trkpt lat="43.4370281" lon="13.6043888"><ele>145.0</ele><time>2026-04-11T16:49:03.726Z</time></trkpt><trkpt lat="43.4369217" lon="13.604276"><ele>149.0</ele><time>2026-04-11T16:49:04.727Z</time></trkpt><trkpt lat="43.4368137" lon="13.6041665"><ele>153.0</ele><time>2026-04-11T16:49:05.727Z</time></trkpt><trkpt lat="43.4367069" lon="13.6040577"><ele>153.0</ele><time>2026-04-11T16:49:06.726Z</time></trkpt><trkpt lat="43.4366001" lon="13.6039467"><ele>153.0</ele><time>2026-04-11T16:49:07.726Z</time></trkpt><trkpt lat="43.4364947" lon="13.6038319"><ele>153.0</ele><time>2026-04-11T16:49:08.726Z</time></trkpt><trkpt lat="43.4363788" lon="13.6037179"><ele>153.0</ele><time>2026-04-11T16:49:09.726Z</time></trkpt><trkpt lat="43.4362659" lon="13.6036033"><ele>155.0</ele><time>2026-04-11T16:49:10.726Z</time></trkpt><trkpt lat="43.436151" lon="13.6034824"><ele>157.0</ele><time>2026-04-11T16:49:11.727Z</time></trkpt><trkpt lat="43.4360348" lon="13.6033649"><ele>159.0</ele><time>2026-04-11T16:49:12.726Z</time></trkpt><trkpt lat="43.4359231" lon="13.6032576"><ele>161.0</ele><time>2026-04-11T16:49:13.726Z</time></trkpt><trkpt lat="43.4358129" lon="13.6031479"><ele>161.0</ele><time>2026-04-11T16:49:14.727Z</time></trkpt><trkpt lat="43.4356962" lon="13.6030366"><ele>161.0</ele><time>2026-04-11T16:49:15.727Z</time></trkpt><trkpt lat="43.4355799" lon="13.6029207"><ele>161.0</ele><time>2026-04-11T16:49:16.726Z</time></trkpt><trkpt lat="43.4354524" lon="13.6028046"><ele>161.0</ele><time>2026-04-11T16:49:17.727Z</time></trkpt><trkpt lat="43.4353432" lon="13.6026892"><ele>160.75</ele><time>2026-04-11T16:49:18.727Z</time></trkpt><trkpt lat="43.4352288" lon="13.6025748"><ele>160.5</ele><time>2026-04-11T16:49:19.727Z</time></trkpt><trkpt lat="43.4351135" lon="13.6024652"><ele>160.25</ele><time>2026-04-11T16:49:20.726Z</time></trkpt><trkpt lat="43.4350001" lon="13.6023585"><ele>160.0</ele><time>2026-04-11T16:49:21.727Z</time></trkpt><trkpt lat="43.4348849" lon="13.6022419"><ele>160.0</ele><time>2026-04-11T16:49:22.727Z</time></trkpt><trkpt lat="43.4347838" lon="13.6021286"><ele>160.0</ele><time>2026-04-11T16:49:23.727Z</time></trkpt><trkpt lat="43.4346813" lon="13.6020044"><ele>160.0</ele><time>2026-04-11T16:49:24.727Z</time></trkpt><trkpt lat="43.4345857" lon="13.6019034"><ele>160.0</ele><time>2026-04-11T16:49:25.727Z</time></trkpt><trkpt lat="43.4344813" lon="13.6017949"><ele>157.75</ele><time>2026-04-11T16:49:26.727Z</time></trkpt><trkpt lat="43.4343758" lon="13.6017003"><ele>155.5</ele><time>2026-04-11T16:49:27.726Z</time></trkpt><trkpt lat="43.4342721" lon="13.6016143"><ele>153.25</ele><time>2026-04-11T16:49:28.727Z</time></trkpt><trkpt lat="43.4341661" lon="13.6015207"><ele>151.0</ele><time>2026-04-11T16:49:29.726Z</time></trkpt><trkpt lat="43.4340521" lon="13.6014273"><ele>151.0</ele><time>2026-04-11T16:49:30.727Z</time></trkpt><trkpt lat="43.43394" lon="13.6013408"><ele>151.0</ele><time>2026-04-11T16:49:31.727Z</time></trkpt><trkpt lat="43.4338216" lon="13.6012551"><ele>151.0</ele><time>2026-04-11T16:49:32.727Z</time></trkpt><trkpt lat="43.4337113" lon="13.6011764"><ele>151.0</ele><time>2026-04-11T16:49:33.727Z</time></trkpt><trkpt lat="43.4336024" lon="13.6010846"><ele>147.75</ele><time>2026-04-11T16:49:34.727Z</time></trkpt><trkpt lat="43.4334873" lon="13.6009985"><ele>144.5</ele><time>2026-04-11T16:49:35.727Z</time></trkpt><trkpt lat="43.433366" lon="13.6009113"><ele>141.25</ele><time>2026-04-11T16:49:36.726Z</time></trkpt><trkpt lat="43.4332516" lon="13.6008249"><ele>138.0</ele><time>2026-04-11T16:49:37.727Z</time></trkpt><trkpt lat="43.4331433" lon="13.6007483"><ele>138.0</ele><time>2026-04-11T16:49:38.727Z</time></trkpt><trkpt lat="43.4330479" lon="13.6006668"><ele>138.0</ele><time>2026-04-11T16:49:39.726Z</time></trkpt><trkpt lat="43.4329401" lon="13.6005895"><ele>138.0</ele><time>2026-04-11T16:49:40.727Z</time></trkpt><trkpt lat="43.4328409" lon="13.600505"><ele>138.0</ele><time>2026-04-11T16:49:41.727Z</time></trkpt><trkpt lat="43.4327378" lon="13.6004174"><ele>138.5</ele><time>2026-04-11T16:49:42.727Z</time></trkpt><trkpt lat="43.4326341" lon="13.6003322"><ele>139.0</ele><time>2026-04-11T16:49:43.727Z</time></trkpt><trkpt lat="43.4325289" lon="13.6002515"><ele>139.5</ele><time>2026-04-11T16:49:44.727Z</time></trkpt><trkpt lat="43.4324205" lon="13.6001672"><ele>140.0</ele><time>2026-04-11T16:49:45.727Z</time></trkpt><trkpt lat="43.4323138" lon="13.6000821"><ele>140.0</ele><time>2026-04-11T16:49:46.726Z</time></trkpt><trkpt lat="43.4322052" lon="13.5999931"><ele>140.0</ele><time>2026-04-11T16:49:47.727Z</time></trkpt><trkpt lat="43.4320988" lon="13.5999005"><ele>140.0</ele><time>2026-04-11T16:49:48.727Z</time></trkpt><trkpt lat="43.4319844" lon="13.5998144"><ele>140.0</ele><time>2026-04-11T16:49:49.727Z</time></trkpt><trkpt lat="43.4318711" lon="13.5997224"><ele>141.25</ele><time>2026-04-11T16:49:50.726Z</time></trkpt><trkpt lat="43.4317632" lon="13.599633"><ele>142.5</ele><time>2026-04-11T16:49:51.727Z</time></trkpt><trkpt lat="43.4316494" lon="13.5995423"><ele>143.75</ele><time>2026-04-11T16:49:52.727Z</time></trkpt><trkpt lat="43.431534" lon="13.5994495"><ele>145.0</ele><time>2026-04-11T16:49:53.727Z</time></trkpt><trkpt lat="43.4314129" lon="13.5993541"><ele>149.25</ele><time>2026-04-11T16:49:54.726Z</time></trkpt><trkpt lat="43.4312934" lon="13.5992581"><ele>153.5</ele><time>2026-04-11T16:49:55.727Z</time></trkpt><trkpt lat="43.4311727" lon="13.5991757"><ele>157.75</ele><time>2026-04-11T16:49:56.726Z</time></trkpt><trkpt lat="43.431049" lon="13.5991051"><ele>162.0</ele><time>2026-04-11T16:49:57.726Z</time></trkpt><trkpt lat="43.4309204" lon="13.5990491"><ele>162.0</ele><time>2026-04-11T16:49:58.727Z</time></trkpt><trkpt lat="43.4307944" lon="13.5990004"><ele>162.0</ele><time>2026-04-11T16:49:59.726Z</time></trkpt><trkpt lat="43.4306739" lon="13.5989683"><ele>162.0</ele><time>2026-04-11T16:50:00.727Z</time></trkpt><trkpt lat="43.4305593" lon="13.5989369"><ele>162.0</ele><time>2026-04-11T16:50:01.726Z</time></trkpt><trkpt lat="43.4304543" lon="13.5988919"><ele>161.75</ele><time>2026-04-11T16:50:02.726Z</time></trkpt><trkpt lat="43.4303404" lon="13.5988314"><ele>161.5</ele><time>2026-04-11T16:50:03.727Z</time></trkpt><trkpt lat="43.4302336" lon="13.5987462"><ele>161.25</ele><time>2026-04-11T16:50:04.726Z</time></trkpt><trkpt lat="43.4301825" lon="13.5985943"><ele>161.0</ele><time>2026-04-11T16:50:05.727Z</time></trkpt><trkpt lat="43.4301223" lon="13.5984379"><ele>158.5</ele><time>2026-04-11T16:50:06.727Z</time></trkpt><trkpt lat="43.4300625" lon="13.5982732"><ele>156.0</ele><time>2026-04-11T16:50:07.727Z</time></trkpt><trkpt lat="43.4300015" lon="13.5980926"><ele>153.5</ele><time>2026-04-11T16:50:08.726Z</time></trkpt><trkpt lat="43.429935" lon="13.5979036"><ele>151.0</ele><time>2026-04-11T16:50:09.727Z</time></trkpt><trkpt lat="43.4298658" lon="13.5977132"><ele>149.25</ele><time>2026-04-11T16:50:10.726Z</time></trkpt><trkpt lat="43.4298012" lon="13.5975263"><ele>147.5</ele><time>2026-04-11T16:50:11.726Z</time></trkpt><trkpt lat="43.4297325" lon="13.5973466"><ele>145.75</ele><time>2026-04-11T16:50:12.727Z</time></trkpt><trkpt lat="43.429653" lon="13.5971759"><ele>144.0</ele><time>2026-04-11T16:50:13.726Z</time></trkpt><trkpt lat="43.4295752" lon="13.5970133"><ele>140.25</ele><time>2026-04-11T16:50:14.727Z</time></trkpt><trkpt lat="43.4294969" lon="13.5968445"><ele>136.5</ele><time>2026-04-11T16:50:15.726Z</time></trkpt><trkpt lat="43.4294157" lon="13.5966768"><ele>132.75</ele><time>2026-04-11T16:50:16.727Z</time></trkpt><trkpt lat="43.4293305" lon="13.5965118"><ele>129.0</ele><time>2026-04-11T16:50:17.726Z</time></trkpt><trkpt lat="43.4292445" lon="13.5963424"><ele>128.66666666666666</ele><time>2026-04-11T16:50:18.726Z</time></trkpt><trkpt lat="43.4291593" lon="13.5961655"><ele>128.33333333333331</ele><time>2026-04-11T16:50:19.726Z</time></trkpt><trkpt lat="43.4290688" lon="13.5959746"><ele>128.0</ele><time>2026-04-11T16:50:20.727Z</time></trkpt><trkpt lat="43.4289892" lon="13.5957859"><ele>128.0</ele><time>2026-04-11T16:50:21.726Z</time></trkpt><trkpt lat="43.4289257" lon="13.5955812"><ele>128.0</ele><time>2026-04-11T16:50:22.726Z</time></trkpt><trkpt lat="43.4288605" lon="13.5953701"><ele>128.0</ele><time>2026-04-11T16:50:23.726Z</time></trkpt><trkpt lat="43.428805" lon="13.595173"><ele>124.33333333333333</ele><time>2026-04-11T16:50:24.727Z</time></trkpt><trkpt lat="43.4287461" lon="13.5949729"><ele>120.66666666666666</ele><time>2026-04-11T16:50:25.727Z</time></trkpt><trkpt lat="43.4286862" lon="13.5947683"><ele>117.0</ele><time>2026-04-11T16:50:26.726Z</time></trkpt><trkpt lat="43.4286259" lon="13.5945712"><ele>115.66666666666666</ele><time>2026-04-11T16:50:27.727Z</time></trkpt><trkpt lat="43.4285677" lon="13.594371"><ele>114.33333333333333</ele><time>2026-04-11T16:50:28.727Z</time></trkpt><trkpt lat="43.4285069" lon="13.5941615"><ele>113.0</ele><time>2026-04-11T16:50:29.726Z</time></trkpt><trkpt lat="43.4284513" lon="13.5939542"><ele>113.0</ele><time>2026-04-11T16:50:30.726Z</time></trkpt><trkpt lat="43.4283916" lon="13.5937473"><ele>113.0</ele><time>2026-04-11T16:50:31.726Z</time></trkpt><trkpt lat="43.4283305" lon="13.5935403"><ele>113.0</ele><time>2026-04-11T16:50:32.726Z</time></trkpt><trkpt lat="43.4282653" lon="13.5933309"><ele>111.33333333333333</ele><time>2026-04-11T16:50:33.727Z</time></trkpt><trkpt lat="43.428206" lon="13.5931217"><ele>109.66666666666666</ele><time>2026-04-11T16:50:34.726Z</time></trkpt><trkpt lat="43.4281533" lon="13.5929198"><ele>108.0</ele><time>2026-04-11T16:50:35.727Z</time></trkpt><trkpt lat="43.42809" lon="13.5927077"><ele>108.0</ele><time>2026-04-11T16:50:36.727Z</time></trkpt><trkpt lat="43.4280285" lon="13.5924834"><ele>108.0</ele><time>2026-04-11T16:50:37.727Z</time></trkpt><trkpt lat="43.4279848" lon="13.5922685"><ele>108.0</ele><time>2026-04-11T16:50:38.727Z</time></trkpt><trkpt lat="43.4279426" lon="13.5920483"><ele>103.66666666666667</ele><time>2026-04-11T16:50:39.726Z</time></trkpt><trkpt lat="43.4279145" lon="13.591829"><ele>99.33333333333334</ele><time>2026-04-11T16:50:40.726Z</time></trkpt><trkpt lat="43.4278777" lon="13.5916117"><ele>95.0</ele><time>2026-04-11T16:50:41.726Z</time></trkpt><trkpt lat="43.4278418" lon="13.5913816"><ele>94.33333333333334</ele><time>2026-04-11T16:50:42.727Z</time></trkpt><trkpt lat="43.4278001" lon="13.591152"><ele>93.66666666666667</ele><time>2026-04-11T16:50:43.726Z</time></trkpt><trkpt lat="43.4277616" lon="13.5909183"><ele>93.0</ele><time>2026-04-11T16:50:44.727Z</time></trkpt><trkpt lat="43.4277264" lon="13.5906815"><ele>93.0</ele><time>2026-04-11T16:50:45.726Z</time></trkpt><trkpt lat="43.4276886" lon="13.590447"><ele>93.0</ele><time>2026-04-11T16:50:46.726Z</time></trkpt><trkpt lat="43.4276486" lon="13.59022"><ele>93.0</ele><time>2026-04-11T16:50:47.727Z</time></trkpt><trkpt lat="43.4276099" lon="13.5899813"><ele>92.0</ele><time>2026-04-11T16:50:48.727Z</time></trkpt><trkpt lat="43.4275696" lon="13.5897553"><ele>91.0</ele><time>2026-04-11T16:50:49.726Z</time></trkpt><trkpt lat="43.4275353" lon="13.5895206"><ele>90.0</ele><time>2026-04-11T16:50:50.727Z</time></trkpt><trkpt lat="43.4274961" lon="13.589289"><ele>89.0</ele><time>2026-04-11T16:50:51.726Z</time></trkpt><trkpt lat="43.4274584" lon="13.5890525"><ele>88.0</ele><time>2026-04-11T16:50:52.726Z</time></trkpt><trkpt lat="43.4274235" lon="13.5888202"><ele>87.0</ele><time>2026-04-11T16:50:53.727Z</time></trkpt><trkpt lat="43.4273843" lon="13.5885915"><ele>87.0</ele><time>2026-04-11T16:50:54.727Z</time></trkpt><trkpt lat="43.427348" lon="13.5883702"><ele>87.0</ele><time>2026-04-11T16:50:55.726Z</time></trkpt><trkpt lat="43.427315" lon="13.5881456"><ele>87.0</ele><time>2026-04-11T16:50:56.727Z</time></trkpt><trkpt lat="43.4272813" lon="13.5879201"><ele>86.33333333333333</ele><time>2026-04-11T16:50:57.727Z</time></trkpt><trkpt lat="43.4272445" lon="13.587703"><ele>85.66666666666666</ele><time>2026-04-11T16:50:58.726Z</time></trkpt><trkpt lat="43.4272" lon="13.5874877"><ele>85.0</ele><time>2026-04-11T16:50:59.727Z</time></trkpt><trkpt lat="43.4271416" lon="13.5872799"><ele>84.66666666666666</ele><time>2026-04-11T16:51:00.726Z</time></trkpt><trkpt lat="43.427076" lon="13.5870653"><ele>84.33333333333333</ele><time>2026-04-11T16:51:01.727Z</time></trkpt><trkpt lat="43.4270024" lon="13.5868609"><ele>84.0</ele><time>2026-04-11T16:51:02.726Z</time></trkpt><trkpt lat="43.4269332" lon="13.5866568"><ele>83.0</ele><time>2026-04-11T16:51:03.727Z</time></trkpt><trkpt lat="43.4268638" lon="13.5864653"><ele>82.0</ele><time>2026-04-11T16:51:04.726Z</time></trkpt><trkpt lat="43.4267932" lon="13.5862762"><ele>81.0</ele><time>2026-04-11T16:51:05.727Z</time></trkpt><trkpt lat="43.4267198" lon="13.5860928"><ele>79.0</ele><time>2026-04-11T16:51:06.726Z</time></trkpt><trkpt lat="43.42664" lon="13.5859174"><ele>77.0</ele><time>2026-04-11T16:51:07.726Z</time></trkpt><trkpt lat="43.4265371" lon="13.5857539"><ele>75.0</ele><time>2026-04-11T16:51:08.727Z</time></trkpt><trkpt lat="43.426426" lon="13.5856083"><ele>73.0</ele><time>2026-04-11T16:51:09.726Z</time></trkpt><trkpt lat="43.4263067" lon="13.5854566"><ele>71.0</ele><time>2026-04-11T16:51:10.726Z</time></trkpt><trkpt lat="43.4261744" lon="13.5853236"><ele>69.0</ele><time>2026-04-11T16:51:11.727Z</time></trkpt><trkpt lat="43.4260394" lon="13.5851898"><ele>68.33333333333333</ele><time>2026-04-11T16:51:12.727Z</time></trkpt><trkpt lat="43.4259122" lon="13.585051"><ele>67.66666666666666</ele><time>2026-04-11T16:51:13.727Z</time></trkpt><trkpt lat="43.4257848" lon="13.5849129"><ele>67.0</ele><time>2026-04-11T16:51:14.727Z</time></trkpt><trkpt lat="43.4256581" lon="13.5847863"><ele>67.0</ele><time>2026-04-11T16:51:15.727Z</time></trkpt><trkpt lat="43.4255324" lon="13.5846564"><ele>67.0</ele><time>2026-04-11T16:51:16.727Z</time></trkpt><trkpt lat="43.4254065" lon="13.5845213"><ele>67.0</ele><time>2026-04-11T16:51:17.727Z</time></trkpt><trkpt lat="43.4252764" lon="13.5843798"><ele>65.33333333333333</ele><time>2026-04-11T16:51:18.727Z</time></trkpt><trkpt lat="43.4251467" lon="13.5842373"><ele>63.66666666666667</ele><time>2026-04-11T16:51:19.727Z</time></trkpt><trkpt lat="43.425012" lon="13.5840953"><ele>62.0</ele><time>2026-04-11T16:51:20.727Z</time></trkpt><trkpt lat="43.4248798" lon="13.5839339"><ele>62.0</ele><time>2026-04-11T16:51:21.727Z</time></trkpt><trkpt lat="43.4247517" lon="13.5837705"><ele>62.0</ele><time>2026-04-11T16:51:22.726Z</time></trkpt><trkpt lat="43.4246269" lon="13.5836108"><ele>62.0</ele><time>2026-04-11T16:51:23.726Z</time></trkpt><trkpt lat="43.4245024" lon="13.5834433"><ele>63.0</ele><time>2026-04-11T16:51:24.727Z</time></trkpt><trkpt lat="43.4243792" lon="13.5832716"><ele>64.0</ele><time>2026-04-11T16:51:25.727Z</time></trkpt><trkpt lat="43.4242541" lon="13.5830995"><ele>65.0</ele><time>2026-04-11T16:51:26.727Z</time></trkpt><trkpt lat="43.4241264" lon="13.582921"><ele>65.0</ele><time>2026-04-11T16:51:27.726Z</time></trkpt><trkpt lat="43.4240102" lon="13.5827505"><ele>65.0</ele><time>2026-04-11T16:51:28.727Z</time></trkpt><trkpt lat="43.4238882" lon="13.5825985"><ele>65.0</ele><time>2026-04-11T16:51:29.727Z</time></trkpt><trkpt lat="43.4237678" lon="13.5824344"><ele>66.66666666666667</ele><time>2026-04-11T16:51:30.727Z</time></trkpt><trkpt lat="43.423654" lon="13.5822641"><ele>68.33333333333333</ele><time>2026-04-11T16:51:31.727Z</time></trkpt><trkpt lat="43.4235326" lon="13.5821042"><ele>70.0</ele><time>2026-04-11T16:51:32.726Z</time></trkpt><trkpt lat="43.4234182" lon="13.5819423"><ele>70.0</ele><time>2026-04-11T16:51:33.726Z</time></trkpt><trkpt lat="43.4233075" lon="13.5817942"><ele>70.0</ele><time>2026-04-11T16:51:34.726Z</time></trkpt><trkpt lat="43.4231895" lon="13.5816446"><ele>70.0</ele><time>2026-04-11T16:51:35.726Z</time></trkpt><trkpt lat="43.4230639" lon="13.5815159"><ele>74.0</ele><time>2026-04-11T16:51:36.726Z</time></trkpt><trkpt lat="43.4229364" lon="13.5813929"><ele>78.0</ele><time>2026-04-11T16:51:37.727Z</time></trkpt><trkpt lat="43.4228001" lon="13.5813161"><ele>82.0</ele><time>2026-04-11T16:51:38.727Z</time></trkpt><trkpt lat="43.4226651" lon="13.581253"><ele>86.0</ele><time>2026-04-11T16:51:39.726Z</time></trkpt><trkpt lat="43.4225345" lon="13.58119"><ele>84.25</ele><time>2026-04-11T16:51:40.726Z</time></trkpt><trkpt lat="43.4224032" lon="13.581135"><ele>82.5</ele><time>2026-04-11T16:51:41.727Z</time></trkpt><trkpt lat="43.4222683" lon="13.5811009"><ele>80.75</ele><time>2026-04-11T16:51:42.727Z</time></trkpt><trkpt lat="43.4221275" lon="13.5811154"><ele>79.0</ele><time>2026-04-11T16:51:43.726Z</time></trkpt><trkpt lat="43.4219838" lon="13.5811605"><ele>82.5</ele><time>2026-04-11T16:51:44.727Z</time></trkpt><trkpt lat="43.4218545" lon="13.5812198"><ele>86.0</ele><time>2026-04-11T16:51:45.727Z</time></trkpt><trkpt lat="43.4217308" lon="13.5812816"><ele>89.5</ele><time>2026-04-11T16:51:46.726Z</time></trkpt><trkpt lat="43.4216167" lon="13.581348"><ele>93.0</ele><time>2026-04-11T16:51:47.726Z</time></trkpt><trkpt lat="43.4215013" lon="13.581421"><ele>93.0</ele><time>2026-04-11T16:51:48.727Z</time></trkpt><trkpt lat="43.4213921" lon="13.5815001"><ele>93.0</ele><time>2026-04-11T16:51:49.727Z</time></trkpt><trkpt lat="43.4212812" lon="13.5815893"><ele>93.0</ele><time>2026-04-11T16:51:50.727Z</time></trkpt><trkpt lat="43.4211834" lon="13.5816962"><ele>93.0</ele><time>2026-04-11T16:51:51.727Z</time></trkpt><trkpt lat="43.4210915" lon="13.5818117"><ele>92.75</ele><time>2026-04-11T16:51:52.726Z</time></trkpt><trkpt lat="43.4209951" lon="13.5819201"><ele>92.5</ele><time>2026-04-11T16:51:53.726Z</time></trkpt><trkpt lat="43.4209181" lon="13.5820596"><ele>92.25</ele><time>2026-04-11T16:51:54.726Z</time></trkpt><trkpt lat="43.420852" lon="13.5822005"><ele>92.0</ele><time>2026-04-11T16:51:55.727Z</time></trkpt><trkpt lat="43.4207844" lon="13.5823539"><ele>95.0</ele><time>2026-04-11T16:51:56.727Z</time></trkpt><trkpt lat="43.4207147" lon="13.5824989"><ele>98.0</ele><time>2026-04-11T16:51:57.727Z</time></trkpt><trkpt lat="43.420646" lon="13.5826442"><ele>101.0</ele><time>2026-04-11T16:51:58.727Z</time></trkpt><trkpt lat="43.4205867" lon="13.5827868"><ele>104.0</ele><time>2026-04-11T16:51:59.727Z</time></trkpt><trkpt lat="43.420527" lon="13.5829271"><ele>105.80000000000001</ele><time>2026-04-11T16:52:00.726Z</time></trkpt><trkpt lat="43.4204629" lon="13.5830506"><ele>107.60000000000001</ele><time>2026-04-11T16:52:01.727Z</time></trkpt><trkpt lat="43.4204052" lon="13.5831594"><ele>109.4</ele><time>2026-04-11T16:52:02.727Z</time></trkpt><trkpt lat="43.4203399" lon="13.583234"><ele>111.2</ele><time>2026-04-11T16:52:03.726Z</time></trkpt><trkpt lat="43.4202967" lon="13.5833075"><ele>113.0</ele><time>2026-04-11T16:52:04.727Z</time></trkpt><trkpt lat="43.4202817" lon="13.5834511"><ele>113.0</ele><time>2026-04-11T16:52:06.727Z</time></trkpt><trkpt lat="43.4204016" lon="13.5835061"><ele>113.0</ele><time>2026-04-11T16:52:08.726Z</time></trkpt><trkpt lat="43.420522" lon="13.5835029"><ele>113.0</ele><time>2026-04-11T16:52:09.727Z</time></trkpt><trkpt lat="43.4206536" lon="13.5835005"><ele>113.0</ele><time>2026-04-11T16:52:10.727Z</time></trkpt><trkpt lat="43.4207686" lon="13.5835025"><ele>112.83333333333333</ele><time>2026-04-11T16:52:11.726Z</time></trkpt><trkpt lat="43.4208535" lon="13.5835047"><ele>112.66666666666666</ele><time>2026-04-11T16:52:12.726Z</time></trkpt><trkpt lat="43.4209222" lon="13.5835408"><ele>112.5</ele><time>2026-04-11T16:52:13.726Z</time></trkpt><trkpt lat="43.4209628" lon="13.5836144"><ele>112.33333333333334</ele><time>2026-04-11T16:52:14.727Z</time></trkpt><trkpt lat="43.4209692" lon="13.5837054"><ele>112.16666666666667</ele><time>2026-04-11T16:52:15.726Z</time></trkpt><trkpt lat="43.4209524" lon="13.5838421"><ele>112.0</ele><time>2026-04-11T16:52:16.727Z</time></trkpt><trkpt lat="43.4209507" lon="13.5840136"><ele>113.19999999999999</ele><time>2026-04-11T16:52:17.727Z</time></trkpt><trkpt lat="43.4209689" lon="13.5841631"><ele>114.39999999999999</ele><time>2026-04-11T16:52:18.727Z</time></trkpt><trkpt lat="43.4210099" lon="13.584306"><ele>115.60000000000001</ele><time>2026-04-11T16:52:19.726Z</time></trkpt><trkpt lat="43.4210736" lon="13.5844224"><ele>116.80000000000001</ele><time>2026-04-11T16:52:20.726Z</time></trkpt><trkpt lat="43.4211451" lon="13.584536"><ele>118.0</ele><time>2026-04-11T16:52:21.727Z</time></trkpt><trkpt lat="43.4212137" lon="13.5846398"><ele>118.00000000000001</ele><time>2026-04-11T16:52:22.726Z</time></trkpt><trkpt lat="43.4212783" lon="13.5847287"><ele>118.0</ele><time>2026-04-11T16:52:23.727Z</time></trkpt><trkpt lat="43.4213387" lon="13.5848084"><ele>118.0</ele><time>2026-04-11T16:52:24.726Z</time></trkpt><trkpt lat="43.4213939" lon="13.5848858"><ele>118.0</ele><time>2026-04-11T16:52:25.726Z</time></trkpt><trkpt lat="43.4214541" lon="13.5849451"><ele>118.00000000000001</ele><time>2026-04-11T16:52:26.727Z</time></trkpt><trkpt lat="43.421521" lon="13.584991"><ele>118.0</ele><time>2026-04-11T16:52:27.727Z</time></trkpt><trkpt lat="43.4215943" lon="13.5850261"><ele>118.00000000000001</ele><time>2026-04-11T16:52:28.726Z</time></trkpt><trkpt lat="43.4216701" lon="13.5850584"><ele>118.0</ele><time>2026-04-11T16:52:29.727Z</time></trkpt><trkpt lat="43.4217431" lon="13.585085"><ele>118.0</ele><time>2026-04-11T16:52:30.727Z</time></trkpt><trkpt lat="43.4218168" lon="13.5851169"><ele>118.0</ele><time>2026-04-11T16:52:31.727Z</time></trkpt><trkpt lat="43.4218842" lon="13.5851627"><ele>118.00000000000001</ele><time>2026-04-11T16:52:32.726Z</time></trkpt><trkpt lat="43.4219375" lon="13.5852316"><ele>118.0</ele><time>2026-04-11T16:52:33.727Z</time></trkpt><trkpt lat="43.421966" lon="13.5853237"><ele>118.28571428571428</ele><time>2026-04-11T16:52:34.726Z</time></trkpt><trkpt lat="43.4219833" lon="13.5854145"><ele>118.57142857142858</ele><time>2026-04-11T16:52:35.727Z</time></trkpt><trkpt lat="43.4219966" lon="13.5855146"><ele>118.85714285714286</ele><time>2026-04-11T16:52:36.726Z</time></trkpt><trkpt lat="43.4219997" lon="13.5856249"><ele>119.14285714285714</ele><time>2026-04-11T16:52:37.727Z</time></trkpt><trkpt lat="43.4220136" lon="13.5857407"><ele>119.42857142857142</ele><time>2026-04-11T16:52:38.727Z</time></trkpt><trkpt lat="43.4220441" lon="13.5858304"><ele>119.71428571428572</ele><time>2026-04-11T16:52:39.727Z</time></trkpt><trkpt lat="43.4220848" lon="13.5859075"><ele>120.0</ele><time>2026-04-11T16:52:40.726Z</time></trkpt><trkpt lat="43.4221444" lon="13.5859692"><ele>117.33333333333333</ele><time>2026-04-11T16:52:41.727Z</time></trkpt><trkpt lat="43.4222168" lon="13.5860178"><ele>114.66666666666666</ele><time>2026-04-11T16:52:42.727Z</time></trkpt><trkpt lat="43.4222996" lon="13.5860837"><ele>112.0</ele><time>2026-04-11T16:52:43.727Z</time></trkpt><trkpt lat="43.4223787" lon="13.5861588"><ele>109.33333333333333</ele><time>2026-04-11T16:52:44.727Z</time></trkpt><trkpt lat="43.4224358" lon="13.5862466"><ele>106.66666666666666</ele><time>2026-04-11T16:52:45.727Z</time></trkpt><trkpt lat="43.422475" lon="13.586352"><ele>104.0</ele><time>2026-04-11T16:52:46.727Z</time></trkpt><trkpt lat="43.4224977" lon="13.5864818"><ele>104.0</ele><time>2026-04-11T16:52:47.727Z</time></trkpt><trkpt lat="43.4225182" lon="13.586614"><ele>104.0</ele><time>2026-04-11T16:52:48.727Z</time></trkpt><trkpt lat="43.4225447" lon="13.5867492"><ele>104.0</ele><time>2026-04-11T16:52:49.727Z</time></trkpt><trkpt lat="43.4225632" lon="13.5868811"><ele>104.0</ele><time>2026-04-11T16:52:50.726Z</time></trkpt><trkpt lat="43.4225786" lon="13.5870008"><ele>104.0</ele><time>2026-04-11T16:52:51.726Z</time></trkpt><trkpt lat="43.4225775" lon="13.5870955"><ele>103.16666666666666</ele><time>2026-04-11T16:52:52.726Z</time></trkpt><trkpt lat="43.4225239" lon="13.5872503"><ele>102.33333333333333</ele><time>2026-04-11T16:52:54.726Z</time></trkpt><trkpt lat="43.42249" lon="13.5873256"><ele>101.5</ele><time>2026-04-11T16:52:55.727Z</time></trkpt><trkpt lat="43.4224536" lon="13.5874081"><ele>100.66666666666666</ele><time>2026-04-11T16:52:56.726Z</time></trkpt><trkpt lat="43.4224159" lon="13.5875081"><ele>99.83333333333333</ele><time>2026-04-11T16:52:57.727Z</time></trkpt><trkpt lat="43.4223693" lon="13.5876057"><ele>99.0</ele><time>2026-04-11T16:52:58.726Z</time></trkpt><trkpt lat="43.4223029" lon="13.5877125"><ele>99.0</ele><time>2026-04-11T16:52:59.726Z</time></trkpt><trkpt lat="43.422231" lon="13.5878277"><ele>99.0</ele><time>2026-04-11T16:53:00.727Z</time></trkpt><trkpt lat="43.422154" lon="13.5879342"><ele>99.0</ele><time>2026-04-11T16:53:01.727Z</time></trkpt><trkpt lat="43.4220884" lon="13.5880511"><ele>99.0</ele><time>2026-04-11T16:53:02.727Z</time></trkpt><trkpt lat="43.422019" lon="13.5881625"><ele>99.0</ele><time>2026-04-11T16:53:03.726Z</time></trkpt><trkpt lat="43.4219519" lon="13.5882741"><ele>99.2</ele><time>2026-04-11T16:53:04.726Z</time></trkpt><trkpt lat="43.4218946" lon="13.5883894"><ele>99.4</ele><time>2026-04-11T16:53:05.726Z</time></trkpt><trkpt lat="43.4218543" lon="13.5885043"><ele>99.6</ele><time>2026-04-11T16:53:06.727Z</time></trkpt><trkpt lat="43.4218114" lon="13.5886229"><ele>99.8</ele><time>2026-04-11T16:53:07.726Z</time></trkpt><trkpt lat="43.4217632" lon="13.5887254"><ele>100.0</ele><time>2026-04-11T16:53:08.727Z</time></trkpt><trkpt lat="43.4217" lon="13.5888189"><ele>100.00000000000001</ele><time>2026-04-11T16:53:09.726Z</time></trkpt><trkpt lat="43.4216385" lon="13.5889277"><ele>100.0</ele><time>2026-04-11T16:53:10.727Z</time></trkpt><trkpt lat="43.4215861" lon="13.5890476"><ele>100.0</ele><time>2026-04-11T16:53:11.726Z</time></trkpt><trkpt lat="43.4215567" lon="13.5891437"><ele>100.0</ele><time>2026-04-11T16:53:12.726Z</time></trkpt><trkpt lat="43.4215518" lon="13.5892423"><ele>100.00000000000001</ele><time>2026-04-11T16:53:13.726Z</time></trkpt><trkpt lat="43.421574" lon="13.5893252"><ele>100.0</ele><time>2026-04-11T16:53:14.727Z</time></trkpt><trkpt lat="43.4216016" lon="13.5894278"><ele>99.2</ele><time>2026-04-11T16:53:15.727Z</time></trkpt><trkpt lat="43.4216188" lon="13.5895452"><ele>98.4</ele><time>2026-04-11T16:53:16.727Z</time></trkpt><trkpt lat="43.4215932" lon="13.5896775"><ele>97.6</ele><time>2026-04-11T16:53:17.727Z</time></trkpt><trkpt lat="43.4215581" lon="13.589818"><ele>96.8</ele><time>2026-04-11T16:53:18.727Z</time></trkpt><trkpt lat="43.4215121" lon="13.5899583"><ele>96.0</ele><time>2026-04-11T16:53:19.727Z</time></trkpt><trkpt lat="43.4214752" lon="13.5901119"><ele>96.0</ele><time>2026-04-11T16:53:20.727Z</time></trkpt><trkpt lat="43.4214377" lon="13.5902584"><ele>96.0</ele><time>2026-04-11T16:53:21.727Z</time></trkpt><trkpt lat="43.4213989" lon="13.590414"><ele>96.0</ele><time>2026-04-11T16:53:22.727Z</time></trkpt><trkpt lat="43.4213603" lon="13.5905431"><ele>96.0</ele><time>2026-04-11T16:53:23.727Z</time></trkpt><trkpt lat="43.4213107" lon="13.5906395"><ele>96.0</ele><time>2026-04-11T16:53:24.726Z</time></trkpt><trkpt lat="43.421241" lon="13.5907114"><ele>98.5</ele><time>2026-04-11T16:53:25.727Z</time></trkpt><trkpt lat="43.4211565" lon="13.5907658"><ele>101.0</ele><time>2026-04-11T16:53:26.727Z</time></trkpt><trkpt lat="43.4210867" lon="13.5908271"><ele>103.5</ele><time>2026-04-11T16:53:27.726Z</time></trkpt><trkpt lat="43.4210321" lon="13.5909057"><ele>106.0</ele><time>2026-04-11T16:53:28.727Z</time></trkpt><trkpt lat="43.4209944" lon="13.5909795"><ele>108.5</ele><time>2026-04-11T16:53:29.727Z</time></trkpt><trkpt lat="43.4209721" lon="13.5910632"><ele>111.0</ele><time>2026-04-11T16:53:30.727Z</time></trkpt><trkpt lat="43.4209008" lon="13.5911914"><ele>111.0</ele><time>2026-04-11T16:53:32.726Z</time></trkpt><trkpt lat="43.4207922" lon="13.5911783"><ele>111.0</ele><time>2026-04-11T16:53:34.727Z</time></trkpt><trkpt lat="43.4207312" lon="13.5911319"><ele>111.0</ele><time>2026-04-11T16:53:35.726Z</time></trkpt><trkpt lat="43.4206632" lon="13.5910796"><ele>111.0</ele><time>2026-04-11T16:53:36.726Z</time></trkpt><trkpt lat="43.4205878" lon="13.5910249"><ele>111.0</ele><time>2026-04-11T16:53:37.727Z</time></trkpt><trkpt lat="43.4205027" lon="13.5909655"><ele>111.0</ele><time>2026-04-11T16:53:38.727Z</time></trkpt><trkpt lat="43.4204267" lon="13.5909014"><ele>113.19999999999999</ele><time>2026-04-11T16:53:39.727Z</time></trkpt><trkpt lat="43.420335" lon="13.5908359"><ele>115.39999999999999</ele><time>2026-04-11T16:53:40.727Z</time></trkpt><trkpt lat="43.4202446" lon="13.5907718"><ele>117.6</ele><time>2026-04-11T16:53:41.726Z</time></trkpt><trkpt lat="43.4201506" lon="13.5907025"><ele>119.8</ele><time>2026-04-11T16:53:42.727Z</time></trkpt><trkpt lat="43.420057" lon="13.5906371"><ele>122.0</ele><time>2026-04-11T16:53:43.726Z</time></trkpt><trkpt lat="43.4199656" lon="13.5905688"><ele>121.99999999999999</ele><time>2026-04-11T16:53:44.727Z</time></trkpt><trkpt lat="43.419889" lon="13.5905313"><ele>122.0</ele><time>2026-04-11T16:53:45.727Z</time></trkpt><trkpt lat="43.4198197" lon="13.5904844"><ele>122.0</ele><time>2026-04-11T16:53:46.726Z</time></trkpt><trkpt lat="43.4197173" lon="13.5904512"><ele>122.0</ele><time>2026-04-11T16:53:48.727Z</time></trkpt><trkpt lat="43.4196648" lon="13.5905601"><ele>121.99999999999999</ele><time>2026-04-11T16:53:50.726Z</time></trkpt><trkpt lat="43.4196645" lon="13.590667"><ele>122.0</ele><time>2026-04-11T16:53:51.727Z</time></trkpt><trkpt lat="43.4196791" lon="13.5908057"><ele>122.0</ele><time>2026-04-11T16:53:52.727Z</time></trkpt><trkpt lat="43.4197048" lon="13.5909688"><ele>122.0</ele><time>2026-04-11T16:53:53.727Z</time></trkpt><trkpt lat="43.4197276" lon="13.5911367"><ele>122.0</ele><time>2026-04-11T16:53:54.727Z</time></trkpt><trkpt lat="43.4197516" lon="13.5913087"><ele>122.0</ele><time>2026-04-11T16:53:55.727Z</time></trkpt><trkpt lat="43.419778" lon="13.5914831"><ele>122.5</ele><time>2026-04-11T16:53:56.727Z</time></trkpt><trkpt lat="43.4198024" lon="13.591654"><ele>123.0</ele><time>2026-04-11T16:53:57.727Z</time></trkpt><trkpt lat="43.4198234" lon="13.5918082"><ele>123.5</ele><time>2026-04-11T16:53:58.727Z</time></trkpt><trkpt lat="43.4198454" lon="13.5919613"><ele>124.0</ele><time>2026-04-11T16:53:59.726Z</time></trkpt><trkpt lat="43.4198634" lon="13.5921072"><ele>124.0</ele><time>2026-04-11T16:54:00.726Z</time></trkpt><trkpt lat="43.4198712" lon="13.5922551"><ele>124.0</ele><time>2026-04-11T16:54:01.727Z</time></trkpt><trkpt lat="43.4198735" lon="13.5923944"><ele>124.0</ele><time>2026-04-11T16:54:02.727Z</time></trkpt><trkpt lat="43.4198768" lon="13.5925342"><ele>124.0</ele><time>2026-04-11T16:54:03.727Z</time></trkpt><trkpt lat="43.4198838" lon="13.592669"><ele>124.0</ele><time>2026-04-11T16:54:04.726Z</time></trkpt><trkpt lat="43.4198856" lon="13.592806"><ele>122.6</ele><time>2026-04-11T16:54:05.726Z</time></trkpt><trkpt lat="43.4198878" lon="13.592943"><ele>121.2</ele><time>2026-04-11T16:54:06.726Z</time></trkpt><trkpt lat="43.4198846" lon="13.5930729"><ele>119.79999999999998</ele><time>2026-04-11T16:54:07.726Z</time></trkpt><trkpt lat="43.4198728" lon="13.5932221"><ele>118.39999999999999</ele><time>2026-04-11T16:54:08.727Z</time></trkpt><trkpt lat="43.4198709" lon="13.5933774"><ele>117.0</ele><time>2026-04-11T16:54:09.726Z</time></trkpt><trkpt lat="43.4198617" lon="13.5935435"><ele>115.5</ele><time>2026-04-11T16:54:10.727Z</time></trkpt><trkpt lat="43.4198533" lon="13.5937133"><ele>114.0</ele><time>2026-04-11T16:54:11.727Z</time></trkpt><trkpt lat="43.4198355" lon="13.5939039"><ele>112.5</ele><time>2026-04-11T16:54:12.727Z</time></trkpt><trkpt lat="43.4198183" lon="13.5940952"><ele>111.0</ele><time>2026-04-11T16:54:13.727Z</time></trkpt><trkpt lat="43.4198032" lon="13.5942853"><ele>111.0</ele><time>2026-04-11T16:54:14.727Z</time></trkpt><trkpt lat="43.4197802" lon="13.5944796"><ele>111.0</ele><time>2026-04-11T16:54:15.727Z</time></trkpt><trkpt lat="43.4197592" lon="13.5946717"><ele>111.0</ele><time>2026-04-11T16:54:16.726Z</time></trkpt><trkpt lat="43.419722" lon="13.5948625"><ele>111.0</ele><time>2026-04-11T16:54:17.726Z</time></trkpt><trkpt lat="43.4196914" lon="13.5950577"><ele>109.5</ele><time>2026-04-11T16:54:18.727Z</time></trkpt><trkpt lat="43.419656" lon="13.5952475"><ele>108.0</ele><time>2026-04-11T16:54:19.726Z</time></trkpt><trkpt lat="43.4196183" lon="13.5954385"><ele>106.5</ele><time>2026-04-11T16:54:20.726Z</time></trkpt><trkpt lat="43.419585" lon="13.5956304"><ele>105.0</ele><time>2026-04-11T16:54:21.726Z</time></trkpt><trkpt lat="43.4195474" lon="13.5958035"><ele>103.25</ele><time>2026-04-11T16:54:22.727Z</time></trkpt><trkpt lat="43.4195138" lon="13.5959789"><ele>101.5</ele><time>2026-04-11T16:54:23.727Z</time></trkpt><trkpt lat="43.4194798" lon="13.596148"><ele>99.75</ele><time>2026-04-11T16:54:24.727Z</time></trkpt><trkpt lat="43.4194479" lon="13.596324"><ele>98.0</ele><time>2026-04-11T16:54:25.727Z</time></trkpt><trkpt lat="43.4194156" lon="13.5965008"><ele>97.5</ele><time>2026-04-11T16:54:26.727Z</time></trkpt><trkpt lat="43.4193867" lon="13.5966732"><ele>97.0</ele><time>2026-04-11T16:54:27.727Z</time></trkpt><trkpt lat="43.4193555" lon="13.5968511"><ele>96.5</ele><time>2026-04-11T16:54:28.726Z</time></trkpt><trkpt lat="43.4193285" lon="13.5970313"><ele>96.0</ele><time>2026-04-11T16:54:29.726Z</time></trkpt><trkpt lat="43.4193043" lon="13.597215"><ele>96.0</ele><time>2026-04-11T16:54:30.726Z</time></trkpt><trkpt lat="43.4192797" lon="13.5973999"><ele>96.0</ele><time>2026-04-11T16:54:31.727Z</time></trkpt><trkpt lat="43.419258" lon="13.5975864"><ele>96.0</ele><time>2026-04-11T16:54:32.727Z</time></trkpt><trkpt lat="43.4192319" lon="13.597777"><ele>96.0</ele><time>2026-04-11T16:54:33.726Z</time></trkpt><trkpt lat="43.4192094" lon="13.5979664"><ele>96.0</ele><time>2026-04-11T16:54:34.727Z</time></trkpt><trkpt lat="43.4191928" lon="13.598168"><ele>96.0</ele><time>2026-04-11T16:54:35.727Z</time></trkpt><trkpt lat="43.4191693" lon="13.5983538"><ele>96.0</ele><time>2026-04-11T16:54:36.727Z</time></trkpt><trkpt lat="43.4191449" lon="13.5985448"><ele>96.0</ele><time>2026-04-11T16:54:37.726Z</time></trkpt><trkpt lat="43.4191233" lon="13.5987307"><ele>96.0</ele><time>2026-04-11T16:54:38.727Z</time></trkpt><trkpt lat="43.4190967" lon="13.5989115"><ele>96.0</ele><time>2026-04-11T16:54:39.727Z</time></trkpt><trkpt lat="43.4190669" lon="13.5990945"><ele>96.0</ele><time>2026-04-11T16:54:40.726Z</time></trkpt><trkpt lat="43.4190336" lon="13.5992693"><ele>96.0</ele><time>2026-04-11T16:54:41.726Z</time></trkpt><trkpt lat="43.4190051" lon="13.5994486"><ele>94.75</ele><time>2026-04-11T16:54:42.726Z</time></trkpt><trkpt lat="43.4189742" lon="13.5996229"><ele>93.5</ele><time>2026-04-11T16:54:43.727Z</time></trkpt><trkpt lat="43.4189494" lon="13.5998004"><ele>92.25</ele><time>2026-04-11T16:54:44.727Z</time></trkpt><trkpt lat="43.4189189" lon="13.5999736"><ele>91.0</ele><time>2026-04-11T16:54:45.727Z</time></trkpt><trkpt lat="43.4188882" lon="13.6001555"><ele>90.5</ele><time>2026-04-11T16:54:46.727Z</time></trkpt><trkpt lat="43.4188534" lon="13.6003405"><ele>90.0</ele><time>2026-04-11T16:54:47.727Z</time></trkpt><trkpt lat="43.4188249" lon="13.6005203"><ele>89.5</ele><time>2026-04-11T16:54:48.726Z</time></trkpt><trkpt lat="43.4187915" lon="13.6007105"><ele>89.0</ele><time>2026-04-11T16:54:49.727Z</time></trkpt><trkpt lat="43.4187457" lon="13.6008831"><ele>89.0</ele><time>2026-04-11T16:54:50.727Z</time></trkpt><trkpt lat="43.4187073" lon="13.6010648"><ele>89.0</ele><time>2026-04-11T16:54:51.726Z</time></trkpt><trkpt lat="43.4186667" lon="13.6012296"><ele>89.0</ele><time>2026-04-11T16:54:52.727Z</time></trkpt><trkpt lat="43.4186265" lon="13.601407"><ele>89.0</ele><time>2026-04-11T16:54:53.726Z</time></trkpt><trkpt lat="43.4185831" lon="13.6015793"><ele>88.0</ele><time>2026-04-11T16:54:54.726Z</time></trkpt><trkpt lat="43.4185405" lon="13.601749"><ele>87.0</ele><time>2026-04-11T16:54:55.727Z</time></trkpt><trkpt lat="43.4185068" lon="13.6019179"><ele>86.0</ele><time>2026-04-11T16:54:56.727Z</time></trkpt><trkpt lat="43.4184661" lon="13.6020818"><ele>85.0</ele><time>2026-04-11T16:54:57.727Z</time></trkpt><trkpt lat="43.4184341" lon="13.6022513"><ele>83.75</ele><time>2026-04-11T16:54:58.727Z</time></trkpt><trkpt lat="43.4184009" lon="13.6023915"><ele>82.5</ele><time>2026-04-11T16:54:59.726Z</time></trkpt><trkpt lat="43.4183791" lon="13.6025489"><ele>81.25</ele><time>2026-04-11T16:55:00.727Z</time></trkpt><trkpt lat="43.4183461" lon="13.6027022"><ele>80.0</ele><time>2026-04-11T16:55:01.726Z</time></trkpt><trkpt lat="43.4183028" lon="13.602856"><ele>79.16666666666667</ele><time>2026-04-11T16:55:02.727Z</time></trkpt><trkpt lat="43.4182648" lon="13.6029928"><ele>78.33333333333334</ele><time>2026-04-11T16:55:03.726Z</time></trkpt><trkpt lat="43.4182287" lon="13.6031207"><ele>77.5</ele><time>2026-04-11T16:55:04.726Z</time></trkpt><trkpt lat="43.4181981" lon="13.6032402"><ele>76.66666666666667</ele><time>2026-04-11T16:55:05.726Z</time></trkpt><trkpt lat="43.4181663" lon="13.603326"><ele>75.83333333333333</ele><time>2026-04-11T16:55:06.727Z</time></trkpt><trkpt lat="43.4181292" lon="13.6034014"><ele>75.0</ele><time>2026-04-11T16:55:08.727Z</time></trkpt><trkpt lat="43.4180667" lon="13.6034351"><ele>75.0</ele><time>2026-04-11T16:55:20.727Z</time></trkpt><trkpt lat="43.4180294" lon="13.6035813"><ele>75.0</ele><time>2026-04-11T16:55:22.727Z</time></trkpt><trkpt lat="43.4180338" lon="13.6036911"><ele>75.0</ele><time>2026-04-11T16:55:23.727Z</time></trkpt><trkpt lat="43.4180323" lon="13.6038069"><ele>75.0</ele><time>2026-04-11T16:55:24.727Z</time></trkpt><trkpt lat="43.4180412" lon="13.6039705"><ele>75.0</ele><time>2026-04-11T16:55:25.727Z</time></trkpt><trkpt lat="43.4180411" lon="13.604135"><ele>73.5</ele><time>2026-04-11T16:55:26.727Z</time></trkpt><trkpt lat="43.4180442" lon="13.6043139"><ele>72.0</ele><time>2026-04-11T16:55:27.727Z</time></trkpt><trkpt lat="43.4180404" lon="13.6045078"><ele>70.5</ele><time>2026-04-11T16:55:28.726Z</time></trkpt><trkpt lat="43.4180379" lon="13.6047182"><ele>69.0</ele><time>2026-04-11T16:55:29.726Z</time></trkpt><trkpt lat="43.418034" lon="13.6049391"><ele>67.33333333333333</ele><time>2026-04-11T16:55:30.727Z</time></trkpt><trkpt lat="43.4180335" lon="13.6051613"><ele>65.66666666666666</ele><time>2026-04-11T16:55:31.727Z</time></trkpt><trkpt lat="43.4180319" lon="13.6053863"><ele>64.0</ele><time>2026-04-11T16:55:32.726Z</time></trkpt><trkpt lat="43.4180267" lon="13.6056034"><ele>64.0</ele><time>2026-04-11T16:55:33.727Z</time></trkpt><trkpt lat="43.4180253" lon="13.6058214"><ele>64.0</ele><time>2026-04-11T16:55:34.727Z</time></trkpt><trkpt lat="43.418022" lon="13.6060457"><ele>64.0</ele><time>2026-04-11T16:55:35.727Z</time></trkpt><trkpt lat="43.4180218" lon="13.6062674"><ele>64.0</ele><time>2026-04-11T16:55:36.726Z</time></trkpt><trkpt lat="43.418028" lon="13.6064862"><ele>64.0</ele><time>2026-04-11T16:55:37.726Z</time></trkpt><trkpt lat="43.4180448" lon="13.6067062"><ele>64.0</ele><time>2026-04-11T16:55:38.727Z</time></trkpt><trkpt lat="43.4180589" lon="13.60693"><ele>63.0</ele><time>2026-04-11T16:55:39.726Z</time></trkpt><trkpt lat="43.4180877" lon="13.6071451"><ele>62.0</ele><time>2026-04-11T16:55:40.726Z</time></trkpt><trkpt lat="43.418125" lon="13.6073674"><ele>61.0</ele><time>2026-04-11T16:55:41.727Z</time></trkpt><trkpt lat="43.418159" lon="13.6075966"><ele>61.0</ele><time>2026-04-11T16:55:42.727Z</time></trkpt><trkpt lat="43.4181913" lon="13.6078227"><ele>61.0</ele><time>2026-04-11T16:55:43.727Z</time></trkpt><trkpt lat="43.418217" lon="13.6080512"><ele>61.0</ele><time>2026-04-11T16:55:44.727Z</time></trkpt><trkpt lat="43.4182221" lon="13.6082685"><ele>61.0</ele><time>2026-04-11T16:55:45.727Z</time></trkpt><trkpt lat="43.4182247" lon="13.6084907"><ele>61.0</ele><time>2026-04-11T16:55:46.727Z</time></trkpt><trkpt lat="43.4182221" lon="13.6087152"><ele>61.0</ele><time>2026-04-11T16:55:47.727Z</time></trkpt><trkpt lat="43.4182252" lon="13.6089445"><ele>60.33333333333333</ele><time>2026-04-11T16:55:48.726Z</time></trkpt><trkpt lat="43.4182262" lon="13.6091736"><ele>59.66666666666667</ele><time>2026-04-11T16:55:49.727Z</time></trkpt><trkpt lat="43.418232" lon="13.6093983"><ele>59.0</ele><time>2026-04-11T16:55:50.726Z</time></trkpt><trkpt lat="43.4182347" lon="13.609617"><ele>58.75</ele><time>2026-04-11T16:55:51.727Z</time></trkpt><trkpt lat="43.4182386" lon="13.6098317"><ele>58.5</ele><time>2026-04-11T16:55:52.727Z</time></trkpt><trkpt lat="43.4182371" lon="13.6100257"><ele>58.25</ele><time>2026-04-11T16:55:53.726Z</time></trkpt><trkpt lat="43.4182412" lon="13.6102115"><ele>58.0</ele><time>2026-04-11T16:55:54.726Z</time></trkpt><trkpt lat="43.418244" lon="13.6103859"><ele>57.8</ele><time>2026-04-11T16:55:55.726Z</time></trkpt><trkpt lat="43.4182466" lon="13.6105393"><ele>57.599999999999994</ele><time>2026-04-11T16:55:56.726Z</time></trkpt><trkpt lat="43.418245" lon="13.6106594"><ele>57.400000000000006</ele><time>2026-04-11T16:55:57.727Z</time></trkpt><trkpt lat="43.4182571" lon="13.6107724"><ele>57.2</ele><time>2026-04-11T16:55:58.727Z</time></trkpt><trkpt lat="43.4182837" lon="13.6108707"><ele>57.0</ele><time>2026-04-11T16:55:59.727Z</time></trkpt><trkpt lat="43.4183939" lon="13.6109586"><ele>57.0</ele><time>2026-04-11T16:56:01.727Z</time></trkpt><trkpt lat="43.4184851" lon="13.6109516"><ele>57.0</ele><time>2026-04-11T16:56:02.726Z</time></trkpt><trkpt lat="43.4185959" lon="13.610926"><ele>57.0</ele><time>2026-04-11T16:56:03.727Z</time></trkpt><trkpt lat="43.4187238" lon="13.6108995"><ele>57.0</ele><time>2026-04-11T16:56:04.726Z</time></trkpt><trkpt lat="43.4188699" lon="13.6108768"><ele>53.666666666666664</ele><time>2026-04-11T16:56:05.727Z</time></trkpt><trkpt lat="43.4190287" lon="13.6108494"><ele>50.33333333333333</ele><time>2026-04-11T16:56:06.726Z</time></trkpt><trkpt lat="43.419194" lon="13.610824"><ele>47.0</ele><time>2026-04-11T16:56:07.727Z</time></trkpt><trkpt lat="43.4193791" lon="13.6107937"><ele>47.0</ele><time>2026-04-11T16:56:08.726Z</time></trkpt><trkpt lat="43.4195688" lon="13.6107624"><ele>47.0</ele><time>2026-04-11T16:56:09.726Z</time></trkpt><trkpt lat="43.4197612" lon="13.6107189"><ele>47.0</ele><time>2026-04-11T16:56:10.726Z</time></trkpt><trkpt lat="43.4199617" lon="13.6106753"><ele>45.33333333333333</ele><time>2026-04-11T16:56:11.727Z</time></trkpt><trkpt lat="43.4201649" lon="13.6106418"><ele>43.666666666666664</ele><time>2026-04-11T16:56:12.727Z</time></trkpt><trkpt lat="43.4203716" lon="13.6106239"><ele>42.0</ele><time>2026-04-11T16:56:13.727Z</time></trkpt><trkpt lat="43.4205817" lon="13.6106392"><ele>42.0</ele><time>2026-04-11T16:56:14.726Z</time></trkpt><trkpt lat="43.4207987" lon="13.6106706"><ele>42.0</ele><time>2026-04-11T16:56:15.726Z</time></trkpt><trkpt lat="43.421019" lon="13.6107125"><ele>42.0</ele><time>2026-04-11T16:56:16.727Z</time></trkpt><trkpt lat="43.4212322" lon="13.6107487"><ele>44.0</ele><time>2026-04-11T16:56:17.726Z</time></trkpt><trkpt lat="43.4214489" lon="13.6107848"><ele>46.0</ele><time>2026-04-11T16:56:18.726Z</time></trkpt><trkpt lat="43.4216655" lon="13.6108237"><ele>48.0</ele><time>2026-04-11T16:56:19.726Z</time></trkpt><trkpt lat="43.4218743" lon="13.610868"><ele>48.0</ele><time>2026-04-11T16:56:20.727Z</time></trkpt><trkpt lat="43.4220792" lon="13.6109099"><ele>48.0</ele><time>2026-04-11T16:56:21.727Z</time></trkpt><trkpt lat="43.4222805" lon="13.61095"><ele>48.0</ele><time>2026-04-11T16:56:22.727Z</time></trkpt><trkpt lat="43.4224832" lon="13.6109938"><ele>51.33333333333333</ele><time>2026-04-11T16:56:23.726Z</time></trkpt><trkpt lat="43.4226938" lon="13.6110311"><ele>54.666666666666664</ele><time>2026-04-11T16:56:24.727Z</time></trkpt><trkpt lat="43.4229076" lon="13.6110633"><ele>58.0</ele><time>2026-04-11T16:56:25.727Z</time></trkpt><trkpt lat="43.4231178" lon="13.6111056"><ele>63.0</ele><time>2026-04-11T16:56:26.727Z</time></trkpt><trkpt lat="43.4233281" lon="13.6111438"><ele>68.0</ele><time>2026-04-11T16:56:27.726Z</time></trkpt><trkpt lat="43.4235179" lon="13.611169"><ele>73.0</ele><time>2026-04-11T16:56:28.727Z</time></trkpt><trkpt lat="43.4237015" lon="13.6112135"><ele>77.5</ele><time>2026-04-11T16:56:29.726Z</time></trkpt><trkpt lat="43.4238501" lon="13.6112506"><ele>82.0</ele><time>2026-04-11T16:56:30.726Z</time></trkpt><trkpt lat="43.4239937" lon="13.6112902"><ele>86.5</ele><time>2026-04-11T16:56:31.726Z</time></trkpt><trkpt lat="43.4241317" lon="13.6113022"><ele>91.0</ele><time>2026-04-11T16:56:32.726Z</time></trkpt><trkpt lat="43.4242516" lon="13.6113457"><ele>91.0</ele><time>2026-04-11T16:56:33.727Z</time></trkpt><trkpt lat="43.4243556" lon="13.6113798"><ele>91.0</ele><time>2026-04-11T16:56:34.726Z</time></trkpt><trkpt lat="43.4244613" lon="13.6114157"><ele>91.0</ele><time>2026-04-11T16:56:35.726Z</time></trkpt><trkpt lat="43.424569" lon="13.6114354"><ele>91.0</ele><time>2026-04-11T16:56:36.726Z</time></trkpt><trkpt lat="43.4246873" lon="13.6114094"><ele>91.0</ele><time>2026-04-11T16:56:37.727Z</time></trkpt><trkpt lat="43.4248023" lon="13.6113877"><ele>92.25</ele><time>2026-04-11T16:56:38.727Z</time></trkpt><trkpt lat="43.4249228" lon="13.6113627"><ele>93.5</ele><time>2026-04-11T16:56:39.726Z</time></trkpt><trkpt lat="43.4250489" lon="13.6113401"><ele>94.75</ele><time>2026-04-11T16:56:40.727Z</time></trkpt><trkpt lat="43.4251844" lon="13.6113132"><ele>96.0</ele><time>2026-04-11T16:56:41.727Z</time></trkpt><trkpt lat="43.4253231" lon="13.6112943"><ele>96.0</ele><time>2026-04-11T16:56:42.727Z</time></trkpt><trkpt lat="43.425461" lon="13.6112712"><ele>96.0</ele><time>2026-04-11T16:56:43.726Z</time></trkpt><trkpt lat="43.4256021" lon="13.6112673"><ele>96.0</ele><time>2026-04-11T16:56:44.727Z</time></trkpt><trkpt lat="43.4257457" lon="13.6112669"><ele>96.0</ele><time>2026-04-11T16:56:45.726Z</time></trkpt><trkpt lat="43.4258849" lon="13.6112627"><ele>95.75</ele><time>2026-04-11T16:56:46.727Z</time></trkpt><trkpt lat="43.4260225" lon="13.6112571"><ele>95.5</ele><time>2026-04-11T16:56:47.727Z</time></trkpt><trkpt lat="43.4261618" lon="13.6112545"><ele>95.25</ele><time>2026-04-11T16:56:48.727Z</time></trkpt><trkpt lat="43.4263026" lon="13.611254"><ele>95.0</ele><time>2026-04-11T16:56:49.726Z</time></trkpt><trkpt lat="43.4264491" lon="13.611252"><ele>94.66666666666667</ele><time>2026-04-11T16:56:50.726Z</time></trkpt><trkpt lat="43.4265994" lon="13.611239"><ele>94.33333333333333</ele><time>2026-04-11T16:56:51.727Z</time></trkpt><trkpt lat="43.4267587" lon="13.6112207"><ele>94.0</ele><time>2026-04-11T16:56:52.726Z</time></trkpt><trkpt lat="43.4269184" lon="13.6112033"><ele>94.0</ele><time>2026-04-11T16:56:53.727Z</time></trkpt><trkpt lat="43.4270805" lon="13.6111689"><ele>94.0</ele><time>2026-04-11T16:56:54.726Z</time></trkpt><trkpt lat="43.4272418" lon="13.6111548"><ele>94.0</ele><time>2026-04-11T16:56:55.727Z</time></trkpt><trkpt lat="43.4274106" lon="13.611161"><ele>93.66666666666666</ele><time>2026-04-11T16:56:56.726Z</time></trkpt><trkpt lat="43.4275844" lon="13.6111819"><ele>93.33333333333333</ele><time>2026-04-11T16:56:57.726Z</time></trkpt><trkpt lat="43.4277551" lon="13.6112089"><ele>93.0</ele><time>2026-04-11T16:56:58.726Z</time></trkpt><trkpt lat="43.4279294" lon="13.6112388"><ele>97.0</ele><time>2026-04-11T16:56:59.727Z</time></trkpt><trkpt lat="43.4280955" lon="13.6112616"><ele>101.0</ele><time>2026-04-11T16:57:00.726Z</time></trkpt><trkpt lat="43.4282516" lon="13.6112964"><ele>105.0</ele><time>2026-04-11T16:57:01.727Z</time></trkpt><trkpt lat="43.4283944" lon="13.6113679"><ele>105.0</ele><time>2026-04-11T16:57:02.727Z</time></trkpt><trkpt lat="43.4285355" lon="13.6114762"><ele>105.0</ele><time>2026-04-11T16:57:03.726Z</time></trkpt><trkpt lat="43.4286676" lon="13.611632"><ele>105.0</ele><time>2026-04-11T16:57:04.727Z</time></trkpt><trkpt lat="43.4287991" lon="13.611806"><ele>109.0</ele><time>2026-04-11T16:57:05.726Z</time></trkpt><trkpt lat="43.4289314" lon="13.6119766"><ele>113.0</ele><time>2026-04-11T16:57:06.727Z</time></trkpt><trkpt lat="43.4290502" lon="13.6121314"><ele>117.0</ele><time>2026-04-11T16:57:07.727Z</time></trkpt><trkpt lat="43.4291616" lon="13.6122708"><ele>117.0</ele><time>2026-04-11T16:57:08.726Z</time></trkpt><trkpt lat="43.4292693" lon="13.6123801"><ele>117.0</ele><time>2026-04-11T16:57:09.726Z</time></trkpt><trkpt lat="43.4293754" lon="13.6124528"><ele>117.0</ele><time>2026-04-11T16:57:10.727Z</time></trkpt><trkpt lat="43.4294822" lon="13.612504"><ele>117.0</ele><time>2026-04-11T16:57:11.726Z</time></trkpt><trkpt lat="43.4295839" lon="13.6125311"><ele>117.5</ele><time>2026-04-11T16:57:12.726Z</time></trkpt><trkpt lat="43.4297006" lon="13.6125208"><ele>118.0</ele><time>2026-04-11T16:57:13.727Z</time></trkpt><trkpt lat="43.4298124" lon="13.6124729"><ele>118.5</ele><time>2026-04-11T16:57:14.726Z</time></trkpt><trkpt lat="43.4299195" lon="13.6123893"><ele>119.0</ele><time>2026-04-11T16:57:15.727Z</time></trkpt><trkpt lat="43.4300145" lon="13.6122683"><ele>119.0</ele><time>2026-04-11T16:57:16.726Z</time></trkpt><trkpt lat="43.430104" lon="13.6121127"><ele>119.0</ele><time>2026-04-11T16:57:17.727Z</time></trkpt><trkpt lat="43.4301961" lon="13.6119447"><ele>119.0</ele><time>2026-04-11T16:57:18.726Z</time></trkpt><trkpt lat="43.4302855" lon="13.6117735"><ele>120.66666666666666</ele><time>2026-04-11T16:57:19.727Z</time></trkpt><trkpt lat="43.4303815" lon="13.6115948"><ele>122.33333333333334</ele><time>2026-04-11T16:57:20.727Z</time></trkpt><trkpt lat="43.4304752" lon="13.6114056"><ele>124.0</ele><time>2026-04-11T16:57:21.727Z</time></trkpt><trkpt lat="43.430571" lon="13.611221"><ele>121.66666666666667</ele><time>2026-04-11T16:57:22.726Z</time></trkpt><trkpt lat="43.4306682" lon="13.6110374"><ele>119.33333333333334</ele><time>2026-04-11T16:57:23.727Z</time></trkpt><trkpt lat="43.4307714" lon="13.6108531"><ele>117.0</ele><time>2026-04-11T16:57:24.726Z</time></trkpt><trkpt lat="43.4308778" lon="13.6106649"><ele>117.0</ele><time>2026-04-11T16:57:25.727Z</time></trkpt><trkpt lat="43.4309778" lon="13.6104735"><ele>117.0</ele><time>2026-04-11T16:57:26.726Z</time></trkpt><trkpt lat="43.431079" lon="13.6102816"><ele>117.0</ele><time>2026-04-11T16:57:27.727Z</time></trkpt><trkpt lat="43.4311751" lon="13.6100924"><ele>114.33333333333334</ele><time>2026-04-11T16:57:28.726Z</time></trkpt><trkpt lat="43.4312721" lon="13.6099006"><ele>111.66666666666667</ele><time>2026-04-11T16:57:29.726Z</time></trkpt><trkpt lat="43.4313659" lon="13.6097053"><ele>109.0</ele><time>2026-04-11T16:57:30.727Z</time></trkpt><trkpt lat="43.4314529" lon="13.6095116"><ele>110.33333333333334</ele><time>2026-04-11T16:57:31.727Z</time></trkpt><trkpt lat="43.4315361" lon="13.6093161"><ele>111.66666666666666</ele><time>2026-04-11T16:57:32.727Z</time></trkpt><trkpt lat="43.4316156" lon="13.6091303"><ele>113.0</ele><time>2026-04-11T16:57:33.726Z</time></trkpt><trkpt lat="43.4316915" lon="13.6089374"><ele>113.0</ele><time>2026-04-11T16:57:34.726Z</time></trkpt><trkpt lat="43.431777" lon="13.6087622"><ele>113.0</ele><time>2026-04-11T16:57:35.727Z</time></trkpt><trkpt lat="43.4318578" lon="13.6085796"><ele>113.0</ele><time>2026-04-11T16:57:36.726Z</time></trkpt><trkpt lat="43.4319254" lon="13.6083979"><ele>114.0</ele><time>2026-04-11T16:57:37.727Z</time></trkpt><trkpt lat="43.4320017" lon="13.6082197"><ele>115.0</ele><time>2026-04-11T16:57:38.727Z</time></trkpt><trkpt lat="43.4320632" lon="13.6080416"><ele>116.0</ele><time>2026-04-11T16:57:39.727Z</time></trkpt><trkpt lat="43.4321272" lon="13.6078627"><ele>117.0</ele><time>2026-04-11T16:57:40.726Z</time></trkpt><trkpt lat="43.4321928" lon="13.6076761"><ele>112.66666666666666</ele><time>2026-04-11T16:57:41.726Z</time></trkpt><trkpt lat="43.4322534" lon="13.6074799"><ele>108.33333333333333</ele><time>2026-04-11T16:57:42.726Z</time></trkpt><trkpt lat="43.4323195" lon="13.6072804"><ele>104.0</ele><time>2026-04-11T16:57:43.726Z</time></trkpt><trkpt lat="43.432384" lon="13.6070781"><ele>105.33333333333333</ele><time>2026-04-11T16:57:44.726Z</time></trkpt><trkpt lat="43.4324483" lon="13.6068768"><ele>106.66666666666666</ele><time>2026-04-11T16:57:45.727Z</time></trkpt><trkpt lat="43.4325187" lon="13.6066779"><ele>108.0</ele><time>2026-04-11T16:57:46.727Z</time></trkpt><trkpt lat="43.4325801" lon="13.6064736"><ele>108.0</ele><time>2026-04-11T16:57:47.726Z</time></trkpt><trkpt lat="43.4326448" lon="13.6062831"><ele>108.0</ele><time>2026-04-11T16:57:48.726Z</time></trkpt><trkpt lat="43.4327087" lon="13.6060884"><ele>108.0</ele><time>2026-04-11T16:57:49.726Z</time></trkpt><trkpt lat="43.4327938" lon="13.6059101"><ele>108.33333333333334</ele><time>2026-04-11T16:57:50.727Z</time></trkpt><trkpt lat="43.4328909" lon="13.6057389"><ele>108.66666666666667</ele><time>2026-04-11T16:57:51.727Z</time></trkpt><trkpt lat="43.4330011" lon="13.6055868"><ele>109.0</ele><time>2026-04-11T16:57:52.727Z</time></trkpt><trkpt lat="43.4331326" lon="13.6054544"><ele>109.0</ele><time>2026-04-11T16:57:53.726Z</time></trkpt><trkpt lat="43.4332612" lon="13.6053356"><ele>109.0</ele><time>2026-04-11T16:57:54.727Z</time></trkpt><trkpt lat="43.433405" lon="13.6052112"><ele>109.0</ele><time>2026-04-11T16:57:55.726Z</time></trkpt><trkpt lat="43.4335445" lon="13.605093"><ele>110.25</ele><time>2026-04-11T16:57:56.727Z</time></trkpt><trkpt lat="43.4336707" lon="13.6049722"><ele>111.5</ele><time>2026-04-11T16:57:57.726Z</time></trkpt><trkpt lat="43.4337882" lon="13.6048556"><ele>112.75</ele><time>2026-04-11T16:57:58.726Z</time></trkpt><trkpt lat="43.4339038" lon="13.6047447"><ele>114.0</ele><time>2026-04-11T16:57:59.727Z</time></trkpt><trkpt lat="43.4340155" lon="13.6046456"><ele>115.6</ele><time>2026-04-11T16:58:00.726Z</time></trkpt><trkpt lat="43.4341079" lon="13.6045555"><ele>117.2</ele><time>2026-04-11T16:58:01.727Z</time></trkpt><trkpt lat="43.4342014" lon="13.6044766"><ele>118.79999999999998</ele><time>2026-04-11T16:58:02.726Z</time></trkpt><trkpt lat="43.4342907" lon="13.6044468"><ele>120.39999999999999</ele><time>2026-04-11T16:58:03.726Z</time></trkpt><trkpt lat="43.4343593" lon="13.6044199"><ele>122.0</ele><time>2026-04-11T16:58:04.727Z</time></trkpt><trkpt lat="43.4344433" lon="13.6044908"><ele>122.0</ele><time>2026-04-11T16:58:05.727Z</time></trkpt><trkpt lat="43.4345134" lon="13.604559"><ele>121.99999999999999</ele><time>2026-04-11T16:58:06.726Z</time></trkpt><trkpt lat="43.4345557" lon="13.6046935"><ele>121.99999999999999</ele><time>2026-04-11T16:58:07.727Z</time></trkpt><trkpt lat="43.4345974" lon="13.6048349"><ele>122.0</ele><time>2026-04-11T16:58:08.726Z</time></trkpt><trkpt lat="43.4346268" lon="13.6049617"><ele>122.0</ele><time>2026-04-11T16:58:09.726Z</time></trkpt><trkpt lat="43.4346639" lon="13.6051051"><ele>123.0</ele><time>2026-04-11T16:58:10.727Z</time></trkpt><trkpt lat="43.4347035" lon="13.605264"><ele>124.0</ele><time>2026-04-11T16:58:11.727Z</time></trkpt><trkpt lat="43.4347558" lon="13.6054136"><ele>125.0</ele><time>2026-04-11T16:58:12.727Z</time></trkpt><trkpt lat="43.4347983" lon="13.605563"><ele>126.0</ele><time>2026-04-11T16:58:13.727Z</time></trkpt><trkpt lat="43.4348443" lon="13.6057102"><ele>126.0</ele><time>2026-04-11T16:58:14.727Z</time></trkpt><trkpt lat="43.4348802" lon="13.6058598"><ele>126.0</ele><time>2026-04-11T16:58:15.727Z</time></trkpt><trkpt lat="43.4349205" lon="13.6060037"><ele>126.0</ele><time>2026-04-11T16:58:16.727Z</time></trkpt><trkpt lat="43.434952" lon="13.6061492"><ele>126.0</ele><time>2026-04-11T16:58:17.726Z</time></trkpt><trkpt lat="43.4349734" lon="13.6062962"><ele>126.0</ele><time>2026-04-11T16:58:18.727Z</time></trkpt><trkpt lat="43.4350191" lon="13.6064547"><ele>124.75</ele><time>2026-04-11T16:58:19.727Z</time></trkpt><trkpt lat="43.435043" lon="13.6066048"><ele>123.5</ele><time>2026-04-11T16:58:20.726Z</time></trkpt><trkpt lat="43.43507" lon="13.6067731"><ele>122.25</ele><time>2026-04-11T16:58:21.727Z</time></trkpt><trkpt lat="43.4350994" lon="13.6069472"><ele>121.0</ele><time>2026-04-11T16:58:22.727Z</time></trkpt><trkpt lat="43.4351291" lon="13.6071202"><ele>119.75</ele><time>2026-04-11T16:58:23.726Z</time></trkpt><trkpt lat="43.435164" lon="13.6073055"><ele>118.5</ele><time>2026-04-11T16:58:24.727Z</time></trkpt><trkpt lat="43.4351909" lon="13.6074853"><ele>117.25</ele><time>2026-04-11T16:58:25.727Z</time></trkpt><trkpt lat="43.4352243" lon="13.6076649"><ele>116.0</ele><time>2026-04-11T16:58:26.727Z</time></trkpt><trkpt lat="43.4352575" lon="13.6078307"><ele>114.75</ele><time>2026-04-11T16:58:27.726Z</time></trkpt><trkpt lat="43.4352892" lon="13.6080005"><ele>113.5</ele><time>2026-04-11T16:58:28.727Z</time></trkpt><trkpt lat="43.4353257" lon="13.6081707"><ele>112.25</ele><time>2026-04-11T16:58:29.726Z</time></trkpt><trkpt lat="43.4353619" lon="13.6083413"><ele>111.0</ele><time>2026-04-11T16:58:30.726Z</time></trkpt><trkpt lat="43.4353935" lon="13.6085091"><ele>109.75</ele><time>2026-04-11T16:58:31.726Z</time></trkpt><trkpt lat="43.4354265" lon="13.6086866"><ele>108.5</ele><time>2026-04-11T16:58:32.726Z</time></trkpt><trkpt lat="43.4354592" lon="13.6088552"><ele>107.25</ele><time>2026-04-11T16:58:33.727Z</time></trkpt><trkpt lat="43.4354953" lon="13.6090345"><ele>106.0</ele><time>2026-04-11T16:58:34.726Z</time></trkpt><trkpt lat="43.4355251" lon="13.6092137"><ele>108.25</ele><time>2026-04-11T16:58:35.726Z</time></trkpt><trkpt lat="43.4355576" lon="13.6093985"><ele>110.5</ele><time>2026-04-11T16:58:36.726Z</time></trkpt><trkpt lat="43.435597" lon="13.6095819"><ele>112.75</ele><time>2026-04-11T16:58:37.727Z</time></trkpt><trkpt lat="43.435629" lon="13.6097769"><ele>115.0</ele><time>2026-04-11T16:58:38.726Z</time></trkpt><trkpt lat="43.4356628" lon="13.6099608"><ele>115.0</ele><time>2026-04-11T16:58:39.727Z</time></trkpt><trkpt lat="43.4356895" lon="13.6101383"><ele>115.0</ele><time>2026-04-11T16:58:40.726Z</time></trkpt><trkpt lat="43.4357176" lon="13.6103122"><ele>115.0</ele><time>2026-04-11T16:58:41.727Z</time></trkpt><trkpt lat="43.4357519" lon="13.6104667"><ele>115.0</ele><time>2026-04-11T16:58:42.727Z</time></trkpt><trkpt lat="43.4358069" lon="13.6106177"><ele>113.6</ele><time>2026-04-11T16:58:43.727Z</time></trkpt><trkpt lat="43.4358754" lon="13.6107323"><ele>112.2</ele><time>2026-04-11T16:58:44.726Z</time></trkpt><trkpt lat="43.435948" lon="13.6108196"><ele>110.80000000000001</ele><time>2026-04-11T16:58:45.726Z</time></trkpt><trkpt lat="43.4360277" lon="13.6108878"><ele>109.4</ele><time>2026-04-11T16:58:46.727Z</time></trkpt><trkpt lat="43.4360991" lon="13.6109411"><ele>108.0</ele><time>2026-04-11T16:58:47.727Z</time></trkpt><trkpt lat="43.4361653" lon="13.6109946"><ele>108.0</ele><time>2026-04-11T16:58:48.726Z</time></trkpt><trkpt lat="43.4362446" lon="13.6110615"><ele>108.00000000000001</ele><time>2026-04-11T16:58:50.727Z</time></trkpt><trkpt lat="43.4362825" lon="13.6111464"><ele>108.00000000000001</ele><time>2026-04-11T16:58:52.727Z</time></trkpt><trkpt lat="43.4363046" lon="13.6113069"><ele>108.0</ele><time>2026-04-11T16:58:54.726Z</time></trkpt><trkpt lat="43.4363124" lon="13.611428"><ele>108.0</ele><time>2026-04-11T16:58:55.726Z</time></trkpt><trkpt lat="43.4363133" lon="13.6115722"><ele>106.80000000000001</ele><time>2026-04-11T16:58:56.726Z</time></trkpt><trkpt lat="43.4363256" lon="13.6117094"><ele>105.60000000000001</ele><time>2026-04-11T16:58:57.726Z</time></trkpt><trkpt lat="43.4363364" lon="13.6118641"><ele>104.4</ele><time>2026-04-11T16:58:58.726Z</time></trkpt><trkpt lat="43.4363447" lon="13.6120199"><ele>103.19999999999999</ele><time>2026-04-11T16:58:59.726Z</time></trkpt><trkpt lat="43.4363605" lon="13.6121757"><ele>102.0</ele><time>2026-04-11T16:59:00.726Z</time></trkpt><trkpt lat="43.4363645" lon="13.6123356"><ele>100.25</ele><time>2026-04-11T16:59:01.726Z</time></trkpt><trkpt lat="43.4363658" lon="13.6125062"><ele>98.5</ele><time>2026-04-11T16:59:02.727Z</time></trkpt><trkpt lat="43.4363725" lon="13.6126585"><ele>96.75</ele><time>2026-04-11T16:59:03.726Z</time></trkpt><trkpt lat="43.4363823" lon="13.6128115"><ele>95.0</ele><time>2026-04-11T16:59:04.727Z</time></trkpt><trkpt lat="43.4363902" lon="13.6129587"><ele>93.6</ele><time>2026-04-11T16:59:05.726Z</time></trkpt><trkpt lat="43.4363852" lon="13.6131043"><ele>92.2</ele><time>2026-04-11T16:59:06.726Z</time></trkpt><trkpt lat="43.4363845" lon="13.6132526"><ele>90.80000000000001</ele><time>2026-04-11T16:59:07.727Z</time></trkpt><trkpt lat="43.436392" lon="13.6133941"><ele>89.4</ele><time>2026-04-11T16:59:08.726Z</time></trkpt><trkpt lat="43.4363963" lon="13.613544"><ele>88.0</ele><time>2026-04-11T16:59:09.727Z</time></trkpt><trkpt lat="43.4363956" lon="13.613692"><ele>87.0</ele><time>2026-04-11T16:59:10.726Z</time></trkpt><trkpt lat="43.4364002" lon="13.6138426"><ele>86.0</ele><time>2026-04-11T16:59:11.727Z</time></trkpt><trkpt lat="43.4364104" lon="13.6139907"><ele>85.0</ele><time>2026-04-11T16:59:12.727Z</time></trkpt><trkpt lat="43.4364158" lon="13.6141326"><ele>84.0</ele><time>2026-04-11T16:59:13.727Z</time></trkpt><trkpt lat="43.4364155" lon="13.6142743"><ele>83.0</ele><time>2026-04-11T16:59:14.726Z</time></trkpt><trkpt lat="43.436418" lon="13.6143809"><ele>83.0</ele><time>2026-04-11T16:59:15.727Z</time></trkpt><trkpt lat="43.4364198" lon="13.6144715"><ele>83.0</ele><time>2026-04-11T16:59:16.726Z</time></trkpt><trkpt lat="43.4364167" lon="13.6145943"><ele>83.0</ele><time>2026-04-11T16:59:18.727Z</time></trkpt><trkpt lat="43.4365112" lon="13.6146012"><ele>83.0</ele><time>2026-04-11T16:59:20.726Z</time></trkpt><trkpt lat="43.4365592" lon="13.6145447"><ele>83.0</ele><time>2026-04-11T16:59:21.726Z</time></trkpt><trkpt lat="43.4366147" lon="13.6144577"><ele>83.0</ele><time>2026-04-11T16:59:22.726Z</time></trkpt><trkpt lat="43.436668" lon="13.6143582"><ele>83.0</ele><time>2026-04-11T16:59:23.726Z</time></trkpt><trkpt lat="43.4367229" lon="13.6142485"><ele>83.0</ele><time>2026-04-11T16:59:24.726Z</time></trkpt><trkpt lat="43.436791" lon="13.6141368"><ele>83.0</ele><time>2026-04-11T16:59:25.726Z</time></trkpt><trkpt lat="43.4368619" lon="13.6140037"><ele>83.0</ele><time>2026-04-11T16:59:26.726Z</time></trkpt><trkpt lat="43.4369356" lon="13.6138742"><ele>83.0</ele><time>2026-04-11T16:59:27.726Z</time></trkpt><trkpt lat="43.4370074" lon="13.6137462"><ele>84.0</ele><time>2026-04-11T16:59:28.726Z</time></trkpt><trkpt lat="43.4370786" lon="13.6136167"><ele>85.0</ele><time>2026-04-11T16:59:29.727Z</time></trkpt><trkpt lat="43.4371638" lon="13.6135206"><ele>86.0</ele><time>2026-04-11T16:59:30.727Z</time></trkpt><trkpt lat="43.4372463" lon="13.6134376"><ele>87.0</ele><time>2026-04-11T16:59:31.727Z</time></trkpt><trkpt lat="43.4373284" lon="13.6133817"><ele>88.0</ele><time>2026-04-11T16:59:32.727Z</time></trkpt><trkpt lat="43.4374051" lon="13.6133519"><ele>85.80000000000001</ele><time>2026-04-11T16:59:33.727Z</time></trkpt><trkpt lat="43.4374698" lon="13.613362"><ele>83.60000000000001</ele><time>2026-04-11T16:59:34.726Z</time></trkpt><trkpt lat="43.4375621" lon="13.6134828"><ele>81.4</ele><time>2026-04-11T16:59:36.727Z</time></trkpt><trkpt lat="43.4375598" lon="13.6135953"><ele>79.2</ele><time>2026-04-11T16:59:37.727Z</time></trkpt><trkpt lat="43.4375514" lon="13.6137142"><ele>77.0</ele><time>2026-04-11T16:59:38.726Z</time></trkpt><trkpt lat="43.4375312" lon="13.6138474"><ele>76.0</ele><time>2026-04-11T16:59:39.726Z</time></trkpt><trkpt lat="43.437523" lon="13.613999"><ele>75.0</ele><time>2026-04-11T16:59:40.726Z</time></trkpt><trkpt lat="43.4375115" lon="13.6141561"><ele>74.0</ele><time>2026-04-11T16:59:41.727Z</time></trkpt><trkpt lat="43.4375046" lon="13.6143168"><ele>73.0</ele><time>2026-04-11T16:59:42.726Z</time></trkpt><trkpt lat="43.4374961" lon="13.6144857"><ele>72.4</ele><time>2026-04-11T16:59:43.726Z</time></trkpt><trkpt lat="43.4374887" lon="13.6146524"><ele>71.8</ele><time>2026-04-11T16:59:44.727Z</time></trkpt><trkpt lat="43.4374732" lon="13.6147943"><ele>71.2</ele><time>2026-04-11T16:59:45.727Z</time></trkpt><trkpt lat="43.4374691" lon="13.6149077"><ele>70.6</ele><time>2026-04-11T16:59:46.727Z</time></trkpt><trkpt lat="43.4374545" lon="13.615012"><ele>70.0</ele><time>2026-04-11T16:59:47.727Z</time></trkpt><trkpt lat="43.4374237" lon="13.6150916"><ele>70.0</ele><time>2026-04-11T16:59:48.726Z</time></trkpt><trkpt lat="43.4373711" lon="13.6151851"><ele>70.0</ele><time>2026-04-11T16:59:50.727Z</time></trkpt><trkpt lat="43.4373173" lon="13.6151086"><ele>70.0</ele><time>2026-04-11T17:01:34.727Z</time></trkpt><trkpt lat="43.4372522" lon="13.6151009"><ele>70.0</ele><time>2026-04-11T17:01:41.727Z</time></trkpt></trkseg></trk></gpx>